GFSGL_sfc_wetblb_000.txt.gz
Wetbulb
39.18 39.17 38.04 37.22 37.65 36.91 36.59 36.85 37.28 38.34 39.59 40.36 40.33 39.64 39.47 39.10 38.55 37.01 35.81 35.70 35.02 34.88 34.57 34.64 34.67 35.56 35.44 35.61 36.15 36.37 35.52 35.14 32.42 34.86 37.39 38.79 39.13 39.79 41.39 42.28 43.35 43.81 44.66
39.09 38.36 37.49 36.43 35.44 35.04 35.59 36.26 36.93 37.20 38.40 37.99 37.77 37.62 37.61 37.09 36.64 35.41 34.31 34.12 32.56 31.86 32.33 32.36 33.08 35.15 33.37 33.21 33.43 33.32 33.69 33.75 32.88 31.02 33.54 34.93 35.66 37.88 38.56 38.43 40.23 42.99 43.45
38.76 36.49 34.94 34.40 33.79 34.41 34.64 35.30 36.33 36.88 36.61 36.57 36.40 36.00 36.57 36.29 35.07 34.16 33.13 32.54 32.37 32.34 31.95 31.36 31.62 31.58 30.08 30.32 30.08 30.15 31.08 33.34 31.67 30.90 30.28 33.19 34.68 35.91 35.92 37.00 37.46 38.06 41.32
38.37 34.31 33.44 33.25 33.59 34.04 34.10 34.98 35.97 36.02 35.60 35.18 35.83 35.99 35.67 34.57 33.53 32.77 32.32 30.68 29.40 29.59 29.43 29.36 29.57 29.23 28.50 28.06 28.55 28.25 29.11 28.76 29.57 29.38 29.55 30.38 31.29 33.80 33.82 32.32 33.55 35.22 35.21
35.95 35.29 35.42 36.35 36.07 35.58 34.86 35.34 37.31 36.87 35.81 35.21 34.30 33.27 32.16 32.07 32.68 30.57 29.42 28.15 27.44 27.48 28.17 28.27 28.80 30.03 32.68 32.35 30.55 29.11 28.23 27.41 27.13 26.60 26.65 27.75 28.22 28.86 28.84 30.82 30.25 31.44 33.32
39.75 40.19 39.85 39.35 38.94 38.01 38.08 38.57 37.51 35.53 34.13 32.33 30.97 30.26 29.34 31.29 33.59 33.28 31.64 27.64 27.74 27.07 26.15 26.93 27.48 29.40 29.42 30.85 31.58 32.14 30.65 27.04 25.87 25.35 25.40 25.02 25.67 26.85 28.71 29.68 30.43 29.95 30.12
40.65 40.60 40.56 40.32 39.43 38.34 38.35 37.07 33.96 31.36 29.60 28.83 28.32 27.87 27.49 27.88 32.72 32.61 32.05 28.13 27.14 26.67 26.12 25.98 26.31 27.80 28.73 28.03 29.34 30.69 30.90 31.44 29.45 27.78 26.21 26.72 27.01 28.53 28.26 27.56 28.50 29.13 30.20
39.11 39.58 38.82 38.44 36.92 35.20 32.76 31.14 28.99 28.48 27.55 26.87 26.79 27.22 26.92 28.07 31.55 31.20 30.92 27.58 26.52 26.66 26.77 26.75 26.19 26.36 27.29 27.74 27.15 26.83 27.20 27.64 28.10 28.49 28.38 28.98 29.56 30.36 29.57 29.20 28.50 28.73 29.65
32.54 32.54 32.92 32.82 32.34 31.54 29.45 27.21 27.18 25.99 25.59 25.43 26.30 26.15 26.72 26.59 30.02 29.76 28.71 24.27 24.93 25.84 27.64 27.77 28.00 27.87 29.52 30.94 29.02 28.03 27.40 28.32 30.78 32.11 32.30 32.24 32.42 33.03 32.04 29.53 27.57 26.54 25.37
32.84 32.81 33.32 33.02 31.26 29.25 27.77 26.83 25.98 24.47 24.93 26.00 26.79 25.91 26.76 23.64 27.63 28.31 27.65 26.35 24.54 24.28 25.35 26.23 28.22 27.85 29.29 29.66 27.54 27.22 26.57 27.56 28.47 28.30 28.40 30.54 32.20 31.70 32.73 32.42 30.76 27.14 26.01
33.37 33.02 32.01 31.38 30.10 28.75 26.54 25.37 24.16 23.82 23.66 18.18 17.39 20.05 22.60 24.19 23.73 27.83 28.33 25.98 25.01 24.80 24.88 25.41 26.29 28.46 29.14 29.82 29.57 27.85 27.48 28.94 28.93 28.70 28.37 28.77 29.15 29.00 29.99 31.36 31.80 31.15 28.60
32.00 31.10 30.31 29.94 29.11 27.85 25.20 24.43 24.02 22.92 19.45 17.61 12.98 15.86 19.72 19.09 25.31 26.82 27.75 27.43 27.34 26.11 25.54 26.81 27.46 29.42 29.81 30.73 30.09 29.38 29.66 29.12 29.03 28.02 27.09 27.05 27.80 28.05 29.95 30.62 30.98 31.81 32.25
29.31 28.56 28.25 28.04 26.97 25.88 23.92 23.16 22.30 21.10 17.36 16.49 20.21 17.22 20.39 22.45 22.97 26.57 26.45 26.89 28.50 27.53 27.84 27.92 28.34 27.73 27.44 27.68 28.71 29.27 28.27 28.11 27.45 26.30 25.81 25.75 27.87 29.16 29.84 29.87 27.99 30.07 30.14
27.78 27.69 27.53 25.94 25.34 24.05 24.00 23.73 22.65 17.10 16.04 21.41 19.32 19.97 21.31 21.42 22.22 23.51 25.39 27.05 28.14 28.61 25.84 24.89 23.73 24.63 23.21 22.75 23.97 25.29 25.81 27.05 27.39 26.76 25.95 26.48 27.73 28.22 28.56 28.05 25.58 28.49 29.15
27.83 27.63 26.22 25.20 23.20 23.53 23.75 23.19 22.35 21.29 19.74 19.49 17.52 22.82 20.26 19.08 22.25 27.38 27.05 27.04 28.07 26.73 24.99 21.11 20.97 20.59 20.66 21.33 21.89 23.06 24.56 26.37 25.95 27.13 27.39 25.74 26.09 26.49 27.12 27.17 29.13 29.42 28.47
27.08 26.10 22.54 21.56 20.57 22.50 22.31 22.51 26.56 26.13 26.80 26.31 26.61 24.22 22.64 25.00 27.34 26.81 27.08 28.22 27.53 27.13 23.74 19.50 18.51 18.74 18.75 20.04 19.57 20.42 22.49 23.50 25.42 22.11 19.26 22.44 23.11 24.67 25.48 27.34 27.77 28.02 26.30
22.82 24.45 22.58 22.34 20.95 19.55 18.05 18.77 13.42 18.47 24.34 24.76 25.42 24.66 24.54 25.53 25.68 25.53 25.72 25.70 25.65 24.78 22.04 20.48 18.88 18.75 18.44 19.67 19.71 19.78 19.81 22.17 24.54 24.37 27.52 27.52 26.90 25.53 29.11 27.24 27.28 26.14 24.30
18.55 19.35 19.37 20.08 18.32 18.85 11.03 12.09 11.56 9.96 8.05 12.39 20.14 22.79 23.08 24.40 24.07 23.98 23.23 21.96 19.56 20.36 19.99 19.60 18.82 18.96 20.05 19.61 18.99 18.39 18.86 20.22 20.43 22.08 22.56 24.40 24.60 24.22 21.56 23.49 23.14 21.92 20.99
24.98 19.57 14.52 16.68 16.49 12.72 11.53 10.88 9.33 8.32 9.57 10.10 11.77 19.72 20.34 22.08 22.15 21.48 20.54 16.70 16.58 16.39 17.28 17.84 17.67 17.92 17.99 19.47 18.53 17.28 16.23 17.82 18.47 18.98 19.32 20.42 21.10 17.27 19.20 19.24 18.88 18.50 17.52
23.29 21.38 19.52 18.94 17.07 16.17 15.24 10.90 12.32 9.91 9.78 9.04 10.47 16.90 18.03 17.94 15.66 15.72 15.34 14.69 13.94 15.22 14.93 15.65 16.05 16.48 15.79 16.33 17.24 18.01 16.40 16.54 16.71 16.58 17.60 17.78 19.08 18.55 18.98 20.40 17.64 15.87 16.69
19.74 22.32 23.98 22.49 15.96 17.72 11.92 10.45 10.71 7.44 7.02 7.95 13.98 15.68 17.72 16.31 15.08 14.72 14.47 13.95 13.02 12.76 13.20 13.12 13.36 13.56 14.76 14.66 15.39 16.16 18.14 16.48 16.66 15.81 15.29 15.59 16.76 16.92 16.36 15.60 14.54 15.95 17.98
17.05 21.50 22.11 15.08 16.34 10.95 10.30 13.15 7.44 8.16 5.78 9.58 14.32 15.12 16.63 15.36 15.12 14.52 14.33 13.45 13.87 13.45 13.21 12.14 11.38 12.29 13.00 13.36 13.80 13.54 14.44 17.08 17.15 13.45 11.48 12.49 11.75 12.61 13.69 15.09 13.83 11.07 12.65
15.07 15.79 15.70 17.31 13.19 9.83 8.17 8.84 6.58 5.23 7.71 9.67 11.47 13.58 13.33 13.14 13.77 14.40 14.07 13.72 13.02 12.26 11.83 10.59 9.27 9.91 11.48 12.29 13.23 14.39 14.78 15.49 17.93 12.93 10.20 11.07 12.32 11.12 10.18 11.47 10.35 13.09 13.77
19.87 15.36 16.71 14.07 7.32 8.57 8.49 7.39 7.42 11.15 11.44 9.08 8.44 10.89 11.02 10.99 12.21 13.75 14.31 13.88 13.33 11.50 10.39 9.28 8.78 8.04 8.95 10.05 11.62 13.08 14.22 13.98 14.43 13.80 11.61 10.80 11.74 11.37 11.13 11.55 12.01 13.10 13.85
23.09 23.15 17.91 11.13 7.74 9.12 7.75 5.26 4.76 9.64 11.78 9.06 8.19 10.75 12.78 11.16 12.72 12.89 13.74 13.22 11.84 9.58 8.64 8.49 8.11 7.82 7.26 7.86 9.40 9.59 10.44 10.96 9.87 10.73 11.83 8.53 7.15 7.96 7.24 9.55 8.65 13.45 15.51
24.79 24.02 19.21 8.98 10.34 11.33 9.86 6.16 4.21 9.03 10.18 8.37 8.04 8.76 12.27 12.75 12.40 11.89 12.36 12.07 11.22 10.15 8.50 8.14 8.22 7.16 7.10 8.73 9.50 9.74 8.29 8.03 8.90 8.44 8.39 9.08 6.19 4.54 4.27 3.68 3.70 4.04 3.20

GFSGL_sfc_wetblb_003.txt.gz
Wetbulb
38.06 38.23 38.40 38.65 36.59 35.74 35.35 35.88 36.71 38.72 39.57 38.84 38.65 39.79 39.85 39.18 38.93 37.87 36.64 35.85 35.12 34.41 34.02 34.04 33.21 33.78 33.03 32.92 33.95 34.72 34.38 34.40 31.15 33.11 34.08 36.56 36.83 36.99 38.14 40.23 41.74 41.25 43.10
38.76 38.47 38.83 37.08 35.45 33.98 34.48 35.58 36.55 37.30 38.08 37.49 37.08 37.34 37.42 36.85 36.08 34.88 33.70 33.73 32.43 31.40 31.94 31.27 31.26 33.66 31.59 32.01 32.15 31.94 32.42 32.99 32.04 30.13 31.16 32.40 33.56 36.32 36.96 36.77 39.27 40.54 40.15
38.41 37.99 36.27 33.64 32.50 32.89 34.67 36.32 36.80 36.71 36.70 36.61 36.07 35.00 35.27 35.09 34.06 33.10 32.17 31.97 31.32 31.14 30.84 30.53 30.72 30.45 29.49 29.69 29.80 29.31 29.53 31.71 30.32 28.85 28.42 31.81 32.48 33.53 33.98 35.37 35.75 36.18 38.27
37.62 34.84 32.15 31.74 32.13 32.74 33.80 35.20 36.08 37.07 35.86 35.53 35.39 35.25 34.85 33.39 32.40 32.00 31.04 28.99 27.86 28.43 28.81 28.52 28.07 27.65 27.37 27.64 28.05 27.71 28.33 27.95 28.11 27.69 27.71 28.36 29.95 31.24 31.22 30.89 31.40 33.14 33.89
37.84 34.86 34.39 36.28 36.05 34.78 37.33 38.07 37.58 37.29 37.34 35.81 34.48 32.61 31.72 31.24 31.53 29.40 28.73 28.08 27.60 27.28 27.73 27.81 27.81 28.95 31.40 30.65 29.27 28.31 27.77 27.33 27.16 26.39 25.69 25.80 26.04 26.91 27.58 29.20 28.64 30.10 32.17
37.83 38.56 39.95 39.93 39.72 39.14 38.87 38.79 37.73 37.96 37.13 33.23 31.02 30.06 29.10 30.57 33.56 32.95 31.59 28.00 27.48 26.58 25.48 26.34 26.87 28.66 28.54 29.72 29.94 30.43 29.60 26.57 25.58 24.91 24.72 23.57 24.27 24.63 25.25 25.98 26.62 27.03 26.31
37.85 39.34 40.03 39.19 39.55 38.88 38.47 38.41 37.27 32.65 30.47 29.45 28.86 28.59 28.38 28.61 32.28 32.21 31.66 27.73 26.71 26.07 25.86 25.93 26.43 27.45 28.36 27.18 28.38 29.26 29.76 30.31 29.02 27.51 25.87 25.69 25.15 26.53 28.27 27.92 27.28 26.79 27.48
36.08 33.44 34.22 35.21 34.60 32.88 31.84 30.49 28.79 28.10 27.49 26.82 27.09 27.54 27.33 28.25 31.07 30.65 30.47 26.42 24.91 25.54 25.96 26.18 25.87 26.17 26.99 27.22 26.99 26.71 27.20 27.76 27.51 27.64 27.02 27.54 28.11 28.76 28.37 28.46 27.69 27.72 28.12
32.41 32.60 33.21 33.01 31.11 29.83 28.56 27.10 26.98 25.93 25.81 25.96 27.08 26.93 25.83 25.60 28.60 28.61 27.43 21.89 22.98 23.43 26.11 26.32 26.10 26.00 27.87 29.66 26.96 26.12 26.25 27.17 30.27 31.24 31.53 31.07 31.31 32.01 31.28 29.14 27.88 26.79 24.40
33.22 32.44 31.42 31.16 29.75 27.88 26.52 25.87 25.98 24.86 25.63 26.11 25.52 25.20 25.35 22.36 26.24 27.78 26.93 24.18 23.61 24.19 24.88 25.72 27.29 26.90 28.25 28.54 26.61 26.04 25.17 26.11 27.00 27.58 28.30 29.61 31.76 31.08 31.93 31.05 30.30 26.75 25.61
31.68 31.21 30.46 30.51 29.15 27.48 25.89 25.64 24.30 24.04 23.56 18.54 17.24 19.08 21.47 23.36 22.67 27.11 27.48 25.91 24.20 23.88 24.07 24.71 26.41 28.34 28.70 29.19 29.69 28.38 27.63 27.97 26.99 27.09 27.19 28.59 28.43 27.99 28.96 30.31 30.96 30.37 28.35
30.18 29.47 28.71 28.27 27.62 26.57 24.68 23.94 23.53 22.26 20.03 17.65 13.23 15.92 19.25 18.14 24.53 25.63 26.98 27.14 26.90 24.79 24.65 27.00 26.84 27.66 27.93 27.31 27.23 28.78 28.92 29.14 27.60 26.60 26.68 26.70 27.26 27.90 29.10 29.69 30.34 31.06 31.53
28.13 27.36 27.29 27.23 26.24 25.14 23.64 22.75 21.97 20.69 18.06 16.55 20.66 18.52 19.87 21.61 20.91 24.64 25.54 26.72 27.72 26.46 27.98 26.47 26.11 25.82 25.51 24.39 25.44 26.33 24.99 26.18 26.72 25.11 25.57 26.10 27.23 28.29 29.21 29.03 30.16 30.73 31.47
27.46 27.26 26.90 25.31 24.34 23.30 23.62 23.66 22.21 18.26 16.68 21.15 18.92 18.72 20.70 19.24 19.82 21.34 25.28 26.12 27.17 28.41 25.84 24.39 22.45 23.28 21.53 21.72 22.69 23.55 24.04 24.39 24.38 24.77 25.45 26.09 27.37 27.16 28.02 28.98 28.31 27.77 28.46
27.81 27.32 25.45 24.80 23.50 23.14 23.08 22.87 22.89 21.49 18.77 19.30 16.93 20.62 19.33 17.87 20.64 26.11 25.98 25.41 26.79 26.23 23.52 21.49 20.81 18.95 18.31 19.36 19.90 20.49 21.48 22.57 22.95 24.83 24.87 25.81 25.72 26.19 26.00 26.23 27.53 26.19 26.62
26.99 26.25 22.49 20.86 20.65 22.84 21.40 21.76 25.66 25.06 25.78 25.19 25.41 22.48 22.51 24.05 25.76 26.01 26.03 26.57 26.66 25.23 22.98 19.71 17.23 16.92 15.72 17.73 17.26 17.21 18.51 20.19 21.00 22.66 21.53 22.25 22.43 23.58 22.36 24.23 27.63 27.17 26.35
21.30 23.44 21.47 20.94 21.41 20.58 18.19 17.43 11.46 16.86 22.86 23.46 23.68 23.70 23.51 23.96 24.66 24.71 24.44 24.41 24.17 22.05 19.05 18.15 16.95 15.00 16.36 18.22 17.60 16.74 16.66 18.70 20.25 20.96 21.81 24.90 25.87 23.85 24.84 25.36 26.69 26.99 24.95
17.31 17.30 15.08 15.07 15.14 16.76 11.71 12.42 6.77 7.56 6.50 12.02 18.47 21.18 21.82 23.01 23.21 22.74 21.91 20.35 17.36 18.12 17.55 16.75 15.40 15.76 15.57 16.20 17.17 16.26 15.17 15.35 16.58 17.81 18.74 19.96 20.59 21.79 22.86 23.97 24.86 22.68 20.04
25.47 19.85 12.47 12.74 12.05 11.69 12.86 8.11 7.10 7.30 7.99 9.70 10.60 15.34 18.60 20.74 20.84 20.21 19.20 14.42 13.51 14.26 14.83 15.20 14.83 14.87 14.90 14.44 14.26 15.13 12.63 13.28 12.46 13.58 14.60 15.87 15.94 19.89 19.24 18.32 19.23 18.00 19.95
24.22 19.97 15.85 18.85 13.39 13.40 11.19 8.68 10.74 7.83 7.29 8.66 6.70 11.98 16.30 16.59 14.02 14.12 14.53 13.31 12.35 12.57 12.60 12.99 13.53 13.94 13.38 13.25 13.12 12.84 15.56 14.70 14.06 13.91 13.39 13.42 13.29 12.69 12.56 18.82 15.68 13.91 16.01
18.93 19.81 22.50 18.82 15.09 12.95 8.87 8.37 7.68 5.04 4.89 7.24 6.34 11.30 16.33 14.23 13.35 13.12 13.24 12.55 12.16 11.58 11.10 11.16 11.42 11.62 12.46 12.98 13.10 12.56 12.95 14.21 14.29 11.39 11.06 11.54 9.04 8.78 13.23 11.64 9.87 11.47 12.70
14.99 18.36 19.97 12.99 12.39 8.08 8.01 8.55 5.56 5.75 8.62 7.96 7.70 11.20 14.85 12.41 12.72 13.33 13.11 11.70 11.92 11.83 11.61 10.36 9.44 10.52 11.24 11.22 11.45 11.32 12.56 13.67 14.73 10.99 8.52 8.52 8.95 8.56 9.26 8.57 9.95 8.95 11.20
14.77 13.41 12.72 14.19 10.26 7.02 5.69 6.40 4.65 4.34 8.40 5.94 7.35 9.81 11.02 9.94 10.65 12.69 12.66 12.70 12.05 10.92 10.52 9.43 8.14 8.36 9.49 10.14 11.43 11.87 11.24 11.42 12.16 12.22 5.78 6.92 8.71 8.41 4.52 7.40 7.58 9.98 9.29
16.80 16.36 18.53 12.68 4.52 5.03 2.11 1.26 1.25 5.42 10.52 5.94 4.70 5.22 9.39 8.33 9.58 11.32 12.40 11.11 10.79 9.92 9.73 8.29 8.08 7.69 7.86 8.05 8.96 9.86 10.29 11.27 10.47 9.79 5.87 5.18 7.34 7.16 6.62 8.05 8.78 9.28 10.89
22.19 22.81 20.17 7.96 5.25 4.51 0.86 1.43 0.71 0.72 5.41 4.61 4.60 6.10 10.13 9.40 10.11 10.46 10.50 10.26 10.22 9.08 8.96 8.43 7.91 7.36 7.19 6.44 6.75 6.70 6.40 7.24 7.01 6.65 7.85 5.69 4.38 4.32 2.31 2.89 -0.92 4.81 6.97
24.45 23.50 20.81 9.66 8.94 5.75 0.54 -0.02 0.15 -0.57 4.81 4.61 4.78 5.37 6.58 9.07 9.58 9.22 10.08 10.02 8.62 8.39 8.46 7.98 7.52 6.60 6.64 8.13 7.89 8.09 4.99 4.66 6.29 5.05 5.09 6.98 4.19 2.37 0.62 0.74 -0.46 -0.74 -1.22

GFSGL_sfc_wetblb_006.txt.gz
Wetbulb
37.87 38.28 38.14 39.50 39.08 37.58 34.59 34.70 35.51 37.62 38.14 37.11 37.99 37.81 38.04 39.02 38.98 37.99 37.63 36.68 35.56 35.17 34.71 33.80 32.69 33.28 32.53 32.84 32.92 33.25 32.85 33.03 30.44 32.32 33.75 35.47 36.47 37.49 38.14 39.13 40.65 40.50 42.01
38.70 38.50 38.27 36.70 34.22 33.06 33.44 34.40 35.45 35.81 36.00 35.82 36.84 36.73 36.44 35.53 35.08 34.59 33.72 33.34 32.47 31.24 31.07 30.72 30.92 33.03 31.52 31.99 31.77 30.94 31.52 31.93 31.12 29.45 31.53 32.61 33.73 36.44 37.21 37.02 38.25 39.80 39.34
38.82 37.59 34.30 32.45 31.06 31.77 32.65 34.24 35.71 35.94 36.23 36.53 36.23 36.71 36.46 35.54 34.58 33.29 31.76 31.00 30.41 30.11 29.72 29.20 29.35 29.31 28.24 28.94 28.96 28.86 29.34 30.81 29.94 29.54 28.70 31.13 32.37 33.95 34.26 35.37 35.99 37.26 37.64
38.63 35.75 33.49 32.43 31.75 32.95 35.44 36.20 36.37 36.67 36.94 37.02 37.10 35.76 34.76 32.91 32.31 31.81 31.12 29.31 28.41 28.61 28.65 28.01 27.44 27.23 26.76 26.67 27.07 27.06 27.80 27.44 27.96 27.56 27.71 28.15 29.66 31.33 31.78 30.66 30.70 33.48 33.56
37.97 37.70 36.11 38.10 37.89 36.38 36.69 37.06 37.29 37.15 37.66 38.17 37.40 33.68 31.86 31.21 31.38 29.78 28.94 28.12 27.45 27.00 27.58 27.58 27.78 28.67 30.75 29.98 28.20 27.36 27.00 26.97 27.38 27.20 26.76 26.99 26.77 26.67 27.41 29.07 28.69 29.83 31.38
37.77 37.40 38.99 40.40 39.95 38.31 38.45 37.90 37.74 37.18 37.31 37.72 33.93 28.95 28.33 29.95 33.15 32.73 31.91 28.72 28.25 27.41 26.04 26.30 26.58 28.48 28.20 29.28 29.78 30.08 29.20 26.18 25.41 24.92 24.99 24.42 24.93 25.02 26.30 25.91 26.12 25.82 24.66
37.87 35.65 35.00 36.13 37.19 36.89 37.29 36.77 35.26 32.18 29.43 28.00 27.61 27.88 28.12 28.25 31.41 31.72 31.45 28.22 27.37 26.53 25.41 25.49 26.05 27.08 27.88 27.11 28.07 28.69 28.71 29.27 28.02 27.61 26.29 26.33 25.79 27.14 27.14 26.14 26.61 26.25 25.81
32.27 33.15 34.42 33.80 31.68 30.60 29.72 28.61 28.02 27.63 26.80 26.08 26.63 27.39 26.54 26.56 29.56 29.36 29.01 26.26 24.86 24.82 25.22 25.37 25.37 25.68 26.78 27.14 27.09 26.91 27.22 27.58 27.57 27.37 26.83 27.10 28.28 28.82 28.14 28.28 27.84 28.29 28.85
32.87 33.00 32.71 30.14 28.99 28.58 27.17 25.99 26.05 25.48 25.39 25.92 27.19 25.71 24.38 24.42 27.66 28.07 27.42 23.09 22.53 22.74 25.25 25.78 25.65 25.94 27.59 28.91 27.05 26.25 26.17 27.11 29.58 30.52 31.04 30.81 30.45 30.71 30.47 28.30 26.86 26.25 25.02
31.12 29.91 29.28 28.91 27.63 25.88 24.75 24.66 25.28 24.42 25.77 25.71 24.17 24.05 24.40 22.16 25.63 27.51 26.70 23.78 22.78 24.18 24.12 26.02 26.81 26.79 28.36 29.07 27.36 26.48 25.19 26.45 27.85 28.15 28.06 28.92 30.77 30.86 31.52 30.44 29.38 26.40 25.84
29.86 29.06 28.41 27.50 26.49 24.90 24.13 24.15 23.41 23.41 23.23 18.55 16.57 18.80 21.03 22.82 22.29 26.49 27.02 25.07 24.82 24.25 24.60 24.36 25.81 28.30 27.78 27.89 27.77 25.86 25.57 27.78 28.36 28.94 27.93 27.51 28.49 28.65 30.05 30.77 31.05 29.78 27.30
28.69 27.24 26.70 26.63 26.12 25.35 23.55 23.21 23.07 21.66 19.43 17.38 13.41 15.83 18.74 17.58 24.06 24.81 25.98 26.41 27.02 25.66 24.89 26.25 26.51 26.86 26.58 26.20 25.43 25.94 26.49 26.38 26.16 26.48 26.33 26.07 26.58 27.45 29.01 29.68 30.11 30.34 31.10
27.61 26.33 26.24 26.43 25.74 24.90 23.20 22.25 21.81 20.57 17.17 16.71 20.60 19.07 19.63 21.54 20.11 23.71 24.41 26.15 27.23 25.68 27.20 27.77 26.45 24.93 24.22 23.03 24.26 25.08 24.33 23.79 23.48 24.37 25.27 25.84 27.12 28.56 30.04 30.04 30.31 30.24 30.73
27.08 26.47 26.23 25.05 24.57 23.17 23.48 23.40 22.11 17.90 16.38 19.98 18.44 18.28 19.69 19.11 19.24 20.68 24.71 24.65 26.20 27.46 25.94 24.97 23.87 23.55 20.47 20.28 21.68 22.26 22.15 22.86 22.70 23.37 24.56 26.59 27.96 28.10 28.01 29.38 28.30 28.41 28.33
27.21 27.23 25.98 24.87 23.60 23.58 23.45 22.16 22.53 21.12 18.59 19.95 17.36 16.75 18.48 17.59 20.19 25.28 24.85 24.25 25.56 25.16 24.60 22.64 20.38 18.94 17.79 18.89 19.30 19.17 20.07 21.05 21.24 22.32 23.42 24.25 25.89 26.43 26.24 28.23 28.72 28.32 26.96
26.50 25.96 21.63 20.83 19.93 22.37 21.55 21.03 25.09 24.20 25.22 24.72 24.34 21.32 21.47 23.04 24.83 25.09 24.90 25.33 25.27 23.89 21.37 18.50 17.37 16.25 15.05 17.19 17.09 16.54 17.51 17.95 19.05 20.49 21.94 23.93 23.84 24.21 24.56 25.17 26.72 26.89 25.90
20.26 21.89 19.29 20.10 18.38 17.26 16.30 16.46 12.14 16.83 22.28 22.69 23.04 22.57 22.71 22.88 23.94 23.57 23.03 23.02 22.84 20.37 17.53 17.04 15.59 15.20 14.94 15.89 16.46 16.58 15.38 16.37 18.10 18.70 19.49 20.17 21.81 24.59 24.20 24.14 25.45 26.70 26.60
16.45 16.43 17.23 15.95 13.72 13.58 7.84 10.52 7.83 6.44 6.12 10.59 17.00 20.03 20.85 21.89 22.19 21.85 20.78 18.52 15.71 16.53 15.85 15.21 14.06 14.39 15.11 14.86 14.63 14.20 15.36 15.42 15.45 15.34 16.88 17.69 17.77 20.74 20.46 22.02 22.97 22.36 22.66
24.46 19.76 11.40 9.77 9.41 9.05 7.64 7.62 5.62 5.73 5.65 9.53 12.88 14.19 14.44 19.50 19.58 19.16 18.26 13.63 12.57 12.75 13.36 13.68 13.84 13.88 13.90 14.37 13.37 13.18 12.90 14.51 14.00 12.14 13.94 14.44 14.63 18.29 21.84 18.67 18.38 16.29 18.22
23.36 19.21 14.64 14.00 11.92 11.61 9.38 7.45 9.39 7.65 8.84 12.16 9.08 9.99 14.61 14.58 12.52 12.41 13.17 12.35 11.79 11.82 11.66 11.98 12.51 12.77 12.77 13.10 13.38 13.22 13.48 13.84 14.37 12.97 11.07 11.12 11.62 13.38 13.91 16.06 14.01 14.54 15.63
17.38 17.64 17.23 15.98 13.19 11.16 7.64 6.41 6.06 7.50 10.12 11.48 6.47 7.31 13.92 12.84 11.29 12.06 11.63 11.09 11.03 10.80 10.35 10.52 10.66 11.01 11.64 11.83 12.22 10.89 11.75 12.83 13.84 13.37 10.84 11.10 7.80 10.32 12.79 13.12 13.40 14.52 15.33
19.45 15.08 14.52 12.00 11.45 7.15 6.75 6.93 3.40 5.75 8.89 7.89 7.79 9.83 13.05 10.58 10.45 11.90 12.02 10.37 10.74 11.03 10.95 9.97 8.47 9.52 10.09 10.06 10.31 9.88 9.89 10.32 11.08 11.56 10.29 9.29 9.52 9.03 9.40 10.33 11.07 11.45 13.19
21.53 15.17 11.98 13.25 8.46 5.73 2.83 3.34 0.50 -1.31 4.46 3.20 5.01 8.11 9.77 9.22 9.74 11.27 10.90 9.48 10.45 10.05 9.82 9.05 7.58 7.57 8.54 8.33 8.59 9.52 8.91 8.68 8.36 7.09 8.00 6.30 8.71 7.97 7.91 10.31 10.26 11.58 11.47
15.66 15.68 17.77 10.47 2.13 3.40 -1.13 -1.49 -3.30 -0.04 4.48 2.13 1.22 2.99 6.95 8.70 8.87 9.49 9.56 8.09 9.26 9.01 8.83 7.61 7.87 7.30 7.75 7.39 7.01 7.64 7.66 8.37 7.03 6.90 2.12 4.50 6.63 6.14 6.34 8.42 9.89 9.08 9.97
21.82 22.90 14.64 7.56 4.31 4.31 1.23 -1.31 -4.03 -5.48 -3.49 -0.77 -0.07 2.47 6.76 7.45 10.74 10.23 9.99 9.61 9.76 8.50 8.76 8.04 7.37 7.31 7.72 6.80 6.06 5.18 3.80 4.37 4.79 3.72 6.20 4.15 2.94 2.91 2.08 4.19 2.60 6.11 5.89
24.35 23.79 20.77 11.66 5.03 5.16 5.48 2.65 -0.95 -5.12 -3.49 -0.04 -1.49 1.87 4.07 5.65 8.28 8.63 11.06 11.34 10.26 9.52 9.41 8.62 7.81 6.84 7.06 8.59 7.95 6.65 2.55 2.02 3.33 2.65 2.85 5.92 3.37 1.93 1.59 2.07 1.95 3.80 3.40

GFSGL_sfc_wetblb_009.txt.gz
Wetbulb
44.41 44.20 44.18 43.31 41.24 39.60 39.73 40.56 41.24 43.10 42.70 41.11 41.15 40.98 40.36 39.35 39.73 40.61 40.31 40.18 39.22 38.89 38.99 38.01 36.95 37.31 36.90 36.98 37.84 37.38 36.27 35.93 32.67 35.38 37.93 39.33 39.23 39.62 40.48 41.92 42.89 42.91 43.43
43.79 43.91 42.45 40.18 38.59 38.68 39.52 40.17 41.15 40.53 40.71 40.38 40.45 39.84 39.21 39.35 40.43 38.74 37.58 37.50 36.79 35.97 36.01 35.93 35.67 35.77 36.08 36.36 36.08 35.43 35.53 36.24 34.58 32.43 35.69 36.77 37.48 39.09 39.95 40.36 40.58 41.65 42.74
43.48 42.49 40.31 39.23 38.48 40.24 40.65 41.17 41.54 41.25 41.16 41.41 40.29 39.53 39.04 37.85 37.39 36.87 35.84 35.79 35.58 35.51 35.09 34.40 33.94 33.58 33.15 33.53 33.44 33.17 33.42 33.73 34.14 32.75 32.40 35.26 35.87 37.01 36.71 37.83 38.22 39.44 39.98
42.62 41.55 40.21 39.62 40.03 40.42 40.83 40.98 41.02 40.75 40.28 39.07 38.48 38.79 38.41 37.57 36.24 35.63 35.45 35.05 34.57 33.86 33.49 33.10 32.55 31.85 31.42 31.47 31.33 31.48 31.62 31.52 31.81 31.14 31.15 31.88 33.18 34.85 34.96 33.66 34.26 36.69 36.46
41.73 41.29 41.03 41.49 41.41 39.72 39.28 39.63 40.35 40.21 39.87 39.93 39.41 38.26 34.88 34.24 34.02 34.87 34.22 33.56 33.26 32.85 33.02 32.50 32.16 31.51 30.87 31.04 30.72 31.15 31.27 30.51 30.14 28.98 28.37 29.26 29.71 30.06 29.69 32.80 32.39 34.15 35.33
40.65 37.97 37.63 38.02 38.85 38.70 38.76 38.81 38.82 37.48 35.57 34.20 33.35 32.67 32.67 32.49 32.84 33.19 32.92 32.93 32.16 31.08 30.05 30.22 30.47 30.14 30.21 29.64 29.65 29.88 30.18 28.80 27.66 27.64 27.65 27.45 29.21 30.04 30.55 30.23 30.77 29.88 28.33
37.44 37.04 37.54 38.09 36.35 35.58 35.19 34.80 33.97 33.41 33.45 32.66 32.37 32.44 31.88 31.81 29.89 30.37 30.11 30.63 30.16 29.59 28.70 28.45 28.70 29.32 29.67 30.04 29.30 28.62 28.62 28.98 28.17 28.14 26.63 27.65 27.87 29.53 30.02 29.01 29.32 29.72 29.72
36.55 37.28 37.56 35.69 33.96 34.02 33.60 32.61 32.22 32.39 31.58 31.12 31.37 30.98 30.02 29.77 28.35 28.55 28.36 29.46 29.11 28.75 28.63 28.82 28.49 28.97 29.37 28.08 27.66 28.08 28.78 29.61 29.87 29.60 29.26 29.09 30.44 31.00 30.46 30.55 30.05 30.38 31.79
36.26 35.81 34.45 33.81 32.90 32.44 31.37 31.07 31.31 30.74 30.52 30.27 29.51 28.95 28.52 28.52 27.51 27.42 27.90 28.30 27.76 27.49 28.26 29.06 28.83 28.40 28.76 29.20 28.25 27.79 28.83 29.26 30.91 30.66 30.78 31.53 31.51 31.32 31.22 30.82 29.25 28.55 27.69
34.53 33.69 33.54 32.68 31.98 31.23 30.69 30.32 30.63 30.32 29.38 28.90 27.75 28.38 27.43 27.05 26.75 26.75 27.09 27.29 25.97 26.22 27.78 28.60 28.20 28.33 28.18 28.66 28.86 27.85 26.31 27.44 28.18 30.09 30.54 31.08 31.70 32.26 31.56 31.88 31.35 28.02 27.31
34.29 33.24 32.49 32.00 31.46 31.40 30.11 30.42 29.60 29.14 28.15 27.29 26.90 27.26 27.03 26.53 26.34 26.06 26.11 26.30 26.07 26.12 26.65 27.49 29.14 28.93 28.40 27.46 27.19 26.95 26.15 27.25 27.24 27.99 28.79 29.85 30.91 31.22 31.57 32.17 32.41 31.85 29.38
33.89 32.52 32.00 31.83 31.14 30.08 29.64 29.65 28.98 28.45 27.29 26.43 25.77 26.21 26.70 26.26 25.41 25.17 25.35 26.17 26.50 26.88 26.37 28.08 29.66 26.92 26.02 25.11 25.16 25.61 26.11 26.13 27.11 26.61 26.70 27.32 28.39 29.42 30.91 31.69 32.50 33.06 33.82
32.86 32.15 31.71 31.43 30.75 30.34 29.10 28.80 27.88 27.85 26.69 25.45 24.78 24.01 23.90 25.32 25.62 24.76 25.21 26.03 26.01 26.78 28.25 26.99 25.55 25.14 24.18 24.08 23.59 24.10 24.39 25.55 25.59 25.59 26.32 27.50 29.77 30.92 31.75 31.98 32.56 32.55 32.35
31.78 31.81 31.59 30.83 30.29 30.74 29.53 28.77 27.37 27.20 25.72 24.67 23.88 22.58 22.62 23.07 23.93 25.13 25.96 26.38 25.92 27.44 26.98 26.58 24.69 23.52 22.88 23.21 24.32 24.57 24.91 25.08 24.26 24.80 25.86 27.84 29.89 30.45 30.02 31.05 30.22 30.69 30.24
31.31 31.27 30.78 30.31 29.23 28.60 28.92 27.78 27.23 27.53 25.52 24.29 23.46 22.96 21.68 21.26 22.79 24.96 25.10 24.61 25.60 24.94 25.19 24.16 22.22 21.25 21.91 22.27 22.77 22.95 23.70 23.77 23.60 24.71 25.85 27.31 28.77 29.74 29.05 30.45 30.08 30.05 28.73
29.68 30.02 29.96 28.94 28.45 27.57 26.99 26.52 26.32 25.20 24.87 24.20 23.75 23.24 23.29 23.02 24.11 24.00 23.67 23.73 23.71 22.96 22.10 19.86 18.91 19.49 19.98 20.21 20.52 21.01 22.35 21.90 22.22 23.58 24.82 25.86 26.86 28.17 28.34 29.25 29.19 29.22 28.62
28.30 28.28 28.62 26.12 27.58 26.45 25.92 24.99 23.56 24.80 22.97 22.13 22.23 21.95 21.89 22.16 22.91 22.64 22.17 21.60 21.34 20.72 18.69 18.04 17.49 17.65 18.58 19.44 19.77 19.72 19.88 21.30 22.33 22.51 23.07 23.95 25.31 27.75 28.48 28.37 28.59 28.65 28.48
27.43 22.50 27.56 27.61 26.94 25.95 25.55 24.18 23.00 21.94 20.24 20.67 21.01 20.27 20.34 21.07 21.11 20.63 20.04 18.81 16.86 17.42 16.88 16.58 16.22 17.02 17.69 17.75 18.76 18.93 20.04 21.25 21.36 21.35 21.86 22.30 23.46 26.27 26.87 27.02 28.00 28.20 29.09
28.35 28.55 27.23 26.89 26.33 23.94 24.55 24.01 23.19 22.17 21.25 20.30 19.80 19.73 18.99 19.11 18.82 18.44 17.94 15.80 14.58 14.34 14.76 15.42 15.98 16.09 16.61 17.56 18.17 18.50 19.57 20.27 20.34 20.65 21.09 21.23 21.82 23.06 24.33 25.39 26.21 24.25 25.87
28.33 25.02 22.67 26.75 26.09 25.20 24.81 23.08 22.59 21.80 20.74 19.66 18.37 17.31 18.05 17.87 16.52 16.30 16.02 15.46 14.68 13.97 14.10 14.20 14.76 15.40 16.02 16.66 17.65 17.77 19.12 19.79 20.03 20.52 20.40 21.40 21.70 22.68 22.65 23.38 24.36 25.06 24.86
27.30 27.42 21.94 26.48 25.59 24.73 23.72 22.74 21.94 21.06 20.40 19.22 18.50 17.78 15.87 15.81 15.53 15.52 14.94 14.25 13.57 13.22 13.03 13.56 14.42 14.84 15.41 16.34 16.74 17.15 17.38 18.38 18.46 18.84 19.95 20.94 21.39 21.05 22.33 23.35 23.87 23.53 23.59
26.71 25.99 26.88 25.57 25.19 24.59 23.30 22.28 21.37 20.35 19.83 18.94 18.51 17.92 15.25 16.51 15.48 15.39 14.59 13.60 14.23 14.01 14.08 13.77 13.42 14.00 14.20 14.15 14.55 15.56 16.52 16.19 16.99 17.11 19.03 20.17 21.30 21.77 22.31 22.40 22.78 22.78 22.88
26.25 26.71 26.50 25.54 23.82 20.99 23.63 22.48 21.10 20.63 20.10 19.85 18.41 17.28 17.05 16.23 15.58 15.52 15.05 14.60 14.15 13.72 13.84 13.63 13.12 12.71 13.73 13.91 14.32 14.34 14.43 14.41 15.06 15.42 16.49 19.36 20.44 20.53 21.43 21.33 20.75 20.79 20.49
26.43 26.40 26.18 25.94 24.13 22.98 22.72 22.49 21.32 17.02 18.22 19.86 19.16 18.07 17.10 16.32 16.03 15.91 15.08 15.08 14.56 14.24 13.70 12.99 12.84 12.17 12.44 12.84 13.71 13.49 12.46 12.82 14.50 15.67 15.30 16.97 18.04 18.53 19.49 19.57 19.64 18.61 19.54
26.82 27.02 27.31 26.34 24.79 23.47 21.94 22.69 21.56 20.62 19.64 19.80 19.72 19.11 17.84 17.24 16.18 16.39 16.78 15.98 14.85 14.35 13.38 13.02 12.31 12.20 12.15 11.51 12.02 10.64 8.19 7.62 9.95 10.68 16.71 16.75 15.06 14.98 14.78 16.54 16.43 18.15 16.41
27.24 27.47 27.55 27.24 25.38 23.60 22.85 22.07 22.18 21.02 19.64 20.14 19.95 19.21 18.43 17.11 16.42 16.28 16.37 16.55 15.56 14.76 13.47 13.09 12.77 11.66 11.71 12.46 11.47 10.20 8.23 7.25 8.97 7.55 14.33 15.83 14.64 14.18 15.26 14.33 14.23 16.52 15.63

GFSGL_sfc_wetblb_012.txt.gz
Wetbulb
49.88 49.11 48.13 46.90 45.58 45.45 45.14 44.96 45.22 45.52 44.60 44.15 43.76 43.41 42.13 40.97 40.81 40.65 41.14 41.15 39.98 39.56 39.90 39.53 39.24 39.83 39.42 39.65 39.82 38.85 37.72 37.44 34.85 37.44 39.86 41.46 41.61 41.88 42.46 43.47 43.63 43.83 44.32
48.19 47.44 46.47 45.43 45.18 44.76 44.45 44.40 44.69 43.97 44.36 43.79 42.71 41.71 40.89 40.52 41.36 39.25 39.06 39.20 38.28 37.38 37.68 38.13 37.42 37.56 37.99 38.46 38.35 38.10 38.06 38.58 36.67 34.74 37.78 38.60 39.61 41.26 41.79 41.62 41.79 42.47 43.34
46.84 46.13 45.49 45.01 44.44 43.41 43.68 43.24 43.58 42.94 42.41 42.06 41.54 40.09 40.16 40.81 40.49 39.78 39.23 38.88 38.62 38.29 37.75 37.11 36.76 36.92 36.20 36.58 36.65 36.30 36.45 36.42 36.60 35.22 34.94 37.82 38.45 39.53 39.08 40.18 40.42 41.34 41.57
45.69 45.04 44.50 43.83 43.17 43.36 42.96 42.60 42.50 42.31 41.39 41.06 40.91 40.33 39.73 38.39 37.99 37.79 37.72 37.59 37.29 37.13 37.01 36.75 36.06 35.43 34.53 34.58 34.50 34.26 34.27 34.56 34.79 34.31 34.19 34.66 36.16 37.65 37.90 36.42 36.60 38.96 38.78
44.78 44.24 43.02 42.74 42.64 42.13 41.67 41.37 41.22 40.89 39.96 39.13 38.45 37.92 37.75 37.10 36.18 35.64 35.72 35.82 35.81 35.39 35.75 35.38 35.53 34.73 32.46 32.34 32.10 32.44 33.38 33.40 33.77 33.53 33.10 33.96 33.88 34.29 33.79 35.88 34.49 35.96 37.65
43.86 42.41 41.71 41.59 41.33 40.59 40.06 39.55 38.93 38.03 37.89 37.66 37.17 36.64 36.35 35.88 31.18 30.69 31.57 33.30 33.73 33.86 33.68 34.25 34.48 33.38 33.11 32.21 31.05 30.57 30.88 30.73 29.95 29.53 29.49 29.24 31.31 32.26 33.30 32.71 32.22 30.80 29.49
42.49 41.53 40.77 40.74 39.73 38.97 38.35 37.39 36.81 36.66 37.04 36.26 36.06 35.85 34.99 35.23 29.82 29.55 29.01 31.58 31.92 32.59 32.72 32.71 32.30 32.58 32.42 32.53 31.26 31.05 30.21 29.75 28.74 30.04 27.82 29.09 29.24 31.10 32.15 30.78 31.27 30.80 30.61
41.29 40.52 40.40 39.13 37.84 37.59 36.56 36.04 36.13 36.38 35.69 35.27 35.02 34.43 33.87 33.71 29.78 28.58 27.95 30.83 31.88 32.02 32.25 32.10 31.87 31.96 31.53 30.60 29.62 29.07 29.83 31.34 31.63 31.13 30.84 30.47 31.21 31.74 31.70 32.45 32.61 32.33 33.56
39.67 38.95 39.08 38.11 36.82 36.02 35.36 35.39 35.80 35.32 34.85 34.35 33.75 32.93 32.45 32.39 29.82 27.97 27.73 29.40 29.75 30.00 30.25 30.31 29.55 29.38 29.71 29.86 29.55 29.06 29.28 30.34 32.09 32.62 32.18 31.78 31.72 31.91 32.18 31.94 30.40 29.54 29.47
39.79 39.46 39.16 38.16 36.35 35.22 35.43 35.46 35.64 35.16 33.84 33.57 32.08 32.30 30.74 30.44 28.92 27.43 27.58 28.43 26.84 27.33 28.77 29.50 29.83 30.29 29.80 29.16 29.49 29.40 27.32 28.20 29.79 30.74 30.91 31.71 32.85 32.42 31.33 32.37 32.17 29.26 29.10
40.24 39.65 38.72 37.87 36.04 35.83 35.79 36.11 35.27 34.27 32.78 30.97 30.39 30.08 30.40 29.30 28.61 27.35 26.68 26.12 26.80 26.35 26.84 28.11 30.70 29.77 28.11 27.53 27.06 27.46 26.80 28.36 27.24 28.43 28.87 29.22 30.73 32.21 33.05 34.01 33.87 32.45 29.96
40.65 39.56 37.78 36.98 36.03 35.29 35.53 35.53 34.79 33.49 31.04 29.31 30.19 29.58 29.49 30.84 28.10 27.22 26.35 26.69 27.23 27.26 27.05 29.10 30.56 26.97 26.64 25.92 25.78 25.77 25.43 26.28 27.90 28.88 29.32 28.82 29.68 30.87 32.06 33.55 33.89 34.24 34.80
37.69 37.24 36.83 36.42 35.58 35.80 34.89 34.12 32.45 31.66 28.77 27.88 26.92 26.55 27.30 28.44 28.69 26.52 26.51 26.75 26.52 27.07 28.93 28.03 26.35 25.65 25.59 25.98 25.20 24.84 25.42 28.32 27.86 27.09 27.76 29.17 31.50 32.82 33.43 33.55 33.84 34.01 34.23
37.25 36.20 36.47 35.83 34.69 35.53 34.85 32.73 31.42 29.03 27.43 26.31 25.77 25.53 25.76 26.34 25.71 25.86 26.50 26.58 26.31 27.52 26.54 28.76 26.56 25.31 26.03 26.41 26.50 26.45 27.08 27.53 26.63 26.68 27.38 29.07 31.38 32.29 32.09 32.86 31.63 32.51 31.22
34.93 35.30 34.89 34.47 34.19 33.64 33.12 32.00 30.42 29.56 27.18 25.81 25.75 25.24 23.93 23.30 23.57 24.79 24.67 24.51 25.27 24.75 25.26 26.42 24.73 23.62 24.69 25.14 25.00 25.32 26.58 26.45 26.26 26.97 27.91 28.11 29.24 31.13 31.85 32.23 31.73 31.73 30.69
32.54 33.46 34.07 33.62 33.42 32.16 31.53 30.76 27.13 25.74 24.63 24.00 23.37 23.70 24.36 23.48 23.43 23.62 23.51 23.24 23.03 23.03 24.16 22.31 21.52 21.63 22.29 23.20 23.52 23.94 24.89 24.58 25.22 26.44 27.58 27.57 27.66 29.70 30.48 31.12 30.40 30.92 30.49
31.65 31.89 33.01 31.02 30.90 30.13 29.50 27.76 26.35 28.61 24.76 23.06 22.31 22.32 21.73 22.00 22.26 22.08 21.88 21.71 21.62 22.03 21.05 20.67 20.30 20.72 21.40 21.97 22.30 22.70 22.38 23.91 25.22 25.09 25.99 26.25 27.05 28.53 30.38 30.61 30.37 30.56 30.23
31.14 28.57 31.65 31.40 30.44 29.70 28.32 27.38 27.12 25.51 25.04 25.54 24.25 21.55 21.03 21.15 20.86 20.59 20.50 21.32 19.96 19.89 19.34 19.16 19.09 19.84 20.33 20.96 21.51 21.33 22.34 23.27 23.60 23.86 24.63 25.47 26.03 26.74 27.62 28.43 29.60 29.87 30.35
30.39 30.37 30.80 30.68 29.44 28.39 27.83 27.07 26.61 25.82 25.51 24.48 24.41 23.26 22.52 21.08 20.52 20.21 20.07 19.87 18.46 17.76 17.65 18.12 18.88 19.24 19.71 20.45 21.12 21.29 22.57 22.64 23.11 23.86 24.07 24.14 24.78 25.93 26.04 26.90 28.04 27.61 28.36
29.18 27.89 28.27 28.90 28.59 27.80 27.28 26.27 25.81 25.61 25.18 24.34 23.25 21.24 21.24 21.54 20.25 19.78 19.90 19.11 18.25 17.58 17.51 17.77 18.46 18.95 19.27 19.93 20.77 21.35 22.29 22.01 22.16 22.60 23.15 24.05 24.69 25.65 25.06 25.28 25.90 25.94 26.08
29.72 29.42 26.74 28.85 27.97 27.15 26.37 25.88 25.73 25.44 24.64 23.96 23.54 21.75 17.80 19.58 19.09 18.87 18.52 17.72 17.16 16.95 17.37 17.63 18.32 18.88 19.06 19.17 19.62 20.40 20.95 21.42 21.50 21.43 22.23 23.48 25.17 24.06 25.06 25.42 25.60 26.00 25.44
29.66 29.82 29.12 28.03 27.66 27.19 26.75 26.25 25.56 25.02 24.51 23.57 23.77 22.74 18.19 20.81 19.40 18.73 18.44 18.17 17.98 17.54 17.69 17.85 17.93 18.09 18.19 18.13 18.36 18.76 19.18 19.59 20.49 20.66 21.09 22.74 23.57 24.28 24.61 24.34 24.36 24.65 24.17
28.88 29.23 28.65 28.02 28.04 26.59 26.84 26.43 25.80 25.48 24.89 24.24 23.78 22.85 21.98 20.89 19.99 19.21 18.38 18.35 18.11 17.61 17.20 17.23 17.25 16.66 17.50 18.35 18.50 18.32 17.33 17.59 18.96 20.40 19.90 21.77 22.74 22.52 23.68 23.24 22.90 23.03 22.83
28.67 28.93 28.37 28.48 28.39 27.07 26.66 26.06 26.04 24.26 24.33 24.33 23.94 23.68 22.63 21.68 20.80 19.69 20.03 19.87 19.06 18.46 17.82 16.62 16.02 15.46 15.67 16.17 17.34 17.20 15.96 15.74 17.88 18.95 20.15 20.46 20.88 21.51 22.42 22.00 22.50 21.60 22.10
29.92 29.58 29.46 29.25 28.45 27.29 26.51 26.39 26.06 25.76 25.05 24.75 24.11 23.83 23.15 22.36 21.35 21.05 20.67 20.82 19.41 18.46 17.05 16.61 16.26 15.53 15.22 14.40 14.51 14.39 13.08 12.16 13.87 13.21 20.08 20.46 19.37 19.23 19.39 20.46 20.57 21.43 20.63
29.47 29.54 29.49 29.62 29.02 28.04 26.83 25.75 25.50 25.86 24.95 24.67 24.57 23.91 23.40 22.14 21.43 21.06 20.50 19.76 19.25 18.62 16.55 17.00 16.32 15.08 14.93 15.64 13.53 12.35 11.48 11.53 12.42 12.99 18.07 19.37 18.12 17.89 18.68 18.20 17.85 19.76 19.06

GFSGL_sfc_wetblb_015.txt.gz
Wetbulb
50.69 49.96 49.15 48.32 47.42 46.81 46.11 46.12 45.23 45.27 44.76 44.47 44.01 43.54 42.47 41.81 42.02 41.90 41.23 41.23 40.11 40.09 40.15 39.24 39.20 39.90 39.12 39.61 40.05 39.89 38.83 37.70 34.40 37.26 39.69 41.51 42.37 42.72 42.63 44.16 44.26 44.57 44.53
49.19 48.29 47.37 47.10 46.83 46.20 45.38 43.92 44.04 43.42 44.45 44.50 43.80 41.97 42.02 41.93 41.47 40.47 40.35 39.88 39.01 38.51 38.91 38.82 38.47 38.53 38.18 38.59 38.32 37.57 37.71 38.75 37.24 34.92 37.79 38.91 39.88 41.74 42.36 42.43 41.68 42.39 43.58
47.37 46.39 46.19 46.08 45.51 43.62 43.30 43.01 42.88 42.80 42.43 42.86 42.48 41.46 40.89 40.58 39.69 39.19 38.90 38.38 37.96 37.98 37.70 37.10 37.12 37.03 36.24 36.74 37.02 36.58 36.53 36.59 37.04 35.68 35.38 38.33 38.87 39.86 39.69 40.76 41.15 42.35 42.02
46.00 45.52 45.11 45.02 43.91 42.81 43.25 42.79 41.99 41.93 40.80 39.79 39.96 39.41 39.23 38.80 38.59 38.43 37.75 36.53 36.59 36.67 37.34 37.02 36.77 36.06 35.74 35.63 35.44 35.18 34.76 34.24 34.58 34.63 34.91 35.52 36.94 38.19 38.65 37.51 37.60 40.15 39.99
45.00 44.74 44.45 44.32 43.18 42.24 42.10 41.26 40.89 40.30 39.47 39.25 38.78 38.69 38.52 38.23 37.09 35.79 35.08 34.10 34.14 34.45 35.45 35.98 36.61 36.57 34.47 33.91 32.83 32.41 32.21 31.95 32.32 32.97 33.07 34.17 35.04 35.79 35.28 37.16 36.31 37.61 38.90
44.25 43.58 43.90 42.79 41.57 41.58 40.61 39.92 39.27 38.75 38.44 38.51 37.81 37.63 37.17 36.81 31.13 30.57 30.78 31.96 31.83 32.46 32.78 34.14 35.21 35.30 35.08 34.30 33.59 32.94 31.88 29.89 29.24 29.78 30.76 30.85 31.51 33.12 34.52 33.84 33.80 32.78 31.14
43.61 43.37 42.79 41.95 40.94 40.19 39.29 38.68 37.96 37.63 38.01 37.29 37.05 36.83 35.86 35.79 30.44 30.07 29.64 31.14 30.45 31.49 32.66 33.08 33.17 34.32 33.86 33.72 33.34 32.42 31.73 31.61 29.76 29.64 27.57 28.59 29.58 31.64 32.21 31.48 32.08 32.11 31.79
43.13 42.71 42.27 41.46 40.45 39.12 38.81 37.65 37.58 37.48 36.94 36.46 35.93 35.62 34.81 34.39 31.27 29.62 28.76 29.97 30.59 31.03 31.70 31.98 31.89 32.09 32.69 31.47 30.86 30.27 30.88 31.38 31.83 31.79 31.12 31.24 32.42 33.19 32.70 32.30 31.84 32.08 33.30
42.29 41.27 41.01 40.94 39.16 38.12 37.55 37.04 37.21 36.79 36.24 35.55 35.36 34.30 32.60 32.54 31.84 29.73 28.75 28.92 28.44 28.58 29.63 30.73 30.27 29.79 30.70 30.83 29.56 29.02 29.38 30.18 32.60 33.08 33.00 32.93 32.72 32.59 32.92 32.07 29.92 29.52 29.36
42.08 41.26 41.31 40.16 38.73 37.58 37.37 36.95 37.31 36.79 35.57 35.17 33.93 32.91 31.36 31.15 31.60 29.79 28.99 28.74 26.58 27.43 28.54 28.94 29.85 30.24 30.39 30.49 30.01 29.80 28.15 28.34 29.09 30.05 31.03 31.25 32.17 32.77 32.10 32.55 31.22 28.02 28.51
42.09 41.74 41.22 40.34 39.01 38.09 37.38 37.36 36.70 36.11 35.36 33.81 32.94 32.72 31.88 31.87 31.03 29.71 28.15 27.68 27.16 27.19 27.02 28.20 30.56 28.90 28.01 27.77 27.61 27.65 27.05 28.34 27.41 27.75 28.32 29.60 30.76 31.62 32.79 34.21 34.11 32.27 29.79
42.17 40.26 38.67 38.71 37.93 37.41 36.84 36.65 36.06 34.91 33.37 32.12 31.85 31.18 31.44 32.50 30.21 28.71 27.39 27.04 27.56 26.75 26.39 28.87 30.15 28.10 27.08 26.86 26.57 26.64 26.36 26.16 27.23 27.88 28.94 29.48 30.55 31.22 32.34 33.81 34.71 35.51 35.35
39.46 38.12 38.62 38.03 37.42 37.44 36.24 35.38 34.12 33.75 31.10 29.55 28.24 28.44 28.72 30.10 29.78 28.27 26.59 26.56 26.40 26.88 28.53 27.36 27.76 27.65 26.96 26.81 27.84 26.41 26.27 27.86 29.03 27.90 28.05 29.10 31.12 32.78 33.54 34.02 34.70 34.95 35.00
36.25 36.46 36.74 36.30 35.93 36.48 36.01 34.99 33.15 31.87 28.89 27.92 26.97 26.23 26.53 25.82 27.45 26.60 26.13 26.38 25.45 25.86 25.48 26.13 27.97 26.85 26.89 28.19 28.54 28.47 29.05 28.86 27.84 27.81 28.33 29.59 31.58 31.80 32.39 33.91 32.43 32.50 32.04
35.08 35.10 35.05 35.57 35.41 34.93 34.54 33.74 32.46 31.88 28.64 26.94 26.04 24.89 23.83 22.87 24.11 24.56 24.47 24.00 24.39 23.75 24.06 26.88 25.15 24.06 23.81 25.42 26.70 26.96 27.90 27.50 27.07 27.51 28.12 28.97 29.75 30.36 31.83 33.79 31.92 31.93 30.70
32.68 33.55 34.55 34.33 34.02 32.32 32.80 31.95 28.25 26.98 25.70 24.73 23.12 23.85 24.45 23.47 23.33 23.45 23.60 23.33 23.54 23.31 24.42 22.74 22.10 22.21 22.03 23.00 23.78 24.50 25.54 25.11 25.66 26.58 27.53 27.90 27.90 28.49 30.45 32.33 32.06 31.09 30.10
30.93 30.94 31.72 31.09 31.20 30.62 30.34 28.53 27.36 29.45 26.82 25.68 23.41 22.99 22.47 22.28 22.51 22.51 22.67 22.87 23.26 22.72 21.43 21.37 20.84 20.75 21.30 22.31 22.61 22.88 23.08 24.99 25.71 25.48 26.25 26.52 27.02 27.72 29.37 30.06 31.19 31.41 30.69
30.96 30.36 31.22 31.04 30.56 30.21 28.81 28.00 27.98 26.78 26.40 27.46 26.71 23.26 23.05 22.89 22.37 21.94 21.91 22.91 21.59 21.65 20.55 20.06 19.96 20.69 20.66 20.78 21.40 21.74 23.10 24.31 24.55 25.42 25.24 26.17 26.14 27.18 27.65 27.76 28.99 28.72 29.08
29.44 29.94 30.77 30.76 30.53 29.29 29.61 29.09 28.48 27.29 27.11 27.10 27.13 26.79 25.07 23.55 23.35 22.57 22.15 20.65 19.29 19.33 19.21 19.35 20.23 20.12 20.25 20.51 21.77 22.53 23.71 23.47 23.89 24.07 24.48 24.97 25.81 26.45 26.61 26.85 26.94 27.64 28.12
32.12 29.33 29.35 29.77 29.79 29.49 28.38 27.55 27.15 26.90 26.79 26.43 25.96 24.87 23.67 22.34 22.25 22.03 22.11 20.47 19.21 18.64 18.82 18.75 19.24 20.00 19.91 20.16 21.09 22.01 22.79 23.28 22.66 22.38 23.60 25.29 26.43 26.62 25.52 25.89 26.27 25.97 26.32
31.18 30.45 29.52 29.22 29.42 28.28 27.87 27.74 27.44 27.01 26.34 25.82 26.16 24.58 19.93 20.45 21.71 21.15 20.58 20.16 19.16 18.50 18.38 18.66 19.41 19.48 19.43 19.54 19.54 19.97 20.44 21.61 21.74 21.44 21.90 23.90 25.37 24.91 25.80 26.16 26.20 26.41 25.77
29.16 29.55 29.78 29.82 29.16 29.20 28.22 27.46 27.23 26.90 26.53 25.93 26.09 25.67 21.31 23.71 22.61 21.59 20.62 20.39 20.42 19.85 19.20 18.73 19.00 18.51 18.43 18.37 18.47 18.71 18.66 18.62 19.19 20.32 21.07 22.69 24.12 23.96 25.03 24.72 24.67 25.02 24.51
29.65 29.33 29.24 29.48 29.90 28.48 28.68 28.32 27.93 27.95 27.02 26.72 26.22 25.28 24.71 23.81 22.84 22.16 21.49 21.30 20.90 19.99 19.67 18.54 18.08 17.14 18.07 18.04 18.76 18.09 16.37 15.56 16.39 18.72 19.39 21.34 21.88 22.18 23.88 23.36 23.20 22.36 22.54
29.86 29.72 28.74 29.41 30.23 29.47 28.83 28.87 27.86 27.38 27.27 26.86 26.65 25.96 24.92 24.10 23.46 22.42 22.15 22.41 21.29 21.35 19.77 18.69 17.87 16.67 16.46 16.64 17.73 17.27 16.34 14.91 15.47 15.80 17.40 20.77 20.00 20.53 21.26 21.40 21.80 22.05 21.61
31.31 30.04 29.94 29.78 30.08 29.95 29.17 28.21 27.75 28.15 28.32 27.42 27.20 26.06 25.81 24.52 23.62 23.26 23.09 22.43 21.58 20.76 19.14 18.40 18.18 17.03 16.51 16.09 14.93 14.22 12.89 12.41 13.44 13.79 18.04 20.29 19.04 18.71 19.76 19.85 19.01 21.64 20.47
30.61 30.12 30.09 30.55 30.07 30.15 29.91 28.33 27.19 27.58 27.43 27.67 27.20 26.93 25.77 24.49 23.97 23.13 22.59 21.69 20.80 20.23 19.20 18.85 18.00 16.77 16.64 17.57 15.16 13.59 11.81 11.53 11.69 12.51 17.11 17.96 16.85 17.12 16.32 18.14 17.30 19.10 18.76

GFSGL_sfc_wetblb_018.txt.gz
Wetbulb
48.34 48.16 47.06 46.39 46.21 45.80 44.85 43.60 43.02 42.86 42.32 42.31 43.20 42.30 41.44 40.52 40.86 40.59 40.18 39.41 39.30 38.27 39.02 38.90 38.27 38.55 37.73 37.50 37.29 37.58 37.24 36.51 33.24 34.86 37.21 37.73 38.10 38.68 39.65 40.27 41.52 41.03 40.25
47.55 46.39 45.28 45.57 45.28 44.60 43.11 42.70 42.43 41.58 42.09 41.65 41.20 40.77 40.14 40.09 39.75 39.24 38.00 38.08 37.35 36.72 37.07 37.32 37.18 38.10 36.19 35.48 35.29 34.37 34.10 33.68 32.15 30.31 32.75 34.17 35.20 36.29 36.77 37.25 39.90 40.91 38.49
45.96 44.85 44.18 44.32 43.90 42.46 41.70 42.15 41.98 41.11 40.56 39.79 38.63 37.45 36.93 36.80 36.24 35.77 35.52 34.98 33.51 33.33 33.33 33.75 34.09 34.42 32.82 33.20 33.49 33.05 33.02 34.13 32.23 30.83 29.97 31.83 32.75 33.71 33.39 34.70 35.50 36.19 39.80
45.18 43.83 43.15 43.42 42.73 41.37 41.35 41.41 40.93 40.47 38.72 37.55 37.38 37.23 37.24 36.68 36.55 35.58 34.92 33.00 32.03 31.88 32.21 32.10 32.45 32.49 31.92 31.80 31.99 30.66 31.31 29.53 29.29 28.80 28.83 29.62 30.95 32.42 32.51 31.53 31.30 33.62 33.98
44.44 43.21 42.83 43.30 42.62 41.35 41.24 40.74 39.94 39.06 37.79 37.49 36.79 36.50 36.24 36.18 33.69 31.64 31.51 30.49 29.83 29.63 30.09 31.24 32.05 33.77 35.96 33.63 31.54 28.88 28.06 26.73 27.24 27.32 27.01 28.19 28.94 28.62 28.47 31.57 30.53 31.57 33.43
44.30 43.24 43.73 43.32 42.56 41.11 40.39 40.07 39.21 37.32 36.82 36.21 35.40 35.27 34.76 35.61 31.51 31.24 29.93 27.72 29.19 28.48 27.46 28.78 30.83 33.39 33.38 34.76 34.44 34.11 31.18 26.88 25.74 25.29 25.41 24.69 25.87 27.73 28.92 27.89 26.89 26.14 25.11
44.06 43.99 43.13 42.71 41.40 40.59 40.01 38.73 37.39 35.71 35.53 34.78 34.45 34.38 33.33 32.86 31.84 31.15 30.04 28.06 27.20 26.96 27.20 27.75 29.08 31.67 31.48 31.31 30.76 31.88 31.33 31.97 29.62 27.29 25.40 25.53 25.29 26.83 27.79 26.92 26.23 26.12 25.85
43.01 42.62 42.52 41.61 40.67 40.05 38.98 37.69 36.63 35.58 34.37 33.58 33.21 32.96 31.92 32.36 33.26 31.79 30.45 26.66 25.99 26.33 26.99 26.33 26.56 27.34 28.68 29.25 28.18 27.73 28.17 28.90 29.45 30.64 29.78 29.06 29.35 30.05 30.13 30.93 30.26 30.07 28.98
41.13 40.64 40.77 40.83 39.90 39.09 38.05 36.70 35.09 34.47 33.50 33.35 33.36 31.84 30.11 29.79 32.55 32.36 30.49 26.36 26.08 25.25 26.08 26.91 27.00 26.23 29.15 30.98 28.77 27.26 27.25 28.12 31.82 33.07 32.94 32.98 32.94 33.01 32.71 29.81 26.72 25.88 23.99
40.94 40.69 41.15 40.99 39.65 37.38 36.42 35.67 34.79 34.88 33.87 32.91 31.72 31.12 31.95 29.19 32.49 32.28 29.58 26.22 23.18 24.61 25.74 26.79 28.45 28.82 28.85 28.23 26.97 26.92 25.64 26.03 26.94 26.63 27.41 28.43 29.81 29.89 32.01 30.76 28.62 25.71 24.47
40.38 40.17 39.81 39.58 38.26 37.54 36.66 35.51 34.47 33.04 31.71 30.35 29.69 29.71 29.49 29.92 29.24 30.00 28.59 25.75 24.51 23.68 24.04 24.41 26.25 28.93 29.18 28.81 27.65 25.75 25.07 27.14 26.51 25.77 25.36 26.00 27.48 28.66 30.09 31.03 30.89 29.98 26.97
38.69 38.08 38.06 38.81 38.57 37.68 35.27 34.22 33.31 31.36 29.82 28.23 25.52 26.74 28.15 28.02 29.57 28.68 27.86 26.30 25.80 23.91 23.30 25.23 26.72 27.14 28.22 27.55 26.89 27.45 27.98 26.43 24.67 24.35 25.16 26.29 28.09 29.46 31.38 31.76 32.29 32.69 32.67
36.43 36.01 36.46 36.83 37.00 36.63 34.33 31.71 30.04 29.91 27.70 26.57 26.51 24.91 24.75 25.76 25.33 26.87 25.43 25.39 25.21 23.22 24.95 25.08 26.34 28.07 27.13 27.03 27.69 28.88 27.62 25.73 26.04 25.89 25.67 27.22 28.05 29.38 30.73 29.72 30.79 31.94 32.08
34.74 34.46 34.66 34.33 34.41 34.01 33.90 31.73 29.64 28.04 26.56 26.17 24.69 22.88 22.37 22.81 22.21 22.13 22.63 23.31 24.00 23.79 23.40 23.18 25.62 25.84 25.21 25.66 27.09 27.58 27.34 27.61 26.00 26.40 25.92 27.58 29.35 29.16 27.67 30.00 31.35 29.58 28.18
33.69 33.35 32.47 32.53 32.48 31.97 31.98 29.25 28.84 27.94 26.09 24.06 23.24 22.16 19.10 17.67 20.34 23.05 22.77 22.15 22.55 23.20 22.23 24.41 23.11 22.14 21.86 23.04 23.84 24.31 25.85 25.29 24.70 25.10 25.77 26.71 26.92 27.46 26.81 30.26 28.13 26.22 27.03
30.16 30.44 30.17 30.81 30.72 30.22 29.91 29.07 29.94 27.68 27.05 26.45 24.32 21.47 20.20 22.93 24.04 23.98 23.83 24.01 24.64 24.02 22.42 20.85 19.72 19.52 19.91 21.29 21.51 21.59 22.77 23.56 23.60 24.79 24.91 25.17 25.23 25.48 26.47 29.21 29.36 25.46 24.12
29.74 29.11 29.01 30.02 30.80 29.78 29.26 28.30 26.88 28.71 29.52 28.14 26.33 25.32 24.99 23.35 24.42 23.90 23.76 23.73 24.88 23.31 19.61 19.38 18.83 19.24 19.42 19.71 20.39 21.17 20.96 23.09 23.75 23.59 24.23 24.24 23.96 25.00 26.74 26.50 27.39 27.02 27.66
29.48 29.29 30.51 30.77 30.28 29.44 28.09 27.70 28.05 26.90 24.37 26.20 27.53 25.94 24.21 24.78 24.52 24.27 23.55 22.59 19.27 20.48 19.02 18.51 18.21 18.93 18.70 18.69 19.10 19.80 20.59 22.18 21.43 21.77 22.68 23.15 22.64 24.16 25.36 24.34 24.99 25.48 25.87
29.49 28.88 29.71 29.60 30.01 29.17 28.77 28.48 27.83 27.16 26.20 25.92 24.59 24.30 21.58 23.70 24.60 24.32 23.63 18.38 17.27 16.51 17.20 17.58 18.05 18.17 18.31 18.57 18.68 19.16 19.81 20.67 20.59 19.85 20.63 22.01 23.52 24.18 23.20 24.44 24.67 22.96 23.23
30.09 27.86 28.28 28.75 28.93 29.17 28.39 27.21 26.75 26.78 26.10 25.84 24.42 21.58 19.37 17.39 16.72 16.53 18.50 17.19 13.11 14.92 15.93 16.65 17.71 18.14 17.83 17.69 17.58 17.83 18.01 18.41 18.40 18.53 18.11 20.08 22.19 23.65 23.41 23.77 23.92 23.75 23.77
29.83 29.85 29.01 29.01 28.27 28.58 27.76 27.42 27.37 26.47 25.85 25.38 24.72 20.09 14.12 15.30 16.93 15.42 16.22 18.05 13.92 12.91 12.59 15.89 16.86 16.10 16.55 16.64 17.00 16.27 16.33 15.85 15.73 16.25 16.65 18.09 20.44 20.37 22.72 23.58 22.29 23.78 22.25
28.46 28.07 29.05 29.32 29.41 28.49 28.48 27.37 26.81 27.00 26.33 25.74 25.09 22.28 17.04 17.20 17.45 15.87 19.51 15.96 17.00 13.05 13.50 13.41 15.66 15.57 15.43 15.23 15.86 14.51 13.96 12.36 12.20 13.17 13.50 15.35 18.47 18.22 20.12 20.88 19.56 15.60 21.42
28.41 28.89 28.52 28.29 28.83 29.25 27.72 27.94 27.71 27.52 27.38 25.82 24.43 24.28 23.73 23.20 16.96 16.54 15.25 18.59 18.76 17.18 12.93 12.65 12.56 13.45 14.42 13.71 14.69 14.63 13.10 11.08 11.39 12.45 11.47 12.37 17.18 16.53 17.33 16.06 17.79 14.34 11.48
28.80 28.90 28.47 28.17 29.04 28.93 29.03 28.44 28.56 27.03 27.00 26.86 26.43 25.89 23.82 23.19 17.57 15.78 15.12 17.57 14.05 15.72 14.17 10.86 12.30 13.58 14.33 12.80 12.88 12.63 12.41 10.62 11.11 11.93 10.88 13.57 15.33 15.44 16.01 14.80 12.99 15.77 9.44
29.15 29.80 29.10 28.85 28.92 29.00 29.17 28.74 28.41 27.87 27.50 27.72 27.18 26.21 24.80 24.07 20.27 18.36 15.76 14.97 13.98 12.52 13.04 9.72 11.22 12.61 13.38 13.35 12.09 11.67 9.96 10.57 9.17 9.32 11.39 13.82 12.41 11.76 11.72 13.25 9.96 13.47 8.26
29.04 29.89 29.38 29.21 28.99 29.14 29.02 28.77 28.19 27.49 27.02 27.17 27.37 26.63 25.92 22.51 19.42 19.24 15.57 14.33 13.29 11.74 11.29 10.70 10.08 10.05 11.30 13.58 12.11 12.07 10.23 10.10 9.36 9.71 10.91 13.93 12.31 11.00 8.52 9.32 9.06 10.00 9.67

GFSGL_sfc_wetblb_021.txt.gz
Wetbulb
43.00 42.45 41.37 41.08 41.34 40.99 40.37 39.71 39.34 39.26 39.23 39.22 39.84 38.94 38.49 38.35 38.27 37.59 37.01 37.47 37.13 36.37 35.51 35.30 35.52 37.04 36.78 36.89 36.97 36.51 35.75 35.84 32.51 33.33 35.54 35.66 35.16 37.06 38.68 40.68 41.61 41.17 41.25
42.23 41.77 41.02 40.99 40.56 39.76 39.27 39.40 39.05 38.15 38.37 38.16 37.62 35.69 35.40 34.87 34.95 34.53 34.11 32.45 31.79 30.54 30.75 30.44 30.88 33.56 31.72 32.69 33.16 32.50 32.43 32.38 30.57 28.15 29.34 30.92 32.02 34.50 34.62 34.10 37.73 40.06 39.66
41.84 40.30 39.41 39.67 39.74 38.46 38.04 38.74 38.78 37.83 37.10 35.88 34.98 34.39 34.31 34.58 33.76 32.93 32.55 31.59 30.64 30.77 29.99 29.38 29.20 29.54 28.83 29.92 30.49 29.97 30.07 31.99 28.71 26.71 25.73 28.46 29.52 31.57 32.54 32.42 32.72 33.32 37.15
41.60 40.18 40.12 39.23 40.53 38.05 38.11 38.05 38.52 37.24 35.74 34.20 34.39 34.64 34.75 34.26 32.98 31.99 31.14 29.31 28.56 29.11 29.57 28.95 28.81 28.90 28.44 28.78 30.07 29.06 29.58 27.32 26.93 25.34 25.52 25.99 26.85 29.43 29.95 28.78 28.59 30.67 31.88
41.54 40.58 40.48 41.28 41.20 38.41 38.70 39.63 39.03 37.17 35.56 34.37 33.98 33.75 33.58 33.20 31.72 29.09 28.48 27.11 26.66 26.85 27.53 28.23 28.52 30.03 32.69 32.96 31.33 29.78 27.18 25.45 24.76 24.34 24.02 24.13 24.29 24.34 24.44 26.90 25.99 26.92 28.38
41.31 41.14 41.98 40.94 39.91 39.98 38.80 39.17 38.34 36.05 33.39 33.05 32.73 32.94 31.43 32.50 31.80 31.09 29.00 25.92 26.40 26.10 24.80 25.60 26.96 29.18 29.74 30.80 32.03 31.89 31.19 27.54 24.27 23.09 22.97 22.43 23.10 24.08 24.81 24.26 24.40 23.79 23.45
38.54 39.25 39.84 39.77 39.96 39.92 39.61 39.49 36.95 33.74 32.27 31.58 31.61 31.43 30.18 29.15 32.42 31.66 30.83 27.12 25.42 24.45 23.84 24.59 25.15 27.35 27.77 27.89 29.32 30.26 30.15 31.44 29.94 27.91 26.16 24.60 24.39 24.93 25.26 24.26 23.80 23.76 23.81
37.01 38.76 39.13 39.02 38.54 38.21 38.41 37.26 34.88 32.70 31.90 31.04 31.07 29.39 28.70 30.49 32.85 32.99 32.31 26.59 25.04 25.04 24.84 24.65 24.26 25.13 26.22 26.97 26.53 26.57 26.68 27.41 27.96 28.68 27.79 27.62 27.24 28.30 28.08 28.40 27.66 29.84 28.50
37.41 37.71 37.98 38.53 37.39 36.80 36.10 34.05 34.49 32.92 31.39 31.08 29.87 28.97 27.98 28.02 31.81 31.94 29.22 26.42 26.25 25.49 26.04 25.98 25.63 25.14 27.62 29.86 26.96 25.31 25.91 27.27 30.60 31.92 32.26 31.95 32.18 32.48 32.71 30.38 27.87 26.55 24.37
36.44 36.27 37.28 37.45 37.15 36.79 34.76 34.99 33.96 30.98 31.04 29.79 29.46 28.74 29.94 26.69 30.41 30.14 28.65 23.36 20.90 23.37 23.76 24.85 26.17 26.03 28.63 28.72 27.37 23.16 22.62 23.75 25.20 25.67 25.66 26.87 28.22 28.14 29.59 28.82 27.77 25.20 25.18
35.96 36.10 36.28 36.92 36.51 37.09 34.85 33.47 31.66 29.00 28.21 26.08 25.55 26.54 27.21 27.60 25.87 28.59 27.51 23.97 22.93 23.34 22.34 22.57 24.45 26.61 26.93 28.64 28.01 26.01 24.53 25.82 26.47 25.29 24.47 24.62 25.76 26.92 28.17 29.67 29.63 28.68 26.52
34.74 34.16 33.90 34.52 35.59 36.22 33.79 32.42 29.43 26.71 25.91 23.56 16.04 19.25 22.54 23.31 26.57 25.92 25.85 25.00 24.62 21.70 21.69 23.27 24.21 27.19 27.87 27.16 26.98 28.14 28.89 27.47 25.52 24.34 24.08 24.27 25.35 27.15 30.09 32.03 32.31 31.44 31.17
32.71 32.00 31.59 31.94 32.73 32.56 28.78 26.45 26.10 25.61 21.51 21.80 23.02 16.73 20.03 22.62 20.79 24.38 24.02 24.40 24.19 22.56 23.36 24.48 26.18 25.96 25.87 26.08 27.22 27.58 27.09 27.02 25.76 24.68 25.12 25.70 26.95 28.63 30.51 29.89 29.82 30.58 31.99
30.76 30.60 30.73 30.05 30.18 29.64 28.63 27.17 25.52 21.13 19.51 23.26 20.32 18.47 16.88 19.35 17.95 20.30 21.16 18.32 23.20 23.62 22.83 23.16 24.70 24.06 23.98 24.30 24.39 24.86 25.29 24.94 24.18 23.27 23.98 26.07 27.95 26.94 25.74 27.05 29.20 29.02 23.84
30.07 29.64 27.97 27.36 27.58 27.74 27.16 25.20 25.47 23.66 22.26 19.57 18.56 18.11 7.98 7.23 17.19 24.31 23.26 22.11 22.13 23.79 21.94 21.83 20.84 20.24 20.54 21.78 21.99 22.54 22.77 23.70 22.75 23.34 23.66 24.54 25.09 25.64 25.78 27.81 29.45 25.49 23.12
27.81 26.92 26.02 25.14 24.75 26.31 25.87 25.55 29.35 27.93 28.89 28.13 26.05 16.79 13.16 21.33 24.72 25.47 24.83 24.68 24.80 23.63 19.95 18.42 17.57 18.52 18.37 18.93 19.23 19.99 20.87 22.41 22.06 22.50 23.00 23.75 23.30 23.54 24.70 26.31 26.79 24.98 24.43
27.43 27.41 24.82 25.18 25.23 26.79 27.29 26.22 24.87 25.01 29.40 29.78 28.65 26.91 25.65 24.15 25.18 25.32 24.48 23.21 22.64 21.50 17.58 17.14 16.41 16.92 16.85 18.10 18.07 18.72 18.62 21.91 22.15 21.20 21.29 21.66 22.68 23.47 24.58 22.55 23.25 23.04 24.70
25.97 25.03 23.25 22.86 26.44 27.49 25.96 25.93 26.40 20.25 20.82 19.02 26.16 27.43 24.89 25.09 24.92 24.79 24.19 21.05 13.54 14.98 14.57 16.43 16.30 16.57 16.66 16.85 17.13 17.52 18.08 19.22 18.79 18.88 19.46 19.71 21.32 22.58 20.53 21.73 22.39 20.68 24.04
27.55 24.30 23.19 26.33 26.53 27.01 26.57 25.95 25.65 25.07 23.89 19.83 20.90 21.71 19.73 23.28 24.15 23.82 23.00 9.85 7.71 8.92 11.25 14.34 16.04 16.53 16.14 16.43 15.36 15.42 15.84 16.12 15.37 15.62 16.27 17.70 18.67 21.39 20.95 19.65 19.16 19.37 19.94
26.30 24.50 24.05 26.47 26.00 26.39 26.12 24.66 24.99 24.87 24.50 23.45 16.05 15.35 13.98 11.74 5.50 3.71 3.84 3.20 2.73 6.61 5.78 10.42 15.07 15.62 14.55 14.62 14.63 13.86 13.98 12.94 12.64 13.04 13.17 14.25 16.57 19.06 18.95 20.06 20.15 20.27 16.26
23.72 23.34 23.72 27.38 26.65 25.90 25.70 25.34 25.27 24.46 24.35 22.13 18.21 15.50 10.75 9.21 6.06 6.42 6.03 4.23 5.10 4.84 2.73 6.28 7.76 10.61 12.72 13.46 14.90 13.20 11.96 9.74 10.13 10.65 10.72 11.74 13.23 15.63 16.95 18.67 17.54 17.18 19.25
22.99 21.29 22.06 20.57 21.53 23.74 25.64 26.05 24.08 21.54 23.31 22.47 20.23 15.49 11.60 5.39 10.18 10.87 6.71 5.49 4.03 5.39 5.22 4.48 5.57 9.71 11.31 12.04 12.85 8.49 9.35 6.47 8.24 8.78 9.47 9.95 11.28 14.49 14.49 14.44 15.76 10.48 11.94
19.07 18.60 25.61 26.25 26.28 23.67 22.76 24.27 25.42 19.95 23.81 24.12 22.31 15.11 12.87 10.73 8.72 9.09 7.17 4.56 5.67 5.44 4.87 4.63 1.64 5.17 9.94 8.86 9.12 10.73 8.48 7.30 8.18 8.25 7.90 8.69 11.54 13.06 11.92 9.90 9.95 10.20 6.33
18.33 16.21 23.58 25.66 19.67 21.27 20.99 23.84 22.51 24.82 23.41 17.78 18.86 20.23 15.63 14.16 8.28 8.83 6.58 3.98 4.41 3.43 1.73 2.97 4.06 5.84 8.57 10.37 8.56 9.63 10.66 7.86 8.42 8.60 7.27 9.19 11.27 11.19 9.38 11.02 11.02 8.15 5.73
20.67 18.16 16.98 26.71 21.90 18.07 19.84 21.69 23.80 25.22 22.02 16.52 15.94 20.82 16.36 11.41 10.13 6.98 5.35 4.64 4.84 2.92 3.54 2.01 2.32 4.48 5.93 8.80 9.82 8.94 8.58 9.55 8.29 8.77 8.85 8.84 7.82 8.64 8.38 9.23 5.83 6.56 3.27
24.27 23.53 20.99 24.51 25.75 23.73 19.88 21.79 23.77 22.96 25.10 24.43 17.36 18.13 17.95 13.63 12.11 8.96 6.76 6.00 4.57 3.19 3.36 1.27 2.95 3.56 4.26 6.75 10.23 11.12 9.14 8.21 7.64 8.66 8.91 10.59 7.43 6.99 6.86 5.83 6.20 5.09 6.14

GFSGL_sfc_wetblb_024.txt.gz
Wetbulb
41.50 41.22 40.38 39.82 39.77 40.08 39.18 38.84 38.73 38.29 38.18 37.70 37.94 36.98 34.75 34.23 34.29 33.85 33.78 33.44 32.43 30.54 30.13 29.96 29.90 30.27 29.66 30.11 30.99 31.90 33.71 34.67 31.01 30.19 33.03 32.42 31.40 32.08 34.04 36.77 40.58 40.77 40.57
41.18 40.73 39.68 39.57 38.94 39.11 38.62 38.64 38.03 37.53 38.34 38.63 37.92 34.82 34.57 33.11 32.60 31.59 31.06 30.66 29.70 29.06 29.28 28.82 28.69 30.29 27.54 27.85 28.03 28.12 29.57 30.72 28.72 25.97 27.47 28.55 29.48 30.76 31.08 30.99 34.91 37.22 38.76
40.68 38.99 38.23 38.51 38.06 38.00 37.69 37.47 38.02 37.89 37.61 37.93 35.30 34.62 34.37 33.48 32.12 31.06 30.33 29.25 28.06 27.91 27.79 27.30 27.35 27.37 25.98 26.63 26.91 27.46 28.55 30.57 27.95 26.04 25.46 27.29 28.00 29.41 29.44 30.42 31.10 31.64 35.55
39.78 38.95 38.33 38.09 38.80 37.80 36.68 38.31 39.18 39.92 38.58 37.36 35.03 34.71 34.23 32.93 31.29 30.25 29.19 27.21 26.87 27.33 27.85 27.36 26.50 26.11 25.69 25.81 27.31 27.41 28.19 26.28 26.22 25.24 24.42 24.64 25.96 28.00 28.02 26.35 25.87 28.21 29.66
38.40 38.16 38.45 39.33 38.77 37.19 37.66 38.56 38.85 38.31 38.57 37.38 35.26 34.38 33.05 31.06 30.64 28.02 28.06 27.29 26.38 26.03 26.63 26.47 26.24 27.43 29.48 28.65 28.42 27.78 27.33 25.94 25.88 24.84 23.69 23.74 23.58 23.82 23.86 25.02 24.02 24.81 26.38
36.83 37.73 38.99 38.58 38.35 38.30 38.32 37.90 36.88 38.27 37.69 33.87 33.81 32.42 30.48 31.38 32.17 31.35 30.04 26.13 26.55 25.71 24.38 25.07 25.20 27.33 26.77 28.45 28.97 29.61 29.13 26.97 25.87 25.97 25.36 23.77 22.36 22.77 23.34 23.08 22.73 22.40 21.94
36.70 37.90 37.99 37.67 37.28 36.92 37.43 37.57 37.60 34.08 33.98 33.39 31.83 30.65 28.74 28.37 32.23 33.27 33.27 28.62 26.35 24.89 24.06 24.28 25.10 26.34 26.54 25.85 27.21 28.42 28.45 29.60 28.29 27.29 25.56 24.93 24.18 24.11 24.05 23.07 22.56 22.44 22.51
36.66 36.66 37.16 37.34 36.63 36.28 35.25 35.79 34.90 33.58 32.87 30.66 29.39 28.33 27.90 29.50 31.75 31.54 30.63 26.53 25.36 25.41 25.33 24.68 23.96 23.77 25.01 25.50 25.95 26.93 26.98 26.98 27.37 27.56 26.44 26.60 26.35 27.03 26.18 26.46 26.17 25.33 27.32
34.55 34.62 35.61 36.07 35.88 35.95 35.30 34.69 32.51 31.08 29.03 29.32 29.11 27.77 26.72 26.62 30.22 29.56 27.66 23.67 24.01 23.16 24.46 24.47 24.14 23.68 25.98 28.39 26.23 25.88 24.82 25.40 28.04 29.13 30.03 30.53 30.70 31.75 31.45 29.65 26.96 26.60 21.52
34.10 34.23 35.05 35.79 35.09 34.53 33.83 32.44 31.49 29.55 29.53 28.55 28.22 26.81 28.06 24.38 27.26 28.10 26.54 23.20 18.08 21.88 22.97 23.71 24.84 24.96 26.64 27.16 25.85 24.38 23.38 23.80 24.26 24.26 24.81 26.20 26.79 26.84 28.18 26.75 25.21 22.66 22.79
34.27 34.19 33.50 33.45 33.69 33.91 33.93 33.34 30.72 27.94 26.98 24.57 23.61 24.57 24.84 24.86 23.45 26.02 25.84 22.38 21.55 21.94 21.40 21.91 23.45 25.68 28.01 27.22 27.30 25.38 25.06 26.59 26.01 26.41 25.01 24.32 25.13 26.39 27.25 28.02 27.93 26.08 24.09
32.85 31.99 31.17 31.05 31.47 31.45 29.23 27.00 27.06 25.43 24.83 22.60 12.36 16.81 20.62 21.73 24.49 24.44 25.06 24.62 24.23 20.81 21.53 22.84 24.23 25.99 26.29 26.61 26.61 27.38 26.82 26.59 25.98 24.81 24.47 24.28 24.75 25.82 28.01 29.46 30.47 31.12 30.50
30.84 29.51 29.60 29.91 29.98 28.61 26.00 25.34 25.06 24.37 20.37 20.72 22.16 14.88 19.08 21.85 19.55 23.74 24.13 24.62 24.15 22.05 23.27 24.77 24.58 24.52 24.63 24.90 25.48 26.10 24.78 24.39 23.62 22.74 23.57 24.96 26.71 28.34 29.73 29.46 29.67 29.37 30.79
29.33 28.77 28.90 27.31 28.33 27.80 26.57 26.34 24.35 19.55 17.89 22.21 19.39 17.83 15.63 18.09 17.47 18.91 21.10 17.52 22.65 23.48 22.00 22.72 22.15 22.90 22.71 23.21 23.17 23.88 23.55 23.94 23.06 22.67 23.37 24.96 26.75 26.34 26.52 28.40 26.58 29.93 27.65
28.85 28.70 26.74 26.22 26.09 26.96 26.06 24.78 25.26 23.47 21.73 19.55 18.56 17.40 6.33 5.81 16.04 24.62 23.78 22.09 21.72 20.69 15.09 17.59 18.85 19.00 18.79 19.45 19.96 20.94 21.37 22.91 21.71 22.03 22.99 23.11 24.44 25.36 25.34 26.25 27.51 26.19 24.22
28.08 26.86 25.29 24.36 23.10 25.58 25.42 24.82 28.36 28.19 29.86 30.34 28.22 17.10 12.69 20.93 25.23 26.09 25.08 23.57 22.93 21.69 14.40 12.15 15.30 16.16 15.59 17.08 16.97 17.56 18.57 20.09 20.29 20.69 20.51 21.13 21.95 22.79 24.41 24.47 23.44 23.31 22.49
27.96 27.90 24.66 25.15 24.70 23.39 24.09 25.93 22.41 23.89 28.46 28.41 29.49 28.41 26.92 25.20 25.75 25.22 24.52 22.56 21.55 18.52 8.70 8.57 11.97 14.84 15.12 16.26 16.12 16.61 16.18 17.48 18.90 18.76 18.70 18.73 19.65 22.13 22.29 21.89 22.08 21.73 22.83
28.60 25.29 23.51 24.18 22.36 22.49 24.85 25.29 24.88 18.28 14.27 16.08 23.99 27.45 26.84 25.01 24.78 24.14 23.40 19.91 11.52 12.35 9.51 6.59 11.05 14.37 14.55 15.39 14.98 14.65 14.99 14.54 14.08 14.84 15.62 16.25 16.99 19.90 20.20 20.41 20.86 19.92 21.27
28.86 23.16 19.51 25.47 25.34 25.27 25.50 24.35 22.99 20.33 19.14 21.86 15.85 19.15 17.88 23.52 23.26 23.17 21.79 7.52 6.08 6.78 8.43 8.84 5.76 11.83 12.74 13.81 12.45 12.30 10.30 10.62 9.98 9.92 11.97 13.17 14.13 17.12 17.41 19.50 18.75 16.32 16.14
28.94 23.18 19.59 24.29 25.86 24.35 24.79 23.53 24.24 20.23 23.50 21.92 15.61 12.86 12.21 12.08 4.97 1.96 -0.56 -2.74 -1.30 4.32 3.51 7.36 7.42 7.84 6.23 9.77 9.49 9.77 10.35 8.86 8.75 8.67 8.50 9.58 10.83 14.42 15.61 16.52 15.95 15.82 14.95
27.15 23.51 24.22 26.39 26.10 25.39 23.97 24.63 23.65 22.52 21.94 15.76 21.42 17.12 11.25 10.09 5.81 4.78 5.16 1.25 2.30 3.33 0.63 4.50 2.20 0.68 3.52 6.15 11.58 8.31 7.61 2.97 7.05 7.38 7.61 8.51 8.77 10.68 13.82 13.85 11.59 12.35 13.18
23.01 22.82 20.68 20.13 19.87 16.02 19.90 21.92 25.25 21.11 18.06 16.00 15.78 14.35 10.50 3.51 4.39 9.25 9.69 6.54 5.06 4.36 4.29 2.88 3.96 3.97 4.70 6.26 7.08 3.13 5.10 2.89 3.43 5.34 6.04 7.45 8.59 11.10 10.79 9.32 7.85 4.07 6.64
17.65 14.80 16.66 20.14 20.35 21.19 12.80 17.19 22.81 22.76 18.85 23.38 21.30 14.40 10.46 14.82 12.67 12.15 11.54 8.17 3.89 3.22 1.55 0.98 -1.18 2.16 1.63 0.39 1.50 6.46 6.12 6.25 5.99 5.28 3.94 5.76 8.27 9.66 6.75 5.34 7.05 5.26 3.25
18.34 14.95 17.33 18.98 21.50 20.15 13.48 15.06 22.88 21.60 24.09 17.62 12.93 11.75 12.79 14.52 9.77 8.23 8.19 4.32 -0.93 -0.02 -3.28 -0.29 1.45 4.41 3.85 -0.49 0.09 4.13 8.40 6.45 7.16 7.80 6.45 5.88 7.15 8.68 6.24 6.79 7.12 5.34 1.79
24.01 22.77 21.45 20.30 23.11 22.79 15.61 15.91 18.82 23.20 22.52 23.78 14.67 7.96 10.98 15.44 14.22 9.57 11.13 4.14 5.37 0.16 1.75 0.81 -1.22 2.49 1.35 1.32 3.24 4.77 3.50 7.17 6.87 7.73 7.15 7.96 5.80 5.55 6.35 5.70 3.75 6.68 3.47
28.95 26.60 25.22 23.88 23.29 24.57 24.15 17.62 16.83 21.13 20.26 23.30 19.14 12.39 13.72 12.79 12.21 7.69 6.89 1.71 4.82 3.22 -0.12 -1.70 0.01 2.09 0.73 1.80 3.78 5.37 3.66 5.08 7.00 8.99 7.60 8.56 5.32 5.01 4.58 3.89 4.05 4.07 5.80

GFSGL_sfc_wetblb_027.txt.gz
Wetbulb
40.62 40.21 39.48 39.07 38.66 38.67 38.65 38.52 38.22 37.76 37.45 38.57 38.66 38.07 36.54 35.00 34.18 33.13 32.14 31.94 30.60 28.75 28.41 28.29 28.29 28.74 27.94 27.23 27.57 28.07 27.71 27.82 25.65 28.49 31.31 32.65 29.85 29.51 31.54 31.63 33.66 33.94 37.61
40.07 39.06 38.07 37.67 37.46 36.92 37.63 38.02 37.72 37.19 38.57 37.24 37.60 38.16 37.34 34.35 33.54 32.67 31.46 30.66 28.68 27.65 27.43 27.17 27.18 29.16 25.74 25.71 25.87 25.99 26.35 27.29 26.40 25.00 26.93 27.25 27.57 28.86 28.87 29.10 32.56 35.09 32.85
38.73 37.11 36.98 37.14 37.05 36.52 36.39 36.93 36.93 37.42 36.98 37.42 37.18 37.89 34.89 34.60 33.56 31.76 30.46 28.63 27.42 27.22 27.11 26.67 26.43 25.68 24.22 24.47 25.13 25.13 25.94 28.40 27.18 26.22 26.15 26.01 26.39 26.69 26.99 28.17 29.67 28.64 32.09
36.77 36.61 36.70 36.57 37.21 36.34 36.08 35.85 36.42 37.21 36.93 36.13 37.02 34.32 35.49 34.32 32.35 29.99 28.42 27.51 27.53 27.39 27.39 27.05 26.05 25.20 24.22 24.14 24.74 25.30 27.10 26.97 26.91 26.29 25.32 25.06 25.11 26.34 26.04 25.21 24.68 26.19 26.14
36.60 36.52 36.61 37.03 37.12 36.94 37.11 37.21 37.43 36.69 36.81 37.95 36.85 34.33 33.81 32.32 30.48 28.32 28.38 27.96 26.56 26.18 26.83 26.78 26.46 27.16 29.85 28.20 25.70 24.12 24.08 25.06 26.13 25.75 25.55 25.33 24.19 23.20 22.79 24.05 23.28 23.46 24.82
35.59 35.99 37.01 36.77 36.76 35.95 35.46 35.81 35.95 38.03 35.21 35.13 34.71 32.78 29.20 31.00 32.51 32.79 32.10 27.77 27.62 26.51 25.31 26.07 25.73 27.29 26.99 27.70 27.69 28.26 27.41 24.46 23.79 24.39 24.21 23.65 23.71 22.64 23.12 22.79 22.26 21.56 20.90
35.94 36.51 36.56 36.50 35.72 35.31 35.42 34.76 35.02 34.22 33.29 32.43 30.43 28.48 27.96 28.65 32.30 32.13 31.15 27.67 26.59 25.68 24.62 24.49 24.26 25.46 25.52 24.76 26.17 26.98 27.21 28.65 27.65 26.12 24.62 24.62 24.17 24.13 23.92 22.73 21.98 21.98 21.92
34.83 34.82 35.23 35.15 34.44 34.78 34.14 34.40 34.96 34.18 30.54 28.41 27.76 27.81 27.05 28.19 30.55 29.72 28.83 24.36 23.16 23.75 23.12 23.03 23.14 22.95 24.21 24.85 25.39 26.57 25.06 26.68 27.27 27.25 26.56 26.77 26.27 26.62 25.56 25.93 25.03 26.03 24.99
33.04 32.95 33.39 33.71 33.87 33.45 33.49 32.28 32.44 30.36 28.02 28.06 28.27 27.00 25.17 24.35 27.97 28.04 26.41 22.75 22.56 21.84 23.37 23.49 23.79 23.23 25.44 27.95 26.31 24.57 24.24 25.37 28.31 28.86 28.82 28.87 29.38 30.31 30.35 28.69 26.29 25.20 20.37
32.68 32.74 33.03 32.55 32.60 32.13 31.51 31.48 32.69 30.82 29.23 28.15 27.31 25.92 26.48 22.87 25.98 26.43 25.28 20.17 15.22 21.24 22.03 22.80 24.53 25.01 27.10 27.24 25.48 24.58 22.73 23.96 25.16 24.78 24.56 25.63 27.15 26.38 27.62 25.89 24.27 22.71 21.65
33.01 32.49 31.42 30.78 30.06 30.00 29.95 30.38 28.63 26.94 26.39 24.24 24.21 24.10 23.98 23.78 22.47 25.79 25.79 19.93 20.80 21.21 21.24 21.64 23.33 25.97 26.26 26.84 26.64 25.51 25.33 25.83 26.15 26.60 26.47 26.16 25.92 26.01 25.64 25.81 25.58 23.94 22.19
31.97 30.70 29.83 29.69 29.72 28.74 26.75 26.37 26.43 25.39 25.23 23.56 11.04 16.07 20.76 21.71 24.04 24.38 25.74 24.95 24.66 20.20 21.41 22.44 23.97 25.18 25.42 25.47 25.15 26.27 25.83 24.98 24.20 23.70 24.08 24.31 25.03 26.08 27.78 28.65 29.22 28.83 28.69
30.18 29.39 29.09 28.59 28.90 27.89 25.55 24.71 24.82 24.00 20.03 19.88 21.44 14.95 18.70 22.14 19.56 23.61 24.87 24.99 24.38 20.54 21.02 22.52 23.47 23.53 23.25 23.16 24.05 24.67 23.38 23.00 21.87 21.15 21.86 23.59 25.51 27.12 28.47 29.15 29.75 30.00 30.34
30.05 29.47 28.77 27.47 27.53 27.28 26.52 25.95 24.08 19.76 17.24 21.49 19.06 17.77 15.63 17.60 17.01 18.03 21.98 17.41 21.79 20.78 18.00 17.96 18.54 21.70 20.50 21.07 21.12 21.70 21.47 22.33 21.65 20.74 21.78 23.50 25.74 26.19 26.29 27.82 26.99 29.13 27.89
30.67 29.78 28.00 27.19 25.80 27.11 25.92 24.84 25.37 23.98 21.98 19.80 19.10 17.78 5.69 5.52 15.59 24.24 23.27 19.46 14.48 18.16 11.58 9.87 12.35 15.86 16.00 17.49 17.96 18.60 19.10 19.54 18.69 19.47 19.83 20.17 22.12 24.01 25.29 26.66 26.53 26.24 23.27
30.26 29.47 28.27 26.16 22.97 25.43 25.98 24.88 28.10 27.40 29.07 30.00 29.74 17.42 12.41 20.87 25.22 26.15 25.09 23.36 22.34 20.27 11.69 5.40 3.05 6.28 11.16 14.95 14.92 15.51 16.40 15.91 16.66 17.56 17.72 18.33 18.74 20.82 22.85 23.92 23.83 24.04 23.52
29.99 29.94 29.14 25.92 25.57 23.67 24.35 25.81 23.02 23.63 28.00 28.12 28.93 29.33 27.57 25.82 25.70 25.00 24.06 22.10 20.90 17.33 6.10 3.53 -1.11 3.42 5.41 14.32 14.20 14.18 13.37 13.61 14.71 14.66 15.07 15.27 16.35 19.12 20.54 21.07 21.29 22.29 22.20
29.84 28.32 27.49 26.62 27.18 25.31 24.93 25.77 24.50 22.87 14.79 16.28 23.72 26.63 28.49 26.57 25.16 24.12 23.20 19.40 10.56 11.01 7.93 4.05 1.61 2.69 6.30 12.03 13.42 12.78 12.03 10.48 10.09 10.59 11.62 12.17 13.05 15.43 16.78 18.66 19.67 17.01 18.16
29.97 28.09 26.38 24.09 25.95 22.38 24.45 21.16 22.97 23.14 17.28 17.88 15.19 18.11 17.47 25.92 24.07 23.06 21.20 7.65 5.70 5.70 7.35 7.73 2.11 5.05 4.98 6.76 2.87 6.59 6.06 7.55 6.82 5.68 7.91 8.80 9.60 12.55 15.07 16.38 15.80 15.61 15.19
30.59 28.00 25.22 22.70 23.83 23.00 23.40 20.49 23.13 22.70 21.70 22.07 13.76 13.53 14.24 11.54 5.24 1.99 -0.57 -3.29 -3.29 3.97 2.77 6.80 7.11 5.47 1.20 1.55 -2.02 -2.20 2.81 4.47 6.72 6.84 5.99 5.43 6.82 9.35 12.16 13.01 13.91 11.36 12.40
30.02 27.56 26.37 25.65 22.40 21.59 20.83 21.20 23.23 23.07 22.93 17.26 14.52 11.73 11.79 12.63 9.84 8.05 10.62 3.42 5.38 5.26 2.56 4.99 1.82 -1.33 -0.41 -0.97 3.85 -1.48 -1.30 -3.12 4.62 5.98 6.00 6.59 4.89 6.27 10.66 10.19 10.23 10.50 12.06
27.68 25.75 23.83 19.86 18.40 13.28 16.86 17.86 17.08 18.55 18.89 19.64 15.88 14.57 10.66 6.86 12.61 11.32 9.69 9.03 6.66 6.78 6.25 3.94 4.09 4.45 3.77 4.65 2.21 -5.28 -3.13 -4.74 0.04 3.38 4.07 6.24 7.14 7.72 7.78 7.30 6.42 3.84 7.87
25.61 20.15 18.88 18.79 17.71 15.54 11.65 14.74 15.78 17.79 21.27 21.95 22.20 16.16 9.02 9.40 12.00 11.44 10.64 10.04 4.76 4.13 4.53 2.60 -0.62 1.43 0.05 -3.14 -4.01 0.57 -0.64 -0.87 1.48 3.31 3.68 4.20 7.00 8.04 5.19 3.10 4.85 4.83 3.57
26.15 22.13 19.82 18.20 13.56 17.43 16.99 14.83 13.12 15.98 18.54 20.93 20.26 16.42 15.36 11.30 10.80 10.12 10.39 8.31 0.43 1.30 -2.56 0.85 3.58 4.83 3.17 -3.13 -5.10 -2.04 2.91 -1.35 0.09 3.96 4.70 5.14 6.38 7.75 6.39 6.75 5.87 3.89 3.00
27.76 25.92 23.91 23.09 21.34 21.94 22.56 20.82 16.52 15.38 17.72 18.61 17.71 19.34 16.76 13.74 11.02 12.02 9.66 7.63 4.67 0.63 3.80 2.33 2.44 3.33 3.79 2.04 0.74 1.90 -0.57 1.94 -1.14 1.05 3.45 6.96 4.76 3.09 4.62 5.87 3.55 6.44 3.52
29.96 28.33 27.45 26.57 22.92 22.65 23.60 23.55 21.45 20.30 18.01 19.43 22.29 19.56 17.85 18.36 18.40 15.86 12.43 7.70 5.67 5.32 4.29 -0.08 1.87 3.62 2.81 1.71 2.87 2.91 0.66 0.45 -2.10 0.54 0.11 6.64 5.83 4.53 3.53 3.54 4.41 4.61 5.80

GFSGL_sfc_wetblb_030.txt.gz
Wetbulb
39.43 38.82 38.06 37.31 37.11 36.75 36.77 37.20 37.29 37.17 37.26 36.94 37.12 36.66 35.53 35.74 36.34 33.93 33.82 32.99 31.27 29.67 29.07 28.71 28.05 28.23 27.37 27.13 26.99 26.71 26.52 26.97 24.01 26.23 29.14 31.32 32.05 31.86 32.60 32.87 33.92 33.96 35.39
38.29 37.62 36.53 36.61 36.47 35.86 35.76 35.84 36.09 36.27 36.92 36.61 36.21 35.89 36.21 37.40 35.16 32.31 31.86 31.28 28.97 27.88 27.89 27.28 27.51 29.02 26.29 25.64 25.45 24.92 25.23 26.08 25.12 24.22 27.16 28.29 28.98 30.44 30.17 29.83 31.89 34.10 32.72
36.38 35.55 35.68 35.63 35.60 34.95 34.78 35.00 35.51 35.57 35.87 35.62 35.90 37.29 37.19 34.45 32.77 33.25 30.90 29.09 27.77 27.71 27.42 26.88 26.86 26.50 24.77 24.52 24.65 24.54 25.15 26.22 27.62 27.06 26.44 28.42 28.15 28.59 28.33 29.07 29.51 30.11 31.86
35.67 35.18 35.12 35.06 35.10 34.61 35.00 35.07 35.36 36.02 35.37 35.07 37.65 37.06 35.68 33.64 33.69 30.63 28.57 27.74 27.31 27.40 27.65 27.14 26.73 26.15 25.15 24.52 25.06 24.97 24.78 24.84 24.85 24.37 25.64 26.68 26.93 27.97 27.56 26.86 26.52 28.13 27.91
34.91 34.93 35.17 35.41 35.37 34.78 34.76 34.81 35.11 34.98 35.92 36.05 35.24 34.25 31.89 30.49 29.73 28.47 28.70 28.26 27.30 27.11 27.12 27.46 27.68 28.12 29.89 28.63 26.52 25.18 24.18 23.55 24.24 23.97 23.58 24.70 25.53 25.84 24.91 26.52 25.42 25.62 26.81
33.29 34.95 35.58 35.37 35.32 34.67 34.20 34.00 34.01 34.41 35.33 34.93 33.09 30.46 27.82 29.95 32.69 32.72 30.50 27.47 26.76 26.23 25.03 25.26 25.39 26.25 26.10 27.00 26.85 27.18 26.62 24.35 23.86 23.81 23.54 22.94 23.97 25.31 26.00 25.16 24.73 23.62 22.77
34.54 35.10 34.83 35.00 34.49 33.76 33.90 33.17 32.98 32.69 30.49 30.04 28.60 27.72 26.60 28.03 31.73 30.48 30.11 26.37 24.11 23.34 22.76 22.50 22.79 24.51 24.82 24.38 25.34 26.54 26.71 27.77 27.35 26.06 25.16 24.51 25.05 26.14 26.17 24.83 24.27 23.51 23.62
33.52 33.20 33.28 33.06 32.48 32.70 32.33 35.18 31.70 32.28 33.10 28.11 27.06 26.71 26.41 27.34 28.57 28.41 28.28 24.35 22.78 22.86 22.71 22.44 22.46 22.84 24.20 25.04 25.87 26.46 26.27 26.58 26.67 26.61 26.73 26.34 27.15 28.11 27.86 27.56 26.58 26.11 26.56
32.06 31.99 31.93 31.95 31.06 31.33 30.89 30.33 30.72 31.10 30.27 27.98 27.21 26.27 23.90 23.36 27.28 27.06 25.81 22.76 22.38 21.87 23.06 23.25 23.71 23.76 25.64 28.38 25.77 24.68 24.56 25.62 28.22 29.27 29.33 29.33 29.26 29.15 28.95 28.59 25.87 25.32 24.04
31.68 31.59 31.74 30.80 29.58 28.70 28.67 28.84 29.93 30.15 28.25 27.78 26.91 25.39 25.96 22.75 25.15 26.29 25.60 20.80 15.65 20.97 22.52 23.13 24.16 24.68 26.07 26.50 25.50 23.60 22.62 24.05 24.92 26.05 27.10 27.24 27.99 27.79 28.07 26.89 25.52 23.77 24.21
31.72 31.51 30.63 29.69 28.99 28.29 26.87 28.37 28.48 26.79 26.27 24.31 24.13 24.18 23.97 23.90 22.72 25.59 26.45 21.09 20.77 22.22 21.44 21.41 22.84 24.93 25.29 25.58 25.62 24.21 24.41 24.89 24.28 24.56 25.40 26.34 27.33 27.69 27.47 27.02 26.37 24.81 23.15
30.81 30.16 29.17 29.04 29.34 28.51 26.25 26.06 26.17 24.87 24.83 23.49 11.65 16.40 20.83 22.01 24.25 24.16 26.18 25.47 24.51 18.40 19.94 20.98 21.60 24.09 24.20 23.89 23.86 25.01 24.33 23.38 22.79 22.37 22.69 23.81 24.75 25.81 27.39 29.57 29.45 27.53 27.42
29.70 29.35 30.66 30.50 28.43 27.89 25.87 24.69 24.25 23.52 19.90 19.77 20.87 15.63 18.60 22.08 20.10 23.58 24.58 25.37 23.47 17.39 19.67 20.89 22.06 21.96 21.68 21.49 22.22 22.78 21.69 21.28 20.69 19.80 20.23 21.51 23.49 25.78 27.69 28.26 29.55 30.57 29.83
29.42 29.39 30.29 29.45 27.84 27.35 26.81 25.98 24.01 19.84 17.33 20.77 18.99 18.57 16.77 17.36 17.32 18.07 21.65 18.45 20.06 20.04 16.63 15.81 15.32 19.43 15.80 16.76 18.75 19.84 19.44 19.28 19.02 18.62 19.24 20.81 23.25 24.77 25.89 27.86 27.38 29.08 28.23
29.04 29.84 29.77 29.69 27.37 26.29 26.33 24.82 26.01 24.59 22.71 20.99 20.36 18.64 8.29 6.52 15.69 21.81 22.45 17.41 12.01 16.50 9.67 8.26 10.62 11.52 12.97 15.32 15.83 16.77 17.43 16.51 16.12 17.08 17.57 18.31 19.72 21.50 23.57 25.91 25.98 26.07 25.26
29.06 30.26 30.19 29.15 26.42 25.20 25.91 26.48 28.39 27.92 28.35 29.50 29.70 20.81 13.66 21.70 24.96 26.48 25.15 23.70 22.33 19.68 11.08 4.36 -0.34 -0.88 4.71 12.40 13.29 13.58 14.26 12.88 13.46 15.18 15.83 16.26 16.51 18.09 20.68 23.23 23.95 24.13 23.96
28.45 30.21 29.83 28.65 27.31 25.16 24.39 23.58 24.36 26.18 28.44 28.28 28.84 29.06 29.16 23.68 26.69 26.25 24.50 22.70 20.83 17.11 6.79 4.04 -2.87 -3.78 0.57 10.46 12.17 12.40 12.03 11.71 12.67 11.97 12.70 13.26 14.48 16.56 18.66 19.78 20.83 20.44 20.87
30.17 29.44 29.14 28.21 27.12 27.24 23.67 23.31 24.14 22.21 18.34 15.89 23.31 26.71 27.51 29.26 27.65 25.84 24.40 20.03 11.10 10.88 8.54 5.29 1.83 1.48 6.14 9.38 10.57 10.07 10.60 9.80 9.04 8.82 9.62 9.20 10.46 13.52 15.97 16.27 16.80 16.71 17.65
31.31 30.14 28.78 27.36 26.21 25.03 24.62 23.36 20.65 18.99 21.13 18.95 16.10 18.34 17.50 27.40 27.42 25.06 23.07 10.01 7.86 7.19 8.08 8.85 4.02 6.38 7.26 7.40 0.92 -0.15 -3.24 4.19 7.09 5.47 6.83 7.61 6.64 9.18 13.10 14.45 14.85 11.74 13.28
32.13 30.53 28.60 25.86 25.77 21.73 20.43 22.55 23.05 21.57 21.97 22.54 19.61 15.41 12.14 14.08 8.97 3.61 1.12 -1.97 -1.06 6.91 6.31 8.34 8.98 7.77 4.76 4.00 -1.42 -5.41 -0.34 -1.46 2.89 6.40 6.51 5.92 6.26 7.59 9.66 10.19 12.04 12.41 13.52
31.45 31.16 28.41 25.85 25.13 20.33 19.65 17.28 19.00 20.03 21.66 22.50 21.76 16.40 11.08 16.88 14.08 9.88 8.33 2.91 6.55 7.70 6.34 7.51 6.30 2.74 2.36 1.36 5.63 1.29 0.30 -4.14 0.18 3.39 5.90 7.30 6.44 6.86 9.55 9.90 9.97 11.66 12.38
29.51 29.41 27.57 25.05 22.46 15.15 18.08 17.88 16.90 16.48 16.64 17.71 18.28 16.39 12.83 16.89 18.49 13.93 11.26 10.25 9.15 9.17 9.16 7.18 7.51 7.48 6.87 7.72 5.83 -3.05 -1.64 -3.24 -2.41 -0.13 1.81 5.77 7.64 9.07 8.35 8.27 8.66 8.46 9.62
29.32 28.58 25.89 23.26 21.44 17.97 14.93 17.64 14.91 12.80 14.41 15.55 16.83 17.92 11.76 14.85 12.32 12.81 13.08 11.51 9.55 7.63 6.53 5.65 4.07 5.05 4.32 1.11 0.27 4.08 3.30 3.87 2.71 -1.60 -1.06 1.44 6.90 8.55 7.94 7.60 8.03 8.35 7.58
29.10 28.40 25.71 24.05 21.27 20.15 19.17 20.34 20.43 17.37 17.76 18.03 17.47 18.77 17.57 16.78 16.04 14.93 13.55 12.79 9.81 5.92 0.85 3.48 5.99 7.15 6.61 -0.24 -0.99 0.69 5.28 1.67 1.79 3.67 -0.20 0.93 4.29 7.83 7.69 8.59 8.60 7.98 7.40
30.36 29.33 26.40 24.27 24.07 23.51 22.58 22.34 22.85 23.01 21.64 20.76 20.54 17.73 18.41 18.50 16.82 15.10 15.64 13.74 12.69 9.00 6.84 4.00 4.79 6.46 6.85 5.53 3.43 3.66 0.96 3.46 -0.62 -1.06 2.09 2.00 1.30 1.08 6.01 8.11 6.56 8.37 7.23
30.42 29.65 29.52 28.26 26.28 25.16 24.95 24.72 24.50 24.23 23.77 23.09 22.40 21.72 21.00 19.82 18.87 18.60 17.62 14.20 13.90 13.56 12.33 9.26 7.29 5.87 5.65 5.52 5.01 3.60 -0.50 -0.31 -1.49 -1.40 -1.10 4.53 2.39 2.92 4.78 6.86 7.51 7.66 8.37

GFSGL_sfc_wetblb_033.txt.gz
Wetbulb
44.88 44.87 44.69 43.84 43.73 43.54 43.14 43.46 43.42 43.62 43.40 42.76 42.79 42.79 42.11 40.22 40.57 40.97 40.30 38.57 36.91 37.04 36.74 35.49 35.01 35.46 34.68 34.43 33.94 32.68 31.31 30.62 26.91 29.48 31.92 33.47 33.68 34.21 35.71 37.29 38.61 39.16 39.21
44.66 43.61 42.88 42.96 42.76 42.57 42.16 42.00 42.16 41.03 41.47 41.23 41.71 41.05 40.38 39.73 39.38 38.01 36.92 37.27 36.25 34.85 34.14 34.14 33.87 33.61 33.09 33.19 32.24 31.09 30.46 30.57 28.52 25.97 29.49 30.74 31.64 33.27 34.42 35.27 36.11 37.64 37.73
42.66 42.48 42.33 42.01 41.78 41.07 40.64 40.70 40.96 40.54 40.79 41.43 41.15 40.62 38.73 36.87 36.90 37.46 36.85 34.87 33.85 33.61 33.79 33.10 32.59 32.35 31.46 31.63 31.05 29.89 29.33 28.81 28.44 26.18 26.82 29.81 30.15 31.16 31.41 33.88 35.01 36.16 36.53
41.73 41.65 41.44 41.29 40.58 40.31 40.19 39.96 39.95 40.17 39.98 39.75 40.24 39.17 37.24 37.28 36.65 35.42 34.08 33.88 34.03 33.45 33.06 32.35 31.47 30.73 29.85 29.54 28.79 28.33 28.35 27.40 26.57 25.63 26.05 26.67 28.06 29.52 30.44 29.57 30.72 34.32 34.21
40.12 40.32 40.69 40.61 40.51 39.82 39.22 39.31 39.39 38.64 38.70 38.67 37.55 37.23 35.62 34.90 33.99 34.56 34.11 33.18 31.81 30.74 30.58 29.66 29.33 28.81 28.29 28.20 27.69 27.35 26.68 25.37 24.83 25.34 25.07 25.30 25.77 26.47 26.34 28.83 28.97 29.87 32.65
38.61 39.29 40.14 39.58 39.41 38.79 38.41 38.35 38.43 37.87 37.48 37.64 36.59 34.54 34.02 33.76 32.44 31.35 31.51 31.49 29.89 28.45 27.39 27.70 27.64 26.91 27.52 26.95 26.73 27.03 27.12 25.79 25.50 24.87 25.14 24.95 25.96 26.98 28.78 27.68 27.67 26.50 25.48
38.15 39.26 38.56 38.19 37.68 37.56 37.61 37.55 37.30 37.38 36.36 36.19 34.87 33.67 32.71 33.19 29.85 29.45 29.38 30.06 28.22 27.56 26.65 26.37 26.13 27.04 26.86 26.97 27.00 27.73 28.30 28.43 27.90 27.78 26.09 25.96 25.29 27.67 28.23 27.49 27.62 27.23 27.08
38.19 37.47 37.40 37.19 36.65 36.49 36.15 35.92 36.41 37.58 37.00 35.77 33.03 32.35 32.07 30.18 28.20 27.95 27.52 28.66 27.66 26.92 26.67 26.50 26.20 25.86 26.42 26.03 27.61 27.09 27.27 27.49 28.06 28.91 29.25 28.76 29.12 29.75 29.19 28.92 28.42 29.40 30.21
36.09 36.64 37.05 36.54 35.41 34.91 34.78 34.39 35.12 35.87 35.75 34.11 33.11 31.35 29.90 29.25 26.72 27.08 27.44 27.77 26.81 26.13 26.42 26.85 26.26 25.25 25.74 27.19 26.05 25.68 25.06 26.01 28.31 28.53 28.84 29.55 29.93 30.01 29.93 29.50 26.76 27.11 26.68
36.02 36.27 36.58 36.15 34.74 34.29 33.91 33.47 34.68 36.24 35.41 33.75 31.21 30.55 27.80 28.14 25.29 26.32 27.21 28.11 26.17 25.81 26.26 26.10 24.84 24.62 25.28 25.69 25.41 24.67 23.39 24.46 25.09 26.15 27.46 28.84 29.95 30.28 29.37 29.72 28.12 25.16 25.89
36.04 36.00 35.96 35.25 34.22 34.42 33.62 33.41 33.13 33.56 32.67 31.22 29.76 29.61 28.57 27.78 27.47 25.67 26.24 27.42 26.28 25.13 24.52 24.23 24.79 23.86 24.76 24.58 24.45 24.90 24.05 24.65 24.85 25.15 25.79 27.31 28.25 29.00 30.00 31.32 30.67 28.58 26.91
35.87 35.24 34.87 34.51 33.93 33.23 33.04 32.62 31.97 31.54 30.47 29.26 28.20 28.38 29.19 28.35 26.06 26.06 25.75 26.48 25.99 24.84 23.70 23.79 23.92 23.16 22.97 22.43 23.05 23.15 22.71 23.33 24.08 23.78 24.07 24.69 25.58 26.47 28.36 29.82 30.93 32.16 31.37
34.35 34.29 34.30 34.15 33.79 33.60 31.84 31.53 30.54 30.46 29.34 29.03 28.18 28.25 28.26 29.07 28.77 25.13 25.13 25.81 25.14 24.39 24.64 22.60 21.51 21.32 20.96 21.61 20.99 21.36 21.34 22.08 21.73 21.83 21.87 23.12 24.88 26.68 28.99 30.69 31.67 32.07 32.23
33.30 33.83 33.97 33.40 33.32 32.96 31.94 31.35 30.26 29.66 29.00 28.15 27.71 27.41 28.16 28.13 28.17 27.98 27.28 27.89 24.61 23.98 22.32 22.10 19.70 19.52 18.79 19.72 21.04 21.48 20.88 19.88 19.48 20.31 21.13 23.09 25.16 26.15 27.29 29.09 29.30 30.38 30.78
32.88 33.19 33.57 33.30 32.32 32.06 31.12 30.90 30.26 30.78 29.80 28.77 28.36 28.50 28.28 27.66 28.22 26.81 26.95 26.68 26.34 23.55 20.31 21.13 20.21 19.26 18.74 19.38 20.05 19.50 19.12 18.01 18.33 19.62 20.48 20.94 22.40 24.13 25.31 27.44 27.62 29.02 28.20
31.88 32.94 33.46 32.80 32.29 31.60 30.81 30.54 30.23 29.51 29.22 29.29 29.38 29.35 31.00 28.31 26.27 26.64 27.01 25.68 23.55 20.58 21.08 19.54 18.07 17.50 17.22 17.42 18.10 18.04 18.43 15.97 16.50 18.50 19.53 19.90 20.28 21.85 23.09 25.45 26.39 26.13 26.38
31.19 31.86 32.89 32.07 32.03 30.90 30.27 29.76 28.41 29.93 30.35 30.27 29.85 29.53 29.75 29.63 26.93 27.86 27.40 25.69 23.07 20.73 20.80 20.05 18.75 17.77 17.18 17.34 17.33 17.24 16.50 16.69 15.17 16.53 17.72 18.14 18.65 20.51 22.32 22.82 23.76 24.04 24.35
31.60 31.39 31.70 32.41 32.59 31.67 30.79 30.17 29.70 28.27 27.58 28.13 29.03 27.72 28.97 28.73 29.26 29.40 27.33 25.24 23.20 21.45 20.99 20.28 19.49 19.38 18.39 17.68 17.35 16.55 16.13 16.23 15.66 14.32 16.19 16.78 16.89 18.72 20.00 20.38 21.58 20.94 22.26
32.00 31.26 31.66 32.10 31.93 31.45 31.02 29.90 28.94 28.75 28.14 27.44 28.41 26.23 26.71 26.65 28.10 28.86 27.24 25.68 24.36 23.47 22.58 21.08 21.21 19.88 19.40 18.82 17.88 16.82 15.66 15.38 13.71 13.84 14.94 15.23 15.86 16.56 18.24 18.67 19.87 18.31 18.98
32.54 31.81 31.92 32.15 30.91 30.54 30.04 28.58 28.20 27.77 27.75 27.54 27.48 28.16 28.79 22.98 26.88 27.60 26.24 25.51 24.32 23.83 23.86 22.36 21.83 21.22 20.39 19.48 18.76 17.28 17.05 16.92 15.06 14.89 14.55 15.60 15.84 15.89 16.59 17.13 18.27 18.70 19.10
32.12 31.43 31.53 31.80 30.08 30.28 30.05 29.01 28.66 28.07 27.27 27.04 27.58 29.45 26.74 26.53 27.68 27.92 27.04 25.85 24.39 24.61 24.57 23.84 23.21 21.94 21.14 19.95 18.57 18.40 16.62 16.72 15.19 13.71 14.33 15.34 15.07 15.03 15.32 16.99 17.53 17.88 17.88
31.61 31.09 30.77 30.12 30.25 29.94 29.35 28.80 28.33 27.50 26.86 26.66 27.53 28.22 22.68 24.37 26.49 26.30 26.67 26.78 26.82 25.50 25.52 24.97 23.93 23.19 21.96 21.08 20.14 19.17 16.71 15.83 15.93 14.53 13.88 13.66 15.01 15.62 15.47 15.65 15.66 16.61 16.45
31.65 31.54 30.95 30.36 30.12 28.94 28.66 27.98 27.37 26.94 26.48 26.55 26.61 26.74 27.49 26.78 26.23 25.85 27.38 27.65 26.97 25.37 24.42 23.41 23.16 22.27 22.15 20.18 20.10 19.28 17.55 17.40 17.09 14.49 12.70 14.01 14.66 15.68 14.96 15.06 14.67 14.56 14.60
29.92 29.64 29.01 29.90 29.61 29.03 28.80 28.59 28.74 26.59 26.82 27.59 27.95 27.95 27.41 27.67 27.80 27.73 26.94 27.75 26.22 25.54 24.19 21.60 21.10 21.27 21.76 20.86 19.99 18.72 17.98 17.28 16.72 14.85 10.89 13.07 13.96 14.77 14.39 14.97 14.76 13.72 14.10
30.92 30.68 30.90 30.85 30.16 29.78 29.27 28.52 28.32 28.84 29.16 29.02 28.45 28.92 28.56 28.52 27.40 27.63 28.22 27.26 24.73 24.84 23.40 20.08 19.89 20.43 18.91 17.95 18.82 17.36 16.42 13.54 13.01 9.58 13.18 12.96 13.11 12.44 12.68 14.39 13.89 14.06 13.25
30.44 30.02 29.73 29.76 29.88 30.85 30.31 30.05 29.67 29.48 28.92 29.68 29.80 29.33 29.05 28.61 28.54 28.17 27.78 26.55 24.70 23.82 23.74 23.14 20.96 18.74 19.03 18.93 18.13 16.03 11.24 10.00 11.50 7.08 11.91 14.15 13.74 14.49 14.31 13.50 11.82 14.21 12.73

GFSGL_sfc_wetblb_036.txt.gz
Wetbulb
48.40 49.08 49.25 48.18 47.73 47.78 47.17 45.69 45.38 45.53 44.94 43.94 43.72 43.71 43.71 43.93 43.97 42.35 41.50 41.70 40.97 39.52 39.26 38.54 38.50 38.86 37.96 37.73 37.36 36.54 35.31 34.75 30.86 33.43 35.32 36.07 35.76 35.40 36.30 37.51 37.65 38.71 39.54
47.91 47.64 46.81 46.95 46.66 46.54 45.30 44.62 45.13 44.22 43.95 43.67 43.63 43.29 43.24 41.30 41.71 41.30 40.29 39.68 38.22 37.83 38.44 38.27 37.63 37.36 37.09 36.98 36.18 35.11 34.35 34.02 30.69 28.68 32.23 32.14 33.05 34.36 34.47 34.21 35.04 36.76 37.93
46.82 46.14 46.00 45.71 45.53 44.77 43.96 44.42 44.10 43.17 42.95 43.24 42.63 40.46 40.01 40.64 40.30 39.39 38.59 38.74 38.50 38.03 37.81 37.04 36.37 36.01 34.93 35.00 34.62 33.51 32.09 31.46 31.40 30.21 28.82 30.88 31.51 33.24 33.00 34.32 33.71 35.45 37.07
45.30 45.06 45.11 45.00 44.89 44.56 43.67 43.58 42.79 42.71 42.19 41.90 41.68 40.70 39.77 39.77 39.00 38.72 37.99 38.09 37.95 37.30 36.65 35.69 34.68 33.55 32.85 32.21 31.51 31.43 30.69 30.14 30.21 28.78 28.48 28.16 29.87 32.05 32.61 31.23 30.98 33.51 33.59
44.03 43.77 43.84 44.72 44.11 43.41 42.90 42.31 42.05 41.85 41.72 41.81 40.21 39.68 39.70 39.01 38.23 37.77 37.57 37.05 36.45 35.18 34.60 33.66 33.49 31.40 28.68 28.80 29.35 29.36 28.38 27.49 28.19 26.35 26.20 27.49 28.38 29.44 29.23 31.46 30.31 31.80 31.82
43.29 42.65 43.23 42.94 42.13 42.11 41.66 41.08 41.19 41.38 41.33 40.82 40.30 39.47 38.19 37.94 31.58 30.64 31.40 34.93 34.74 33.27 32.39 32.60 32.67 30.78 30.70 28.18 28.29 28.02 28.48 27.45 26.83 26.67 27.23 26.66 27.65 29.36 29.80 29.46 29.47 28.86 27.73
42.30 42.03 42.25 41.48 41.03 40.82 40.55 40.32 40.23 40.26 40.70 39.16 38.69 39.08 37.68 37.56 29.65 29.11 28.82 33.16 32.96 32.43 31.68 31.27 30.76 30.98 29.95 29.18 28.17 28.14 29.24 29.14 28.16 28.82 26.61 27.17 28.29 29.82 29.90 29.01 29.20 29.06 28.77
41.01 40.86 40.77 40.52 39.86 40.07 39.79 39.48 39.71 39.78 39.51 37.98 37.35 37.90 37.27 36.04 28.31 27.74 28.03 32.94 32.69 32.14 31.48 30.99 30.83 30.31 29.50 27.39 27.18 27.12 27.79 29.44 29.52 29.14 29.05 29.23 30.10 30.76 30.77 30.71 30.30 30.23 31.13
39.62 39.66 40.11 40.11 39.51 39.52 38.90 38.85 38.85 38.76 38.66 37.58 37.82 37.29 36.34 35.35 27.75 27.26 28.12 32.02 31.62 30.90 31.06 31.14 29.73 28.76 27.02 26.20 25.60 25.72 25.98 27.37 29.47 28.80 28.72 28.87 29.33 29.83 30.93 30.57 28.43 27.35 27.23
38.94 39.64 40.14 39.87 39.21 38.70 38.53 38.19 38.48 38.45 37.16 36.30 36.51 36.75 33.25 33.91 27.90 26.53 27.98 31.25 29.96 29.98 30.62 30.40 27.90 26.25 24.57 25.33 25.14 25.07 24.46 25.25 26.07 26.74 27.89 29.47 30.70 31.24 30.38 31.38 30.12 27.30 26.64
39.77 39.74 39.20 39.23 38.76 38.74 38.49 38.57 37.89 37.21 36.56 35.99 34.73 35.19 34.73 33.88 32.93 26.69 26.56 29.36 29.62 28.78 28.51 28.76 29.01 25.00 24.10 24.18 23.57 25.18 24.20 24.83 24.94 26.03 26.20 28.01 29.91 30.40 30.81 32.09 32.35 31.14 28.77
39.31 38.49 38.26 38.58 37.87 37.15 37.60 37.88 36.97 36.33 34.84 33.21 33.53 33.08 33.43 33.40 30.26 29.12 26.91 26.52 27.19 27.88 27.15 28.43 27.68 23.73 23.31 22.90 23.51 22.32 22.71 23.74 25.96 25.15 25.41 26.11 27.13 27.94 29.61 31.22 32.54 33.08 33.00
37.44 37.38 37.87 37.58 37.18 37.25 37.05 36.01 35.40 35.33 33.65 32.38 31.01 31.02 31.18 32.18 31.92 28.67 26.98 26.05 26.58 27.40 28.19 26.08 23.15 22.38 22.61 23.67 22.57 21.93 23.00 24.59 23.83 23.45 23.47 24.36 25.99 28.00 30.11 31.56 32.76 34.12 33.77
36.29 36.44 37.11 36.99 36.57 37.15 36.05 34.71 34.28 33.32 31.87 30.25 29.82 29.37 30.16 29.96 30.88 31.23 30.65 29.89 28.07 27.48 27.66 27.05 24.70 21.86 23.09 23.11 25.00 25.07 24.71 23.54 22.06 22.63 23.46 25.01 26.64 27.59 28.30 30.03 29.96 31.70 31.71
35.65 35.91 36.18 36.71 36.27 36.03 35.61 34.35 33.33 33.78 32.71 31.12 30.67 30.23 29.58 29.01 30.16 29.93 29.06 29.66 29.48 27.68 24.59 26.38 26.29 25.13 24.16 24.39 24.85 24.20 24.60 23.24 21.80 22.65 23.00 23.92 24.35 25.10 25.96 28.95 28.87 29.33 29.51
34.35 35.01 36.03 35.86 35.21 34.53 34.27 33.20 31.76 30.52 30.50 30.38 30.20 30.39 32.60 30.89 30.17 28.42 27.72 27.64 26.56 24.21 24.87 25.81 25.44 25.24 23.63 23.23 23.01 23.19 23.84 22.30 21.27 21.30 22.18 22.76 22.58 23.29 24.10 26.14 27.26 27.51 27.20
33.97 33.35 33.47 32.38 32.46 32.74 32.86 32.24 30.52 32.03 31.21 30.91 30.96 30.93 30.42 30.43 30.48 29.31 28.79 28.21 26.84 24.00 24.89 26.42 25.82 25.32 24.83 23.77 23.51 23.02 22.15 22.21 21.01 21.21 21.00 21.69 22.29 22.50 23.57 24.16 24.70 25.15 25.43
34.16 31.83 33.41 33.02 32.87 32.83 33.16 33.10 32.35 30.53 30.02 31.05 31.07 30.19 30.10 29.61 29.86 29.65 29.13 28.40 26.28 24.48 25.44 25.75 25.85 25.76 24.97 24.11 23.83 22.95 22.46 22.10 21.76 20.81 20.98 20.73 21.01 21.25 22.48 22.47 23.47 22.65 23.22
34.71 34.88 34.82 33.58 32.99 32.22 32.52 32.83 32.34 30.79 29.57 29.69 31.27 30.11 30.43 29.02 29.06 29.15 29.09 29.09 26.41 26.23 26.67 26.69 27.07 26.19 25.79 24.99 24.50 23.21 21.93 21.91 20.11 20.09 21.05 20.34 20.95 20.19 20.61 21.87 22.64 21.61 22.11
35.92 32.59 32.45 33.61 33.12 32.87 31.40 31.01 31.16 31.07 30.32 29.25 29.04 29.22 31.25 28.87 30.12 29.91 30.60 30.01 28.23 27.31 27.59 27.21 27.67 27.26 26.39 25.68 24.90 24.08 22.87 22.63 21.98 20.85 20.56 21.14 21.26 21.06 19.77 20.04 21.41 21.63 22.10
35.86 35.43 32.73 33.46 32.26 31.58 31.10 31.41 31.64 31.55 30.47 30.11 31.42 32.94 29.65 29.49 29.12 29.91 30.55 30.92 28.79 28.24 29.00 27.83 28.17 27.48 26.91 26.00 24.68 23.91 22.77 22.78 21.86 20.44 20.28 20.51 20.02 19.90 20.42 20.76 20.24 20.99 21.14
34.91 34.26 33.67 32.63 33.19 33.42 31.11 31.10 32.20 31.61 30.87 30.48 31.62 31.56 29.47 30.10 29.37 29.79 30.93 31.21 31.89 31.64 30.52 29.63 28.32 28.16 27.67 26.67 25.57 24.93 23.18 21.79 22.01 21.22 20.27 18.88 19.94 20.96 20.37 20.31 19.81 19.27 19.64
33.90 33.21 31.76 30.92 31.49 32.05 32.13 30.87 30.65 31.65 31.50 32.04 31.49 31.29 31.66 31.50 31.18 30.24 30.49 32.11 32.49 31.97 31.47 29.79 28.92 28.07 28.40 27.35 26.75 25.46 23.65 22.81 22.97 21.65 18.78 19.13 19.83 20.42 20.06 20.13 19.47 18.82 18.10
32.94 32.13 30.69 31.10 31.47 31.63 31.67 31.39 31.90 31.03 31.55 31.89 31.75 31.75 31.87 32.02 31.57 31.73 31.75 31.75 32.11 31.75 31.37 29.51 28.57 28.52 27.69 27.19 26.24 25.69 24.40 23.21 22.69 21.14 16.88 18.00 18.74 19.45 19.07 18.89 19.51 18.11 18.27
33.37 32.46 32.35 31.81 30.99 31.15 31.12 31.50 31.93 31.75 31.75 31.57 31.57 31.75 32.51 32.11 32.29 31.93 31.93 31.75 31.62 31.14 30.77 29.65 28.47 28.16 26.67 25.75 25.62 24.93 23.75 19.52 19.88 17.98 18.86 17.55 17.47 16.34 16.92 17.68 17.90 18.77 17.35
32.88 31.84 32.11 32.32 31.60 31.65 31.39 31.37 31.57 31.93 31.73 31.75 31.93 31.93 31.93 32.11 32.17 31.93 31.93 31.36 31.21 30.50 30.61 30.53 28.31 27.27 26.87 25.68 24.56 23.65 21.09 17.26 16.61 13.48 17.60 18.69 18.18 18.71 18.69 17.43 15.10 18.02 16.70

GFSGL_sfc_wetblb_039.txt.gz
Wetbulb
51.81 50.58 50.79 49.98 49.22 48.47 48.27 47.72 46.31 46.23 45.56 44.48 44.27 44.48 44.21 44.07 44.25 43.50 43.15 42.92 41.22 41.03 40.56 40.35 39.19 39.55 38.85 38.66 39.04 38.36 37.24 36.53 32.34 34.99 36.58 37.20 35.97 35.94 36.47 37.54 37.85 38.14 38.32
49.65 48.71 49.54 49.15 47.96 47.22 46.86 45.85 46.06 45.23 44.90 44.05 44.17 43.70 43.45 42.50 42.49 40.73 39.96 39.26 39.18 37.98 39.02 38.50 37.96 38.02 37.44 37.46 37.22 35.61 35.85 35.62 33.82 30.36 32.82 33.29 33.24 34.51 35.40 35.33 35.54 35.91 36.77
47.53 49.03 48.41 47.56 47.24 46.52 45.60 45.42 45.38 44.60 43.77 43.80 43.56 42.75 41.88 40.63 39.80 40.18 40.16 39.38 38.41 38.22 38.04 37.25 36.75 36.41 34.99 34.96 34.38 33.69 33.59 33.35 33.23 30.61 29.59 31.98 32.91 33.73 33.13 33.85 34.40 34.74 35.45
48.42 47.92 46.87 46.70 46.46 45.66 45.28 45.13 44.58 43.71 43.05 42.97 43.03 42.37 41.33 40.49 40.03 39.72 39.11 38.17 37.82 37.79 37.70 36.63 35.76 34.65 33.73 32.18 30.90 31.10 31.31 30.59 30.05 28.93 28.93 29.26 30.46 32.27 32.15 30.96 30.92 33.68 33.03
47.28 46.17 45.79 46.17 45.72 45.07 44.40 44.29 43.59 43.21 43.01 43.12 42.27 41.03 40.55 40.41 39.28 37.92 37.85 37.31 36.38 36.11 36.25 35.71 35.29 32.96 30.79 30.21 29.68 29.33 28.73 27.57 27.14 26.60 26.90 27.77 28.61 29.13 28.93 30.75 30.10 31.35 32.33
45.82 45.05 44.95 44.30 44.25 43.73 43.51 42.99 42.53 42.29 42.44 42.53 41.40 40.04 38.92 39.05 31.34 30.90 31.26 34.99 35.26 34.89 34.04 34.23 34.37 34.01 33.09 31.14 30.26 28.96 28.89 26.54 26.03 27.58 27.02 26.31 26.62 28.30 29.90 29.64 29.84 28.49 26.93
44.76 43.96 43.11 43.46 42.55 42.67 42.24 41.84 41.32 41.37 41.70 40.98 39.54 38.63 38.63 38.70 31.24 30.04 29.14 32.97 34.20 34.41 33.99 33.07 32.57 33.15 32.13 31.61 30.11 29.36 28.94 29.30 28.55 28.72 27.13 27.36 27.31 28.49 28.91 28.02 28.52 28.46 28.45
43.22 42.23 42.34 42.28 41.76 41.63 41.23 40.99 41.05 41.25 40.28 40.09 39.22 38.08 37.65 37.34 30.80 29.22 28.42 32.21 34.39 34.30 33.96 33.12 32.25 31.83 30.49 27.56 27.20 26.81 27.95 28.69 29.30 29.39 29.17 28.46 28.70 29.36 29.20 29.38 29.33 29.99 30.82
41.36 41.16 41.22 41.47 40.72 40.52 40.17 40.40 40.81 39.96 39.65 39.39 39.02 37.77 37.74 37.40 30.26 28.93 28.10 32.44 32.85 32.66 32.92 32.81 31.87 30.56 27.80 26.31 25.36 25.31 25.95 26.98 30.22 30.21 29.29 29.56 30.03 30.51 30.78 29.92 28.69 27.76 27.03
40.42 40.21 41.05 40.97 40.17 39.68 39.92 39.90 40.38 39.75 38.68 38.43 37.10 38.08 36.68 36.42 30.40 29.40 28.44 31.68 30.85 31.07 32.04 32.00 29.13 27.20 25.26 24.93 24.30 24.12 22.98 25.56 25.74 26.10 27.46 29.02 30.23 30.99 30.82 30.90 30.63 27.83 27.40
40.87 40.74 40.36 40.23 39.80 39.98 39.64 39.73 39.33 38.90 38.20 36.84 35.75 36.26 35.74 35.23 34.61 29.80 28.35 29.60 30.43 29.70 29.24 29.94 30.92 26.80 25.08 24.39 24.18 24.13 24.15 24.06 24.30 26.02 26.39 27.81 29.09 29.65 30.29 31.65 31.93 30.96 28.96
40.07 39.43 39.30 39.19 39.03 38.92 38.68 38.58 38.77 38.55 36.57 35.40 35.50 33.95 34.62 34.86 33.00 30.54 29.04 27.97 28.30 28.08 28.18 29.76 29.91 26.14 24.68 23.97 24.16 24.26 23.61 23.77 26.94 26.02 25.58 25.89 26.31 27.15 28.81 30.94 32.61 33.40 33.96
38.66 37.94 38.19 38.99 39.26 39.10 37.81 37.73 37.25 36.70 35.36 34.08 33.03 32.83 32.69 34.72 34.92 31.50 30.29 28.45 27.13 27.72 29.52 28.85 26.14 25.94 25.23 25.46 25.51 24.44 23.73 25.92 24.26 23.37 23.53 24.43 26.03 28.12 29.35 30.83 32.20 33.24 33.87
36.51 37.01 37.79 37.84 38.05 38.32 37.94 38.00 36.46 34.56 34.05 33.01 32.07 31.04 31.64 32.35 32.98 33.83 31.72 30.41 28.36 28.77 29.27 29.73 27.58 26.21 25.57 25.08 26.29 27.66 27.16 26.30 23.81 23.48 23.35 25.00 26.88 27.17 27.32 29.34 29.12 30.45 30.88
36.54 36.75 36.63 37.18 37.41 37.37 37.67 37.50 36.03 35.81 34.50 33.30 32.57 32.47 33.33 31.48 31.65 31.55 30.96 31.30 31.42 29.87 26.77 27.83 27.82 27.91 26.92 27.08 26.99 26.62 26.71 26.23 24.56 23.64 23.64 23.62 24.02 24.86 25.60 28.06 28.08 28.57 28.03
35.33 35.82 36.55 36.38 36.69 36.67 35.71 34.62 34.24 32.10 32.02 31.76 31.54 31.44 33.78 31.66 31.01 30.63 29.55 28.97 28.30 27.72 26.25 26.33 27.13 27.98 26.32 25.68 25.75 25.48 26.05 24.98 24.31 23.31 23.38 23.11 22.51 22.91 23.73 25.80 26.76 26.27 25.98
34.74 34.99 35.79 33.91 33.75 32.86 33.11 33.31 32.16 34.84 32.06 31.73 31.31 31.31 31.19 31.26 30.97 30.90 30.73 29.70 28.81 27.56 24.54 26.28 27.40 27.60 26.92 25.99 26.21 25.72 24.70 25.02 23.94 23.90 23.19 23.36 22.34 22.08 23.48 24.04 24.56 24.66 24.25
35.98 32.78 35.31 35.88 35.52 34.16 33.59 33.71 33.10 33.47 32.71 33.76 32.28 31.16 31.29 31.06 31.08 30.97 30.40 29.64 27.75 27.99 26.55 26.58 26.96 27.86 27.17 26.44 26.58 25.72 25.21 24.83 24.24 23.18 22.84 23.08 22.82 21.90 21.71 21.97 22.98 23.00 22.81
36.24 36.89 37.50 37.57 36.31 34.50 34.16 33.33 32.18 32.57 32.31 32.78 32.22 31.31 31.56 30.83 30.72 30.56 30.44 29.13 28.34 28.54 28.27 28.05 29.43 28.52 27.78 27.31 27.36 26.14 25.14 23.97 23.53 22.76 22.86 22.49 22.76 22.27 21.67 21.19 22.04 22.28 22.97
38.39 34.22 33.99 36.45 35.60 34.32 33.74 33.04 32.58 32.28 32.28 32.31 32.23 31.37 32.02 31.13 30.91 30.87 31.10 30.94 30.22 29.57 29.76 28.56 29.11 29.26 29.11 28.08 27.76 26.55 25.25 24.65 24.22 23.64 22.83 22.76 23.09 22.39 21.94 21.28 21.11 20.63 21.60
38.51 37.84 33.97 35.51 35.70 35.13 34.31 33.27 32.30 32.34 32.54 32.50 32.80 33.90 31.72 31.15 30.69 31.71 31.95 32.37 31.59 31.36 31.11 30.17 30.35 30.39 29.81 28.43 26.90 26.09 25.08 24.78 24.05 23.45 22.55 22.58 21.96 20.84 22.35 22.32 21.95 21.14 21.02
37.70 37.29 36.37 35.04 35.36 34.69 33.63 33.40 34.47 32.65 32.70 32.23 32.86 33.46 31.17 31.99 31.53 31.13 31.34 31.93 32.88 33.46 33.09 31.83 31.02 30.57 29.97 28.57 27.73 27.23 25.62 24.63 23.87 23.39 22.75 21.23 21.46 22.00 22.08 21.98 21.74 21.08 20.73
35.63 34.38 33.42 33.81 33.46 32.02 32.17 32.61 31.91 33.12 32.79 32.59 32.56 32.55 33.39 32.57 32.36 32.03 31.73 31.98 32.69 32.61 32.86 32.64 32.11 31.16 31.19 30.78 30.32 27.86 25.94 25.09 24.95 24.75 22.19 21.06 21.45 21.74 21.34 21.15 20.94 20.24 19.46
34.89 33.43 32.85 33.31 32.92 32.71 32.80 32.01 32.54 32.18 32.44 32.55 32.39 32.50 32.72 32.92 32.21 32.39 32.57 32.75 33.01 32.48 32.39 32.48 31.94 30.84 30.08 30.59 29.66 27.87 26.80 26.75 25.58 23.69 20.77 19.86 20.34 20.96 20.82 19.99 20.34 20.00 19.71
34.20 33.12 32.75 33.12 32.39 32.03 31.83 32.12 32.26 32.01 31.67 31.85 32.03 32.39 32.95 33.12 32.97 32.54 32.75 32.93 32.93 32.21 32.01 32.21 31.92 30.69 29.85 29.77 28.59 27.22 26.79 25.25 23.71 23.08 22.04 19.60 19.44 18.53 17.90 18.64 19.06 19.15 19.08
32.48 33.48 32.93 33.12 31.98 31.50 30.86 29.98 29.99 30.26 30.57 31.43 32.00 32.39 32.57 32.49 32.46 32.81 32.57 32.86 32.57 32.93 32.39 32.01 31.62 30.40 29.39 29.22 28.71 27.71 26.40 23.17 20.61 19.40 20.71 20.72 19.84 19.85 20.22 19.38 18.23 18.16 18.75

GFSGL_sfc_wetblb_042.txt.gz
Wetbulb
52.37 51.49 50.23 48.76 48.28 48.00 47.02 45.54 44.43 43.85 43.46 42.57 42.26 41.87 41.77 41.32 40.46 39.48 38.94 38.71 38.07 37.31 36.98 36.68 36.59 36.72 35.00 35.34 34.60 33.42 31.36 30.86 27.55 29.75 31.66 31.61 30.32 30.60 32.56 33.28 34.16 33.35 33.80
51.03 49.44 48.94 48.52 47.83 47.27 46.09 44.92 43.90 42.91 43.28 42.20 41.99 41.67 41.54 39.99 39.33 38.55 38.45 37.86 36.34 35.70 35.84 35.06 35.43 36.37 32.28 31.81 30.94 29.53 29.44 29.43 27.53 25.76 28.51 28.89 28.64 30.19 30.45 30.60 32.72 34.35 32.98
48.99 48.06 47.52 47.44 46.06 45.99 44.96 43.89 43.63 42.78 42.04 41.57 41.56 41.10 40.52 39.73 37.97 38.21 37.58 37.25 36.38 35.63 35.45 34.44 32.98 32.03 29.60 29.10 27.93 26.99 27.63 29.59 27.78 25.92 25.12 27.79 27.90 29.11 28.69 29.78 30.50 30.95 33.94
48.44 47.55 46.47 46.74 46.48 44.85 43.82 43.25 43.07 42.69 41.62 41.32 41.55 41.45 40.48 39.06 39.15 39.16 38.68 36.03 34.41 34.12 33.86 33.16 32.41 31.12 28.44 26.78 26.93 25.30 26.45 25.20 25.26 24.52 24.60 25.01 26.25 28.07 28.84 27.30 27.18 28.73 29.00
47.74 46.53 45.87 46.29 45.48 44.70 43.56 42.83 43.09 42.20 41.49 41.67 41.18 40.69 39.22 39.00 38.75 35.78 34.60 33.00 32.14 31.90 32.37 33.36 31.84 32.33 33.49 30.31 27.36 24.87 24.63 23.99 23.57 23.01 23.21 24.50 25.32 24.86 24.22 26.73 26.86 27.15 28.03
46.44 45.52 45.85 44.66 44.43 42.93 42.21 42.54 42.16 41.51 41.00 40.87 40.19 39.39 37.81 38.95 32.56 32.32 31.97 29.79 31.37 31.15 29.81 30.32 30.59 32.93 31.91 32.12 31.92 29.78 28.31 23.67 23.26 23.52 23.98 23.29 23.50 25.32 26.82 24.91 25.06 23.77 22.27
44.82 44.76 44.03 43.79 42.94 42.14 42.15 41.24 40.29 39.84 40.12 39.21 38.79 38.52 37.19 36.89 32.84 31.60 30.02 29.09 29.12 29.60 29.37 29.12 29.79 31.97 28.55 26.59 28.03 27.93 27.34 28.67 27.71 25.84 24.21 25.41 24.78 24.38 24.44 23.19 23.19 23.34 23.62
44.03 43.06 43.10 42.56 41.43 41.31 40.83 40.25 40.06 39.84 38.76 37.79 37.40 37.47 36.38 37.05 33.06 31.63 29.78 27.30 28.93 29.61 30.07 29.16 28.07 27.59 24.75 25.07 24.18 23.00 24.38 25.49 25.93 26.96 26.03 24.52 24.69 25.57 25.58 25.82 25.32 25.36 26.53
41.91 41.75 41.17 40.98 40.46 39.96 39.32 39.13 39.22 38.64 37.58 36.81 37.34 36.48 35.81 34.19 32.11 30.86 28.55 27.87 28.38 28.49 29.93 29.55 29.20 26.92 26.36 27.12 23.52 22.12 22.48 23.33 27.95 28.14 27.52 28.38 30.17 30.63 30.32 28.56 25.54 24.65 22.99
40.39 40.11 40.77 40.47 39.63 38.75 38.44 38.38 38.74 38.19 37.48 36.65 35.45 35.68 35.69 32.88 32.07 31.08 29.16 27.56 26.82 27.41 28.04 28.21 27.81 25.78 25.87 25.56 20.43 20.49 19.32 21.65 22.20 22.08 23.65 26.34 27.75 28.78 30.26 29.59 28.76 25.61 24.69
40.62 40.81 40.18 39.85 39.17 38.88 38.05 37.67 36.96 36.20 35.36 34.10 32.70 33.16 33.04 33.23 33.23 31.55 30.71 27.28 26.73 26.87 26.09 25.76 26.76 27.18 26.83 26.18 24.87 21.50 20.76 23.40 22.72 22.47 23.81 24.28 26.79 27.22 26.66 27.36 27.93 28.30 27.25
39.59 38.99 38.70 38.32 38.09 38.00 37.12 36.53 36.57 35.38 33.66 32.88 31.67 31.06 31.10 32.11 33.48 32.32 31.23 29.46 29.45 24.31 25.71 26.08 26.67 28.05 27.37 26.29 24.59 25.28 25.37 23.81 21.14 19.53 21.20 22.45 23.52 24.89 26.28 26.85 28.58 29.73 30.76
37.83 36.80 36.87 37.60 38.02 37.87 36.17 35.26 34.54 34.08 31.06 30.81 30.58 29.61 31.41 32.30 31.57 33.63 31.43 30.66 29.45 24.64 25.97 28.01 28.66 27.82 28.19 26.02 27.58 26.81 22.84 21.28 18.81 15.36 19.03 20.14 22.12 25.40 27.00 27.09 27.55 28.94 29.45
35.90 36.23 36.55 36.44 36.14 36.36 36.11 35.43 33.88 32.21 30.71 30.82 30.13 30.42 30.65 29.77 28.82 29.70 28.31 29.05 29.42 27.50 26.42 27.87 25.67 24.94 22.47 22.65 22.32 24.79 23.38 21.26 19.10 17.42 16.98 20.59 22.51 23.02 23.48 25.46 24.23 26.00 26.21
35.79 36.12 35.81 35.74 35.39 35.77 36.37 35.18 32.04 32.54 32.19 30.52 30.49 31.47 30.79 30.29 29.76 29.85 28.88 30.59 30.33 29.40 22.32 22.18 21.77 24.03 23.53 22.64 22.70 22.72 22.37 22.13 19.65 17.67 16.91 18.45 20.43 21.42 21.67 23.77 25.23 24.53 23.32
34.73 34.61 33.92 33.98 33.58 33.95 33.41 32.57 34.12 32.35 32.91 32.54 32.44 30.44 29.77 31.79 31.50 31.26 31.30 30.90 30.08 28.81 22.23 19.35 19.63 21.32 22.51 20.76 19.42 20.08 20.34 19.93 20.20 19.16 18.08 19.12 19.45 18.77 20.13 22.09 24.48 23.78 21.68
33.22 32.99 33.12 32.09 32.38 31.52 31.25 31.23 30.20 32.92 33.84 33.13 32.49 32.35 32.17 31.20 31.95 31.93 31.62 31.25 30.69 28.55 23.39 20.14 20.89 24.07 22.51 22.07 20.78 20.36 18.19 18.85 19.41 19.54 16.62 16.96 17.76 20.09 18.77 20.40 20.91 22.10 20.70
33.99 32.65 33.03 33.27 33.37 34.15 33.20 32.22 31.72 29.95 29.77 29.85 32.38 31.79 32.06 31.81 31.68 31.55 31.29 30.35 26.76 27.67 25.68 23.38 23.19 24.82 25.49 23.04 21.60 21.20 19.49 17.59 17.39 17.71 14.08 14.79 13.39 16.12 18.91 17.05 19.14 18.82 19.41
34.55 34.41 34.32 34.51 33.98 32.77 32.55 31.84 31.04 31.32 30.88 29.76 30.35 30.10 29.97 31.86 31.94 31.48 31.17 27.21 24.77 24.67 25.93 25.56 25.17 25.48 26.75 23.10 21.06 21.08 16.71 15.29 14.88 11.53 13.69 14.21 11.87 15.93 14.55 18.24 14.79 17.12 18.14
35.90 33.87 32.62 34.17 33.69 32.67 32.64 32.67 32.20 31.09 30.74 30.07 29.84 30.19 30.94 28.15 28.33 28.24 28.14 27.80 26.39 25.67 25.51 25.94 25.39 25.78 27.28 26.71 22.18 21.16 19.06 19.90 17.03 16.99 14.47 11.04 12.78 12.65 14.02 12.79 13.48 11.03 17.20
35.86 35.60 33.76 33.79 33.31 33.24 33.33 32.46 32.66 32.02 31.40 30.42 29.96 31.04 31.17 31.04 30.01 30.07 29.89 29.36 27.87 27.63 27.73 27.36 26.27 26.49 26.67 26.52 23.77 21.10 23.24 20.99 20.17 18.16 15.78 13.89 10.41 10.03 16.21 14.96 13.44 14.77 16.29
34.09 34.08 33.76 33.11 32.95 32.41 32.71 32.59 31.16 29.91 28.99 29.20 31.23 30.11 31.25 31.61 30.35 29.99 29.69 29.71 30.42 30.70 31.08 30.27 28.91 27.83 27.15 26.47 25.35 23.43 22.14 20.56 19.32 15.53 15.67 13.41 11.97 13.00 14.46 12.60 15.34 11.13 13.35
31.76 31.92 32.38 32.50 32.23 32.01 31.66 30.64 30.32 30.38 29.36 30.14 30.87 29.97 30.21 31.13 31.34 30.41 30.36 30.68 30.65 30.58 30.83 30.81 30.90 29.41 29.63 27.63 27.49 25.89 24.34 22.92 21.38 18.17 15.35 12.10 11.95 12.80 11.14 10.71 11.62 13.39 9.53
29.53 29.44 29.84 29.83 31.58 31.38 31.39 30.47 30.28 28.63 28.80 29.38 30.24 31.32 31.17 30.80 31.08 31.81 31.95 31.94 31.84 31.50 31.22 31.63 31.24 30.30 29.75 30.04 28.40 27.28 23.99 22.99 22.54 18.21 14.43 11.17 11.07 13.06 12.30 11.11 10.32 11.17 8.78
28.96 28.94 29.31 29.16 30.54 31.56 30.91 28.18 28.98 28.61 28.86 29.05 29.97 30.38 30.43 30.98 30.57 30.49 30.68 31.50 31.78 32.03 32.17 31.97 31.55 31.10 30.07 29.39 28.61 26.64 24.14 23.65 20.74 17.37 17.83 13.26 9.65 8.63 8.56 8.88 7.53 10.06 9.62
28.32 29.22 29.77 30.11 30.04 30.13 27.79 26.37 25.32 25.70 24.49 24.05 24.79 25.12 25.63 26.56 28.36 29.68 30.09 28.86 29.92 30.41 30.74 32.18 31.96 31.28 30.30 29.72 29.03 27.01 25.32 23.01 20.30 17.43 17.97 16.56 13.84 10.67 9.96 11.55 8.95 8.11 11.03

GFSGL_sfc_wetblb_045.txt.gz
Wetbulb
48.78 47.23 46.41 44.91 46.73 47.12 46.03 44.62 43.28 42.21 41.98 40.36 39.57 39.35 39.26 38.71 37.91 36.86 36.11 36.33 35.47 34.86 34.78 34.79 33.73 33.86 31.57 30.70 29.94 28.81 26.96 26.29 23.02 25.45 27.27 27.91 27.24 27.82 29.91 30.54 32.04 31.40 31.83
48.81 47.00 46.66 47.25 47.78 46.02 44.86 42.57 42.90 41.64 40.95 39.40 39.98 39.63 39.72 38.15 36.75 36.41 36.41 36.10 35.42 34.49 34.48 33.12 32.46 34.02 29.16 27.96 26.34 24.91 24.48 24.67 23.38 22.16 23.95 25.27 25.14 27.09 27.62 27.41 30.57 32.67 31.53
47.25 47.21 48.14 47.59 46.65 44.64 44.27 43.26 40.93 40.14 39.41 39.46 40.10 39.09 39.01 37.62 36.36 36.43 36.07 35.78 34.96 33.86 32.40 31.51 30.83 29.85 26.48 25.41 24.99 24.14 23.97 26.67 23.41 22.29 22.54 24.81 24.85 25.95 26.18 28.11 28.35 28.88 31.61
46.94 47.07 46.10 46.15 45.08 43.93 42.38 41.54 40.34 39.71 38.99 40.01 39.50 39.57 39.58 37.90 37.68 38.21 36.54 33.67 32.39 31.90 31.79 31.00 30.40 28.00 26.27 25.30 25.30 23.54 24.54 22.87 22.76 21.78 22.18 22.73 23.79 25.87 25.71 24.30 25.04 27.27 27.27
46.71 46.19 45.53 45.67 43.76 42.50 41.82 41.15 40.93 39.77 40.61 39.99 39.57 39.39 38.30 37.75 37.60 34.41 33.79 31.82 30.77 29.84 30.22 30.69 29.82 31.79 35.00 29.68 26.16 23.15 23.20 22.16 21.80 21.33 21.59 22.53 22.96 23.14 23.39 27.14 23.79 23.94 24.84
46.23 44.73 43.82 43.18 42.28 41.93 40.93 40.72 40.34 39.96 39.40 39.11 38.62 37.97 37.08 37.53 34.33 34.09 32.19 29.56 29.70 29.08 27.57 28.42 28.33 31.30 30.81 30.98 29.96 29.00 26.82 21.89 20.66 19.48 21.61 21.43 22.14 24.46 23.44 21.98 21.90 20.69 19.56
43.45 42.95 42.62 42.69 41.75 40.68 40.32 39.70 38.66 37.80 37.56 37.51 36.88 37.15 36.39 34.93 34.05 33.88 32.04 28.42 27.83 27.00 26.92 27.42 28.12 29.94 27.42 25.02 25.84 26.34 25.53 26.67 25.82 23.55 21.66 22.36 22.61 22.57 22.34 21.88 22.23 21.98 21.84
41.41 41.01 40.22 40.37 40.16 39.67 38.89 38.63 37.66 37.93 37.43 36.34 35.80 35.89 35.59 36.32 34.13 33.56 31.19 27.41 27.64 27.31 27.74 27.17 26.20 25.47 24.80 24.54 23.37 22.27 22.44 22.90 23.76 24.44 22.61 21.55 22.28 23.99 24.54 25.50 24.95 25.08 25.45
39.97 39.54 39.61 39.43 38.49 38.49 37.64 37.00 37.38 36.82 36.38 35.49 35.63 34.75 34.44 33.31 33.93 32.91 29.67 27.22 27.43 27.01 28.23 27.83 27.69 24.44 26.76 26.75 23.21 21.63 21.21 21.99 25.67 27.29 26.75 27.56 28.30 29.09 29.05 28.24 25.19 23.97 21.79
38.60 38.83 39.47 39.30 38.40 37.33 36.97 36.46 36.67 36.17 35.95 35.08 34.03 33.94 34.52 31.03 33.21 32.62 30.21 26.82 26.10 26.49 26.63 26.87 27.93 25.15 25.98 26.32 20.38 19.18 17.70 20.16 21.84 21.82 22.32 23.75 25.86 26.33 28.68 26.50 24.86 23.03 23.53
39.02 39.18 39.01 38.78 37.92 37.34 36.09 35.66 35.15 34.35 33.44 32.21 31.83 31.61 31.91 31.66 30.10 33.27 32.42 26.90 26.33 25.94 26.11 24.82 25.17 27.43 27.20 27.74 26.61 20.88 18.82 22.59 23.17 21.72 21.59 21.93 23.33 24.27 25.31 25.95 26.06 25.71 24.62
38.61 38.28 38.21 37.57 36.69 36.93 35.26 34.93 34.59 33.45 31.30 30.88 27.01 28.59 29.39 31.00 32.74 33.54 33.44 31.78 28.53 24.03 25.24 25.17 25.39 29.32 28.87 28.28 26.52 26.21 26.44 24.75 16.76 18.09 18.24 19.36 19.95 21.23 23.20 24.74 25.96 26.45 27.95
37.00 35.97 35.68 35.99 36.18 36.14 33.47 32.69 31.72 31.56 28.97 29.26 28.86 26.17 27.69 29.77 29.34 33.04 33.18 32.06 30.65 26.30 25.17 25.62 28.17 29.27 28.92 27.47 28.02 28.09 24.21 20.05 16.71 13.08 15.73 17.08 18.57 21.60 23.52 23.77 25.23 25.42 26.99
33.79 33.99 34.01 33.95 33.80 33.52 33.88 32.85 30.79 26.96 25.53 28.02 27.27 27.21 26.13 26.62 26.12 25.76 28.17 29.78 31.13 28.51 25.63 25.42 23.61 24.71 21.50 22.08 22.41 24.37 23.00 20.00 18.08 15.52 14.56 16.53 19.20 19.61 19.36 21.65 21.33 23.55 23.42
33.34 33.46 32.78 32.75 32.06 32.25 32.91 31.47 28.92 28.49 27.67 26.56 26.64 27.05 23.84 23.69 27.72 29.53 28.05 26.90 26.04 26.40 25.05 25.13 22.28 19.22 20.79 23.03 22.26 21.61 20.97 20.15 17.76 14.46 13.78 15.86 18.34 19.20 19.08 20.74 21.98 23.11 19.00
31.66 30.94 28.45 28.75 29.00 30.32 29.96 29.39 32.17 31.46 32.71 33.12 32.83 28.55 29.14 31.78 32.29 32.85 32.27 32.21 31.80 29.59 22.71 17.24 11.46 10.39 15.99 21.43 21.63 19.30 17.38 17.43 17.99 17.15 13.52 16.13 15.84 15.81 18.35 19.81 20.99 20.32 19.52
29.62 29.71 29.20 29.52 28.74 28.96 28.16 28.51 28.72 30.06 33.30 33.31 33.29 33.33 33.11 32.56 31.87 32.68 32.06 31.45 31.15 29.11 18.77 17.91 12.93 15.15 17.41 22.39 23.45 20.17 17.54 17.50 17.51 16.06 13.82 12.04 13.66 16.85 16.43 18.25 17.23 19.00 18.53
29.75 30.21 29.91 29.80 29.48 30.00 29.73 30.28 30.36 28.64 27.78 27.64 29.76 31.84 32.07 32.65 32.46 32.55 32.26 31.46 25.27 27.51 26.06 22.57 19.54 19.41 20.29 22.85 24.27 20.89 17.88 15.51 15.19 14.72 10.24 7.14 5.30 10.65 11.57 15.77 16.54 10.23 17.10
30.34 29.19 30.28 30.70 30.60 30.87 31.84 31.97 31.59 29.90 27.25 28.07 28.92 26.90 26.68 31.81 32.45 32.76 32.11 29.27 26.09 24.26 24.43 25.03 24.54 21.96 22.57 23.20 21.90 20.08 14.61 11.79 10.01 6.52 7.16 8.27 5.13 9.59 8.96 13.43 12.66 11.44 11.07
33.99 32.37 32.35 32.79 31.24 31.48 31.08 30.60 30.91 30.81 30.79 30.70 29.44 27.37 27.41 23.85 25.55 27.73 29.69 29.41 27.74 26.21 25.73 24.43 24.23 24.24 24.32 25.47 25.22 20.84 16.50 11.53 10.62 8.23 7.25 9.71 2.23 5.45 6.48 8.68 8.14 8.87 13.40
29.82 29.99 28.25 29.83 29.74 30.54 30.10 31.02 30.96 31.21 30.89 29.81 27.30 26.20 25.18 28.66 30.15 27.22 27.40 28.27 28.03 27.73 27.14 26.40 26.11 25.17 25.48 25.42 24.28 21.95 21.35 18.89 17.21 15.43 13.29 7.89 1.07 6.20 7.98 9.78 7.06 13.56 13.22
27.53 27.31 27.07 26.39 27.55 27.88 27.98 30.49 31.39 28.28 24.62 23.47 24.48 25.63 27.23 30.34 29.39 29.60 29.81 30.27 30.13 29.72 29.00 27.74 27.09 27.39 27.01 26.42 26.09 22.10 20.26 18.49 17.25 14.29 11.56 7.38 8.15 7.36 6.51 8.15 5.77 8.06 8.86
22.32 23.21 24.31 25.10 26.02 26.84 27.38 28.64 30.33 28.23 26.76 23.92 22.18 24.48 24.57 27.35 29.04 29.39 30.19 30.21 30.76 30.70 31.00 30.77 30.38 29.20 27.77 27.89 28.15 26.78 24.04 20.95 20.64 19.11 14.53 10.37 9.18 7.30 4.74 6.33 6.27 6.03 5.89
22.51 24.10 24.22 26.02 27.28 27.04 27.67 26.60 28.84 28.32 25.55 25.55 26.21 26.25 27.16 28.59 30.06 29.76 29.56 31.46 31.87 31.52 31.46 30.92 30.49 30.27 29.93 29.05 28.53 27.77 25.97 24.70 22.70 21.22 16.46 12.87 11.12 9.89 4.86 6.03 5.69 3.59 3.91
19.87 20.28 21.00 21.12 22.25 22.46 23.48 23.58 24.21 23.31 22.23 17.31 17.83 18.16 20.57 22.26 23.05 25.01 25.97 27.88 30.38 31.09 30.42 31.16 31.59 30.85 30.32 29.98 29.56 27.81 26.34 25.36 21.35 18.76 15.68 12.26 10.49 7.25 4.48 5.01 2.40 5.70 3.80
16.13 16.94 15.10 16.25 16.54 17.92 19.44 19.51 20.53 19.99 18.02 16.86 17.07 15.51 17.49 19.70 19.47 20.53 20.70 19.62 18.66 19.01 26.60 29.68 31.30 31.55 31.26 30.25 29.80 27.85 26.00 25.51 21.55 18.14 18.22 16.02 13.13 10.40 3.95 3.96 4.61 3.77 6.25

GFSGL_sfc_wetblb_051.txt.gz
Wetbulb
49.68 47.55 46.76 46.76 46.58 46.79 44.52 43.72 42.50 42.61 42.83 43.07 41.28 39.79 39.33 37.96 37.01 35.26 34.85 34.98 34.91 34.48 33.61 32.76 32.14 31.95 29.84 29.00 28.51 27.01 25.58 24.80 21.56 23.04 23.95 24.12 23.01 23.34 25.13 25.49 27.63 26.90 28.31
49.68 48.31 46.84 47.07 45.55 44.22 43.41 42.93 43.95 44.56 43.63 41.52 40.83 39.34 39.20 37.53 36.83 36.22 35.73 34.84 33.87 33.39 33.30 31.32 31.13 32.89 29.13 28.25 26.89 25.70 25.08 23.97 22.58 20.62 21.55 22.22 22.54 23.25 23.73 23.64 26.90 29.23 27.77
47.91 46.76 45.58 45.61 45.03 43.61 43.67 44.76 44.47 41.59 41.31 40.16 39.50 38.37 37.18 37.39 36.90 35.87 34.44 34.69 33.82 33.81 33.02 30.59 30.35 29.77 28.78 27.48 26.08 24.61 23.42 25.21 22.63 21.48 21.66 22.36 22.11 22.65 23.43 24.40 25.31 25.92 28.08
46.83 46.10 45.75 46.34 45.59 45.26 45.12 43.05 40.40 39.01 38.88 38.35 38.02 38.23 38.32 38.14 36.87 36.42 35.93 35.15 34.37 33.23 31.48 30.73 30.45 29.79 27.97 26.02 25.12 23.79 23.54 22.18 22.18 21.10 21.22 21.25 21.15 23.07 22.99 22.23 22.80 24.43 23.60
47.07 47.22 46.65 46.74 45.21 43.35 41.68 38.61 38.82 39.54 39.21 39.06 38.72 38.56 37.66 37.50 37.30 35.50 35.20 33.01 31.50 30.43 30.33 30.35 29.82 30.39 32.00 29.22 26.00 23.54 22.35 21.45 20.75 20.04 19.54 19.52 20.23 20.26 20.60 22.07 21.02 21.47 22.89
47.15 46.98 44.35 42.36 41.62 41.34 41.11 40.34 39.49 39.04 38.87 38.62 38.22 37.66 36.18 36.72 36.40 36.82 34.51 30.91 30.60 29.09 28.30 27.74 28.19 30.97 31.44 33.55 32.88 30.22 25.61 21.80 20.11 18.13 18.10 18.17 18.75 19.85 19.90 19.44 19.89 20.03 19.41
43.12 42.67 42.49 41.93 40.44 39.55 38.97 38.14 38.18 38.17 38.55 37.31 36.43 36.56 35.57 34.93 36.26 36.85 35.62 29.80 28.69 27.89 26.93 26.70 27.56 29.30 29.94 27.56 29.99 28.97 27.60 27.33 24.83 19.94 17.76 18.50 17.70 20.00 20.37 20.65 21.60 22.46 22.52
40.74 39.92 39.20 38.74 38.47 38.85 38.87 38.88 39.44 39.00 36.29 35.30 34.81 34.28 33.58 34.16 35.91 36.12 34.90 29.72 27.29 27.02 26.68 28.18 28.76 27.61 26.88 25.91 24.05 23.05 23.25 23.53 23.24 22.64 20.72 20.85 21.10 22.08 22.55 24.13 24.28 24.00 23.74
37.62 37.86 38.47 38.81 38.46 38.61 38.92 38.64 37.83 35.37 34.00 33.17 33.31 32.34 31.31 31.43 34.69 35.37 33.63 28.72 26.67 26.34 27.38 27.88 29.27 26.41 28.26 30.13 24.59 23.19 22.86 23.16 25.60 26.44 26.89 27.14 27.31 27.11 26.21 22.15 19.88 20.38 18.62
37.56 37.99 38.85 39.06 39.55 39.50 37.73 35.78 34.21 33.49 32.64 31.69 31.15 30.94 32.26 30.86 33.82 35.37 34.14 27.44 26.00 27.05 26.99 27.64 30.73 28.48 28.40 29.10 22.96 21.51 19.64 21.63 21.55 21.37 22.07 23.47 24.12 23.77 25.53 23.08 21.45 18.97 19.19
39.91 40.34 41.23 40.34 37.36 36.54 33.85 32.56 31.78 30.78 30.08 29.20 29.50 29.50 29.49 30.15 30.52 34.40 35.12 28.35 27.74 27.22 27.07 26.87 27.09 29.40 29.66 29.06 28.46 22.77 20.77 23.13 22.47 22.12 22.37 21.46 21.64 22.01 22.45 22.91 22.77 21.04 19.20
38.94 38.13 36.60 36.13 34.52 33.96 31.90 30.92 30.73 29.38 28.37 28.38 24.49 27.49 28.32 29.11 31.63 32.57 34.36 34.02 30.59 26.76 27.00 27.31 27.47 29.69 30.01 29.75 28.17 28.15 28.55 25.24 22.22 19.91 18.40 18.41 18.30 18.92 20.88 21.72 22.91 22.86 23.43
35.00 33.45 32.97 32.68 32.50 32.07 30.27 29.64 28.72 28.22 26.68 27.22 27.56 26.47 27.54 28.05 27.48 32.18 33.40 33.46 33.04 29.29 28.63 28.63 29.31 29.88 30.48 28.79 29.63 29.72 25.82 22.19 19.56 13.46 16.78 17.05 16.76 19.32 21.56 21.98 22.87 22.47 22.84
30.88 30.55 30.36 30.09 29.99 29.98 29.73 29.79 28.32 26.51 25.84 27.91 26.97 27.15 27.20 27.13 26.23 26.59 27.39 27.84 31.72 31.80 29.40 29.64 27.54 28.16 25.97 25.11 23.89 25.89 22.90 21.77 20.86 18.90 16.44 15.17 16.71 17.91 17.16 19.16 16.92 19.34 19.41
29.72 29.73 29.51 29.43 29.10 29.21 29.16 29.32 29.46 29.58 29.45 29.91 29.54 28.77 27.57 26.26 27.26 29.32 28.22 26.33 26.25 28.16 27.73 28.63 25.56 25.11 24.39 24.27 23.37 22.83 21.76 20.48 18.61 15.31 14.86 14.81 16.24 17.36 16.20 17.81 18.60 18.55 14.20
29.72 29.17 27.80 27.41 27.42 28.21 28.32 28.82 31.96 31.41 32.23 32.55 32.60 30.93 31.50 30.93 32.07 32.90 32.83 32.64 32.78 31.66 27.09 25.13 23.77 23.64 23.76 22.72 21.79 22.10 20.13 18.71 20.56 18.17 15.56 16.13 16.21 14.59 14.71 16.70 17.26 14.31 13.82
27.76 28.71 28.38 27.83 27.93 28.01 28.19 28.13 27.16 30.16 32.47 32.52 32.92 33.15 33.30 33.09 33.55 33.53 33.41 32.94 32.66 31.64 27.80 24.61 23.89 23.60 22.69 21.87 21.48 20.70 19.53 18.88 19.78 18.17 17.24 15.56 15.50 14.76 13.00 14.23 13.46 14.09 13.85
25.79 26.25 24.97 25.10 25.42 25.89 25.39 25.92 26.64 26.00 25.13 25.64 29.77 31.47 32.51 32.91 33.00 33.42 33.39 32.35 29.82 30.19 29.41 25.52 21.55 22.37 22.81 22.36 21.75 20.63 20.83 20.09 16.53 16.22 14.39 15.66 11.17 10.54 10.45 11.88 12.72 6.50 10.48
22.88 22.00 22.13 21.68 22.20 21.92 22.89 22.84 23.13 22.95 23.20 23.93 25.16 26.85 28.92 31.64 31.87 32.35 32.55 29.69 28.31 27.98 28.35 27.67 25.79 25.27 23.59 23.61 22.85 21.49 20.82 18.69 12.20 10.37 15.29 14.64 9.91 10.35 8.12 9.88 8.29 8.37 7.36
20.99 20.35 19.90 21.48 21.82 22.30 22.17 22.12 23.05 23.22 23.43 23.91 24.19 24.51 26.25 26.04 26.83 24.87 20.59 20.07 24.89 28.10 28.78 26.29 27.03 26.55 26.04 24.25 23.23 21.45 19.15 16.57 13.85 14.19 14.26 14.50 10.67 8.15 7.54 5.36 1.73 3.78 10.49
19.85 19.84 18.64 20.20 20.26 20.01 19.74 19.33 21.56 21.00 19.18 19.50 20.75 24.85 26.30 27.10 27.76 25.45 26.96 27.99 27.54 27.64 28.65 26.82 26.01 26.50 26.99 25.98 24.64 22.73 21.93 19.61 18.51 17.47 18.13 15.25 10.19 6.49 7.84 6.21 3.34 7.40 10.29
17.45 17.45 16.43 15.04 16.49 14.88 15.14 17.46 18.15 17.76 16.83 16.76 17.01 18.79 19.14 19.68 20.95 23.62 23.80 23.35 23.49 26.71 29.21 29.41 28.45 27.56 26.93 26.16 25.54 24.54 23.72 22.46 21.18 20.05 18.29 17.23 14.38 10.24 6.76 3.99 3.00 2.22 5.54
13.39 12.91 10.88 12.10 11.67 10.89 12.23 12.17 13.55 11.89 12.72 13.49 14.39 15.34 15.67 16.40 15.15 14.40 15.15 16.20 16.48 17.23 18.78 19.83 26.29 28.68 27.93 27.50 27.68 26.88 25.36 23.89 23.87 22.98 20.02 17.55 14.93 11.19 3.76 3.31 3.80 1.98 2.35
9.85 7.29 8.25 7.22 7.09 7.82 6.90 7.64 8.78 7.37 8.47 8.84 10.09 12.04 12.18 13.15 12.51 11.40 11.60 11.26 11.32 12.74 15.72 17.09 17.64 18.82 27.16 27.74 28.28 28.61 28.39 27.62 26.36 23.89 22.71 18.83 16.38 12.50 9.36 4.13 4.08 0.73 0.18
2.80 0.84 -0.78 2.76 2.08 3.53 3.10 5.09 4.17 4.53 4.70 5.24 6.80 7.98 9.92 9.98 10.75 9.20 9.67 9.10 9.01 9.97 11.16 14.31 15.86 16.06 17.33 18.01 28.10 28.16 28.07 28.10 26.95 25.04 23.03 20.13 17.67 14.91 13.50 9.41 5.25 5.47 1.08
3.95 2.50 0.91 -0.95 -1.32 -0.05 -0.26 1.85 0.33 1.72 2.28 3.30 4.68 5.53 6.73 7.79 8.77 7.62 7.59 7.07 6.19 7.60 9.12 11.25 13.57 14.22 15.89 18.94 22.45 29.42 27.92 27.50 26.78 24.32 23.19 20.77 17.83 15.73 13.52 11.88 9.20 7.01 8.95

GFSGL_sfc_wetblb_054.txt.gz
Wetbulb
55.57 54.40 51.68 48.50 47.53 46.37 45.65 44.35 43.40 43.06 42.92 42.75 42.92 42.18 40.20 39.84 39.03 37.60 36.50 35.24 34.26 34.13 34.52 33.21 32.59 32.13 30.46 29.57 29.37 28.77 27.66 26.54 23.72 25.42 25.72 26.04 25.31 25.59 26.38 26.66 27.61 27.49 28.43
52.73 49.98 47.71 46.81 47.23 47.05 44.23 44.74 43.85 44.04 44.61 44.66 42.20 40.16 39.81 39.07 38.06 36.94 35.62 35.17 34.40 33.93 33.93 32.93 31.89 32.72 29.47 28.60 27.85 27.47 25.89 25.56 23.88 22.03 23.48 24.17 24.13 25.38 25.06 24.75 26.44 28.39 28.47
49.68 48.42 47.79 47.14 46.38 45.31 44.44 44.11 45.50 45.03 43.18 40.66 40.74 39.65 38.96 38.30 37.51 37.19 36.64 35.39 34.13 33.45 33.30 32.25 30.63 29.17 27.79 28.32 28.21 26.09 24.97 26.08 24.21 22.63 22.55 23.88 24.00 24.42 24.02 25.34 25.56 26.55 27.78
48.63 48.46 47.48 46.83 46.03 43.69 44.74 45.36 44.26 41.69 40.23 39.34 39.11 39.36 39.01 38.49 38.05 37.20 35.84 34.26 33.54 33.40 32.96 31.41 29.81 28.79 28.00 28.41 26.75 25.61 24.89 23.27 22.94 22.36 22.21 22.46 22.45 23.57 23.89 22.46 22.28 24.51 24.15
46.77 46.68 46.70 46.33 45.50 45.07 44.20 41.36 40.62 40.34 37.95 39.52 39.00 38.84 38.99 38.01 37.24 35.65 34.79 33.26 32.47 31.74 31.02 29.98 29.76 30.42 32.80 30.60 26.71 25.28 24.07 22.38 22.28 21.84 21.05 21.26 20.79 20.03 19.79 22.37 20.75 22.10 23.58
46.18 45.67 45.54 44.60 43.59 41.01 40.15 40.05 39.60 39.00 38.66 38.89 38.80 38.22 37.44 37.24 36.66 36.90 35.20 32.20 31.24 30.09 29.22 28.91 28.73 31.44 31.75 33.67 34.39 33.97 26.63 22.95 22.08 20.25 20.40 19.53 19.13 19.81 21.45 20.37 20.36 20.28 19.15
43.17 43.15 42.53 41.82 40.45 39.56 39.30 38.60 38.05 38.84 39.69 38.70 38.57 36.84 35.16 34.61 35.82 36.75 36.48 32.26 30.35 29.21 28.60 28.02 27.76 29.69 31.14 29.74 30.00 32.48 30.78 29.33 25.20 22.93 20.54 19.83 18.69 20.93 21.56 20.55 21.61 21.85 21.78
39.55 39.47 39.41 39.06 38.62 39.03 39.60 40.18 40.26 39.94 39.09 37.43 34.68 33.66 32.70 33.31 35.27 35.90 35.51 32.18 29.42 28.97 28.26 27.45 26.67 27.37 27.93 28.15 26.68 24.74 24.75 24.85 25.00 24.72 22.73 21.31 21.84 23.03 22.88 23.55 23.27 22.75 23.24
37.95 38.31 38.83 39.31 39.25 39.30 39.52 39.25 39.81 37.94 35.16 32.90 32.71 31.82 30.66 30.73 33.98 34.77 34.14 30.74 29.33 28.33 28.48 27.49 27.62 27.53 30.36 31.62 26.86 24.20 23.83 24.01 27.03 28.53 27.74 27.06 27.53 27.84 27.06 23.87 20.36 19.98 17.65
37.99 38.31 40.00 41.01 40.93 40.41 39.58 37.41 35.53 33.16 32.22 31.39 30.62 30.55 31.58 30.23 33.07 34.45 34.25 29.24 28.38 29.16 27.98 27.48 30.49 29.32 30.33 30.30 26.27 23.73 21.19 22.81 23.71 22.75 22.61 24.19 25.95 24.81 25.91 23.95 22.25 18.77 18.30
40.65 41.87 41.39 39.89 37.84 36.31 33.82 32.29 31.13 30.25 29.41 29.07 29.30 29.30 29.49 29.80 30.31 33.65 34.52 30.66 30.07 29.04 28.18 27.74 28.20 30.35 31.85 31.21 30.16 24.17 22.65 24.45 23.53 22.58 22.25 23.14 23.67 23.45 23.56 23.99 23.72 21.92 19.30
37.92 36.27 35.53 34.41 33.43 32.75 30.62 30.25 30.10 29.20 28.18 28.26 25.51 28.23 28.89 29.38 31.28 32.20 33.76 33.86 31.88 29.11 28.25 28.22 28.44 30.69 31.39 31.43 30.31 28.84 27.94 25.35 23.54 22.21 21.57 21.16 21.12 21.32 22.54 22.92 23.60 23.91 23.98
32.19 31.16 30.91 30.66 30.42 30.14 29.68 29.22 28.79 28.33 26.66 27.46 27.52 27.85 28.85 30.27 28.07 31.67 32.54 32.99 32.83 30.32 29.56 29.31 30.03 30.71 31.36 30.35 30.85 29.98 27.84 26.01 24.17 22.50 21.17 20.96 21.07 22.06 22.71 22.60 23.59 23.31 23.27
29.46 29.10 29.35 29.02 29.57 29.03 29.04 29.03 27.54 25.78 26.14 27.86 27.92 27.94 28.46 29.02 28.98 27.68 27.90 27.81 30.80 31.37 29.42 31.04 28.99 28.65 28.09 29.47 28.36 29.63 28.64 26.36 24.99 22.84 21.00 20.77 19.81 19.54 19.80 21.02 19.42 20.19 19.94
29.29 28.93 28.54 28.21 27.36 27.81 27.93 27.72 28.04 28.02 27.75 28.12 28.57 28.92 29.12 28.75 29.71 31.60 29.99 29.34 29.18 28.87 28.43 27.89 28.20 27.44 26.64 25.81 25.72 25.94 26.07 24.76 22.86 21.59 19.23 19.38 18.39 18.75 18.94 19.92 19.55 19.46 17.21
27.01 27.20 26.14 25.71 25.09 25.96 26.00 25.55 29.36 29.56 30.78 30.81 31.11 29.01 29.33 30.99 32.18 33.00 33.47 33.31 33.26 32.24 27.78 27.41 26.83 26.08 24.53 24.52 24.40 24.25 24.48 23.20 23.31 21.72 19.20 19.77 18.56 17.77 17.84 18.24 18.88 17.18 16.02
24.05 24.27 23.27 23.22 23.14 23.11 22.89 22.34 20.70 24.13 27.31 27.41 28.09 28.97 29.44 29.43 30.03 30.76 32.07 32.42 32.79 32.47 28.91 27.05 27.01 26.15 24.73 24.92 25.26 23.93 22.67 23.27 23.67 21.25 20.62 19.20 18.15 17.74 16.85 17.11 16.79 16.29 15.91
21.70 21.41 20.41 20.51 20.09 20.39 19.22 21.16 21.48 21.12 20.94 22.13 24.43 25.01 26.05 26.03 28.54 29.83 30.17 31.29 29.91 30.58 29.87 28.20 27.81 26.73 26.26 24.64 24.40 23.94 23.26 23.45 21.00 20.27 18.09 17.16 15.39 16.15 15.95 15.82 16.37 12.76 14.18
21.07 20.09 19.87 18.17 18.40 20.74 20.83 20.49 19.60 20.44 21.13 18.50 19.37 20.03 20.00 22.58 24.30 28.20 29.51 27.16 28.24 26.51 26.77 26.38 28.59 27.68 25.83 25.34 25.06 24.59 23.29 22.79 20.72 16.17 17.12 15.19 13.09 15.05 13.96 14.96 14.55 10.07 10.52
19.77 19.48 17.74 18.50 17.79 16.97 16.33 16.45 17.41 18.44 16.91 15.68 15.90 15.91 16.87 17.12 15.96 16.41 20.50 25.29 24.50 23.03 26.50 26.86 28.26 28.59 28.10 26.43 24.90 24.71 23.31 21.85 19.35 16.59 16.22 14.93 14.24 14.56 14.23 13.34 10.77 12.02 14.99
17.19 17.31 14.54 15.30 14.75 14.08 13.10 14.04 13.88 13.59 12.23 12.69 12.79 13.75 14.19 15.13 14.63 14.13 14.19 15.72 15.68 17.19 17.86 19.79 26.61 27.76 27.47 27.27 25.35 24.69 23.54 22.01 21.35 19.44 18.58 16.41 14.74 15.14 14.71 13.52 11.68 12.36 13.78
14.13 12.77 12.22 11.68 11.58 9.97 10.31 10.84 11.63 8.82 8.98 8.69 8.59 10.80 11.03 11.22 13.09 12.12 12.12 12.08 12.16 13.52 14.92 16.59 17.44 18.58 25.80 27.52 27.12 25.51 23.79 23.04 21.98 20.62 19.15 17.18 16.35 16.77 15.15 11.48 10.67 10.97 12.45
10.64 6.61 6.70 8.66 6.26 4.98 4.53 5.26 6.83 4.66 5.31 4.72 5.35 7.25 7.89 8.19 9.25 10.02 9.71 10.63 10.61 10.30 11.32 12.51 13.67 15.30 17.61 18.14 25.62 27.52 25.62 24.48 24.76 23.70 20.98 18.33 17.60 16.83 13.65 12.14 11.53 9.75 10.24
6.33 0.77 5.10 2.68 -0.27 1.93 -4.36 -3.47 -1.14 -0.25 2.31 2.27 1.61 3.68 4.54 5.70 5.93 7.54 7.49 8.58 8.81 8.80 9.22 9.03 10.45 11.93 13.58 15.56 17.56 21.13 28.07 28.06 27.30 25.94 24.49 21.53 19.26 16.58 14.65 12.63 11.71 10.21 9.27
-2.59 -5.45 -5.64 -4.18 -6.53 -8.53 -9.98 -6.55 -7.98 -6.76 -2.45 -1.53 -0.33 1.20 3.22 3.17 4.36 4.70 5.09 6.66 7.22 6.82 7.61 8.37 8.10 8.85 10.83 12.19 14.39 18.40 19.34 27.30 27.94 26.73 25.06 22.67 20.03 17.29 16.03 15.24 11.56 10.99 8.18
1.78 -1.94 -5.10 -7.80 -10.52 -11.97 -13.79 -11.43 -10.17 -11.43 -6.49 -4.02 -2.84 -1.45 -0.27 1.15 3.29 2.76 3.15 4.29 4.81 5.18 6.36 7.25 6.64 6.59 8.70 11.47 14.97 16.38 17.43 21.96 27.88 26.23 24.71 22.43 19.65 18.06 16.65 15.52 12.53 11.87 11.73

GFSGL_sfc_wetblb_057.txt.gz
Wetbulb
59.31 58.73 58.43 57.41 57.13 54.51 52.30 49.84 47.86 44.93 44.93 44.35 44.81 44.86 45.27 42.68 41.39 40.53 39.79 39.76 40.92 41.38 40.99 40.84 40.58 40.99 40.07 39.85 39.30 38.39 37.03 36.09 32.94 35.18 35.73 35.41 34.42 33.96 34.33 34.60 33.32 32.93 33.49
59.05 57.74 57.81 56.62 54.08 52.19 49.66 46.92 45.34 43.96 45.17 45.65 45.80 43.59 41.50 40.53 40.33 39.19 39.83 41.12 40.73 40.35 40.55 40.33 39.73 39.52 39.33 39.52 38.07 37.03 36.04 36.74 33.97 31.52 34.03 33.41 32.64 33.69 33.23 32.01 31.34 31.91 32.57
56.36 55.85 53.61 52.09 51.04 49.09 47.28 45.76 45.79 45.69 45.59 45.62 42.72 41.35 42.06 41.26 41.49 42.59 42.36 41.57 41.17 40.88 40.96 40.22 39.82 39.91 38.59 38.39 37.26 36.17 36.79 35.66 34.21 31.86 31.38 33.59 32.47 32.96 31.75 31.59 30.80 31.42 31.46
52.20 51.34 49.92 49.24 48.51 47.60 46.98 46.06 45.69 46.25 44.09 42.01 41.71 41.11 41.55 41.19 41.00 42.43 41.62 41.62 41.49 40.81 40.65 40.35 40.22 39.42 38.59 38.03 36.45 36.06 35.79 34.09 33.19 31.68 31.42 31.28 31.53 32.10 30.74 28.08 28.04 30.59 29.60
49.91 48.96 48.33 47.87 46.58 46.20 46.43 45.54 42.91 42.44 41.89 41.75 41.32 40.98 41.18 40.99 41.26 41.19 41.77 41.70 41.00 40.55 40.46 39.88 39.79 39.23 36.97 36.35 35.45 35.71 34.26 32.98 32.04 31.24 30.37 30.43 29.76 29.74 27.87 27.99 26.77 28.15 29.48
49.91 47.69 46.33 45.83 45.02 43.03 42.41 41.89 41.83 41.60 40.44 40.31 40.32 39.86 40.19 39.70 38.36 37.60 38.37 41.36 40.57 39.44 39.29 39.75 38.90 35.53 35.75 34.89 35.09 34.22 33.98 33.41 32.10 30.71 30.15 28.72 28.82 29.21 28.38 27.00 26.44 25.22 24.07
46.75 45.74 43.48 42.23 41.46 41.35 40.29 39.94 39.05 39.53 42.17 41.81 40.17 40.03 39.53 41.89 37.18 36.99 36.55 40.33 40.11 39.86 39.39 38.68 37.87 35.92 34.31 35.67 33.62 33.10 32.88 32.84 29.40 32.03 29.52 29.45 28.71 28.99 27.39 26.37 26.61 26.06 25.65
41.25 40.48 40.46 39.95 39.38 41.33 41.45 41.86 41.86 41.53 41.03 41.68 40.45 41.27 40.17 39.39 35.73 35.85 35.38 39.56 39.63 39.12 38.84 38.35 37.84 37.66 36.75 35.25 34.03 33.56 33.44 33.33 32.65 30.92 31.09 30.83 30.82 29.33 28.59 28.02 27.35 26.97 27.80
39.29 39.94 40.68 41.14 41.17 41.59 40.67 40.55 41.19 41.02 40.33 40.15 39.19 38.71 38.35 38.55 35.33 34.48 34.90 38.20 37.64 37.61 37.96 37.78 37.31 36.78 34.82 32.60 32.41 32.01 32.03 31.80 31.17 30.11 29.73 29.77 28.36 27.42 28.74 28.88 26.07 25.14 23.83
41.47 42.57 43.24 42.84 41.52 40.78 39.71 39.25 40.22 39.63 37.80 37.52 37.06 37.55 36.32 36.61 35.52 34.48 34.90 37.18 36.32 36.44 37.50 37.18 33.31 34.94 32.73 31.52 32.80 32.58 30.14 30.63 30.86 30.12 30.00 29.37 28.56 29.28 27.94 28.59 27.83 24.26 24.04
42.60 40.92 39.28 38.68 38.50 38.74 38.21 38.14 37.62 37.08 36.41 36.19 35.25 36.32 36.28 36.13 36.48 34.67 34.45 35.54 36.49 35.95 35.80 35.91 36.17 32.29 31.99 32.00 32.20 32.99 31.46 32.27 29.91 29.19 29.41 29.22 28.92 29.33 29.75 30.01 29.38 27.23 24.73
37.33 36.47 36.81 36.57 35.74 35.75 35.98 36.02 35.92 35.68 34.89 34.79 34.62 34.70 35.93 35.92 34.12 34.36 34.12 33.69 34.09 34.76 34.47 36.08 36.33 33.29 32.34 32.09 32.49 32.18 30.59 29.55 30.27 29.30 28.54 27.70 28.06 28.62 29.78 30.01 29.47 28.76 28.82
35.32 34.73 34.73 34.86 34.27 34.38 34.36 34.04 34.09 33.99 32.73 31.98 31.61 31.71 32.12 34.11 34.39 33.52 32.51 32.09 32.17 33.47 35.45 35.20 33.58 32.88 32.35 31.53 31.51 31.64 30.34 30.49 30.06 27.84 27.49 27.70 29.01 30.09 29.76 28.43 28.08 28.24 27.53
33.32 32.54 32.31 31.70 31.25 31.47 31.48 31.33 30.61 30.00 29.48 28.95 28.99 28.82 29.65 29.97 31.24 32.48 33.29 34.18 32.81 33.21 32.44 33.80 33.34 32.12 32.02 32.93 32.03 31.91 32.46 32.73 30.76 28.83 28.84 29.20 29.66 28.01 27.00 28.31 26.24 26.28 24.81
30.64 29.40 28.67 28.61 28.21 28.39 28.74 28.70 28.06 29.13 28.65 27.74 28.20 27.97 28.20 28.04 29.01 28.82 29.28 30.01 30.56 30.74 31.98 32.65 32.32 31.73 30.28 30.06 30.71 30.89 31.72 31.58 29.81 29.85 28.76 27.85 26.88 26.81 26.67 27.83 25.98 25.21 23.18
26.98 26.81 25.81 26.23 26.48 26.61 26.05 25.76 26.42 26.20 26.46 26.97 27.41 26.42 27.08 26.08 25.62 26.43 26.76 28.29 29.64 30.24 30.32 29.66 31.25 31.52 30.42 29.77 29.55 29.55 29.83 29.24 29.51 29.18 28.72 27.58 26.84 26.62 26.18 26.47 25.63 24.64 22.89
24.38 24.30 24.41 24.20 24.48 23.96 23.89 23.33 22.41 25.22 25.36 26.03 24.74 24.41 24.16 23.21 23.85 25.07 25.38 26.09 29.62 29.66 29.05 30.35 30.79 31.63 30.43 29.11 28.96 29.00 28.52 29.57 30.10 28.75 27.74 27.36 27.41 26.36 25.41 25.29 25.09 24.07 22.91
23.67 21.86 23.10 23.33 23.36 23.14 22.67 22.37 22.43 21.53 21.45 21.82 22.53 21.80 21.02 20.83 22.03 22.41 22.59 23.19 23.45 27.07 28.83 29.52 30.73 32.26 31.47 30.27 30.05 29.52 29.34 29.19 28.18 28.36 27.87 27.75 27.02 25.99 25.63 24.39 24.52 23.32 22.67
22.40 21.73 21.48 22.04 21.25 20.33 20.41 20.25 20.40 20.20 19.00 18.60 19.34 19.43 18.64 18.23 20.04 20.11 19.68 18.77 18.08 18.90 19.80 19.95 26.84 30.77 30.75 30.61 30.31 30.38 29.61 29.51 28.93 28.26 27.92 26.99 26.77 26.25 25.32 25.20 24.76 20.84 20.03
21.30 19.19 18.71 19.56 18.93 18.08 17.79 17.59 17.25 17.14 15.83 16.00 15.74 15.20 15.53 15.21 15.51 16.65 16.80 16.90 16.12 15.86 16.85 17.13 18.96 21.53 24.66 30.91 31.51 30.92 29.65 28.73 28.20 27.37 27.59 27.80 27.01 25.96 25.70 24.93 24.44 23.40 22.00
19.29 17.98 15.21 17.05 15.90 15.21 15.15 14.79 15.08 14.15 13.16 13.25 13.35 13.54 10.28 11.93 12.85 13.93 14.36 14.22 14.25 14.06 14.29 14.39 16.27 17.66 20.44 22.48 26.97 30.65 29.58 29.20 27.94 27.43 27.46 26.76 26.18 24.59 25.09 25.71 25.04 22.67 22.16
15.79 14.47 14.46 13.65 13.53 12.54 11.49 12.25 12.35 11.12 10.90 10.70 11.02 11.46 9.43 12.19 12.23 11.54 13.00 12.46 12.73 13.49 13.40 13.11 13.06 14.79 16.63 18.19 18.72 20.68 28.02 28.74 27.96 27.58 27.48 26.42 25.33 24.97 24.87 24.50 23.70 22.97 22.05
12.69 10.99 11.47 11.12 10.43 8.60 9.03 8.88 8.96 8.88 8.52 8.82 8.69 8.68 9.26 9.87 9.60 9.69 11.08 10.85 11.25 11.48 12.29 11.90 12.05 12.36 14.38 15.13 17.27 18.76 20.32 23.35 28.78 28.92 26.91 26.47 25.18 25.04 24.76 23.68 22.48 21.46 21.23
10.80 9.76 9.07 8.71 8.07 7.12 6.54 5.80 6.36 4.92 4.97 6.13 6.70 6.83 7.06 7.44 7.94 7.83 9.04 9.48 8.87 9.83 10.57 10.70 11.12 11.40 11.91 12.04 14.65 16.92 19.58 19.80 21.58 28.45 28.22 27.10 25.76 24.59 24.47 23.70 22.35 21.19 21.12
10.36 8.78 7.80 7.25 5.72 4.93 4.01 4.13 3.95 3.85 4.03 4.26 4.48 5.14 5.32 5.83 6.14 6.67 7.72 7.61 6.82 7.09 7.23 8.59 10.06 10.57 10.57 9.92 11.19 13.85 16.52 14.75 16.39 19.54 29.10 28.22 26.72 25.17 23.87 22.93 22.32 21.04 20.00
10.43 8.30 7.29 6.58 5.18 4.20 3.13 1.88 1.51 1.83 1.36 2.09 2.58 2.91 3.43 3.81 4.29 4.64 5.03 5.59 5.19 4.18 5.51 7.50 8.22 8.45 9.21 10.72 12.18 12.97 11.73 12.37 16.27 17.87 25.94 28.08 26.10 24.34 23.46 22.95 21.34 20.65 19.13

GFSGL_sfc_wetblb_060.txt.gz
Wetbulb
64.00 63.22 60.37 59.88 60.07 59.96 58.79 56.63 54.53 53.83 52.57 51.13 46.43 46.50 45.70 46.35 43.93 42.56 42.33 40.90 40.33 42.31 44.50 44.34 44.37 44.94 44.05 43.74 43.62 42.64 41.35 40.66 37.12 39.22 40.85 41.73 40.16 38.91 38.89 39.45 38.85 37.77 37.02
63.36 62.30 59.98 59.76 58.95 58.69 57.17 54.28 52.91 49.87 47.19 46.40 45.37 46.18 45.51 43.27 41.89 41.17 40.74 41.46 43.45 43.90 44.12 44.23 43.67 43.41 43.52 43.62 42.77 41.70 41.10 41.12 38.46 36.02 39.37 39.17 39.11 39.41 38.54 37.49 36.73 36.60 36.28
61.42 59.23 58.28 57.70 56.52 54.13 51.01 47.85 46.11 45.47 45.01 45.29 46.33 44.77 41.89 42.03 41.19 41.23 42.49 44.18 44.95 44.46 44.33 43.98 43.32 43.52 42.49 42.64 42.33 41.35 41.04 39.87 39.45 37.87 36.84 38.64 38.33 38.09 37.10 37.25 36.40 35.85 35.79
56.44 54.64 52.26 51.55 50.06 48.23 46.90 46.33 45.79 46.74 45.89 46.18 43.59 42.67 41.77 41.70 42.21 43.03 43.54 44.65 44.82 44.48 44.32 43.83 43.58 43.30 42.54 42.42 41.72 41.19 40.14 39.14 38.94 37.57 36.52 36.28 36.46 37.25 36.97 34.30 33.71 34.76 34.13
51.69 50.79 49.88 49.12 48.30 47.11 46.71 46.12 46.55 46.21 44.24 43.98 42.17 42.15 42.40 42.36 42.30 43.02 43.47 44.10 44.01 43.94 44.08 43.88 44.13 43.06 40.71 40.67 41.01 40.66 39.87 38.42 37.57 35.60 34.51 33.79 33.90 34.05 33.87 34.79 32.40 32.65 33.80
50.66 48.26 47.37 47.32 46.76 45.81 45.89 46.42 47.05 45.62 44.27 42.35 41.35 40.97 41.16 41.11 39.32 38.22 39.40 44.14 43.83 43.17 42.78 43.52 43.86 41.16 39.82 37.00 35.86 35.19 36.62 37.54 35.93 33.67 32.81 31.80 32.93 34.69 34.71 33.39 31.69 29.91 28.36
49.59 48.05 47.74 48.43 47.48 47.35 46.12 43.57 40.94 41.46 41.00 40.65 41.12 41.51 41.88 42.12 39.05 39.02 37.65 41.85 42.63 43.07 43.01 42.57 42.06 41.87 39.81 41.09 36.37 34.46 34.64 34.13 31.87 35.66 33.13 33.24 33.77 34.46 33.94 32.46 31.07 30.57 30.04
47.62 47.18 46.53 45.56 43.82 43.63 43.79 42.95 42.25 42.18 41.75 42.67 43.00 41.93 43.12 44.06 37.59 36.60 35.40 40.68 41.46 41.62 41.95 42.07 41.67 41.47 41.56 40.53 39.68 38.81 38.26 37.28 35.10 34.81 35.46 35.61 35.27 35.55 34.35 32.57 31.19 30.93 31.31
45.15 45.47 45.86 46.05 44.50 43.58 42.85 42.10 42.62 42.59 42.28 41.35 43.43 42.56 42.25 42.44 37.14 35.77 35.63 40.23 40.00 40.44 41.21 41.62 41.35 40.83 38.33 37.22 38.72 37.09 36.88 36.21 35.81 34.09 33.23 32.64 31.40 29.98 29.96 31.22 29.19 28.46 27.59
45.72 45.28 45.37 46.24 45.10 42.56 40.68 40.99 44.16 44.35 42.67 42.31 40.68 41.14 38.87 40.08 37.31 36.05 36.47 38.81 38.01 39.00 39.81 39.98 36.68 37.91 36.02 34.19 37.62 36.09 34.92 35.60 34.86 34.75 34.04 32.04 31.02 32.46 29.73 30.59 30.60 27.32 27.70
45.42 44.46 43.54 42.09 42.54 42.89 42.08 42.01 42.07 41.68 40.48 39.84 38.78 40.14 40.12 39.57 39.65 35.93 35.17 36.36 36.29 36.15 36.49 37.61 39.49 35.49 34.38 34.10 33.75 36.49 36.08 36.74 34.20 34.80 33.75 33.33 32.63 33.25 32.94 31.79 31.29 30.60 28.58
42.82 40.20 40.55 40.52 39.44 40.02 40.05 40.72 40.58 40.19 38.77 37.99 38.75 36.29 37.59 37.25 34.16 34.07 33.59 33.24 33.26 33.80 33.11 34.91 36.16 35.09 34.69 34.24 33.38 33.36 33.13 32.97 35.45 34.69 31.70 30.84 30.95 31.13 31.96 32.54 32.68 32.63 32.95
40.23 39.31 38.98 38.78 38.46 38.20 38.08 37.48 37.12 36.20 34.50 33.59 32.84 33.04 33.56 34.35 34.49 32.28 31.22 29.98 30.05 32.13 33.77 33.59 32.27 32.33 32.78 32.78 32.63 32.23 32.06 34.84 33.47 32.22 31.45 31.05 31.80 33.21 33.16 32.36 32.06 32.15 31.76
37.63 36.94 36.89 34.50 35.24 34.80 35.17 34.35 33.97 33.04 31.90 30.86 30.72 30.48 31.02 31.00 31.67 30.32 29.26 30.20 29.49 30.30 31.15 34.35 32.52 30.68 31.22 32.28 32.91 33.57 33.53 33.98 33.21 32.40 32.29 32.83 33.49 32.57 30.84 30.87 29.15 29.05 28.15
34.83 33.64 33.09 32.88 32.52 33.19 32.60 31.72 30.79 31.31 28.76 28.57 29.51 28.92 27.59 27.08 27.34 25.35 25.89 26.96 28.52 28.49 29.00 31.69 32.28 32.32 32.51 32.86 33.25 33.28 34.75 33.82 32.94 33.48 32.95 32.26 31.74 30.99 30.23 30.85 29.62 27.85 26.57
31.68 31.21 29.88 31.32 31.54 31.32 31.23 31.53 26.11 25.78 25.70 26.68 25.16 25.41 26.42 24.67 23.38 23.76 24.43 24.20 25.04 25.95 29.61 30.21 31.45 32.19 31.81 31.56 32.79 32.86 33.29 31.86 32.07 32.50 32.66 31.79 30.22 30.13 29.04 29.80 29.23 27.10 26.07
29.50 28.76 29.26 28.64 29.42 28.70 28.84 28.31 27.68 28.70 25.81 25.01 23.54 23.06 22.56 21.61 21.73 22.74 23.05 22.84 24.93 25.53 25.69 26.38 26.70 28.10 32.51 32.81 32.34 32.65 31.86 33.36 32.51 31.22 31.54 31.05 30.29 30.07 29.68 28.98 28.41 26.84 25.89
27.04 24.19 28.68 28.90 28.31 27.86 27.33 26.74 27.14 25.40 24.66 25.15 24.59 22.17 20.98 20.22 20.33 21.63 21.68 22.97 23.06 23.87 23.62 22.62 22.99 24.62 25.25 28.27 33.44 32.54 32.58 33.11 32.71 30.61 31.17 31.70 31.10 30.04 29.35 26.92 26.81 26.55 26.10
27.28 26.74 26.95 26.91 25.46 24.24 25.34 25.11 24.80 24.14 22.94 22.74 23.63 23.26 21.78 18.73 20.08 20.86 21.25 21.65 20.04 20.18 20.58 20.82 21.23 20.95 22.58 24.16 26.73 32.04 32.57 32.42 32.28 31.69 30.89 30.94 31.15 29.80 28.57 27.71 27.02 26.20 25.59
25.07 20.70 21.65 24.83 24.49 23.70 23.45 22.74 22.25 22.07 21.10 21.03 20.85 20.35 19.44 17.48 19.76 20.28 20.62 20.66 19.25 18.80 18.97 18.71 19.43 19.90 19.48 21.18 23.61 26.50 29.02 31.84 31.69 31.07 31.03 31.10 31.15 30.30 28.47 27.50 27.17 26.60 24.82
24.57 22.92 18.17 23.47 22.29 21.13 20.87 20.43 19.94 19.92 19.09 18.80 19.13 19.17 12.50 14.00 17.85 18.23 17.89 18.65 17.63 17.06 17.23 17.46 17.59 18.12 18.44 18.59 20.19 21.18 23.48 25.85 31.18 31.01 30.99 30.47 30.93 29.47 28.50 28.39 28.02 26.68 25.85
20.60 20.47 20.72 19.78 20.07 19.06 17.05 18.31 18.22 17.58 16.93 16.56 17.15 17.56 13.91 17.06 17.23 16.53 16.73 16.51 16.92 16.75 16.62 16.67 16.11 16.90 17.62 16.78 16.57 18.02 19.90 21.91 25.49 28.09 30.51 30.28 30.34 29.83 28.78 27.59 27.50 27.06 25.36
18.54 18.39 18.52 17.62 16.82 14.50 17.03 16.42 16.17 15.73 15.18 14.94 15.23 15.04 15.11 15.17 14.71 14.89 15.13 15.23 15.88 15.33 15.75 15.20 14.71 14.58 16.56 16.72 16.10 16.70 17.40 19.36 22.37 22.18 21.18 29.90 29.78 29.26 28.94 27.48 26.67 25.94 25.00
17.30 17.00 15.77 16.24 16.12 14.48 15.08 13.95 14.38 12.24 12.37 13.23 13.70 14.00 13.67 13.22 13.46 13.28 13.29 14.00 13.66 13.93 13.72 13.18 12.35 12.79 13.99 14.34 15.24 15.62 17.04 19.27 18.88 18.70 19.64 21.44 29.62 29.12 29.00 28.03 26.71 25.99 25.31
17.21 16.50 15.62 14.89 14.57 13.61 13.15 13.06 12.23 12.12 11.93 12.02 12.11 12.24 12.28 12.21 11.99 12.38 12.59 11.97 11.00 11.47 11.46 10.90 11.64 12.58 12.14 12.11 12.42 13.45 15.46 15.47 14.40 14.90 17.82 20.78 26.69 29.78 28.76 28.12 27.60 26.28 25.33
16.27 14.99 14.51 14.29 13.73 12.64 11.53 10.56 10.16 10.11 9.64 10.04 10.02 10.41 10.54 10.20 10.51 10.75 10.12 9.70 9.64 8.73 8.88 11.05 11.38 11.06 10.90 11.75 13.22 14.15 13.19 12.29 13.80 14.69 16.37 17.89 22.16 29.25 28.75 27.95 27.37 26.35 24.58

GFSGL_sfc_wetblb_063.txt.gz
Wetbulb
66.00 65.31 64.38 62.62 61.47 60.85 60.60 59.55 59.59 59.25 57.56 54.40 53.05 47.17 46.17 45.44 46.70 46.22 43.59 41.83 41.18 41.16 41.48 43.64 44.62 46.11 45.25 45.37 44.91 43.99 42.33 41.30 38.11 40.30 41.98 43.15 43.05 43.10 42.23 42.19 41.33 40.30 40.11
65.98 65.77 62.53 61.51 60.64 59.33 58.95 58.67 58.11 54.73 51.27 49.12 47.22 46.43 46.60 46.15 44.65 42.75 41.26 41.57 40.62 40.93 43.06 44.81 44.96 44.67 45.36 44.91 44.12 43.11 42.34 42.64 40.37 38.41 40.68 40.68 41.79 42.31 42.27 41.16 39.50 39.14 38.96
64.41 63.97 60.82 59.48 58.54 54.28 50.86 49.55 47.77 47.21 46.38 46.00 46.45 45.86 45.65 43.38 41.68 41.89 41.88 41.95 42.91 44.37 44.98 45.33 44.84 44.08 44.43 44.22 43.64 43.12 42.99 41.94 42.01 39.94 39.02 41.31 41.44 41.31 40.29 40.25 39.58 39.89 38.39
60.20 56.80 54.26 52.67 50.68 48.90 47.65 46.70 45.90 46.03 46.26 46.03 45.58 43.17 43.29 42.30 42.07 42.07 42.60 43.68 44.32 44.05 45.57 45.35 44.68 44.59 43.58 43.92 43.53 43.47 42.97 42.18 41.37 39.94 39.07 39.04 39.60 40.51 39.19 36.65 36.41 38.35 36.69
53.14 51.39 50.18 49.55 48.79 47.87 47.68 46.61 46.65 46.28 45.53 43.94 43.10 42.82 42.90 42.60 42.92 42.98 43.14 42.86 43.20 43.38 44.75 44.76 45.35 44.73 42.11 41.87 42.44 42.39 42.19 41.14 40.17 38.73 37.64 37.72 36.70 36.50 35.30 36.75 34.88 35.77 36.27
49.88 48.59 48.67 48.33 47.45 46.88 46.56 45.34 44.87 44.40 43.82 43.46 43.11 42.44 41.80 42.25 39.68 39.21 40.12 41.01 42.46 43.11 43.83 44.36 45.46 42.67 42.29 39.06 38.39 37.97 39.21 39.61 38.59 37.65 36.96 35.17 35.61 35.71 36.68 35.28 34.33 32.27 30.04
49.40 49.09 48.94 48.73 47.84 48.03 47.51 46.08 45.12 44.80 43.51 41.93 41.14 41.25 41.36 42.99 39.43 39.23 38.34 43.22 42.84 42.53 42.55 42.99 42.97 43.24 41.54 43.52 39.40 36.84 36.32 35.58 32.97 37.60 35.88 35.56 34.82 35.72 35.88 33.92 33.23 32.27 31.32
51.46 50.86 50.14 48.89 47.65 47.27 46.78 46.32 44.58 42.75 42.03 42.43 42.73 43.66 44.37 44.94 40.52 39.05 36.48 40.89 41.09 41.49 41.86 42.13 42.61 42.71 43.12 41.87 41.76 41.29 40.75 40.46 38.64 36.73 36.21 36.59 36.62 37.17 36.30 34.82 33.30 32.25 32.41
48.94 48.30 48.16 48.18 46.91 46.32 44.72 43.73 44.77 43.26 43.45 44.28 44.67 44.55 43.74 43.63 38.33 36.34 36.09 39.61 39.13 39.50 40.45 40.77 40.83 41.34 38.93 37.92 38.78 38.73 38.85 39.36 39.12 37.37 37.35 36.61 33.58 32.07 30.87 32.76 30.80 29.40 28.71
48.48 48.18 48.14 47.58 46.55 45.55 44.88 44.59 44.80 45.73 44.10 44.19 42.66 42.01 37.99 40.57 35.81 35.69 36.05 37.87 36.72 37.28 37.73 38.30 36.07 36.78 34.57 34.44 36.63 37.42 35.70 37.38 38.56 38.25 36.28 35.51 33.31 33.75 31.11 31.70 31.58 28.31 28.06
48.14 47.58 46.77 45.35 44.37 45.45 44.62 44.03 42.97 42.22 41.70 41.32 40.02 41.08 40.72 39.47 38.68 34.42 33.57 33.87 33.19 31.97 32.62 33.96 35.74 33.60 33.83 34.07 33.81 34.27 35.08 37.04 36.36 36.96 36.65 36.38 35.57 34.56 34.04 33.55 32.68 30.57 28.97
46.40 44.30 43.76 43.30 42.17 42.46 42.05 41.54 41.20 41.37 39.95 38.76 37.15 36.52 37.81 37.65 34.02 32.61 30.59 29.71 29.44 30.11 29.69 31.94 32.66 31.94 31.70 31.26 31.69 32.49 32.80 33.06 35.59 34.89 34.28 34.58 33.66 32.91 34.37 34.95 34.07 33.47 33.71
43.58 42.30 41.37 40.97 40.51 40.43 39.68 38.79 38.73 37.81 36.49 35.02 34.04 33.99 34.21 34.91 34.91 31.25 29.79 28.48 28.63 29.32 30.32 30.31 29.74 30.02 30.93 31.84 32.12 31.95 31.55 32.71 32.65 31.84 32.82 33.48 33.59 34.78 34.54 34.42 34.60 34.34 33.67
40.83 39.87 39.09 38.59 37.13 37.03 36.99 36.41 35.91 34.90 33.65 32.30 31.88 31.69 31.78 31.25 31.77 29.55 27.44 28.01 27.95 28.03 27.89 29.61 28.20 28.38 29.54 30.14 30.85 33.08 34.27 32.88 32.18 32.34 33.82 34.43 35.26 34.50 33.39 33.88 32.17 31.32 30.05
38.27 37.04 35.99 35.42 35.42 35.04 34.60 33.23 32.36 30.77 28.79 29.39 30.77 29.20 27.92 27.08 26.95 24.22 24.23 25.06 25.75 25.46 26.22 28.70 30.52 31.07 30.55 31.82 32.80 33.42 33.91 34.22 31.90 32.23 32.98 33.81 33.66 32.95 32.74 33.13 31.47 30.13 28.41
34.95 34.09 33.79 33.88 33.56 33.83 33.62 31.25 26.48 26.92 26.33 26.52 24.64 25.01 26.11 24.55 23.10 22.82 23.44 24.11 23.82 25.25 25.27 26.87 26.53 27.08 26.84 27.40 28.84 29.81 33.77 33.10 32.93 33.78 33.90 33.32 32.44 31.82 31.75 31.60 31.20 29.82 28.02
32.96 31.72 30.00 31.18 31.71 31.06 31.25 30.96 30.52 27.02 26.67 26.42 24.37 22.93 22.76 21.65 21.81 21.92 22.73 23.07 24.17 24.83 24.29 23.97 24.42 24.44 24.60 25.16 25.79 27.20 29.99 33.35 34.24 33.50 32.40 32.63 32.93 31.92 31.63 30.78 30.20 29.31 27.91
29.32 27.06 31.37 31.42 30.91 30.78 30.29 29.14 29.09 27.60 26.42 27.77 25.99 23.90 22.65 21.57 20.99 21.42 22.52 22.94 24.13 24.03 23.54 22.40 22.26 22.10 22.94 22.84 23.10 24.73 25.84 29.26 34.13 33.07 32.59 33.33 33.06 32.05 30.91 29.88 29.69 28.73 27.70
29.81 29.43 29.55 29.14 27.67 26.26 27.55 27.35 26.94 26.06 25.73 25.18 25.99 25.97 25.22 21.27 20.61 22.67 22.98 22.56 21.28 21.18 21.43 20.97 21.51 21.11 20.55 21.48 22.37 22.36 23.59 25.39 28.53 32.32 32.33 31.76 32.14 31.64 30.38 30.26 29.72 27.91 27.58
25.38 22.92 24.45 26.82 26.29 25.59 25.56 24.72 24.51 24.37 23.77 23.88 23.42 23.37 23.22 19.28 18.75 21.69 22.40 21.77 20.52 20.22 19.72 18.95 19.34 19.75 19.69 20.22 21.10 20.72 20.50 22.38 23.79 26.88 31.77 31.91 31.77 31.72 30.42 30.13 29.30 28.00 26.61
27.12 23.98 20.03 24.39 24.13 23.31 23.07 22.52 22.31 22.16 21.88 21.71 22.04 22.31 14.71 16.26 17.57 20.05 19.77 19.97 19.22 18.66 18.07 17.71 17.96 18.25 18.62 18.99 18.76 19.29 17.70 19.60 21.89 24.51 26.47 29.86 31.77 30.53 30.90 30.60 29.46 28.31 27.57
22.20 21.81 21.89 21.70 21.80 21.82 19.97 20.51 20.49 20.38 20.38 20.10 20.21 20.68 18.04 18.10 19.10 18.51 18.51 18.60 18.41 18.14 18.88 17.77 16.91 16.87 17.16 17.06 17.70 17.83 16.48 16.83 18.82 21.76 21.99 21.83 23.57 30.22 30.72 29.65 29.37 28.54 27.12
20.47 20.54 20.67 20.63 19.88 17.57 19.49 19.93 19.46 19.75 18.71 18.46 18.42 17.96 18.21 17.90 17.29 16.77 16.53 16.82 16.77 16.96 16.68 16.24 15.84 15.51 15.98 16.73 17.29 17.15 15.98 15.40 17.11 19.77 17.60 18.56 20.37 21.81 30.40 29.10 28.67 27.87 26.94
19.92 20.11 18.85 19.06 19.33 16.54 18.48 17.69 18.14 16.49 16.61 16.96 16.99 16.80 16.57 16.25 15.95 15.47 15.65 15.83 15.08 14.84 15.29 15.11 14.54 13.32 14.10 15.32 16.06 16.17 16.40 16.44 16.96 17.00 16.20 16.34 17.25 19.89 23.87 29.11 28.85 28.00 27.06
19.86 18.88 18.10 17.78 17.62 17.47 16.89 17.12 16.35 16.06 15.59 15.30 15.38 15.09 14.95 14.86 14.33 14.22 14.36 14.02 13.01 12.85 13.17 12.41 12.80 13.57 13.39 12.89 13.23 13.46 14.59 15.54 15.35 13.63 14.55 16.45 16.67 17.22 19.47 27.58 29.00 27.82 27.22
18.63 17.78 17.26 17.37 16.86 16.45 15.64 14.56 14.40 14.18 13.30 13.64 13.22 13.04 13.15 12.70 12.39 12.31 12.27 11.60 11.87 11.03 10.44 12.47 12.22 11.70 11.87 12.82 13.54 14.45 13.63 12.69 12.22 12.33 14.87 15.50 15.42 16.77 19.75 26.69 28.93 28.27 27.05

GFSGL_sfc_wetblb_066.txt.gz
Wetbulb
63.85 63.81 63.38 64.08 62.66 61.49 60.07 59.45 59.26 58.20 57.13 55.09 53.15 50.15 47.50 45.27 46.04 44.72 43.79 41.85 40.99 41.38 41.68 41.38 41.01 42.62 42.84 43.18 42.67 41.35 39.88 38.63 34.86 35.08 36.73 37.58 36.66 36.53 38.28 37.81 38.33 36.11 36.21
64.54 63.37 63.19 62.44 60.74 59.77 57.94 57.44 57.00 54.83 54.14 51.89 49.10 46.61 46.02 45.79 45.62 42.89 41.76 41.70 40.77 40.53 40.98 41.39 42.46 44.56 42.87 42.65 41.42 40.41 38.12 37.40 35.10 33.92 35.15 35.24 35.44 36.11 36.40 35.40 38.01 38.74 35.18
62.05 62.10 61.59 59.60 57.96 52.80 51.22 50.15 49.18 48.78 47.83 46.95 46.49 45.88 45.51 44.37 42.70 42.26 41.83 41.89 41.75 41.85 42.72 43.23 43.03 43.42 41.64 40.28 41.10 38.51 37.76 40.41 36.64 34.75 34.61 34.87 34.75 35.10 34.44 35.68 35.07 34.61 37.62
57.99 55.13 52.42 51.20 49.70 47.87 47.72 47.81 46.59 46.88 46.55 46.02 45.67 44.12 42.88 42.60 42.19 42.23 42.40 42.47 42.83 43.78 43.80 43.38 43.72 41.88 40.39 40.52 39.69 38.47 39.02 36.83 35.95 35.82 35.64 34.78 32.87 34.25 34.53 32.54 30.74 32.66 31.47
52.41 50.29 49.15 49.12 47.92 47.43 46.45 46.91 46.39 46.14 45.71 43.98 43.49 42.99 42.40 42.26 42.42 42.36 43.01 43.04 42.43 42.25 42.66 43.54 42.83 42.41 42.06 40.84 41.21 38.03 36.38 35.14 34.40 33.24 33.30 31.56 30.85 30.72 29.47 29.76 29.30 29.48 30.52
48.86 47.83 48.04 47.59 47.32 46.30 46.79 44.97 44.28 43.78 43.14 42.77 42.15 42.00 41.94 42.60 40.03 39.98 40.71 41.41 41.21 40.97 40.43 41.52 41.96 41.15 40.74 39.14 39.17 38.46 39.19 37.47 35.96 34.70 33.60 31.97 30.91 30.18 31.01 29.49 28.58 27.57 27.53
48.65 48.09 47.79 47.84 46.50 46.03 45.78 44.37 43.41 42.94 43.24 42.52 41.48 41.64 41.18 41.77 39.14 39.40 38.36 40.44 40.17 39.33 37.97 38.23 39.13 41.05 38.70 39.56 38.41 36.83 36.08 36.58 34.20 36.75 34.72 33.70 32.95 32.69 32.06 30.33 29.33 28.52 27.38
49.29 49.03 48.54 48.03 46.68 45.98 45.79 45.34 44.23 42.77 41.13 41.16 41.25 41.63 42.11 43.62 39.66 39.32 37.80 38.23 37.03 37.17 37.17 37.15 36.59 36.49 37.06 35.67 34.18 33.77 35.00 35.98 35.92 34.92 34.02 34.48 35.29 35.45 33.19 32.25 30.35 28.62 27.79
49.35 48.57 47.83 47.18 46.07 45.85 43.80 42.49 42.49 42.42 42.41 42.39 43.29 42.90 42.28 38.61 36.64 35.36 35.28 35.58 35.74 34.80 36.68 35.88 34.86 33.12 34.55 34.89 31.98 30.37 31.46 33.07 37.33 37.43 37.19 37.01 36.15 36.29 35.21 31.09 26.15 26.92 23.37
47.56 47.32 47.42 46.96 45.53 44.28 43.80 43.42 43.61 43.73 43.45 43.40 41.31 39.74 37.06 34.44 34.29 33.66 33.46 30.92 29.58 28.96 29.76 31.16 32.19 32.08 32.46 32.20 29.64 29.27 28.11 29.37 30.67 31.83 32.01 34.59 36.20 34.98 32.64 30.97 29.02 26.90 25.02
48.12 47.42 46.68 45.89 44.97 44.92 44.41 44.06 43.13 40.36 39.79 36.59 36.03 36.59 36.97 35.25 32.26 31.81 31.21 27.74 26.22 26.16 26.59 26.68 27.56 30.87 31.00 30.74 30.23 27.06 26.76 28.79 28.79 29.12 30.17 31.70 34.95 34.13 33.05 29.93 29.19 28.51 26.24
47.03 45.31 44.45 44.52 43.45 42.58 40.35 39.26 39.13 38.96 36.33 34.06 31.96 31.68 32.26 32.40 31.12 30.58 29.37 28.06 27.40 25.23 25.20 25.97 26.84 28.98 29.52 29.64 29.08 29.90 30.69 30.11 29.85 29.66 29.36 29.33 31.92 33.58 32.86 31.00 30.10 29.71 29.00
43.65 42.19 40.84 40.93 40.90 40.61 38.53 36.61 35.84 34.82 31.89 30.24 29.79 29.85 29.87 29.79 29.23 28.65 27.46 26.87 26.87 24.85 25.45 26.15 26.81 27.45 28.37 28.41 30.36 31.04 29.71 28.68 27.92 28.57 28.50 28.31 30.50 34.07 33.76 32.23 32.48 30.81 29.69
40.66 39.51 38.97 37.14 36.08 35.59 35.21 34.52 33.45 30.46 29.46 29.13 28.96 27.93 27.55 27.20 25.26 23.95 23.43 23.00 25.20 24.69 23.98 23.50 23.81 25.93 26.34 26.58 27.18 27.86 28.37 28.35 30.40 29.88 29.60 30.56 32.30 33.07 31.35 31.67 29.85 26.55 26.95
38.81 36.92 34.57 34.19 34.12 33.09 30.22 30.16 28.17 26.23 26.74 26.91 26.75 26.08 23.00 21.68 22.69 22.88 22.56 22.22 21.74 23.07 21.34 22.55 23.30 23.55 22.89 23.20 23.45 24.57 24.68 26.01 25.17 30.12 30.69 30.31 30.61 31.95 31.63 31.56 30.86 28.95 26.50
34.69 33.82 32.33 31.77 30.51 31.66 29.42 27.51 28.47 26.86 27.41 26.73 25.47 24.38 24.19 23.95 22.97 22.94 23.09 23.49 24.05 24.30 21.30 20.18 18.45 19.23 19.39 20.26 20.84 21.26 21.79 22.54 24.56 25.03 30.37 31.25 31.10 30.16 29.58 30.82 30.05 28.14 23.73
30.63 30.48 29.62 30.18 29.52 28.82 28.59 28.38 24.66 25.43 27.37 26.52 25.40 24.16 23.31 21.93 22.06 22.62 22.74 23.40 23.90 24.29 17.75 18.50 15.79 16.99 17.82 18.89 19.61 19.63 18.90 20.63 22.97 23.51 29.53 30.64 30.49 29.20 27.22 28.40 28.50 27.67 26.73
28.73 29.98 30.00 29.47 29.17 28.94 27.77 27.35 26.98 25.78 24.09 24.56 25.25 24.63 23.97 21.95 21.72 22.31 22.98 23.19 19.88 20.95 19.77 17.83 16.34 16.92 17.37 17.39 17.31 18.04 18.62 18.70 19.15 21.00 22.56 28.12 26.53 28.57 27.15 26.66 27.76 27.04 27.31
28.73 28.20 28.44 27.43 25.49 25.21 26.74 26.19 25.76 24.87 24.52 23.92 24.36 24.22 21.79 21.55 21.40 21.97 24.13 19.26 15.50 16.65 17.98 16.87 15.66 16.28 16.24 16.73 16.19 16.89 17.35 16.73 17.26 18.58 20.38 22.88 28.05 24.75 25.44 26.53 27.18 26.80 26.00
23.84 24.46 25.59 25.79 25.28 25.07 25.00 24.13 24.15 23.53 23.28 22.88 22.15 21.59 20.37 17.27 14.52 13.98 17.15 13.87 13.91 15.49 15.11 15.63 15.98 15.54 14.92 15.19 15.21 15.37 15.44 15.02 15.06 16.47 17.93 20.51 20.54 24.80 25.11 24.86 27.96 27.29 25.64
24.18 21.38 20.88 24.00 23.50 22.58 22.37 22.06 21.86 21.49 21.08 20.59 19.91 17.36 13.48 14.50 12.32 15.15 15.21 13.28 15.43 14.76 12.90 15.01 15.48 13.89 14.35 14.38 14.17 13.51 13.55 13.54 13.92 15.31 15.79 17.31 16.67 16.86 20.43 27.68 29.05 27.75 27.15
21.87 21.61 21.59 21.11 21.15 21.27 19.37 19.35 20.23 19.54 19.33 18.64 18.33 18.63 15.20 13.12 16.25 14.39 13.27 13.23 10.69 12.22 13.89 13.46 12.67 13.31 12.84 13.12 11.60 10.51 11.81 11.08 13.00 13.61 13.28 14.63 14.95 15.44 17.52 18.30 27.76 27.58 25.88
20.76 20.56 20.23 19.89 19.33 17.77 18.14 19.51 18.95 18.22 17.84 16.53 16.18 16.09 15.60 14.42 12.45 12.57 11.89 10.19 12.03 10.42 10.81 11.59 10.87 11.38 12.10 10.60 11.01 12.47 11.42 11.37 11.74 12.33 12.17 12.74 12.58 12.84 14.29 17.05 20.34 27.04 25.84
19.54 19.14 18.08 18.63 19.22 16.79 17.17 17.46 16.20 16.08 15.65 14.81 14.49 14.08 14.04 12.77 10.88 9.75 9.60 10.30 9.59 8.69 8.39 10.42 10.57 8.22 9.34 10.84 12.24 11.95 12.07 11.74 11.61 12.34 13.55 10.74 10.16 11.30 14.09 14.51 16.45 24.50 26.60
19.87 19.02 18.14 17.79 17.48 17.18 16.08 16.16 15.36 14.66 14.62 13.71 12.97 12.93 11.99 11.85 11.91 10.65 8.83 9.41 8.45 8.31 9.85 7.15 8.06 9.78 9.74 9.03 9.24 9.33 10.19 12.76 12.48 10.63 10.82 10.63 9.56 10.46 12.21 13.77 15.52 17.68 26.43
18.45 17.97 17.20 16.99 16.44 16.07 15.05 13.88 13.15 12.91 12.23 12.24 11.65 9.70 10.53 10.12 9.88 8.38 9.42 7.42 9.00 7.76 5.61 7.16 7.48 6.91 7.29 8.23 10.24 12.06 10.75 9.81 8.64 9.37 10.36 10.81 10.68 10.38 11.65 13.72 15.52 16.78 25.63

GFSGL_sfc_wetblb_069.txt.gz
Wetbulb
60.63 59.97 60.06 59.26 59.81 59.64 59.13 58.94 59.14 57.66 55.85 54.24 53.24 52.42 49.45 47.60 46.68 45.96 44.45 43.68 42.52 42.02 42.54 42.40 42.22 42.33 41.10 42.08 41.02 40.90 39.38 37.22 34.09 33.35 34.56 35.61 34.42 34.68 36.49 36.64 36.29 36.44 36.73
61.42 60.80 60.14 59.11 59.55 58.90 59.16 59.37 57.51 56.09 54.96 53.82 51.06 48.87 47.11 46.11 45.71 44.53 42.73 42.34 41.90 41.49 41.52 41.28 40.93 42.30 41.96 41.47 41.11 39.46 37.25 37.08 34.94 32.31 32.97 33.30 33.91 35.06 34.68 34.24 36.76 38.33 36.02
61.39 59.50 59.12 57.36 58.32 57.77 54.04 53.28 53.28 51.42 50.56 49.51 48.48 47.00 45.80 45.31 43.39 42.77 42.49 42.39 42.15 41.82 41.89 41.53 42.08 42.33 40.59 41.47 41.13 38.89 37.11 39.57 35.48 33.36 35.22 33.34 33.61 33.83 34.60 34.58 35.53 35.58 35.78
55.99 53.43 52.16 51.32 50.59 50.05 49.51 48.59 47.76 47.74 47.20 46.48 46.30 45.24 43.96 43.52 43.18 42.91 42.77 42.18 42.21 42.55 43.29 43.65 43.06 41.79 41.95 38.58 37.83 36.91 37.37 35.17 35.12 33.27 35.31 33.54 31.53 33.24 32.54 31.05 29.46 31.80 30.78
50.95 49.65 47.99 48.36 48.77 48.33 46.93 46.52 46.21 46.00 45.10 44.82 43.81 43.36 43.30 42.93 42.53 42.38 42.55 42.18 42.34 42.51 42.55 42.53 42.46 41.90 41.65 40.08 40.84 37.42 34.99 34.05 33.21 34.14 33.69 30.61 28.33 28.50 29.01 31.05 30.16 29.44 30.34
49.13 47.94 47.74 46.63 46.45 45.83 45.58 45.62 44.02 43.95 43.89 43.71 42.71 42.07 41.79 42.41 39.42 40.17 41.79 41.90 41.85 40.82 39.38 38.94 39.55 40.41 39.07 38.06 37.41 36.54 36.00 34.82 33.97 33.86 34.12 33.72 34.00 29.01 29.59 30.73 31.87 30.14 27.23
48.10 47.52 47.40 46.74 45.75 45.25 44.71 43.84 43.02 42.58 42.67 42.00 41.64 41.65 41.23 41.74 39.66 39.91 38.80 39.52 38.02 37.08 36.47 35.33 35.98 37.73 35.61 33.89 33.58 33.33 32.81 34.57 31.50 31.18 30.87 32.04 32.96 32.58 30.91 30.82 31.71 31.93 30.33
47.16 47.10 46.80 45.92 44.90 44.40 43.89 43.11 42.55 41.57 40.01 39.52 40.93 41.32 41.40 41.92 38.70 38.47 36.88 36.55 35.78 34.42 34.03 33.12 31.47 30.51 31.67 31.89 29.66 28.19 29.05 30.19 31.31 32.78 31.36 33.05 33.20 34.36 34.10 34.87 33.93 33.27 32.52
47.53 47.07 46.47 45.85 44.88 44.71 43.20 41.82 40.38 39.24 40.26 40.78 41.51 40.76 38.50 34.74 35.54 35.03 34.61 32.09 31.33 29.76 31.03 29.87 29.82 28.75 31.83 32.03 28.14 25.99 25.37 25.64 29.93 32.20 33.30 33.96 34.30 33.85 34.10 34.35 32.12 29.68 28.09
47.46 46.68 45.59 45.33 44.14 41.82 40.21 39.89 40.66 41.25 41.46 41.76 40.35 36.28 34.35 31.78 33.45 33.93 31.60 28.05 25.91 25.10 26.29 27.99 29.46 29.18 30.23 30.20 26.42 25.22 23.99 25.31 26.05 26.69 27.55 28.80 30.61 30.59 32.38 33.98 33.98 30.02 28.69
45.83 45.91 45.75 43.96 42.41 42.43 41.79 41.15 40.72 39.28 36.16 33.26 32.61 33.55 31.81 31.07 30.69 31.13 29.46 25.10 24.68 25.15 24.66 24.36 24.43 27.70 27.90 28.52 29.27 26.72 26.64 28.48 28.63 28.39 28.64 29.69 29.90 30.30 31.08 32.63 33.17 31.70 29.38
45.08 44.10 43.24 43.38 43.69 42.76 39.35 36.99 37.14 35.78 32.93 30.48 29.92 29.07 28.59 27.93 29.34 28.92 28.39 27.12 26.42 24.20 23.89 23.71 24.15 26.65 27.70 28.40 28.28 29.39 29.70 27.93 28.09 27.58 27.62 27.83 27.99 28.52 29.19 31.53 33.08 32.09 32.51
42.59 41.69 39.62 39.43 38.87 37.84 35.82 34.04 32.90 31.64 28.43 27.33 27.69 27.39 26.18 26.07 23.96 25.78 25.60 25.22 25.22 23.43 23.91 24.13 25.27 26.08 26.80 26.50 26.90 26.66 25.15 24.18 23.20 23.60 23.51 26.10 29.55 30.68 31.01 31.77 33.19 31.10 30.47
37.86 36.61 35.44 34.07 32.96 31.90 32.84 31.59 28.75 26.10 25.42 26.97 26.89 25.17 24.78 22.64 21.54 21.06 21.97 20.59 23.29 23.22 23.10 22.43 22.23 24.11 23.89 23.06 22.58 23.06 22.84 21.83 21.60 21.48 23.11 23.79 26.96 29.96 29.92 31.47 31.52 30.11 29.01
35.36 33.06 31.40 30.90 28.80 27.46 27.71 26.70 24.76 24.78 26.73 24.95 23.62 24.61 19.76 18.02 21.88 22.35 22.23 22.09 18.94 23.02 19.88 19.84 20.92 21.03 20.59 20.21 20.02 20.17 19.97 20.01 19.32 20.02 20.03 22.26 23.78 30.51 30.22 31.64 31.23 29.66 27.22
31.22 30.06 27.68 26.85 26.69 26.53 25.38 25.28 27.68 27.30 27.97 27.57 26.52 23.37 24.09 24.10 23.11 23.22 24.00 23.78 24.20 24.55 19.36 15.69 11.52 10.19 13.96 17.21 16.93 16.61 17.25 17.42 18.37 18.57 18.60 20.63 21.52 27.53 30.43 30.70 30.31 28.61 26.85
27.91 29.40 29.00 28.37 27.82 27.44 26.32 25.35 22.95 26.24 27.35 26.69 25.94 25.32 25.00 23.35 22.34 22.94 23.52 23.68 24.09 23.06 17.31 14.85 8.97 7.01 8.39 16.24 16.03 15.41 14.43 15.99 17.83 16.28 16.48 18.56 21.01 20.24 28.83 29.50 29.20 28.22 26.39
29.10 28.58 27.59 27.19 26.57 26.12 25.49 25.44 25.95 24.15 22.95 23.54 26.00 24.65 24.41 22.70 22.04 22.77 23.71 23.73 19.37 19.77 18.19 13.98 9.65 7.72 10.25 13.39 14.14 13.85 14.09 14.23 14.69 14.20 14.12 16.01 18.70 18.78 17.47 27.64 28.18 26.77 23.82
27.06 26.57 25.41 24.10 24.59 25.26 25.53 25.45 25.26 24.58 24.28 23.40 24.09 23.78 21.81 21.70 20.96 20.81 21.09 16.59 13.44 14.66 15.42 14.30 8.25 10.16 11.00 12.38 6.37 6.98 7.18 11.55 11.68 11.71 12.23 13.55 15.67 15.89 15.74 17.51 25.78 24.09 23.24
24.18 25.21 25.74 25.39 24.99 24.19 24.16 23.42 23.15 22.48 22.23 21.97 21.26 20.45 19.24 16.24 9.83 7.55 10.09 10.13 7.71 11.64 9.69 11.79 11.48 12.14 9.27 8.59 2.79 3.37 8.81 8.30 10.67 10.08 11.07 11.82 13.26 14.56 14.19 14.53 17.17 25.54 25.57
22.24 23.08 23.33 23.87 22.53 21.89 21.74 20.84 20.94 20.38 19.98 19.71 18.24 15.06 14.53 14.05 11.58 10.71 14.81 9.69 8.73 7.58 3.87 6.65 6.96 3.30 4.54 5.35 10.83 9.89 6.74 5.92 9.14 8.75 10.80 10.23 11.11 11.85 13.59 14.30 14.51 15.80 25.74
22.20 22.06 21.59 20.35 20.83 19.28 18.10 18.65 19.51 18.60 18.51 17.17 15.98 16.44 13.53 8.96 10.66 12.27 10.20 3.86 0.82 3.49 4.62 4.07 2.46 3.98 4.73 9.34 7.79 5.22 5.64 7.59 6.51 9.01 7.87 7.97 9.45 11.97 11.48 10.86 11.96 15.23 18.95
20.53 20.00 19.32 19.29 19.37 17.81 17.22 18.58 16.67 15.42 14.47 12.96 13.07 13.50 12.97 7.98 7.14 10.21 5.29 -0.44 2.10 2.10 0.82 1.12 -3.80 4.62 3.54 1.78 1.86 8.49 9.11 7.88 8.58 7.92 6.75 7.46 9.11 9.30 9.44 9.27 11.36 12.04 13.68
19.42 18.42 18.36 17.83 17.13 15.83 14.21 12.93 12.66 13.46 13.76 11.21 7.92 7.59 7.85 8.11 4.71 5.57 2.97 -0.29 -1.86 -3.98 -5.99 -4.35 2.63 3.53 5.08 7.03 7.89 7.26 8.56 8.42 9.46 10.01 9.27 6.28 6.94 8.11 8.84 9.23 10.32 12.19 13.66
18.26 16.55 15.61 15.48 13.81 11.35 10.51 11.18 9.35 7.90 7.19 6.64 6.20 6.04 7.46 3.43 5.90 2.54 -1.78 -4.70 -1.64 -7.07 0.72 -0.74 -1.48 2.38 2.26 2.39 3.59 4.61 5.74 9.32 9.81 9.00 8.59 7.50 6.50 6.96 8.37 9.12 10.25 11.20 13.07
16.76 15.13 14.19 13.53 11.88 9.37 7.38 5.68 5.46 5.02 3.61 4.94 3.44 1.11 0.86 2.93 0.41 -7.07 -3.78 -1.60 2.15 0.68 -2.35 1.08 2.12 0.75 1.91 4.43 6.21 8.05 7.80 8.13 8.68 9.47 9.30 8.63 7.08 7.47 9.80 9.91 10.06 10.45 11.41

GFSGL_sfc_wetblb_072.txt.gz
Wetbulb
57.98 58.10 57.43 57.75 58.16 58.16 57.10 57.00 57.63 57.34 57.32 57.77 55.98 53.80 53.10 52.21 50.19 48.06 46.51 45.48 44.98 43.88 43.42 43.17 42.63 43.17 42.17 41.30 42.02 41.81 39.95 37.20 34.47 35.60 34.25 35.05 33.50 34.43 36.18 36.45 37.27 36.01 37.48
58.93 59.63 58.92 58.16 58.49 58.12 58.20 58.37 58.77 57.58 56.78 55.20 54.46 53.11 51.27 49.77 48.44 46.42 44.83 44.54 43.31 42.62 42.45 42.66 42.46 42.59 40.95 41.09 40.73 39.45 37.00 36.90 34.47 34.89 33.15 32.77 33.20 34.90 34.43 34.06 36.62 37.49 36.03
59.78 59.65 58.70 58.72 58.78 58.69 58.75 57.84 55.55 54.46 55.62 52.81 51.07 49.65 48.37 47.03 45.66 44.73 44.15 43.57 43.13 42.97 42.75 41.64 41.58 41.97 41.28 40.98 39.46 39.27 40.46 40.34 38.26 35.46 35.99 33.45 33.05 33.26 33.04 33.53 34.21 35.13 36.85
56.83 56.28 56.02 55.01 55.32 56.54 55.52 54.17 53.25 53.17 50.28 49.34 49.79 48.02 46.06 44.29 44.11 43.71 43.96 43.09 42.72 42.50 42.58 42.64 43.02 43.01 41.54 40.62 40.22 39.28 37.79 34.33 34.21 33.61 34.71 33.98 31.45 33.59 34.65 34.02 32.89 31.67 33.61
52.23 51.53 49.69 49.67 49.81 48.89 48.87 48.51 48.21 47.93 47.77 47.93 45.22 44.05 43.94 43.83 43.79 43.46 43.14 42.21 42.11 42.24 43.20 43.29 42.67 42.06 41.48 39.93 39.09 34.45 33.62 33.99 32.89 30.94 31.72 32.85 31.04 27.89 27.99 31.09 29.48 30.30 29.10
50.15 48.40 48.20 47.90 47.66 47.19 46.29 45.57 45.21 45.01 44.96 44.33 43.53 43.26 42.49 43.11 39.41 40.20 41.51 42.00 42.30 41.40 39.85 39.26 37.53 35.85 35.14 34.87 34.34 34.05 32.54 29.04 27.12 26.98 27.49 28.59 29.82 31.24 30.02 31.64 29.78 31.24 29.88
48.60 47.88 47.70 47.30 46.09 45.37 45.08 44.49 43.65 43.23 43.34 42.58 42.15 42.32 41.58 41.56 39.58 39.94 39.37 41.08 39.56 37.73 33.84 32.48 33.35 32.75 32.14 30.61 30.68 30.19 30.00 31.24 29.73 28.00 26.72 26.95 28.21 29.62 31.31 31.92 31.94 31.60 31.54
48.30 47.39 46.96 46.35 45.17 44.75 44.22 43.67 42.91 42.52 41.77 41.59 41.34 41.41 41.73 41.76 38.96 38.56 36.80 37.13 33.00 31.63 30.07 29.41 27.90 27.39 29.93 28.91 27.36 25.47 25.30 25.56 25.79 26.55 25.24 26.65 28.02 29.52 30.07 30.80 29.86 30.19 32.26
46.96 46.55 46.18 45.47 44.21 43.99 42.90 41.88 40.90 40.39 40.85 41.13 41.70 41.62 38.91 38.59 37.45 36.05 34.11 30.32 28.72 27.37 28.22 27.93 27.41 26.67 29.35 29.81 26.28 24.65 24.48 25.78 29.73 31.09 31.47 31.79 31.98 32.09 31.85 29.12 26.69 25.65 24.88
47.03 46.39 46.12 45.18 44.62 43.05 41.82 40.91 39.58 40.20 40.89 41.67 40.37 36.50 34.34 32.51 34.29 33.61 30.60 26.58 24.67 24.41 25.52 25.99 27.69 26.58 27.62 27.91 25.39 24.88 24.41 25.34 26.82 28.23 28.72 29.47 30.47 30.18 31.00 29.39 28.86 26.98 26.52
47.08 46.04 45.05 43.67 41.63 40.87 40.46 39.94 39.35 38.16 36.52 33.16 31.65 31.33 29.84 30.23 30.35 30.87 29.33 24.98 24.74 24.71 24.03 23.53 23.75 26.04 27.12 28.34 28.53 25.86 25.64 25.67 25.42 25.09 25.60 25.56 26.17 27.54 28.77 29.42 30.51 29.10 28.10
44.46 42.78 41.94 41.56 41.88 41.05 39.55 38.22 37.00 34.36 30.95 30.13 28.36 26.58 26.43 27.01 29.26 29.08 28.28 26.92 25.62 24.19 23.19 23.31 23.19 26.13 27.21 27.48 25.63 26.11 25.51 24.91 22.25 21.31 21.67 22.87 22.98 23.53 24.86 28.92 30.95 30.28 31.23
42.15 41.34 41.32 40.50 39.44 37.68 35.71 34.14 33.25 31.95 29.39 28.33 27.53 25.01 23.90 23.74 23.27 26.07 25.78 25.29 24.70 23.32 24.25 24.03 24.81 25.47 25.91 25.36 24.49 24.07 22.70 21.03 19.39 18.46 18.81 19.53 20.63 22.47 24.71 27.09 30.53 31.43 31.99
37.73 36.99 35.23 31.48 30.83 30.72 30.30 29.77 28.81 26.29 26.35 27.82 26.83 25.09 23.57 22.24 21.68 21.72 22.33 22.22 23.40 23.34 23.12 23.15 22.30 23.55 22.88 22.18 21.97 22.07 21.03 19.60 18.37 18.06 17.65 18.61 20.26 21.03 22.09 25.83 29.58 30.11 29.75
34.26 32.18 29.39 28.88 28.26 26.90 25.25 25.22 25.73 26.30 27.20 26.85 25.55 25.41 22.07 20.39 22.20 23.11 23.52 23.03 21.46 23.52 21.79 20.80 21.24 19.75 18.60 19.04 19.37 18.71 18.47 17.89 16.47 16.62 16.06 15.35 16.85 18.59 20.15 21.82 22.47 29.87 28.54
30.24 29.02 28.34 27.15 26.23 26.17 25.16 25.57 29.02 28.34 28.73 27.99 26.88 25.27 24.93 24.88 24.05 23.78 24.20 23.68 24.13 24.29 21.41 18.35 14.62 11.41 13.96 16.49 15.53 15.32 15.78 15.00 15.28 15.49 14.34 14.11 14.39 15.53 17.91 18.85 21.09 29.50 26.81
28.59 28.41 28.27 28.16 27.50 26.35 26.01 25.70 23.74 26.47 27.72 27.16 26.73 26.22 25.42 23.87 23.57 23.91 24.03 24.02 23.76 22.29 17.06 15.19 9.73 7.94 10.75 15.47 14.65 14.04 12.51 13.42 14.52 13.14 12.63 11.74 12.78 13.98 15.60 15.99 17.27 26.03 26.96
27.08 27.71 26.66 26.38 26.29 26.15 26.05 26.01 25.74 24.68 23.81 24.60 26.10 25.04 24.82 23.33 22.84 22.42 22.54 22.65 19.65 19.61 18.23 15.49 12.90 12.58 13.23 13.56 13.20 12.18 11.73 10.30 8.97 10.03 10.97 9.49 10.87 11.29 12.65 14.15 15.37 14.83 23.19
27.07 25.86 25.68 25.51 25.37 25.45 25.49 25.19 25.13 24.55 23.89 23.60 24.36 23.53 23.09 22.33 20.55 19.97 20.01 17.31 15.92 15.55 15.23 14.32 13.26 13.18 12.02 11.51 5.01 3.17 0.21 0.75 3.14 4.57 5.06 6.81 8.19 9.18 9.79 12.82 13.66 13.65 14.47
25.54 25.73 25.67 25.35 24.66 23.91 23.77 23.23 22.58 22.30 21.94 21.21 21.19 20.03 19.22 17.49 14.21 12.85 14.24 11.87 12.60 14.02 12.74 13.07 12.87 11.54 4.96 6.17 0.53 -1.61 2.81 1.28 3.49 5.16 3.31 6.20 2.84 6.72 7.89 10.80 11.63 11.19 12.21
23.66 23.82 23.42 23.23 22.58 22.08 21.22 20.44 20.58 19.81 19.29 19.11 17.63 16.56 16.66 16.02 14.22 13.73 14.81 11.39 12.24 11.85 8.71 10.82 7.19 2.27 2.42 1.39 6.42 0.15 2.52 -2.02 3.45 7.47 7.16 7.06 3.99 4.91 7.88 10.92 10.67 11.07 12.41
21.64 21.64 21.27 20.74 20.05 18.67 18.38 19.14 19.08 18.25 17.87 16.71 16.10 16.98 15.21 12.22 13.12 13.42 12.70 8.83 6.20 9.34 9.20 6.07 3.00 2.08 3.40 4.81 4.27 -5.58 1.86 2.53 4.15 5.00 5.56 5.93 6.28 6.45 7.56 6.73 8.54 9.55 11.45
19.66 18.99 19.41 19.25 19.26 17.46 16.75 17.37 15.75 15.33 14.95 13.55 13.47 13.11 12.67 9.63 8.36 9.69 8.82 6.39 7.78 4.08 4.11 3.25 -3.58 1.22 2.17 -1.09 -1.72 2.98 5.07 4.99 4.98 6.67 5.68 5.45 6.17 5.82 4.25 4.84 7.55 8.32 9.07
18.56 17.65 17.36 16.99 15.99 15.70 14.57 12.80 12.62 12.76 12.39 10.50 7.70 9.11 7.43 6.22 2.50 2.87 2.41 0.98 0.77 -2.02 -5.94 -5.59 -2.51 -0.11 2.39 -1.44 -3.49 1.25 4.66 4.43 6.38 6.87 7.51 6.84 5.73 6.06 4.86 5.05 6.97 8.28 8.71
16.11 14.95 13.66 12.60 11.36 10.34 8.55 8.67 6.77 5.16 5.53 5.52 5.33 4.43 5.85 2.45 2.03 -3.43 -3.62 -5.54 -5.94 -7.58 -4.03 -4.52 -4.16 -1.90 -1.39 -1.30 -0.13 1.06 1.85 4.29 5.96 7.35 7.14 6.60 5.90 5.38 4.93 4.61 6.41 8.19 9.38
13.07 12.03 11.18 10.60 8.83 8.84 8.00 6.23 5.36 3.52 3.01 1.60 -0.54 -2.69 -3.58 -4.86 -3.64 -13.01 -8.86 -5.99 -6.22 -6.23 -5.24 -4.50 -3.08 -2.57 -2.03 1.03 2.57 4.67 4.34 4.30 4.49 5.41 6.12 6.42 5.79 5.26 5.32 4.74 7.06 8.87 8.92

GFSGL_sfc_wetblb_075.txt.gz
Wetbulb
55.29 55.74 55.16 54.78 54.73 56.20 56.06 54.88 55.14 56.01 56.35 56.13 56.17 55.51 53.82 52.53 51.35 51.32 49.89 48.12 47.27 46.22 45.52 45.26 44.11 43.84 43.05 42.53 42.05 41.64 40.86 40.20 37.50 38.12 35.85 34.86 33.74 34.15 35.93 35.74 37.06 36.33 37.96
57.37 57.54 56.56 56.83 56.46 56.39 56.64 56.45 56.93 57.01 57.47 57.31 57.55 57.81 53.97 52.29 51.55 50.43 47.71 47.51 46.57 45.65 44.21 43.53 43.08 43.22 42.02 41.59 41.42 40.67 39.96 38.87 35.94 31.98 33.84 33.51 32.59 34.27 34.05 33.69 36.71 37.31 35.28
57.46 57.47 57.49 57.40 57.27 57.35 56.75 57.17 57.35 57.73 57.87 58.01 55.93 54.57 53.08 51.34 49.35 48.34 47.63 46.03 45.47 44.94 43.96 43.34 42.39 42.04 40.91 41.24 41.11 40.41 39.57 40.60 38.53 36.04 36.31 35.05 32.51 32.58 32.66 32.95 33.40 33.90 35.84
57.21 57.02 56.81 57.31 57.19 57.48 57.46 57.37 57.77 58.18 56.53 53.85 53.95 52.96 49.77 47.76 47.00 46.03 45.89 44.77 44.17 43.74 43.12 42.68 42.38 42.27 41.66 41.24 40.75 39.99 38.97 36.75 34.66 30.82 30.31 30.76 30.66 31.93 31.06 30.87 32.33 31.84 32.16
56.58 56.64 55.69 53.70 53.35 53.32 54.83 55.87 53.83 52.82 52.44 51.01 48.68 46.40 45.65 45.59 45.72 45.63 44.47 43.67 42.67 42.18 42.53 43.18 43.20 41.93 39.08 38.45 39.22 33.14 30.91 28.58 27.70 26.90 26.45 26.99 26.97 27.42 27.67 28.96 29.70 30.99 31.83
52.31 52.84 50.89 50.96 50.06 48.79 48.25 47.53 46.96 46.57 46.71 46.13 44.96 44.31 43.84 44.49 41.95 40.96 42.37 42.46 42.51 42.15 41.05 39.11 36.16 35.72 34.90 34.19 33.71 33.22 31.05 26.83 24.59 24.39 24.36 23.89 23.67 25.13 26.70 26.64 27.82 27.87 25.86
51.26 49.82 49.17 48.97 47.74 46.68 46.62 45.94 45.09 45.63 45.43 43.82 42.92 43.55 42.72 41.93 39.38 39.86 39.66 41.82 40.36 38.66 35.79 34.70 32.88 32.04 30.88 28.83 29.78 29.02 28.18 28.83 27.17 24.92 22.62 22.70 23.21 24.21 25.25 25.98 26.01 26.14 25.54
49.56 49.40 49.04 48.32 46.32 45.71 45.33 44.50 43.44 43.21 42.50 42.13 42.36 42.04 42.06 41.22 38.63 38.44 37.27 36.91 33.88 32.19 31.05 29.85 28.98 27.36 28.68 27.73 26.30 24.56 25.00 25.58 26.00 26.28 23.75 23.70 24.31 25.64 26.46 27.50 27.25 27.15 27.54
48.03 48.21 47.74 46.29 45.10 44.66 43.45 42.31 42.16 41.91 41.89 41.79 42.20 42.08 41.34 40.15 36.97 36.18 34.55 31.99 29.30 28.03 27.73 27.18 26.48 25.73 28.33 28.67 25.91 24.77 24.78 25.93 29.05 30.10 29.92 30.48 30.90 31.43 30.66 29.11 26.83 25.84 24.70
47.32 46.61 46.13 45.64 44.63 43.21 41.97 41.12 41.67 42.34 41.80 41.45 37.53 36.81 36.43 36.16 35.79 34.23 32.07 29.09 26.02 24.99 25.64 25.80 27.22 26.04 27.01 27.78 26.32 24.96 23.67 23.86 23.99 24.76 24.97 25.58 27.30 27.86 28.99 28.26 27.67 25.39 25.50
46.91 45.99 45.48 44.98 43.40 42.84 41.86 41.16 41.06 40.63 37.85 33.25 30.65 30.98 31.16 31.71 31.36 31.63 30.24 25.87 25.15 24.57 23.98 23.20 23.43 25.68 27.05 27.99 27.22 25.24 23.95 23.36 23.43 21.85 21.96 22.22 23.60 24.75 25.49 26.00 25.47 25.88 26.40
45.66 43.90 42.75 42.31 41.86 41.28 40.36 39.05 37.34 35.44 32.45 30.11 28.39 27.28 27.44 28.24 29.37 29.51 28.54 27.05 26.32 25.00 23.72 23.68 24.11 25.83 26.83 26.28 24.50 24.42 23.94 22.80 20.76 19.39 18.61 19.32 19.14 19.80 21.22 21.99 24.07 25.26 25.98
42.83 41.66 40.84 40.21 39.37 38.00 37.55 34.01 32.11 32.23 29.75 28.46 27.38 25.51 23.92 24.04 24.47 27.11 26.84 25.89 24.75 23.86 24.55 24.32 24.72 25.10 25.53 24.50 23.39 22.92 21.95 20.17 17.81 15.86 16.42 16.74 17.81 18.78 20.37 21.57 23.52 24.30 26.05
39.52 36.48 35.47 33.35 31.76 31.43 31.52 32.08 31.24 30.32 29.55 28.33 25.83 23.71 22.44 22.01 22.29 22.97 23.09 23.49 23.95 24.03 23.66 24.06 23.12 24.17 22.88 22.15 21.66 20.96 19.91 18.96 17.09 16.23 15.33 16.46 17.02 17.08 16.85 18.91 19.20 19.44 19.39
33.60 32.67 31.06 29.37 27.75 26.91 27.42 28.46 27.87 27.81 29.83 28.46 27.00 25.75 22.54 21.77 22.71 23.94 23.92 23.35 23.32 23.99 22.37 22.00 20.57 19.32 18.40 18.69 18.62 18.09 17.68 16.96 15.51 15.23 14.70 14.03 13.98 13.98 14.07 16.55 16.92 17.80 17.04
30.25 29.78 29.11 27.69 26.71 26.69 25.70 25.30 28.78 28.43 29.03 28.86 27.61 25.61 25.51 25.43 25.05 24.74 24.38 24.06 24.24 23.76 21.08 17.92 14.78 13.92 15.09 16.05 15.37 14.98 15.07 14.44 14.20 13.83 12.59 12.78 11.64 10.78 11.55 12.98 15.05 15.34 15.73
28.52 28.08 27.68 27.23 26.79 26.23 26.28 25.61 23.61 26.71 28.17 28.08 27.64 26.93 25.76 24.80 24.73 24.27 23.92 24.20 23.99 22.27 17.11 15.57 10.08 9.39 12.38 14.98 14.23 13.70 12.59 13.42 13.59 11.73 9.81 10.11 9.51 9.70 9.64 10.15 11.65 13.79 14.40
27.67 28.02 27.35 27.13 27.23 26.88 26.12 25.86 26.21 25.49 24.28 24.62 26.31 25.68 25.20 24.82 23.98 23.27 23.08 22.81 20.24 19.39 18.38 15.28 13.68 13.91 13.68 12.86 12.35 11.51 11.03 10.52 9.03 8.35 7.12 6.69 2.96 8.16 6.95 7.13 9.09 10.20 12.16
27.44 26.36 25.98 25.73 25.55 25.31 25.51 25.23 25.01 24.29 23.57 23.84 24.53 24.53 24.51 23.63 21.87 20.94 20.80 18.16 16.71 16.18 15.51 14.61 14.38 13.68 12.38 11.42 10.00 7.07 2.63 3.34 1.83 -4.38 -0.83 1.87 -0.08 5.94 4.63 5.72 7.14 9.33 10.30
25.70 25.41 25.14 24.37 23.51 22.60 22.45 22.10 21.69 21.90 21.31 21.03 20.87 19.97 19.49 18.57 14.89 13.85 15.10 12.97 13.84 14.51 13.66 13.36 13.27 12.42 10.20 9.33 4.92 1.99 0.69 -4.35 -2.91 -1.98 -1.82 -4.34 -2.19 -0.74 3.67 4.12 5.57 7.19 8.62
22.98 22.65 22.62 21.93 20.78 20.30 19.90 19.76 19.77 19.22 18.75 17.78 16.79 17.03 17.96 15.94 14.39 14.53 14.45 12.76 12.37 11.93 10.79 11.11 10.07 7.49 7.07 5.99 7.63 3.42 -0.36 -5.79 -0.32 0.54 4.45 4.22 0.84 1.01 4.06 5.60 6.26 4.99 7.72
21.26 20.63 20.08 18.83 18.46 17.42 18.58 18.20 16.52 16.68 16.40 15.90 15.68 15.57 14.11 12.20 11.65 11.53 11.12 7.92 6.93 10.23 9.98 7.35 4.65 5.33 5.78 4.32 2.58 -5.25 -2.38 -4.52 -3.27 -0.61 0.21 3.21 4.67 4.69 4.73 4.10 2.80 3.25 6.22
18.72 18.15 18.08 17.66 17.41 16.04 15.59 15.31 14.44 13.60 12.35 10.30 10.65 10.90 10.22 7.32 7.48 8.22 7.01 4.56 6.26 3.79 2.69 1.85 -2.93 1.85 2.37 0.38 -2.14 -0.84 -0.71 1.47 1.90 2.88 2.72 2.78 3.60 4.29 4.11 3.15 2.96 2.62 4.76
16.38 15.36 15.20 14.52 12.72 12.06 10.40 9.17 8.83 9.11 9.03 6.07 4.97 6.77 6.19 4.24 1.20 1.19 -1.71 -4.59 -6.19 -9.42 -9.65 -8.37 -4.03 -2.06 -0.52 -3.63 -5.85 -3.88 1.08 0.45 3.19 3.86 3.80 3.92 3.76 4.42 3.83 3.89 3.52 2.37 4.12
12.83 11.70 10.51 8.82 7.58 5.36 4.26 4.26 2.19 0.97 1.42 -1.26 -2.53 -4.52 0.37 -4.70 -4.37 -12.13 -14.31 -13.95 -10.15 -11.97 -6.88 -6.22 -5.80 -4.19 -4.17 -3.96 -3.36 -2.20 -1.95 0.86 2.64 4.42 4.38 3.63 2.54 2.49 3.04 3.17 3.18 2.75 4.07
9.82 8.22 6.49 5.09 2.65 2.11 -2.21 -5.61 -7.97 -9.60 -8.51 -7.60 -7.78 -7.78 -7.24 -6.70 -7.42 -16.67 -11.23 -7.97 -8.17 -6.81 -6.35 -5.62 -4.57 -5.00 -4.67 -2.81 -1.21 0.69 0.17 -0.43 -0.29 1.36 1.79 1.72 0.84 1.25 2.27 2.52 2.63 2.99 4.55

GFSGL_sfc_wetblb_081.txt.gz
Wetbulb
56.02 56.68 57.20 57.27 57.64 58.11 57.65 57.78 57.95 59.17 58.69 58.28 58.34 58.75 59.16 59.20 59.17 58.40 57.65 56.26 55.72 55.52 53.33 51.72 51.82 52.68 49.71 48.09 48.43 46.34 47.30 45.88 45.16 44.22 46.23 42.68 42.61 44.85 45.95 46.06 45.26 45.59 45.62
55.98 55.86 56.08 56.86 57.44 57.33 56.21 57.50 59.05 58.60 58.77 57.94 58.21 58.09 58.57 58.01 57.35 55.62 55.86 54.75 53.11 52.22 51.70 51.05 51.31 48.17 46.10 45.32 45.47 44.06 44.49 45.23 42.25 41.47 40.63 39.38 40.19 42.80 43.13 43.30 43.28 43.19 44.09
55.94 55.11 54.44 55.04 55.26 55.41 55.87 57.06 59.02 58.83 58.42 57.65 57.65 57.77 58.14 58.27 58.02 55.76 55.38 54.34 52.69 52.61 52.13 50.59 49.16 46.18 44.44 44.19 43.68 44.40 42.16 41.82 41.08 39.58 39.08 40.38 39.90 41.86 41.82 40.94 40.90 41.38 40.11
54.92 55.15 54.90 54.91 56.01 55.65 55.57 57.23 58.48 58.57 58.36 58.24 57.98 57.38 58.25 58.38 57.10 55.60 54.40 53.29 52.06 51.06 49.58 48.71 47.49 46.13 43.99 43.47 42.50 42.21 43.01 41.31 39.97 39.55 38.29 37.21 37.66 40.31 38.74 36.86 35.36 35.85 34.47
55.31 55.25 55.38 56.63 56.67 57.17 57.65 57.69 58.48 58.40 58.26 58.75 58.41 58.18 57.97 56.04 53.57 52.44 51.84 49.55 48.46 46.52 45.52 44.96 44.65 44.30 42.46 42.10 43.06 40.58 40.29 36.18 34.94 34.04 32.69 35.36 35.37 36.56 34.55 34.42 31.49 32.88 33.83
54.98 55.17 56.09 56.54 56.96 57.18 57.52 57.73 56.99 56.86 57.40 57.76 57.01 55.50 51.78 50.49 44.93 43.85 46.89 46.86 45.49 44.15 39.56 39.01 37.44 36.67 35.64 35.32 34.65 34.21 35.08 33.33 32.43 31.72 33.67 31.99 32.21 32.08 32.46 31.74 31.08 29.71 28.72
55.23 55.56 56.00 56.57 56.34 57.10 56.87 54.76 55.00 54.74 52.03 50.06 48.27 47.69 46.40 44.94 40.22 41.11 40.93 44.90 43.09 39.04 36.32 34.92 33.81 33.14 33.77 31.28 30.48 30.11 29.99 29.48 29.09 30.43 29.76 30.49 30.59 31.95 31.35 30.03 29.89 29.58 29.69
55.78 55.94 56.33 55.89 54.69 51.73 51.19 50.60 47.58 46.73 46.03 45.05 44.36 43.79 42.94 40.66 38.69 38.28 37.36 37.98 36.00 34.28 34.00 33.04 31.64 30.93 30.55 29.39 28.17 27.43 28.26 28.91 29.64 29.52 31.22 32.28 31.84 31.99 31.64 31.43 31.27 31.05 31.61
53.81 52.62 52.25 52.09 50.12 49.35 47.85 45.41 44.46 43.81 43.29 42.93 43.11 41.84 39.15 36.66 35.83 35.24 34.83 32.81 30.83 29.72 30.06 30.54 29.87 29.16 29.60 29.72 28.13 27.57 27.58 27.92 28.88 28.02 27.69 27.32 27.11 27.45 28.47 30.28 28.89 27.72 27.17
50.60 50.58 50.92 50.34 48.81 46.61 44.14 43.36 43.48 42.38 39.74 38.70 37.32 37.55 35.77 34.66 34.51 33.92 32.92 30.86 28.36 27.17 27.41 27.63 28.40 28.32 28.88 28.69 28.49 27.77 26.65 27.40 27.40 27.04 27.23 26.77 26.65 27.45 25.84 27.98 27.10 24.98 25.19
48.57 47.54 46.88 45.99 44.43 43.62 42.98 42.17 39.05 36.62 34.18 32.67 31.43 31.90 32.58 33.07 32.90 32.95 32.14 29.75 28.16 26.55 25.42 25.03 26.93 28.30 29.24 28.00 27.63 28.14 26.12 26.53 24.11 24.48 24.38 25.06 25.39 25.07 24.97 25.34 25.41 24.69 23.97
45.69 44.10 43.41 42.99 42.45 41.96 39.60 37.39 35.91 34.12 31.79 30.28 29.33 28.69 29.26 29.62 30.47 30.62 30.29 29.57 28.98 26.86 24.86 25.35 27.21 28.33 28.10 26.27 26.36 24.86 22.96 23.59 24.83 23.69 22.26 21.94 21.95 22.12 23.14 23.39 23.65 23.91 25.45
42.21 40.79 40.31 39.95 39.32 38.68 37.03 35.24 33.79 33.40 31.56 30.38 28.75 26.86 26.15 27.04 27.13 27.67 27.23 27.17 26.90 26.56 27.45 26.82 26.84 27.54 25.90 25.04 24.06 22.76 22.26 24.11 22.52 21.02 20.27 20.69 21.43 22.22 22.18 22.16 22.24 22.86 23.15
39.76 38.61 37.65 35.98 34.58 34.56 35.08 34.81 33.49 32.34 31.11 29.88 28.04 25.74 24.38 24.03 24.26 25.34 26.48 27.68 26.23 26.32 25.89 25.92 25.89 25.38 24.64 24.04 24.28 23.58 23.73 23.00 20.77 20.08 20.08 20.49 20.88 20.17 19.76 20.50 18.70 19.65 18.61
37.21 35.49 33.69 32.47 31.20 29.54 29.71 30.44 30.27 31.09 32.13 29.24 27.44 26.44 26.06 26.64 26.65 27.29 26.92 26.05 26.82 25.46 25.92 25.76 24.91 24.15 23.33 23.14 22.80 21.71 22.15 21.29 19.88 19.77 19.06 18.89 18.37 17.91 17.55 18.38 17.29 17.50 15.89
32.04 31.63 31.01 30.07 29.48 29.44 28.16 27.58 30.71 30.55 30.55 29.95 29.65 29.27 28.06 27.60 27.12 26.24 26.01 25.82 25.46 24.23 24.68 23.63 22.39 21.64 20.73 20.33 20.46 20.22 20.19 18.74 18.97 18.07 17.69 17.16 15.73 14.94 15.02 15.96 15.98 15.58 14.37
29.48 28.96 29.02 29.13 28.63 27.87 27.51 26.56 24.91 27.51 28.58 28.46 28.40 27.85 27.41 26.51 26.60 26.17 25.82 25.70 24.67 23.89 22.86 22.27 21.25 20.52 19.53 19.32 18.99 18.40 17.48 17.62 16.52 15.71 15.18 14.90 13.85 13.66 12.88 13.66 14.13 14.21 13.85
28.98 28.91 28.54 28.13 27.87 27.51 27.48 27.84 28.33 27.47 25.83 25.28 26.97 26.66 26.00 25.46 24.75 23.94 23.21 23.29 22.53 21.98 21.13 20.09 19.08 18.81 18.50 17.63 17.22 16.53 15.78 15.49 14.72 13.95 13.63 13.09 12.00 11.88 11.59 11.90 12.56 11.84 12.37
26.73 25.86 25.77 25.60 25.91 26.52 27.38 27.02 26.69 26.46 25.39 24.00 23.20 22.23 23.01 22.50 21.64 21.17 20.87 20.52 19.05 18.62 18.32 18.09 18.19 17.62 16.91 16.12 15.67 14.75 13.87 13.12 12.10 11.52 11.46 10.71 10.75 10.57 10.37 10.87 11.07 9.26 9.16
23.72 24.17 24.41 24.37 24.46 24.23 24.04 23.80 23.47 22.70 21.58 20.65 19.84 19.62 20.73 20.18 18.88 17.88 17.58 17.34 16.63 15.85 15.39 15.01 14.88 14.54 13.91 13.45 13.16 12.77 12.16 11.66 10.82 10.50 10.17 10.17 10.46 10.31 9.30 9.17 9.53 9.44 9.99
22.39 22.45 22.12 22.56 21.82 21.80 21.35 20.77 20.61 20.39 18.99 17.47 16.32 15.71 14.11 16.87 15.70 15.04 14.17 13.77 13.15 12.71 12.10 11.97 11.76 11.48 11.33 11.00 10.54 9.92 9.02 8.71 8.46 8.11 8.32 8.66 8.59 8.19 8.86 9.30 10.06 10.11 10.04
21.33 20.85 20.31 19.21 18.98 18.50 18.00 17.88 17.77 17.12 16.32 15.30 14.52 12.72 11.59 14.00 13.39 12.15 11.13 9.79 9.99 10.37 10.09 9.13 8.54 8.64 8.58 7.96 7.57 6.90 6.12 5.76 6.33 7.03 7.00 6.50 7.00 7.86 8.36 8.58 8.42 8.93 9.22
18.80 17.95 16.95 15.95 15.40 14.44 14.62 14.53 13.89 13.29 12.35 11.98 12.13 11.33 10.94 9.98 8.89 8.34 7.67 7.00 7.56 6.90 6.92 6.15 5.66 5.08 6.58 6.08 6.47 5.96 4.45 4.84 5.83 6.24 5.25 5.69 6.14 7.06 7.60 7.59 7.76 7.86 8.43
15.49 14.59 13.19 12.17 11.90 10.90 10.53 10.01 9.77 7.87 8.86 8.60 8.90 7.97 6.87 6.48 6.01 5.12 4.44 4.55 4.22 4.90 4.38 3.83 3.46 2.71 2.97 2.97 4.60 5.49 5.50 5.45 5.75 5.51 5.31 5.10 4.91 5.91 6.85 6.95 7.42 7.46 7.27
11.77 10.34 9.49 8.93 7.88 7.15 6.63 6.31 5.94 5.86 5.72 5.72 5.35 5.24 5.27 4.89 4.51 3.75 3.11 2.52 1.47 1.81 1.65 1.31 1.99 1.50 1.14 0.03 0.10 0.62 1.52 1.24 2.36 3.19 3.70 3.69 3.42 3.59 3.90 4.86 5.44 6.37 6.67
8.98 7.87 7.01 6.49 5.59 5.42 4.95 4.04 3.44 3.33 2.78 2.69 2.42 2.22 1.68 1.21 1.95 1.06 0.48 0.34 -0.40 -0.78 -0.45 0.56 0.35 -0.69 -1.32 0.10 1.22 1.68 -0.07 -0.29 0.36 0.70 1.48 2.29 2.58 3.70 4.91 5.19 5.58 6.31 6.82

GFSGL_sfc_wetblb_084.txt.gz
Wetbulb
60.87 61.17 60.80 60.50 60.33 60.95 61.40 61.52 61.51 62.50 61.81 61.39 61.34 61.28 60.91 60.75 61.34 61.62 62.04 62.00 61.41 61.25 60.91 58.58 58.97 58.13 53.58 52.68 53.71 51.26 50.50 50.88 48.75 48.57 49.82 48.77 49.53 50.03 48.69 46.18 48.96 49.06 49.64
60.88 60.95 60.94 61.06 60.84 60.68 61.24 61.88 62.54 61.83 61.92 61.08 60.92 60.75 60.34 60.32 60.73 60.69 60.70 61.16 59.75 58.73 56.88 56.37 54.79 53.82 52.82 51.87 51.14 49.15 48.20 49.86 47.49 44.70 43.68 43.09 44.54 45.41 45.23 46.09 46.17 48.21 48.26
60.49 60.45 60.52 60.61 60.54 61.08 61.13 61.60 61.52 61.46 61.33 61.17 60.66 60.26 59.66 60.04 59.82 60.53 60.63 59.95 59.03 56.69 57.83 54.89 53.90 51.76 50.81 50.77 50.00 48.58 47.45 46.40 43.83 42.24 40.13 42.34 42.16 42.54 42.36 44.93 44.56 47.33 46.30
59.77 59.39 59.54 60.12 60.26 60.47 60.75 60.50 60.35 60.43 60.07 60.29 60.36 59.92 59.90 59.62 59.37 59.60 59.39 58.83 58.04 57.17 56.09 54.98 53.16 50.11 49.40 47.60 45.71 46.60 44.16 42.82 41.41 41.03 40.20 39.17 39.12 41.38 41.35 40.93 42.65 44.68 42.37
59.25 58.68 58.66 59.47 59.79 59.55 59.84 60.05 59.31 59.30 60.04 60.26 60.15 60.25 60.62 59.87 59.84 60.18 59.70 58.09 57.52 55.73 51.94 50.16 48.11 47.37 44.74 44.61 45.33 43.98 42.56 39.64 39.41 36.74 34.37 34.48 35.55 36.30 37.60 41.80 39.66 39.33 39.25
59.29 58.75 59.30 59.20 59.14 59.19 59.48 59.38 59.14 59.22 59.53 59.93 59.51 60.09 60.45 60.17 49.27 45.25 52.09 54.53 50.66 47.17 41.93 40.51 38.94 39.07 37.38 36.06 35.67 35.30 37.90 37.10 34.07 33.90 34.32 33.25 35.48 37.18 38.51 37.94 36.66 35.08 33.59
59.44 59.30 59.09 59.11 58.94 59.22 59.38 59.45 59.17 59.31 59.24 59.02 59.96 59.75 57.47 52.56 41.26 40.88 42.35 46.52 43.83 39.84 37.16 36.47 34.75 33.87 33.25 31.80 31.64 31.19 30.86 30.61 30.78 33.93 33.88 34.61 34.53 36.90 36.97 35.41 35.04 34.68 33.78
59.14 59.04 59.22 59.11 58.97 59.20 59.17 59.04 59.15 57.93 56.18 52.20 47.91 46.36 45.22 41.08 38.47 38.30 37.55 38.06 36.09 35.50 35.01 34.06 32.70 31.78 31.67 31.01 29.72 29.19 29.21 29.62 29.66 29.50 31.75 33.06 34.82 35.82 35.33 34.69 34.39 34.23 34.50
58.48 58.68 58.94 58.95 58.67 58.25 56.79 55.47 52.65 48.09 45.96 44.56 44.20 42.21 39.38 36.93 36.02 35.47 35.06 33.29 31.63 31.20 31.54 31.79 31.88 31.44 31.08 31.42 29.42 28.49 28.08 28.63 29.21 28.54 27.96 27.17 27.09 27.35 28.32 30.79 29.74 30.35 30.09
58.74 58.68 57.90 56.88 55.18 54.17 49.88 45.97 44.51 43.08 40.41 38.96 37.08 37.07 35.39 34.85 34.80 34.46 33.64 31.39 29.32 29.12 29.45 29.31 29.99 29.70 28.76 29.97 29.92 29.61 29.09 31.15 31.04 31.21 31.25 29.18 27.95 30.12 26.98 28.52 30.24 27.53 27.49
55.49 54.77 53.51 52.47 49.04 46.06 43.69 42.00 39.55 37.06 35.21 33.52 32.11 32.40 33.09 33.46 33.40 33.56 33.00 30.68 29.00 27.62 26.96 26.82 28.30 29.57 29.26 29.02 29.76 30.75 29.54 30.62 26.27 28.49 29.11 30.07 29.88 30.12 30.10 30.14 29.48 27.79 25.96
48.36 45.99 44.81 44.22 43.49 41.47 39.32 37.39 36.12 34.28 32.33 30.95 29.64 28.84 29.19 30.03 31.18 31.37 30.96 30.50 29.91 27.49 26.15 27.71 28.51 29.26 27.84 27.15 28.18 25.09 23.90 25.44 29.25 28.17 27.55 27.28 27.18 26.79 27.66 28.11 28.21 27.84 28.15
43.24 41.92 41.04 40.52 39.71 39.05 37.25 35.53 34.06 33.41 31.50 30.11 28.70 27.20 26.45 27.32 27.85 28.86 28.70 28.65 28.97 28.79 29.11 28.54 28.62 28.08 26.41 26.10 24.77 23.32 23.58 28.14 26.90 25.60 25.39 25.09 25.71 26.18 26.20 25.79 27.00 27.11 26.55
39.11 38.19 37.62 36.51 35.94 36.21 35.93 35.41 34.22 32.74 31.16 29.57 28.04 26.20 25.55 25.52 26.53 28.12 28.55 28.23 28.37 27.80 27.65 28.82 28.53 28.11 26.36 26.79 26.04 25.99 28.19 26.72 24.20 23.70 24.13 25.10 25.84 25.01 24.56 25.38 23.78 23.74 22.60
35.51 34.44 33.03 32.33 31.69 30.37 30.47 31.71 30.95 31.53 31.92 28.92 27.35 26.77 26.61 27.29 28.26 29.61 30.52 30.59 30.17 28.22 29.31 29.25 29.39 29.16 28.30 27.81 27.09 25.93 25.99 25.35 23.90 23.93 22.73 21.86 21.79 22.24 21.96 23.11 22.17 22.06 20.17
33.52 32.34 31.94 31.14 30.57 30.34 29.19 28.27 30.73 30.46 30.85 30.73 30.97 30.04 29.51 27.95 27.37 27.29 27.03 26.20 25.47 25.09 28.43 27.47 26.15 25.86 25.07 24.16 23.81 23.28 23.85 22.68 22.37 21.13 20.23 19.87 19.30 19.22 19.37 20.49 20.26 20.02 19.01
31.92 30.99 31.02 30.48 29.07 28.37 27.88 26.61 24.60 27.64 28.99 28.80 28.57 28.25 27.89 27.13 26.88 26.68 26.51 25.34 24.50 26.26 26.06 24.82 23.96 23.25 22.73 22.29 21.94 21.22 20.56 21.06 20.42 19.37 18.86 18.59 18.31 17.78 17.27 17.43 18.13 18.30 18.07
30.24 30.06 29.43 29.09 29.05 29.05 29.23 28.47 28.52 27.44 25.58 25.41 26.76 26.28 25.66 25.00 24.02 23.70 23.97 25.69 25.28 24.42 23.43 22.28 21.51 21.37 21.11 20.43 19.92 19.22 18.73 18.46 17.75 17.31 16.35 16.06 15.84 15.27 14.70 14.89 15.87 15.46 16.03
27.42 27.02 27.58 28.13 29.00 29.43 29.77 29.48 29.32 27.83 25.41 24.26 23.99 23.48 23.36 22.62 22.24 22.22 22.79 23.66 22.16 20.69 20.43 20.27 20.06 19.03 18.35 17.99 17.81 17.41 16.89 16.14 15.76 15.20 14.93 14.22 14.54 13.87 13.24 13.62 14.11 12.97 13.05
25.79 26.94 27.55 27.60 27.96 27.92 28.24 27.37 26.25 24.86 23.63 22.87 21.93 22.09 23.54 23.18 21.52 20.41 20.16 19.80 19.39 18.47 17.51 17.34 17.29 16.95 16.30 16.06 15.70 15.34 14.78 14.30 13.69 13.28 12.93 12.93 13.14 12.98 11.96 12.05 12.42 11.84 12.56
24.03 24.90 25.11 25.45 25.77 25.37 24.65 23.68 22.84 22.24 20.97 19.57 17.89 17.42 17.10 20.60 18.82 18.12 17.14 16.69 16.51 16.21 15.51 15.55 15.40 15.34 15.20 14.78 14.26 13.58 12.54 12.34 11.92 11.56 11.63 11.75 11.77 10.58 11.48 11.84 12.01 12.26 12.41
23.97 23.07 22.81 22.25 22.21 22.07 22.43 22.12 21.65 21.11 19.95 18.67 17.58 16.04 15.45 18.06 17.11 16.33 15.48 14.38 14.53 14.76 14.75 13.73 13.24 13.54 12.97 12.37 11.90 11.52 10.51 10.26 10.79 10.97 10.74 10.30 10.50 10.84 11.11 11.15 11.37 11.69 12.03
22.62 21.41 20.49 20.13 20.18 19.43 19.78 19.40 18.83 18.52 17.59 17.19 16.63 15.51 15.12 14.74 13.84 13.78 13.38 12.84 12.90 12.16 12.70 11.33 10.75 10.11 11.27 11.14 11.05 10.82 9.48 9.54 10.16 10.01 8.45 8.63 9.06 9.93 10.49 10.14 10.25 10.65 11.11
19.77 19.24 17.87 17.47 17.46 16.95 16.71 15.37 13.91 12.88 14.39 14.51 14.05 13.61 12.81 12.82 12.84 11.61 11.05 10.94 9.59 10.16 10.12 9.24 8.55 7.93 7.88 7.33 9.13 10.12 10.01 9.74 9.55 8.55 8.07 8.12 8.24 9.13 9.54 9.46 9.72 10.08 10.29
16.76 15.42 14.77 14.68 14.03 13.71 13.34 13.10 12.19 12.16 11.79 11.62 11.50 11.79 11.43 11.21 10.64 10.50 9.70 8.75 7.01 7.31 6.96 6.99 7.50 7.11 6.08 4.50 4.12 4.94 5.98 5.23 5.38 5.24 6.38 7.24 7.26 7.38 7.63 8.24 8.80 9.50 9.98
14.06 13.50 13.25 12.82 12.34 12.18 11.34 10.70 10.20 10.08 9.79 9.97 10.49 10.18 9.58 8.87 9.03 8.21 7.40 6.61 5.27 4.27 5.08 6.55 6.15 4.94 4.21 5.48 6.76 6.42 4.12 2.57 2.73 2.81 4.00 5.41 5.84 7.06 8.20 8.80 8.94 9.68 9.98

GFSGL_sfc_wetblb_087.txt.gz
Wetbulb
59.62 59.73 59.86 60.04 61.62 62.24 61.70 61.06 61.40 60.37 61.19 61.27 61.81 62.16 62.36 62.89 63.34 62.48 62.62 62.64 61.82 62.22 62.32 61.98 61.65 62.39 61.24 61.11 57.95 55.74 54.16 52.37 49.70 51.32 53.35 52.29 49.48 50.11 46.60 48.35 49.28 49.35 50.21
62.22 61.12 60.65 60.03 60.36 60.61 62.46 62.92 62.90 61.97 62.29 62.04 61.94 62.18 62.11 62.15 62.30 62.04 61.62 61.53 61.39 61.07 61.35 60.97 60.32 59.96 59.02 57.52 54.96 53.11 51.83 52.19 50.80 50.21 50.22 47.38 46.49 46.47 45.24 45.84 46.29 47.63 46.91
62.21 62.83 62.76 62.17 61.56 61.82 62.22 63.16 63.23 62.97 62.58 62.67 62.32 62.20 62.15 62.06 61.85 61.99 61.48 61.24 61.40 61.18 60.74 60.48 59.24 57.67 56.63 55.42 52.23 51.70 50.92 50.00 49.72 46.00 41.15 42.52 41.93 42.75 42.27 43.70 43.96 44.68 46.70
61.64 61.69 62.04 62.69 62.84 63.00 62.71 61.75 61.73 61.65 61.98 62.00 62.43 62.46 62.31 61.96 61.45 61.42 60.74 60.93 61.05 60.83 60.51 58.97 58.42 56.89 55.58 54.35 50.80 49.70 46.95 44.82 42.74 42.53 40.78 39.24 39.70 41.43 41.31 40.03 40.24 42.86 43.08
61.24 61.01 61.61 62.78 62.55 62.58 62.78 62.80 61.59 60.77 61.67 62.25 61.88 62.04 62.14 61.49 60.90 61.42 60.90 60.53 60.37 59.36 58.09 56.02 52.89 51.49 47.22 47.87 47.59 46.00 44.55 42.40 41.30 38.68 36.56 36.35 35.77 36.01 36.73 37.82 36.81 38.48 40.61
61.70 61.41 61.37 61.70 61.31 62.35 62.50 62.47 62.46 62.04 61.87 61.96 61.37 61.50 61.39 60.27 50.05 46.21 52.33 59.82 57.68 55.13 45.13 40.87 39.90 40.08 37.87 37.67 37.23 37.14 40.72 39.88 36.75 35.52 34.37 33.98 34.97 36.37 36.84 36.06 36.32 36.53 35.04
61.59 61.11 60.84 60.76 60.30 61.30 60.92 60.55 61.04 60.95 61.33 60.95 60.96 60.84 60.57 60.46 42.62 42.62 42.80 49.34 45.49 41.59 38.60 36.71 35.50 35.09 35.21 34.32 33.95 33.66 33.26 33.34 32.31 35.37 34.29 34.50 34.05 35.79 35.83 35.56 36.14 36.24 35.46
61.71 61.20 61.36 60.94 60.17 60.32 60.15 60.30 60.90 61.09 59.88 58.91 57.85 56.10 50.88 43.68 41.15 41.03 39.23 38.97 36.55 35.88 35.13 34.46 33.60 32.87 32.77 32.64 31.34 30.13 30.04 30.47 30.57 30.52 31.90 32.90 33.42 35.10 36.02 35.66 34.88 34.32 35.27
60.75 61.10 61.33 61.32 60.60 60.86 60.45 60.77 61.24 59.29 51.97 48.74 46.72 43.10 39.55 37.08 36.40 36.28 36.16 34.66 32.70 31.81 32.62 33.06 32.98 31.96 32.08 32.98 30.21 28.75 28.29 28.36 30.01 29.89 29.22 28.42 28.03 28.10 28.16 29.13 29.41 29.75 29.98
60.58 60.54 61.36 61.20 60.74 60.36 60.69 54.45 51.46 48.04 41.98 38.95 36.56 37.03 35.60 34.99 34.91 35.08 34.54 32.88 30.60 29.45 29.81 30.11 31.05 29.95 30.16 31.23 30.16 29.96 28.70 29.30 30.53 31.07 31.47 29.48 28.15 30.16 27.78 28.01 28.25 27.47 27.73
61.01 60.77 60.60 60.32 59.31 53.44 48.13 45.18 41.22 37.98 36.47 34.90 32.89 32.97 33.33 33.66 33.69 33.84 33.39 31.25 29.72 28.31 28.00 27.90 29.36 29.51 29.56 30.27 30.68 29.97 26.87 31.21 29.28 29.33 29.90 30.70 31.51 31.62 31.72 31.71 31.29 28.78 26.20
50.68 48.07 46.44 45.16 44.05 43.17 40.43 38.15 37.17 36.86 33.40 30.84 29.63 28.82 29.89 31.20 31.92 31.79 31.18 30.19 29.75 27.52 26.85 28.20 29.18 28.71 28.17 28.87 26.82 25.24 25.49 27.59 29.58 28.99 28.72 28.60 29.18 29.22 29.65 29.77 29.51 28.95 29.32
42.69 41.18 40.12 39.56 39.14 38.82 37.82 37.02 34.84 33.15 31.25 30.08 28.28 26.94 26.74 28.17 28.97 30.11 30.22 30.24 29.93 28.96 29.63 29.48 28.77 27.72 26.80 26.59 25.01 24.05 25.35 28.47 27.82 26.84 26.44 26.64 27.65 28.35 28.14 27.70 28.51 28.58 28.20
36.78 35.97 35.40 34.89 34.43 35.97 35.68 34.46 33.15 31.74 30.20 28.82 27.25 25.63 25.78 27.14 27.98 28.72 28.84 29.01 28.57 28.10 28.77 29.75 28.81 28.17 25.58 27.00 26.64 26.92 28.21 27.12 25.08 24.73 25.28 25.46 26.05 25.80 24.91 25.83 24.35 24.04 23.51
34.31 33.45 31.90 31.18 31.29 29.62 29.84 30.58 29.97 30.46 30.39 27.84 26.96 27.50 27.04 26.10 28.50 30.50 31.36 31.30 30.71 29.86 29.48 29.45 29.40 29.08 28.40 28.16 27.98 27.45 27.23 26.11 24.51 24.72 22.78 22.25 22.27 22.22 22.15 23.50 22.42 21.85 20.29
32.15 31.44 31.03 30.17 29.27 28.68 27.79 27.34 30.38 30.16 30.48 29.93 29.15 27.51 27.81 28.45 28.32 27.46 27.10 26.99 26.83 27.15 29.27 28.11 27.20 26.46 25.19 24.71 24.32 23.73 23.99 23.25 22.76 21.51 21.15 20.87 19.71 19.37 19.34 20.02 20.34 19.59 18.88
31.08 30.41 30.39 29.89 28.59 27.17 26.55 25.60 23.88 27.49 29.51 29.37 28.93 28.74 28.49 28.56 27.83 26.79 26.17 26.44 26.99 28.26 26.35 25.42 24.76 23.82 23.47 23.16 22.57 21.65 20.64 21.08 21.10 20.28 19.24 18.50 18.01 17.52 17.33 16.68 17.12 17.52 17.08
30.24 30.09 29.52 29.35 28.52 28.40 27.96 27.26 27.12 25.52 23.56 23.31 25.77 25.20 24.94 24.93 25.19 25.61 25.37 26.95 24.71 24.50 23.74 22.82 22.08 21.91 21.37 20.71 20.31 19.37 19.13 19.04 18.48 17.75 16.86 16.76 16.34 15.56 14.73 14.30 14.86 14.75 14.72
29.04 29.21 29.62 30.01 30.49 30.46 29.62 28.02 26.11 24.74 23.77 23.12 22.94 23.28 23.92 23.84 23.60 23.73 24.12 23.06 21.54 20.26 20.51 20.31 20.42 19.77 19.31 18.71 18.40 17.88 17.39 16.83 16.14 15.75 15.55 14.94 14.86 13.86 13.12 13.44 13.55 13.18 13.36
28.16 28.53 28.90 28.90 28.60 28.47 28.58 27.18 26.22 24.91 23.27 21.38 20.53 22.43 24.05 22.89 21.07 20.32 20.00 19.96 19.30 18.60 18.39 18.44 18.46 18.36 17.55 17.10 16.89 16.51 15.97 15.36 14.81 14.38 13.76 13.69 13.79 13.64 12.27 11.98 12.35 12.09 12.04
27.27 27.14 26.83 27.00 26.84 26.46 26.13 24.73 23.59 22.02 20.04 18.28 17.51 18.98 20.70 20.55 19.45 18.82 17.89 17.51 16.93 16.83 16.46 16.13 16.44 16.52 16.47 15.88 15.55 14.64 13.58 13.37 13.26 12.91 12.72 12.76 12.67 11.08 12.00 12.41 12.57 12.83 12.55
25.65 24.91 24.73 24.22 24.49 24.58 23.87 24.02 22.87 21.73 20.75 19.23 18.10 17.42 18.14 19.03 18.14 17.41 16.30 15.65 16.06 16.13 16.14 15.45 14.62 14.78 14.65 13.61 13.11 12.70 11.82 11.46 11.82 11.93 11.40 10.94 10.90 10.99 11.26 11.41 11.52 12.01 11.96
24.74 24.01 23.36 22.70 22.44 21.87 21.89 21.15 20.63 20.31 19.16 18.48 17.97 16.93 16.72 16.35 15.54 15.37 14.81 14.57 14.45 14.06 14.47 13.35 12.62 12.00 13.15 12.71 12.14 11.54 10.55 10.60 11.23 11.13 9.61 9.43 9.33 9.67 10.53 10.06 10.34 10.63 11.12
21.72 20.66 19.68 19.80 20.02 19.06 18.17 16.80 16.30 16.08 16.93 16.75 16.61 15.65 14.83 14.89 14.70 13.79 13.48 12.79 12.08 12.35 12.32 11.50 10.75 10.24 10.20 9.45 10.44 10.83 10.43 10.35 9.86 8.85 8.54 8.11 7.73 8.46 9.03 9.15 9.51 9.70 10.38
19.45 18.98 18.54 18.00 17.19 16.72 16.19 15.77 15.52 15.49 15.17 14.69 14.24 13.98 13.95 13.80 13.26 12.99 12.52 11.38 9.99 9.65 8.95 9.31 10.32 9.55 8.68 7.17 6.78 7.45 8.68 8.11 7.23 6.11 6.08 6.66 6.74 6.87 7.94 8.63 9.44 10.11 10.59
17.34 17.14 16.92 16.71 16.05 15.90 15.25 14.46 13.94 13.65 13.01 13.15 13.44 13.28 12.80 12.27 12.01 11.31 10.84 9.69 7.32 6.32 7.91 9.37 8.78 7.88 7.15 8.29 9.37 9.38 6.51 5.06 4.53 4.17 4.69 5.29 5.46 6.21 7.55 8.39 8.90 10.12 10.00

GFSGL_sfc_wetblb_093.txt.gz
Wetbulb
57.29 57.67 57.34 56.18 55.57 55.32 55.06 54.14 54.98 54.60 55.43 55.18 55.34 55.23 55.47 56.66 57.50 57.08 56.18 56.68 56.93 57.07 56.99 56.26 57.18 56.16 56.71 56.12 56.06 56.47 55.62 54.94 52.65 53.34 52.95 50.98 51.21 50.37 51.51 51.67 51.47 50.37 50.41
57.43 57.34 57.44 57.52 56.88 55.30 55.19 55.29 54.96 54.60 54.34 55.22 55.47 55.61 55.87 56.26 56.83 57.34 56.73 57.15 56.60 56.50 56.66 55.51 56.74 56.81 55.64 56.71 56.18 56.11 55.72 55.86 53.77 51.60 50.58 50.62 49.25 48.20 50.19 49.10 49.84 49.89 48.68
57.33 56.94 57.30 57.48 57.18 56.11 55.30 56.06 56.03 55.10 54.29 54.48 55.00 54.63 55.51 56.35 56.91 56.94 56.71 56.60 56.76 56.90 56.93 55.90 56.48 55.64 55.85 56.11 54.98 55.58 55.30 54.09 53.99 53.45 53.04 44.86 44.17 43.76 43.29 44.28 45.06 44.97 46.45
56.86 56.76 56.65 57.08 57.49 57.17 55.88 55.93 56.42 56.25 55.03 54.35 54.35 54.18 54.39 54.93 55.88 56.87 57.05 56.48 56.63 56.77 56.67 56.33 56.65 55.62 55.65 54.95 54.25 53.88 53.66 53.08 52.40 51.33 44.98 40.60 40.52 41.41 41.27 40.71 40.45 42.48 42.62
56.80 56.41 56.13 56.91 57.31 57.88 57.85 57.31 56.60 56.37 56.38 56.16 55.10 54.59 54.30 54.54 54.81 55.64 56.38 56.40 56.30 55.90 55.30 52.22 45.49 43.70 41.65 44.75 50.84 51.68 51.21 49.29 44.42 42.79 38.41 37.11 36.04 36.51 36.72 37.82 36.48 36.55 38.34
57.52 56.41 56.83 56.83 57.08 57.37 57.64 57.97 57.69 57.22 56.93 56.33 56.00 55.03 54.56 55.27 49.06 46.43 51.92 56.39 55.00 54.61 46.96 41.11 39.61 39.01 37.64 37.43 37.20 36.44 40.45 42.54 38.59 36.95 35.14 33.98 34.45 34.79 35.26 34.23 34.07 32.77 32.70
57.07 58.03 57.62 57.42 56.89 57.29 57.55 57.40 57.49 57.67 58.43 57.58 57.22 56.87 55.81 55.58 46.32 45.72 44.65 53.79 50.80 47.10 42.56 38.50 36.99 36.89 36.38 35.70 34.83 34.54 34.21 33.90 33.21 36.11 33.93 32.79 32.21 32.60 33.21 32.30 32.09 32.06 32.27
57.29 57.37 58.49 58.39 57.65 57.66 57.74 56.98 56.98 57.12 57.06 57.55 57.84 57.57 53.43 42.72 39.58 39.56 39.66 41.11 38.99 38.46 37.42 36.52 34.80 34.35 34.71 34.23 33.19 32.01 32.07 32.46 32.70 33.06 32.26 32.11 32.45 33.09 32.72 30.91 30.01 28.98 29.71
57.47 57.71 58.03 58.31 58.27 58.43 57.85 57.36 57.47 57.43 56.80 53.43 47.44 44.12 40.98 37.76 37.21 37.07 39.34 38.17 35.46 34.04 34.41 33.88 33.49 32.62 34.00 35.00 31.57 29.40 28.52 29.10 32.04 32.42 32.14 31.12 30.26 29.48 28.97 26.74 25.56 25.44 24.20
57.89 58.40 58.28 57.75 57.48 57.33 57.13 54.61 46.81 47.21 40.52 38.61 36.33 36.69 36.00 35.33 35.88 36.28 36.00 33.79 31.21 30.38 30.72 31.02 31.92 31.49 31.84 32.05 30.33 28.77 26.58 27.04 28.47 29.24 29.23 29.94 30.19 29.55 29.26 27.32 25.86 23.73 23.15
46.64 55.58 56.94 56.32 56.74 53.96 47.52 44.07 41.18 38.14 35.70 33.45 32.32 32.94 33.61 34.33 34.59 35.06 34.83 32.49 30.19 28.78 28.66 28.71 29.66 30.16 30.02 29.62 29.58 28.67 28.16 29.37 28.81 28.49 27.71 26.93 26.39 26.14 25.78 25.78 25.26 23.34 21.65
43.41 43.32 44.26 46.53 44.80 43.43 41.15 39.29 38.33 35.91 33.24 31.45 30.28 29.63 30.70 31.81 33.06 33.32 32.84 31.83 30.92 28.04 27.49 27.70 27.98 28.52 29.28 29.44 28.87 29.00 28.27 27.66 27.29 26.51 24.90 23.19 22.70 22.53 23.70 24.03 24.53 24.13 24.42
38.87 38.32 38.32 40.32 41.20 41.45 38.06 34.88 33.76 33.78 31.73 29.86 28.88 27.87 28.31 30.07 30.72 31.58 31.23 30.03 29.27 27.44 28.51 28.81 29.35 29.27 29.22 28.81 28.51 27.41 26.33 25.77 24.88 22.59 20.91 20.13 21.11 22.67 22.90 22.49 22.91 22.21 21.72
32.22 32.59 33.98 33.69 32.78 33.52 34.43 34.96 33.22 31.87 30.36 29.11 28.14 26.87 27.03 27.49 28.24 29.32 29.06 29.10 29.76 29.04 29.12 28.88 27.72 27.37 27.42 27.51 26.85 26.28 25.30 23.58 21.79 20.76 20.37 20.93 21.35 20.35 19.50 19.54 17.52 17.48 16.86
29.83 29.56 29.40 29.53 29.17 28.43 28.84 29.36 28.51 29.67 30.45 28.41 27.87 28.30 27.19 26.92 28.86 30.27 29.82 28.54 28.33 27.88 27.21 27.59 26.99 26.15 24.88 23.96 23.59 23.12 21.99 20.88 19.93 19.58 18.54 18.05 17.48 17.33 16.83 17.52 16.41 14.97 13.01
28.53 27.95 27.33 26.91 26.83 27.79 26.59 26.53 29.90 29.28 29.92 29.68 29.49 28.63 29.06 30.13 30.86 31.30 31.31 30.82 30.60 28.91 25.87 23.39 22.09 21.89 20.99 20.55 19.54 18.81 18.61 18.46 18.17 17.55 16.19 15.90 14.31 13.68 13.70 14.27 14.29 12.71 11.00
27.86 27.58 27.03 26.14 25.37 24.83 24.69 24.14 22.79 26.86 29.56 29.68 29.53 29.76 29.85 29.60 29.64 29.72 29.03 28.34 27.36 25.17 21.47 19.89 18.65 18.29 17.65 17.71 17.00 15.86 14.71 15.47 16.19 14.51 13.22 11.55 12.36 12.37 11.70 11.61 11.53 10.53 9.56
27.81 27.20 26.14 25.29 24.22 23.46 22.69 22.36 22.47 21.50 20.85 22.06 26.66 27.28 28.55 28.52 27.38 26.57 25.51 23.54 20.21 20.45 18.85 17.05 15.73 15.60 15.68 15.07 14.78 13.93 13.38 12.63 11.84 12.47 10.17 7.94 5.42 10.21 9.19 9.27 9.00 1.74 7.36
27.58 26.53 26.09 25.29 24.52 23.63 22.96 22.08 21.56 20.87 20.17 19.73 20.39 20.98 22.89 24.37 24.02 23.07 21.55 17.55 16.44 15.71 15.60 14.53 14.22 14.35 13.96 13.37 11.48 10.57 8.13 7.89 6.19 3.76 5.42 4.06 -4.08 4.77 2.61 6.43 6.38 4.65 4.96
26.92 27.08 26.28 24.67 22.85 21.72 21.24 20.05 19.26 18.82 19.50 19.70 18.82 18.36 18.53 16.94 14.33 13.96 14.70 13.99 13.21 13.52 13.60 13.39 13.01 12.31 11.51 10.60 6.86 4.31 5.27 3.71 2.73 2.27 -5.89 -7.52 -8.06 -1.80 -1.46 0.84 0.99 4.28 7.10
24.84 24.45 23.66 22.58 21.45 20.47 19.45 17.86 17.45 16.70 16.21 16.42 16.36 17.21 16.39 14.12 12.60 12.24 11.37 11.24 10.97 10.41 9.49 10.39 9.10 8.10 8.40 6.77 6.94 2.67 -0.08 -9.33 0.39 1.26 -1.09 0.13 -10.06 -1.64 3.34 2.90 2.58 5.57 6.26
22.91 22.93 22.60 21.82 21.68 20.10 19.00 17.94 16.63 15.59 15.03 13.92 13.55 13.63 13.97 12.42 11.31 10.29 9.25 7.71 6.84 8.24 8.48 5.89 5.86 6.26 4.98 2.34 -0.43 -8.43 -6.25 -3.71 -3.71 -3.72 -4.27 -3.03 -0.60 -0.08 -0.57 2.42 1.18 2.23 4.85
20.08 18.79 18.24 17.85 18.18 17.76 16.94 16.55 15.32 14.27 13.10 12.67 12.69 11.72 10.82 9.25 8.52 6.82 4.78 2.60 5.52 3.10 0.64 -0.52 -3.62 0.27 -1.91 -5.45 -3.60 -0.81 -2.71 -3.54 -3.71 -8.43 -8.79 -7.34 -1.37 -1.12 -6.07 -0.98 1.99 1.91 1.88
18.08 17.43 16.62 15.66 15.19 14.29 13.48 12.79 12.61 11.56 10.32 7.82 6.53 7.10 7.31 6.75 4.45 1.65 0.20 -1.23 -1.80 -7.19 -9.71 -7.39 0.53 0.09 -1.76 -7.40 -6.60 -4.64 -0.56 -5.16 -2.51 -4.09 -9.15 -10.24 -6.43 -0.60 0.21 -0.34 -0.57 -0.69 0.76
16.86 15.43 14.47 13.29 12.84 11.50 10.58 9.56 7.89 6.06 6.57 5.03 5.52 5.69 7.46 3.81 3.80 -1.63 -4.31 -7.59 -7.10 -9.64 -5.05 -1.01 -4.53 -3.22 -4.90 -5.61 -3.08 1.78 0.65 -2.17 -7.04 -6.49 -8.79 -7.34 -6.26 -4.81 -2.43 -0.57 0.25 1.58 2.02
14.28 13.49 12.67 12.32 11.02 9.62 6.41 4.04 2.29 3.82 4.17 1.96 1.55 3.51 -0.37 -3.43 -2.29 1.11 -5.95 -7.08 -6.72 -5.99 -5.17 -6.03 -3.91 -3.11 -3.24 -1.57 3.79 2.57 -4.03 -5.00 -5.35 -0.92 -3.54 -1.22 -1.66 -1.65 -1.17 -1.35 -1.78 -1.73 -0.22

GFSGL_sfc_wetblb_096.txt.gz
Wetbulb
56.13 55.60 54.37 54.03 54.52 54.12 53.51 53.26 53.17 53.59 53.21 54.59 53.99 54.38 54.61 55.23 56.01 55.70 55.39 56.28 55.96 55.44 55.70 55.56 55.49 55.67 55.42 54.82 54.34 54.54 54.34 53.43 51.88 53.46 51.92 51.41 50.80 50.55 51.74 52.51 53.08 52.20 51.48
56.61 56.94 55.30 54.79 54.78 54.43 53.99 53.40 54.26 53.68 54.12 54.60 54.58 53.97 54.05 54.30 54.46 55.47 55.92 56.26 56.04 55.16 55.85 55.76 55.64 55.60 54.18 55.48 55.36 54.69 54.50 55.00 53.55 51.87 51.10 49.28 48.77 49.66 48.01 49.88 50.79 51.54 50.47
56.77 57.06 56.73 55.53 54.72 54.28 54.40 54.47 53.83 54.39 53.82 54.08 54.36 53.78 53.80 54.05 54.48 55.10 56.01 56.24 56.07 55.93 56.18 55.54 55.46 54.52 54.64 55.30 54.92 55.16 55.08 54.61 53.30 53.71 53.28 46.17 44.08 43.69 43.93 44.21 44.68 45.13 46.79
56.04 56.31 56.42 56.82 56.15 55.23 54.95 54.89 54.55 54.07 53.63 53.60 53.99 53.93 53.89 54.19 54.39 54.65 55.43 55.62 56.16 56.49 56.54 55.95 56.03 55.28 54.79 54.69 54.61 54.95 55.05 53.76 53.54 53.49 51.87 42.11 41.45 41.43 41.62 41.35 40.56 41.13 41.56
55.62 55.06 55.49 56.67 57.51 57.18 55.98 55.16 55.31 54.19 53.82 53.78 53.36 53.35 53.50 53.61 54.13 54.41 55.20 54.73 55.41 55.20 54.55 54.45 53.20 49.32 42.98 45.46 52.85 54.39 52.77 52.76 52.63 46.29 39.92 38.09 36.99 36.78 37.11 37.67 35.68 36.59 38.52
55.17 54.74 55.51 56.15 57.16 57.31 56.61 55.69 55.45 55.29 54.78 53.82 53.13 52.87 52.34 52.93 47.24 44.63 49.79 54.45 54.26 54.10 53.47 43.01 40.21 39.36 37.44 37.26 37.97 37.75 39.16 45.69 42.27 39.00 36.82 34.83 34.47 34.27 34.64 34.11 33.73 33.28 33.11
55.40 55.73 55.87 55.69 55.38 56.20 57.25 56.57 55.58 55.20 55.56 54.73 54.24 53.72 52.96 52.85 44.75 44.08 43.24 53.33 53.79 53.23 48.84 41.28 38.37 37.24 36.53 35.95 35.34 35.10 34.51 34.10 33.35 37.38 34.36 32.66 32.03 32.34 33.55 32.27 31.91 31.89 31.71
56.06 56.01 56.19 56.01 55.57 55.36 55.72 56.37 56.84 56.86 55.78 55.57 54.69 54.90 54.97 54.04 44.43 43.38 41.73 47.29 40.94 39.90 40.41 39.93 37.72 36.11 35.68 34.83 34.01 32.34 31.88 32.44 33.07 33.29 32.75 31.95 32.01 32.92 31.98 30.58 27.93 27.04 27.71
56.54 56.57 56.94 56.52 55.81 55.79 55.57 56.08 56.71 57.07 56.87 56.78 56.79 55.79 55.29 41.91 38.53 39.62 41.23 37.98 34.68 33.81 34.56 35.00 34.76 34.11 34.75 35.44 31.24 29.36 28.53 29.10 31.77 31.81 31.35 31.40 31.31 30.83 30.01 27.27 25.98 25.31 24.30
47.16 48.76 54.67 57.56 57.11 56.39 56.08 55.77 56.21 56.19 53.82 46.25 41.38 39.90 38.86 37.30 37.32 38.56 38.87 34.84 32.08 30.94 31.30 31.74 32.28 32.14 31.88 31.73 29.86 28.67 27.09 28.12 28.95 28.68 27.84 27.71 27.78 27.79 27.28 25.33 24.65 22.45 21.87
43.64 44.19 47.57 49.05 53.23 55.46 56.01 51.21 44.56 42.04 41.02 38.72 37.04 35.43 34.08 34.86 35.63 36.58 36.85 35.55 32.25 30.48 30.09 29.77 30.62 31.59 31.45 31.26 30.40 29.14 28.45 29.57 28.16 26.96 25.73 25.15 24.96 24.71 24.79 24.94 24.80 23.35 21.37
38.72 37.77 37.48 40.60 44.28 44.58 43.01 41.10 39.80 38.08 34.24 32.09 31.13 30.80 31.72 32.12 33.10 33.49 33.01 32.34 31.60 28.35 26.84 28.45 30.29 30.94 30.52 29.77 29.06 29.42 29.14 28.31 27.08 24.88 23.13 21.77 21.82 21.56 22.20 22.40 22.03 21.47 21.81
33.67 32.89 33.86 34.13 35.05 37.95 39.05 37.91 35.50 35.65 33.70 31.78 29.65 28.52 28.73 29.96 30.72 31.50 31.63 30.63 29.37 27.68 28.73 30.42 30.45 29.69 28.75 27.62 28.02 27.64 26.29 24.77 22.70 20.96 20.14 19.70 19.95 20.57 20.08 20.00 20.58 20.14 20.13
30.81 30.15 30.16 29.64 30.16 32.19 32.39 33.59 33.02 32.01 31.58 29.82 28.67 27.84 27.26 27.90 28.16 29.36 29.37 29.32 30.00 29.06 28.42 27.47 27.50 26.90 26.28 25.89 24.23 23.90 23.18 22.46 21.31 20.09 18.87 18.73 19.24 18.53 16.63 17.41 15.48 15.81 14.92
29.31 29.12 28.80 28.54 28.19 28.17 28.86 30.19 29.97 30.63 31.63 28.80 28.19 27.91 26.71 26.20 27.76 29.22 28.95 27.80 27.75 27.57 27.14 27.06 25.22 24.22 22.64 21.83 21.15 20.91 21.24 20.35 18.53 18.54 17.29 15.89 15.47 15.14 14.65 15.58 14.82 13.65 11.00
27.08 26.55 26.94 27.48 27.50 27.65 27.06 27.23 30.73 30.52 31.03 31.27 30.94 29.91 30.26 30.89 31.35 31.22 30.65 30.19 29.16 27.67 24.53 21.97 20.76 20.39 19.46 18.94 17.69 17.32 17.10 16.42 16.50 15.68 14.71 14.00 13.05 12.46 12.45 13.22 12.78 10.09 8.59
25.77 25.70 25.71 25.99 25.86 25.37 25.67 25.12 23.95 27.70 30.39 30.41 30.52 30.75 30.69 30.27 30.08 29.36 28.37 27.09 25.86 23.38 19.09 18.09 17.15 16.71 16.71 16.67 15.96 14.92 13.79 14.80 15.35 13.48 12.23 11.31 11.63 11.37 10.74 10.28 9.65 9.03 7.89
24.39 24.75 23.32 23.30 23.33 23.24 23.22 22.93 23.07 21.91 20.81 22.46 27.08 26.80 27.33 27.07 26.81 25.96 24.72 22.31 18.21 18.74 17.10 15.74 15.01 14.83 14.73 14.12 14.05 13.14 12.51 12.09 11.84 10.77 8.26 6.90 5.63 8.08 6.99 7.06 6.94 0.26 5.68
25.09 23.92 23.23 22.59 22.46 22.23 22.05 21.29 21.06 20.02 18.72 17.81 18.07 18.54 21.36 23.23 22.68 21.91 21.07 16.81 14.95 14.18 14.32 13.83 13.58 12.96 11.93 11.56 9.94 8.42 3.26 2.58 2.42 1.36 3.27 3.26 -5.14 2.78 0.87 4.17 3.98 3.28 2.93
23.75 23.35 22.69 20.85 19.98 19.84 19.88 19.63 19.88 19.11 18.15 17.00 15.76 15.51 16.31 15.13 12.56 12.03 12.63 12.14 11.96 11.88 11.81 11.28 10.87 10.38 9.17 7.78 5.39 2.61 3.48 3.17 0.92 1.91 -9.65 -10.56 -13.28 -4.41 -2.10 -0.80 -2.41 -1.68 4.39
22.78 22.06 21.43 19.86 18.73 18.41 17.84 17.25 17.26 16.57 15.55 14.35 13.51 14.10 14.10 12.20 10.47 10.45 10.00 9.40 8.86 8.83 8.02 8.32 7.34 6.19 4.71 1.24 4.28 -0.00 -0.83 -7.66 -2.28 -2.65 -2.13 -3.01 -14.73 -5.85 -0.91 -1.58 -2.65 1.65 3.46
21.77 21.70 21.02 19.67 18.74 17.38 16.75 16.45 15.43 14.34 13.54 12.18 11.68 10.99 10.54 9.09 8.44 7.59 6.74 5.06 5.10 5.74 5.53 4.54 4.78 4.82 3.24 2.21 -1.28 -6.75 -6.57 -10.38 -9.11 -8.03 -5.85 -6.22 -4.40 -5.12 -5.85 -5.49 -6.39 -5.85 0.36
19.09 18.08 17.74 17.75 17.33 16.24 14.87 14.09 12.64 11.83 11.31 11.07 10.45 9.12 7.71 5.23 4.36 4.52 3.20 0.71 1.92 -0.47 -1.06 -1.49 -2.39 1.07 -0.65 -5.35 -2.97 -1.10 -2.89 -3.85 -5.48 -10.74 -12.37 -12.92 -7.30 -7.85 -12.92 -9.11 -5.12 -4.97 -4.11
17.67 16.67 15.64 14.73 13.82 12.94 12.02 10.47 9.87 8.07 7.23 6.46 5.95 4.88 3.80 0.83 -1.80 -1.68 -4.32 -6.87 -4.77 -6.77 -6.94 -4.22 -0.52 -0.04 -0.00 -8.28 -10.07 -7.35 -2.31 -7.84 -6.23 -7.00 -12.01 -13.10 -9.11 -4.26 -8.57 -6.03 -4.48 -6.22 -3.91
15.56 14.16 13.16 12.30 11.56 10.24 9.64 9.28 7.66 6.57 5.25 4.59 4.85 5.12 3.35 1.34 -1.23 -8.58 -11.47 -10.21 -7.02 -6.71 -5.74 -7.15 -7.67 -6.30 -7.71 -8.42 -5.30 -1.85 -4.45 -3.88 -10.02 -8.94 -11.65 -10.20 -10.74 -11.47 -9.11 -5.85 -5.33 -2.28 -2.79
12.89 12.43 11.70 10.67 9.04 8.51 7.50 6.13 4.91 3.98 2.84 3.03 1.56 -1.06 -1.39 -1.74 -4.22 -12.37 -12.01 -10.57 -10.43 -10.78 -9.25 -10.26 -8.44 -7.12 -7.24 -4.09 -0.63 -0.98 -6.57 -5.67 -8.75 -6.42 -10.92 -8.39 -10.56 -8.75 -8.57 -6.94 -5.37 -3.96 -2.31

GFSGL_sfc_wetblb_099.txt.gz
Wetbulb
54.48 52.75 51.94 52.07 52.28 52.44 52.53 52.88 52.01 52.78 53.38 53.42 53.56 54.40 54.08 54.00 54.28 54.16 53.89 54.28 54.95 54.69 55.06 55.02 54.89 55.30 54.24 53.83 54.33 54.70 53.62 51.97 50.52 52.83 51.53 51.46 50.86 51.25 52.21 51.91 51.71 51.16 50.53
54.93 53.67 52.32 52.84 52.46 52.25 52.08 52.45 53.11 51.74 52.64 53.69 53.65 53.51 54.22 53.95 54.00 53.92 53.47 53.95 54.16 53.86 54.59 54.42 54.79 55.32 54.83 55.14 53.55 53.17 53.00 52.94 52.83 51.52 51.60 49.10 49.19 47.37 47.32 47.99 48.73 50.93 50.02
55.08 54.30 53.01 52.36 52.71 52.36 52.10 52.32 53.54 52.86 52.46 53.40 53.83 53.36 53.24 53.81 53.83 54.17 53.97 53.98 53.66 54.22 54.90 54.67 54.45 55.03 54.89 55.22 53.97 53.61 53.14 52.96 52.67 53.24 52.65 46.36 45.09 44.99 44.18 44.64 45.13 45.29 46.92
55.30 54.78 53.53 52.60 52.95 53.19 53.62 53.43 53.29 53.72 52.89 52.30 53.63 53.86 53.26 53.49 53.62 53.85 54.49 54.20 54.37 54.83 55.32 55.14 55.34 55.28 55.09 54.57 53.93 52.89 53.01 52.24 51.32 52.77 52.66 51.92 44.03 42.08 42.67 42.26 40.57 40.91 40.91
55.39 54.99 54.67 54.30 54.06 53.55 53.86 54.19 53.64 53.54 53.60 53.02 52.83 52.89 53.11 52.82 52.68 52.82 53.31 53.36 53.37 53.42 53.32 55.12 55.12 53.62 48.91 49.90 53.07 53.04 52.40 52.22 51.78 51.84 51.83 40.98 38.97 37.90 38.92 38.53 36.57 37.13 37.15
54.75 54.99 55.55 55.83 55.45 54.53 53.95 54.38 54.30 53.62 53.43 53.16 52.70 52.80 51.91 52.52 46.45 44.78 49.10 51.97 51.69 52.13 52.18 52.07 45.15 42.20 40.21 39.15 40.09 39.94 45.40 51.88 51.89 50.32 44.42 37.69 35.50 35.12 35.12 35.32 34.57 34.02 33.03
55.44 55.38 55.02 55.00 54.95 56.33 56.10 55.04 54.11 54.02 53.82 52.78 52.61 52.05 51.97 52.05 44.35 43.66 43.15 51.93 52.09 52.30 52.33 48.86 41.69 39.65 37.94 36.27 35.29 34.78 34.27 34.42 32.79 40.60 36.48 33.32 32.24 33.22 33.78 32.27 32.08 32.05 31.31
55.38 55.41 55.35 54.76 54.51 54.92 56.40 56.02 55.24 54.80 54.18 54.18 52.81 51.93 51.86 51.43 43.81 42.96 41.59 48.34 49.32 46.01 47.82 47.34 44.03 37.23 36.61 35.82 33.17 31.35 30.74 30.76 31.25 31.77 30.64 29.52 29.21 29.83 30.30 30.26 28.91 28.05 27.49
51.66 54.49 56.06 55.71 55.24 54.88 54.49 55.58 56.03 55.14 54.55 54.53 54.63 53.90 52.50 51.80 43.25 42.43 42.34 45.34 38.51 35.86 36.21 37.48 37.74 35.75 35.55 35.41 31.32 28.88 28.38 29.23 31.92 31.87 31.33 30.88 30.47 30.11 29.94 29.28 26.21 26.44 24.61
44.00 45.05 47.17 50.74 56.03 55.34 55.04 54.69 55.45 55.77 55.16 54.63 52.29 45.91 47.71 52.58 38.49 40.50 43.27 40.73 34.19 32.13 32.13 32.77 34.05 33.65 32.37 31.95 30.15 29.22 27.50 27.44 27.18 26.66 25.99 26.71 27.18 26.83 26.72 25.86 25.73 23.21 22.84
40.30 40.21 40.55 41.77 45.29 48.00 55.28 55.38 55.14 54.63 44.06 40.40 36.00 34.90 35.41 37.07 36.89 37.63 38.96 38.89 34.23 31.26 30.51 30.34 31.18 31.98 31.96 31.80 30.83 29.18 27.49 27.67 26.27 25.43 24.53 23.94 24.08 23.69 23.02 22.75 22.59 22.27 20.46
35.57 35.76 35.09 36.05 37.67 40.53 40.63 40.58 39.70 39.20 35.94 33.07 32.86 32.35 32.38 32.38 33.52 34.51 34.59 33.24 32.55 29.72 28.92 29.92 30.88 31.57 31.12 30.47 29.55 29.31 28.30 26.33 24.75 23.17 22.01 21.24 20.50 19.73 20.33 20.58 20.57 20.72 21.29
31.87 31.21 31.60 32.75 33.50 34.31 34.79 34.66 34.20 33.91 32.49 31.74 31.15 29.89 30.05 30.70 30.60 31.61 31.25 30.99 30.57 28.93 29.26 29.95 30.38 29.87 28.96 27.40 27.38 26.44 24.67 23.31 21.97 20.29 18.67 18.62 19.10 18.97 19.30 18.87 18.98 19.31 19.20
29.27 29.13 29.81 29.51 29.71 31.20 32.47 33.15 31.96 31.20 29.22 28.92 28.47 27.29 27.80 28.36 28.75 29.70 30.05 29.97 30.41 29.03 27.93 26.53 25.45 24.44 23.33 22.85 22.47 22.62 22.47 21.92 20.27 18.82 17.65 17.78 17.95 16.81 15.80 16.25 14.86 14.75 13.81
28.19 28.49 28.50 28.68 28.76 28.85 29.49 30.13 30.23 31.51 31.90 28.70 28.12 27.68 26.58 26.21 28.51 29.86 29.23 27.74 27.16 26.27 25.45 24.35 22.68 21.27 20.12 20.26 20.22 20.10 20.10 19.43 17.76 17.31 16.01 14.96 14.49 14.42 13.78 14.38 13.26 12.35 10.21
26.86 26.78 27.16 27.60 27.84 28.04 27.73 27.48 30.69 31.20 31.59 31.71 31.10 29.65 29.79 30.26 30.64 30.28 29.96 29.29 28.47 26.84 23.05 20.57 19.32 18.79 17.97 17.69 16.41 16.08 16.93 16.37 15.85 14.86 14.10 13.45 12.52 12.37 11.76 12.01 11.31 9.77 8.00
22.10 23.33 24.57 25.19 25.35 25.28 25.58 25.17 23.25 25.55 28.44 29.30 30.30 30.43 30.05 29.42 28.89 28.19 27.19 26.02 25.06 22.83 18.21 17.37 16.55 16.40 16.20 15.87 15.17 14.59 13.48 14.24 14.39 12.79 11.71 11.36 11.28 10.70 9.70 8.58 7.79 7.66 6.97
21.53 22.04 23.21 23.15 22.71 22.27 20.99 20.09 19.82 18.97 17.62 19.19 24.86 25.71 26.75 26.76 26.29 25.54 24.34 21.39 17.58 18.16 16.69 15.37 14.59 14.66 14.53 13.88 13.08 12.44 12.13 11.68 10.99 9.51 6.90 5.13 4.98 7.08 5.81 6.15 6.25 0.57 4.47
22.35 21.44 20.76 20.92 21.17 20.76 20.15 19.11 18.22 17.74 17.04 16.53 16.84 17.00 19.53 22.26 21.71 21.41 20.33 16.00 14.19 13.48 13.45 12.36 11.68 11.66 11.08 10.10 8.50 7.07 5.93 4.45 3.17 1.29 1.95 1.62 -5.01 2.16 0.99 2.92 2.09 0.61 1.78
21.46 20.56 19.66 19.08 19.01 18.85 18.93 18.02 17.13 16.29 14.96 14.24 13.72 13.87 15.39 14.63 11.72 10.93 11.73 11.89 11.50 11.49 11.41 10.44 9.83 9.18 8.43 7.20 4.31 5.34 3.95 2.02 0.97 -0.68 -11.69 -11.69 -12.96 -3.91 -1.99 -4.10 -5.52 -4.80 2.43
20.70 20.08 19.34 18.41 17.42 17.36 16.65 16.00 15.42 14.23 12.73 11.53 10.94 11.77 11.54 9.61 8.00 8.31 8.06 7.45 7.72 7.68 7.08 7.05 5.93 4.95 4.12 2.74 3.67 -0.24 -1.47 -8.97 -2.70 -3.58 -3.42 -2.20 -14.59 -6.63 -0.62 -1.32 -2.88 -0.14 1.50
20.19 19.57 18.65 17.53 17.33 15.98 15.54 15.36 14.08 12.88 11.59 9.55 8.80 8.93 9.02 7.57 6.54 5.35 4.68 3.25 2.67 4.03 4.95 3.78 3.61 3.28 2.74 2.26 -1.19 -8.46 -8.43 -11.69 -10.24 -6.63 -7.18 -6.10 -4.85 -6.27 -5.74 -7.02 -7.90 -9.34 -3.50
17.61 16.86 16.57 16.03 15.29 14.53 13.43 13.25 12.04 10.51 9.15 7.89 8.20 7.12 5.76 4.09 3.19 1.85 -0.17 -1.32 0.44 -1.14 -0.17 -0.94 -0.89 0.03 -1.44 -4.78 -4.89 -2.81 -4.18 -4.45 -5.36 -9.18 -11.88 -12.41 -6.46 -6.65 -13.68 -10.96 -7.89 -8.97 -9.34
15.99 14.73 13.99 12.97 12.06 10.97 10.21 9.41 8.78 8.22 7.58 6.09 5.39 4.19 2.11 1.04 -0.55 -2.47 -5.92 -5.71 -2.69 -4.27 -6.83 -5.19 -2.64 -2.86 -3.35 -10.24 -10.06 -6.80 -0.75 -7.16 -7.36 -8.83 -14.24 -14.23 -10.06 -5.94 -10.96 -8.97 -7.21 -9.51 -8.79
13.10 11.61 10.41 9.74 9.51 8.31 7.42 7.57 7.07 6.37 5.52 5.49 4.48 2.14 0.67 -0.28 -2.35 -7.89 -7.02 -7.06 -4.12 -8.52 -7.78 -10.62 -10.60 -6.98 -8.61 -8.97 -5.89 -3.63 -8.26 -7.52 -12.23 -9.69 -12.96 -12.59 -12.78 -12.78 -10.78 -8.61 -10.24 -7.17 -7.90
11.21 10.35 9.61 9.26 8.31 6.72 5.51 4.48 4.37 4.29 2.95 1.88 0.45 -1.32 -1.02 -1.77 -3.37 -9.18 -6.36 -6.94 -6.70 -8.49 -5.66 -7.90 -8.26 -9.24 -8.93 -5.94 -3.75 -3.89 -6.97 -6.80 -10.79 -9.54 -15.50 -10.42 -12.96 -11.69 -10.96 -11.33 -9.15 -9.16 -4.73

GFSGL_sfc_wetblb_102.txt.gz
Wetbulb
53.96 52.95 51.39 51.15 51.50 51.77 51.96 52.36 52.50 54.37 54.48 54.68 55.28 55.08 54.78 54.78 55.16 54.78 54.35 54.07 53.77 53.54 54.33 54.19 54.04 54.33 53.85 53.79 54.29 54.03 53.55 52.84 51.27 53.12 52.96 52.64 52.42 53.10 53.11 53.14 52.75 52.42 51.97
54.41 52.96 51.11 51.41 51.52 51.24 51.70 52.02 52.66 52.02 54.35 54.51 54.47 55.00 55.35 54.96 54.90 54.27 53.84 53.94 53.41 53.43 53.78 53.94 54.06 54.50 53.90 53.91 53.77 53.57 53.83 53.80 52.81 51.34 52.52 51.31 50.90 50.34 50.37 50.40 49.81 51.21 50.88
54.51 53.25 51.69 51.18 51.31 51.09 51.14 51.42 51.85 51.67 52.15 53.19 54.00 54.05 53.97 54.21 54.21 54.37 53.88 53.84 53.69 53.63 54.11 54.11 54.15 54.20 54.23 54.34 54.10 53.39 53.45 53.38 53.17 52.81 52.55 50.12 48.49 47.00 46.92 46.51 46.59 46.57 46.21
54.43 53.51 52.11 51.56 51.32 51.35 51.28 51.16 51.47 51.61 52.27 52.07 53.28 53.47 53.56 53.77 53.82 53.80 53.84 53.63 53.43 53.46 53.39 53.58 54.06 53.97 54.15 53.95 53.86 54.05 53.77 52.48 52.28 52.55 52.36 52.32 49.24 45.12 45.30 44.50 41.73 42.15 41.28
54.73 53.88 53.06 51.85 52.16 51.91 51.29 51.05 51.24 51.29 51.65 52.93 52.33 52.37 52.79 52.84 53.27 53.43 53.78 53.43 53.01 52.92 53.28 53.39 53.76 52.72 49.72 51.59 54.02 53.82 53.34 52.06 52.05 51.72 51.61 51.72 45.40 40.50 41.33 41.23 39.92 37.17 35.56
54.58 54.70 54.45 53.80 52.28 51.84 51.89 51.70 51.12 52.27 52.33 52.39 52.21 52.30 51.51 52.42 46.29 44.96 49.58 52.76 52.61 52.47 52.00 52.37 52.69 47.81 47.05 40.05 38.49 36.72 38.67 50.80 51.98 51.49 51.43 45.89 41.60 37.14 36.68 36.27 35.38 34.49 32.71
55.63 55.87 55.37 54.90 54.10 52.84 52.45 52.52 52.98 52.33 52.64 52.46 52.37 52.27 52.21 52.37 43.70 44.01 43.64 51.86 51.54 51.70 51.92 50.94 46.51 42.88 40.46 37.16 35.20 34.24 33.43 33.31 31.34 41.11 44.12 35.18 33.03 33.78 34.62 32.91 32.20 31.90 28.36
55.02 55.34 55.77 55.18 55.16 55.51 54.11 53.76 53.76 53.67 52.85 52.24 52.21 52.40 52.19 51.96 43.59 42.64 41.32 49.19 49.37 49.16 50.13 49.95 47.98 42.94 39.49 36.87 33.00 30.93 30.67 30.54 30.62 30.97 29.70 29.24 29.53 30.69 31.11 30.90 29.22 26.50 26.77
47.74 49.32 50.52 53.84 54.43 54.68 54.90 54.82 54.45 53.66 53.32 53.32 52.84 52.10 51.47 51.23 42.80 42.38 41.97 47.61 47.14 43.19 41.78 43.00 45.55 40.76 36.68 36.69 31.81 29.50 28.64 29.38 31.77 31.77 31.21 30.66 30.39 30.35 30.76 29.69 27.82 27.26 25.43
40.34 41.71 43.45 44.53 48.07 51.22 54.35 54.51 55.24 54.80 53.67 53.15 52.35 50.14 47.47 50.88 43.61 42.41 42.71 48.76 43.05 34.88 33.46 34.20 35.74 35.98 34.66 33.26 31.00 29.08 26.25 25.93 25.79 25.24 25.00 25.19 25.43 25.43 25.28 24.61 26.08 23.78 23.95
36.86 36.43 36.73 37.22 39.77 41.20 44.21 51.19 53.55 53.85 48.53 40.31 34.52 33.57 33.72 34.50 35.24 36.64 38.97 46.61 40.67 32.42 31.42 31.06 32.20 32.59 32.60 32.17 31.08 28.84 26.50 26.16 24.76 23.90 22.93 22.27 21.91 21.70 21.91 22.35 22.49 22.24 21.01
32.89 32.52 32.79 33.84 35.15 36.54 36.94 36.89 37.35 37.59 34.50 33.06 31.96 30.90 31.42 32.32 33.94 34.74 34.38 32.98 32.98 31.11 29.93 30.84 31.54 31.97 31.33 30.16 28.94 28.54 27.34 25.28 23.82 21.83 20.35 18.80 18.58 19.17 19.83 20.34 21.17 20.90 21.12
31.10 30.46 30.99 31.33 32.01 33.03 33.51 33.46 33.79 33.58 32.20 30.66 29.89 28.24 28.21 30.21 31.13 32.42 32.90 32.39 31.56 30.08 30.20 30.34 29.58 28.88 27.79 26.70 26.76 25.87 24.09 22.40 20.52 18.53 17.17 17.01 17.97 19.07 19.31 18.63 19.99 19.64 19.12
29.16 29.24 29.81 29.91 29.77 30.45 31.08 31.79 31.33 30.61 29.73 29.22 28.69 27.48 27.53 28.37 28.98 29.45 29.34 28.33 27.24 24.72 23.81 23.49 23.47 23.27 22.35 21.67 21.46 21.82 21.15 20.70 18.84 17.36 16.68 17.07 17.25 16.34 15.15 16.01 14.53 15.77 14.53
28.27 28.63 28.85 28.93 28.54 28.06 28.87 29.76 29.54 30.31 30.58 28.71 28.47 28.47 27.18 26.51 27.81 28.43 27.09 25.50 24.92 24.53 23.48 22.47 21.13 20.20 19.10 18.73 18.68 18.83 18.99 18.43 16.64 16.66 15.70 15.01 14.55 14.24 13.09 13.98 13.05 12.32 10.55
26.23 26.43 27.21 27.45 27.05 26.37 25.57 25.81 30.10 30.21 30.85 30.93 30.49 29.12 29.33 29.89 29.39 28.83 28.29 27.41 26.48 25.20 21.13 18.73 17.58 17.22 16.40 16.45 15.86 15.74 16.27 15.45 15.36 14.94 14.60 13.79 12.61 12.02 11.35 11.13 10.99 9.89 8.95
22.13 24.95 24.88 24.48 23.04 23.89 24.48 23.08 21.03 24.69 28.54 28.99 28.91 28.86 28.38 27.37 27.47 26.82 26.11 25.21 24.26 21.87 17.45 16.58 15.76 15.58 15.46 15.37 14.94 13.97 12.79 13.23 13.42 12.49 11.87 10.96 11.09 10.17 9.10 8.69 7.91 7.82 7.78
20.86 22.00 21.74 22.16 21.37 20.08 18.60 18.58 17.04 14.90 14.22 16.62 24.10 25.59 26.61 26.45 26.01 25.19 23.60 20.77 16.67 17.17 15.92 14.67 14.36 14.54 14.29 13.81 13.29 12.24 11.28 10.93 9.99 8.57 7.00 6.31 7.16 7.54 6.58 5.87 5.96 4.05 5.51
21.42 19.91 19.92 19.89 19.70 19.02 19.05 18.19 16.63 15.45 14.32 14.62 15.72 15.82 19.62 22.32 21.82 20.83 19.43 14.23 12.97 12.55 12.50 11.95 12.10 11.83 11.04 9.86 8.76 7.82 6.78 5.64 5.16 3.65 2.95 2.43 0.76 4.44 3.33 3.48 3.12 1.47 2.88
20.63 20.50 19.50 18.65 18.32 17.80 17.60 15.94 13.98 12.72 11.37 10.29 9.96 11.49 13.49 12.27 9.22 8.71 10.02 10.50 10.47 10.67 10.70 9.98 9.92 9.33 8.88 7.94 6.76 5.36 4.43 3.60 2.66 2.16 -3.21 -2.68 -2.05 1.93 0.78 0.09 0.02 0.96 2.92
19.67 19.11 18.94 18.31 17.28 16.72 15.62 14.50 13.16 11.41 9.74 8.94 8.62 8.63 8.53 7.53 5.77 5.73 5.68 5.40 6.52 7.24 6.64 6.24 6.06 5.97 5.85 5.23 5.44 2.92 1.26 -0.41 1.39 0.49 0.62 -0.57 -6.10 -1.53 0.01 0.35 0.20 0.88 1.89
18.99 18.28 17.73 16.40 16.15 14.70 14.06 13.47 11.78 10.53 9.62 8.07 6.87 6.53 5.99 5.34 5.17 4.55 3.57 2.97 3.86 4.95 5.99 5.31 4.46 3.92 3.89 3.56 1.72 -2.41 -4.30 -5.65 -3.78 -2.50 -2.39 -2.75 -1.77 -1.91 -2.13 -1.99 -2.63 -3.47 -1.64
17.09 16.10 15.30 14.60 14.01 12.40 11.06 10.01 8.05 6.83 6.34 6.46 5.96 5.10 4.19 2.62 1.76 1.78 0.52 0.33 1.76 1.45 3.39 3.24 2.66 2.18 0.44 -3.85 -2.13 -0.36 -0.72 -1.36 -2.10 -5.12 -5.13 -4.89 -2.21 -2.38 -5.95 -4.30 -3.85 -3.85 -3.55
15.00 13.85 13.03 11.45 10.75 9.63 7.80 6.79 6.67 5.80 4.81 2.99 2.12 1.77 0.35 -1.00 -1.66 -1.38 -0.48 -0.70 -1.35 -2.55 -1.39 -1.19 0.10 -0.07 0.22 -5.82 -5.65 -1.51 0.91 -4.08 -2.53 -3.96 -7.56 -6.11 -3.19 -2.96 -4.58 -4.17 -3.54 -5.32 -5.16
11.48 10.13 9.27 8.40 7.45 6.46 5.86 5.65 4.63 4.62 3.39 2.10 1.11 0.37 0.32 -0.34 -1.60 -4.28 -4.65 -1.80 -2.36 -3.14 -2.59 -3.92 -2.78 -2.19 -4.03 -2.62 -1.74 -1.48 -6.01 -7.81 -8.53 -7.63 -7.09 -7.27 -7.44 -8.35 -6.73 -5.40 -6.41 -4.66 -4.99
9.71 8.58 7.84 7.45 5.76 4.71 3.61 2.89 2.06 1.81 0.98 0.98 -0.26 -1.63 -1.51 -1.72 -3.37 -5.78 -3.68 -3.16 -3.34 -3.36 -2.98 -4.11 -3.57 -4.60 -3.74 -2.09 -2.50 -4.18 -6.72 -7.66 -9.18 -10.03 -10.26 -5.15 -6.74 -6.25 -6.92 -7.26 -6.74 -5.36 -3.75

GFSGL_sfc_wetblb_105.txt.gz
Wetbulb
55.86 56.61 54.59 55.30 56.72 56.88 56.51 56.39 56.54 57.56 57.02 56.64 56.32 55.50 55.40 55.24 54.51 53.47 52.89 53.38 53.65 53.49 53.68 53.54 53.61 55.04 56.00 56.37 55.06 54.09 54.16 55.21 53.35 54.87 57.21 58.82 57.99 58.49 58.94 59.02 58.42 58.57 58.41
55.82 55.11 53.53 54.67 55.97 56.00 55.83 56.45 57.44 56.13 56.60 56.51 56.13 55.38 55.30 55.34 54.71 53.51 52.01 52.53 53.36 52.86 52.79 53.53 53.48 54.02 54.73 55.18 54.25 54.61 54.57 57.28 56.34 54.63 56.13 54.27 55.79 57.63 58.79 57.86 55.82 54.88 55.37
55.43 53.81 52.62 53.53 54.94 55.34 55.52 56.25 56.69 56.87 55.46 56.29 55.85 54.97 54.89 54.99 54.32 53.93 53.49 52.56 52.88 53.81 53.44 53.28 53.32 53.16 53.78 54.67 54.20 54.21 54.83 55.01 56.11 56.24 55.64 55.46 56.11 54.44 54.95 54.00 52.76 49.45 45.86
54.72 53.52 52.25 52.89 54.37 55.24 55.65 55.90 55.82 56.35 56.23 55.24 55.48 55.22 55.14 55.12 54.89 54.39 54.49 53.65 53.39 53.49 53.88 53.94 54.02 53.38 53.09 53.65 53.98 54.23 54.65 54.16 54.08 53.81 54.24 54.08 55.32 56.07 53.24 53.38 47.77 45.02 42.50
54.80 53.48 52.58 53.07 53.55 54.93 55.08 55.33 55.60 55.49 56.06 56.08 55.98 55.99 55.24 54.59 54.44 54.25 54.16 54.02 53.81 53.55 53.90 54.30 54.74 53.36 49.64 51.76 54.12 54.34 53.69 53.01 53.01 52.24 51.47 52.27 52.24 46.05 48.76 49.66 46.36 37.13 33.80
54.78 54.26 54.02 53.21 53.61 54.25 54.93 54.90 55.03 55.12 55.18 55.26 54.54 55.08 55.69 55.51 46.47 45.64 51.00 53.55 53.34 52.99 52.59 53.09 53.26 48.23 48.18 44.00 41.18 40.32 48.61 53.46 52.67 52.09 51.46 50.30 51.43 48.65 41.68 41.14 36.50 34.53 32.93
55.38 55.07 54.51 53.73 53.34 54.00 54.74 54.62 54.27 54.52 55.16 54.82 54.28 54.07 53.98 55.07 43.92 44.56 44.20 56.34 54.68 53.71 53.65 53.17 52.47 50.69 45.80 41.37 35.79 34.82 34.15 33.89 32.06 43.43 49.41 44.38 39.02 39.43 37.35 34.87 34.50 32.60 27.88
55.66 55.58 55.20 54.69 53.69 53.83 54.02 54.36 54.37 54.52 53.90 53.99 53.96 53.42 53.52 52.91 42.70 42.90 42.23 55.62 56.01 56.08 56.55 56.26 55.57 53.65 46.88 41.26 37.23 33.58 32.86 32.89 33.07 33.22 32.96 31.56 32.07 32.84 33.65 32.86 29.59 26.21 25.87
42.48 43.77 45.94 48.01 52.44 54.89 53.49 53.53 54.97 54.78 53.97 53.48 53.57 52.97 52.58 52.50 42.94 41.67 42.63 50.94 52.52 52.30 53.63 55.38 55.64 55.71 41.19 38.86 34.73 31.82 30.56 30.17 31.85 31.62 31.02 30.50 30.17 30.26 32.22 32.03 29.40 28.02 24.28
37.42 38.08 39.44 40.70 42.89 43.36 44.75 52.59 54.55 54.67 53.96 53.65 45.86 38.72 36.80 44.57 36.82 40.14 42.79 49.10 46.73 43.13 35.51 34.65 35.15 43.67 36.02 35.37 35.58 31.30 27.42 26.74 25.28 24.65 24.62 24.70 25.26 25.64 25.87 25.95 28.04 26.34 24.32
35.05 35.39 35.52 36.28 37.63 38.24 40.11 40.60 42.18 51.27 39.55 35.20 33.19 33.23 33.71 34.38 35.97 37.50 38.92 45.05 38.06 32.96 32.30 31.68 32.45 33.01 33.23 32.84 31.93 29.22 25.87 25.12 23.74 22.82 22.20 21.75 21.62 22.03 22.71 23.67 24.78 26.03 21.92
33.20 32.92 32.83 33.48 34.23 35.43 35.98 36.43 36.43 35.97 33.82 32.24 31.09 30.85 31.36 32.53 34.03 35.35 36.17 34.91 34.45 32.69 31.55 31.42 31.43 31.23 30.42 29.29 27.91 27.61 26.20 24.29 22.73 21.00 19.93 19.10 19.38 19.74 21.01 21.99 22.78 21.92 21.92
31.36 31.12 31.06 31.61 32.05 32.53 32.57 32.92 33.19 32.70 31.22 30.24 29.94 28.97 28.75 30.43 30.98 32.46 32.77 32.35 31.71 30.23 29.95 29.80 29.63 28.43 27.60 26.52 26.38 25.42 23.51 21.70 19.71 17.72 17.08 17.75 18.99 20.15 20.86 20.88 21.07 20.77 20.23
29.98 29.46 29.40 29.38 29.83 30.60 30.74 30.97 31.06 31.25 30.80 30.08 29.07 27.91 28.05 28.12 27.55 27.17 26.60 26.23 26.52 26.01 23.77 23.18 22.91 22.92 22.54 22.09 21.73 21.73 21.46 21.25 19.70 18.36 17.09 17.71 18.47 17.70 17.19 18.28 17.90 18.01 17.55
29.71 28.96 28.32 28.44 28.43 28.03 28.74 29.29 29.00 29.96 30.33 28.54 28.42 27.99 25.91 24.74 26.30 26.97 27.44 27.40 26.40 25.88 26.37 25.30 23.81 22.65 20.95 20.38 19.63 19.33 19.63 19.26 18.01 18.03 17.10 16.53 15.57 15.66 15.47 16.78 16.93 17.01 16.91
28.10 27.75 27.99 27.68 27.69 27.35 26.64 26.64 29.75 29.76 30.14 30.24 29.61 27.99 28.57 28.96 28.57 28.14 27.51 27.22 26.48 26.30 25.54 23.38 22.21 21.78 20.28 19.25 18.57 17.95 18.17 17.36 17.47 17.46 16.71 16.05 15.43 15.21 14.72 15.36 16.10 16.54 15.44
26.25 26.94 25.87 24.88 25.01 24.72 24.64 24.60 22.93 25.43 28.78 29.01 28.85 28.77 28.70 28.29 28.01 27.36 26.71 25.53 25.14 25.16 23.98 22.33 21.70 21.09 20.19 19.43 18.36 17.36 15.61 15.95 16.43 15.83 15.42 14.42 13.98 13.96 14.73 13.46 14.55 15.53 14.88
23.74 23.55 24.72 24.01 23.78 23.34 22.72 21.76 21.72 20.77 20.28 21.20 25.63 26.58 26.64 26.25 25.76 24.87 24.18 24.15 22.24 22.37 21.83 20.79 19.63 19.65 18.85 17.98 17.53 16.44 15.01 14.27 13.87 13.58 13.16 13.20 13.36 13.06 12.55 12.09 12.11 12.50 14.03
22.88 22.96 23.54 23.08 22.54 22.16 22.04 21.40 21.13 21.01 20.14 20.24 21.01 18.68 20.39 21.35 21.30 21.04 21.30 20.42 18.65 17.79 17.86 17.40 17.80 17.31 16.57 15.87 15.26 14.76 14.01 13.23 12.45 11.87 11.29 11.20 12.12 12.83 11.46 11.45 11.45 8.54 11.55
22.22 21.70 22.75 23.26 22.46 22.05 21.69 20.68 19.63 18.86 17.87 16.96 16.09 16.94 18.68 18.71 16.37 15.54 16.82 17.10 16.52 16.17 16.16 15.51 15.53 15.54 15.26 14.45 14.00 13.21 12.73 12.13 11.46 11.06 10.47 10.13 11.15 12.27 10.80 10.53 10.52 11.73 11.60
22.72 21.67 20.81 21.66 21.24 20.25 19.44 17.74 17.09 16.03 14.86 14.09 12.91 12.25 12.45 14.84 13.89 13.88 13.77 13.94 14.10 13.92 13.96 14.09 13.97 13.95 13.84 13.71 13.67 12.96 11.75 11.51 10.52 10.08 10.74 9.46 9.65 9.74 10.74 10.91 11.16 10.87 10.47
21.95 21.22 20.70 19.65 19.35 18.42 17.41 16.87 15.96 14.65 13.62 12.66 11.76 10.29 11.15 13.06 12.36 11.66 11.37 11.44 12.02 12.62 12.85 12.51 12.05 11.99 12.40 12.02 11.67 11.40 9.95 9.21 9.51 9.71 8.91 8.31 9.68 9.47 9.69 9.22 9.52 9.41 9.69
20.41 19.62 18.64 17.60 16.69 15.05 14.89 14.51 13.75 13.31 12.22 12.05 11.38 10.63 10.75 10.15 9.93 9.67 9.14 9.77 10.02 9.63 10.52 10.58 9.71 9.01 9.00 9.40 11.03 11.57 10.10 9.02 8.45 8.83 8.39 8.83 9.04 9.17 8.43 8.77 7.82 8.37 7.86
18.68 17.81 16.20 15.46 14.82 14.14 13.54 12.19 10.79 9.56 10.12 9.68 9.50 8.75 8.03 7.98 8.31 7.24 7.80 8.25 8.08 8.14 8.26 7.64 7.71 7.67 7.27 8.25 9.97 10.25 8.94 8.58 9.06 6.84 5.79 6.54 7.49 7.13 7.38 7.08 7.59 5.16 6.01
16.20 15.21 14.48 13.82 13.07 12.53 11.97 11.39 10.43 9.94 9.24 8.73 8.30 7.70 7.24 7.10 6.56 6.82 6.64 6.15 5.38 5.96 4.93 5.35 6.44 6.21 5.49 4.86 5.45 5.67 3.89 2.59 4.70 2.51 6.65 4.55 3.55 2.08 3.56 5.51 4.52 5.85 5.08
13.75 13.31 13.00 12.99 11.97 11.75 11.06 10.07 9.40 9.10 8.14 7.99 7.45 7.27 6.77 5.61 5.48 5.64 5.05 4.43 4.10 4.02 4.15 4.42 4.15 3.03 3.75 5.88 5.24 2.37 1.34 0.67 2.23 -1.39 3.40 5.37 4.58 5.37 5.60 4.00 3.09 4.87 5.35

GFSGL_sfc_wetblb_108.txt.gz
Wetbulb
57.24 56.65 58.41 60.52 61.37 61.04 60.12 58.46 58.44 59.94 59.90 59.75 60.45 58.26 56.54 55.67 55.53 54.62 54.11 54.48 54.58 55.23 55.57 54.72 54.74 55.25 56.10 55.89 57.12 57.71 57.01 57.00 53.90 55.14 58.92 60.03 58.00 59.79 60.24 61.38 60.43 61.52 57.25
57.20 57.27 57.99 59.05 60.50 58.77 58.58 57.80 58.57 58.76 59.49 59.63 58.13 56.91 55.53 55.51 55.13 53.81 53.56 53.82 53.84 53.99 54.56 53.88 53.52 54.24 54.85 54.82 57.30 55.46 57.18 57.78 53.77 51.57 54.82 56.40 56.18 56.20 59.69 58.31 58.81 56.90 56.49
57.02 56.53 56.83 56.76 58.12 57.51 58.02 58.08 58.12 58.59 59.22 58.99 58.36 56.76 55.89 55.51 54.42 54.14 53.82 53.74 53.84 54.16 54.32 53.89 53.58 53.53 53.14 53.71 54.64 55.73 56.98 55.42 54.23 53.02 52.33 55.25 58.57 58.24 54.69 55.27 56.09 51.90 45.72
55.72 55.59 55.69 55.66 56.77 57.57 57.84 57.72 58.00 57.78 57.51 57.31 56.70 57.70 57.15 56.45 55.67 54.77 53.60 52.73 52.96 53.64 53.88 53.70 53.72 53.76 53.88 53.72 53.99 54.70 55.39 54.10 53.93 53.35 53.02 53.44 54.70 55.73 54.58 52.97 47.73 46.83 43.44
54.80 54.64 54.44 55.40 56.23 57.69 57.27 57.38 57.67 57.26 57.26 58.31 57.17 56.92 57.51 56.42 55.80 55.06 54.05 53.37 52.48 52.79 53.84 53.44 53.96 52.83 48.92 51.00 53.00 53.56 54.17 54.15 52.98 52.25 51.99 52.90 53.10 50.85 50.15 52.84 49.72 38.50 35.69
54.78 54.19 54.50 54.61 54.80 55.81 57.04 56.96 56.88 56.55 56.94 57.27 56.37 56.19 56.04 55.93 46.16 45.61 51.15 53.64 52.96 52.59 52.82 53.21 53.35 48.62 47.78 43.95 43.85 42.55 48.04 52.90 51.88 51.54 51.19 50.56 51.39 50.42 47.48 46.54 39.15 35.83 33.39
54.76 54.82 54.86 55.17 54.50 55.13 55.76 55.93 56.06 56.21 56.98 56.64 56.71 56.64 55.85 55.75 44.00 44.56 44.52 55.19 53.55 53.13 53.31 53.13 52.39 51.05 48.76 49.36 38.88 36.49 35.21 34.11 34.56 48.98 51.00 51.05 47.67 45.96 42.04 39.85 36.57 34.62 30.30
51.85 53.12 54.42 54.46 54.96 55.66 55.43 55.23 55.93 56.35 56.12 56.48 56.54 56.20 55.80 55.72 42.72 43.63 42.73 55.25 53.67 53.66 53.52 53.15 52.65 51.56 49.76 44.81 40.29 35.83 33.65 33.62 34.50 34.98 34.84 32.78 33.68 35.19 38.34 38.06 34.13 26.87 26.61
41.03 41.59 43.35 46.79 50.46 53.70 54.01 54.89 56.20 56.08 56.49 57.13 56.43 55.55 54.91 54.19 40.87 41.54 43.01 53.07 56.01 55.55 56.15 56.30 55.65 54.26 45.93 40.73 38.30 32.72 30.45 29.74 31.76 31.59 31.07 30.75 30.31 30.96 32.99 31.45 28.91 27.89 23.66
37.05 37.76 39.33 41.34 42.46 42.70 43.90 46.17 52.59 55.52 54.68 52.77 41.66 39.57 37.99 43.61 36.68 39.61 42.24 50.38 49.17 44.26 38.81 38.53 35.13 44.90 38.38 37.12 38.01 32.49 27.67 26.48 26.28 25.12 24.59 25.69 26.40 26.63 27.08 28.03 29.86 25.15 23.22
35.05 35.47 35.68 36.65 37.59 38.43 39.31 39.75 42.16 44.22 37.84 34.68 33.05 33.71 34.52 34.70 36.42 37.15 39.22 47.87 39.80 33.88 32.70 32.10 32.90 33.71 33.84 34.08 33.35 29.29 24.95 24.31 23.60 23.06 22.45 22.40 22.58 22.90 23.20 23.63 25.00 26.78 23.23
33.12 33.25 33.60 34.43 34.52 35.86 36.10 35.93 36.32 35.21 33.36 32.10 31.41 31.14 31.04 32.04 33.68 34.85 35.73 35.77 35.30 33.38 31.33 31.12 31.62 31.88 31.48 30.27 28.28 27.66 26.36 24.30 23.16 21.79 21.02 20.66 20.84 21.11 22.58 22.45 23.05 22.71 23.94
31.99 31.32 31.79 32.57 32.97 33.30 33.61 33.93 33.45 33.32 31.99 30.50 29.80 28.27 27.16 28.17 29.23 31.31 31.61 31.65 31.27 29.74 29.63 29.45 29.19 28.58 27.65 26.43 26.18 25.31 24.28 23.60 22.89 21.72 19.81 19.64 21.26 22.52 22.78 21.75 22.22 21.80 21.64
31.35 30.57 30.35 29.64 29.98 31.12 31.23 31.07 31.36 31.11 30.38 29.55 28.00 26.45 26.08 26.14 26.14 26.92 26.49 25.79 26.42 24.91 24.44 24.14 24.16 24.45 24.91 25.27 25.13 25.08 25.84 26.23 24.12 21.46 21.13 21.09 21.83 21.16 20.53 21.80 20.36 20.28 19.10
31.94 31.73 31.10 30.03 29.20 28.35 28.80 29.16 28.45 29.60 29.96 28.02 27.76 27.55 25.94 25.11 27.16 27.80 28.40 27.87 26.94 26.90 28.22 28.64 27.90 27.28 27.57 26.77 25.40 25.13 25.78 25.93 24.13 23.18 22.42 21.54 20.69 20.38 19.65 20.32 20.33 21.23 20.04
31.37 30.16 29.90 29.08 29.27 28.75 27.79 27.38 29.93 29.66 29.79 29.76 29.37 28.90 28.63 28.95 29.20 28.83 28.59 28.75 29.12 30.03 31.48 29.46 27.82 27.65 26.43 25.58 24.59 23.78 24.17 23.36 23.54 23.30 22.63 22.06 20.95 20.66 20.44 21.61 22.69 21.80 20.25
29.55 30.24 29.24 28.80 28.50 28.07 27.92 27.23 25.34 27.02 28.53 28.63 28.96 29.11 28.92 28.30 27.75 27.84 28.18 28.52 29.44 29.91 27.98 26.44 25.87 25.57 25.11 24.41 23.46 22.81 21.55 22.10 22.51 22.65 22.14 21.58 21.21 20.27 20.93 20.69 21.17 21.20 20.27
27.88 27.46 28.48 28.34 28.12 27.77 27.16 27.20 27.93 26.16 24.73 24.24 25.39 26.03 26.18 26.16 26.67 27.46 28.33 29.27 27.58 27.31 26.40 25.10 24.60 24.50 24.03 23.04 22.14 21.60 21.46 21.51 21.17 21.26 21.18 21.03 21.34 21.31 20.49 19.76 20.39 20.20 21.15
27.83 27.12 27.21 27.21 27.33 26.96 27.37 27.17 26.91 26.64 26.11 25.60 25.48 24.14 24.57 24.43 24.65 25.15 26.16 26.27 24.46 23.56 23.46 22.90 23.35 22.45 21.92 21.59 21.30 21.04 20.48 19.69 19.71 19.53 19.53 19.39 20.36 20.37 18.90 19.12 16.84 14.31 17.65
26.38 26.38 27.33 27.50 27.14 26.88 26.83 26.34 25.72 25.13 24.47 23.50 23.21 24.38 26.07 26.31 24.13 23.37 23.83 23.95 23.18 22.18 22.19 21.32 21.41 21.39 21.08 20.53 20.13 19.34 19.32 18.93 18.61 18.65 18.42 19.06 19.98 20.09 18.24 17.95 18.76 19.74 18.52
27.15 26.88 26.31 27.16 26.44 25.77 25.16 24.76 24.46 23.78 22.59 20.93 19.12 18.69 19.68 22.42 21.02 20.99 20.92 21.21 20.95 20.66 20.84 20.63 20.48 20.32 20.46 20.17 19.96 19.21 18.35 18.26 17.66 17.65 17.87 17.53 18.47 18.23 18.85 18.79 18.91 18.12 16.62
26.58 26.08 25.48 24.83 24.61 24.18 23.73 23.13 22.55 21.82 20.42 18.92 18.48 17.96 17.71 20.45 19.74 18.92 18.49 18.11 18.50 19.03 19.69 19.60 19.21 19.04 18.81 18.75 18.50 17.78 16.26 16.27 16.55 17.20 16.29 16.09 17.65 17.22 17.97 17.37 17.38 17.28 17.00
25.56 24.71 23.66 22.67 22.40 21.56 21.94 21.58 21.37 20.80 19.83 19.32 18.76 18.06 18.24 17.77 17.34 17.00 16.41 16.63 16.59 16.31 16.93 17.17 16.06 15.25 15.80 16.64 17.71 17.98 16.56 15.18 15.32 16.25 16.30 16.62 16.79 17.24 16.97 16.77 15.39 15.19 14.88
24.10 23.29 21.95 21.39 21.39 20.65 19.90 18.45 17.48 16.41 17.60 17.64 17.45 16.86 16.38 15.64 15.19 14.18 14.42 15.03 15.00 14.80 14.54 13.04 13.06 13.23 12.83 15.18 16.31 15.60 14.28 14.47 15.11 12.94 11.05 13.63 14.76 13.76 14.93 14.10 14.39 11.99 12.81
22.77 22.38 21.68 20.71 19.81 19.18 18.78 18.13 17.60 17.29 16.92 16.47 15.89 15.41 14.93 14.69 14.06 13.95 13.09 12.10 11.61 11.75 10.51 11.36 12.39 10.94 9.31 8.50 9.35 9.83 7.58 5.97 8.62 5.86 13.13 10.80 10.17 7.96 10.23 11.51 11.00 12.29 11.48
20.27 19.90 19.68 19.61 18.98 18.62 17.99 17.02 16.36 16.06 15.29 15.32 15.13 14.61 13.89 13.02 13.09 12.37 11.05 10.41 9.89 9.41 9.92 9.94 8.85 7.25 5.03 10.38 8.54 5.27 4.16 3.74 5.81 3.16 6.73 11.06 10.68 11.45 11.91 10.95 9.29 10.70 11.39

GFSGL_sfc_wetblb_111.txt.gz
Wetbulb
60.25 59.78 59.81 59.33 61.70 62.93 63.35 62.62 61.94 61.50 61.30 60.94 61.22 59.53 57.93 56.96 56.37 55.67 55.81 56.07 55.99 56.05 56.41 55.73 55.71 56.19 55.83 56.34 56.41 57.42 54.60 56.64 53.49 56.07 58.31 60.84 60.18 59.58 58.48 60.99 60.43 61.50 51.79
59.11 58.59 58.05 58.61 60.51 61.87 61.92 60.75 61.19 60.90 61.32 60.92 60.79 59.05 57.70 56.42 55.95 54.84 54.12 54.58 54.68 54.88 55.47 55.67 55.27 54.96 54.03 55.12 54.97 54.34 56.36 55.83 56.09 54.48 57.39 58.46 58.58 58.42 56.65 56.68 58.16 58.30 49.83
57.83 57.28 57.36 57.40 59.54 60.29 60.29 59.71 59.50 60.58 59.60 60.11 58.90 58.87 57.15 56.27 55.33 55.16 54.70 54.13 54.40 54.96 55.07 54.77 54.72 54.30 53.32 53.51 53.98 54.09 55.46 55.69 55.44 52.73 54.71 57.52 57.76 57.12 54.64 55.14 51.97 47.74 42.97
57.47 56.88 56.78 57.63 58.87 58.96 58.91 59.23 58.42 59.82 58.94 58.59 58.26 58.29 57.04 56.25 55.10 54.46 54.07 53.75 53.84 54.26 54.83 54.66 54.08 53.87 53.66 53.35 53.28 53.52 53.86 53.44 53.64 53.42 54.56 54.42 53.17 54.76 54.15 53.44 48.78 45.82 42.53
56.27 56.07 55.73 56.73 57.73 58.79 57.98 58.38 57.87 58.74 58.99 58.16 57.45 57.49 57.91 56.92 56.09 55.13 54.35 53.72 53.16 53.27 53.69 54.02 53.99 52.65 49.12 51.28 53.54 53.35 53.22 52.95 52.78 52.78 53.05 52.48 51.42 52.74 50.52 51.45 49.29 38.03 37.44
54.98 54.32 55.12 56.01 56.88 58.19 57.66 57.29 57.16 58.02 58.91 58.36 57.03 56.95 56.70 56.58 45.86 45.78 51.76 53.66 52.98 52.54 52.28 52.90 53.17 48.22 47.89 45.21 45.68 45.91 50.72 52.39 51.67 51.44 51.55 49.32 51.71 50.62 51.05 50.16 41.52 36.26 34.67
54.44 54.30 54.66 55.02 55.72 56.73 56.54 56.73 56.96 56.75 57.71 57.85 58.34 58.00 57.28 58.04 44.62 44.19 44.21 55.36 53.51 52.98 52.81 52.92 52.35 52.43 49.80 52.12 40.04 38.69 36.18 35.45 34.71 49.38 51.36 50.25 48.70 45.80 48.79 43.60 38.72 36.70 33.41
50.80 52.34 54.62 55.02 55.02 55.33 55.84 55.95 56.38 57.07 56.45 56.70 56.78 57.01 57.68 57.14 42.91 43.09 42.28 55.39 54.49 54.51 53.72 54.16 53.55 52.09 51.74 48.92 41.60 35.49 33.03 33.45 33.90 34.72 33.42 32.53 33.66 35.81 36.93 36.39 32.86 27.13 27.66
39.29 41.21 43.94 47.78 51.78 55.22 54.86 55.89 56.51 56.32 56.39 56.09 56.50 56.83 56.64 49.93 38.84 40.73 44.68 54.39 53.72 53.25 53.46 53.90 53.55 52.79 45.18 42.82 38.43 31.92 29.75 29.24 31.50 31.78 31.29 31.28 31.31 32.06 33.45 32.98 29.67 29.44 24.75
35.02 36.34 38.08 40.71 43.02 43.53 44.67 47.51 50.19 56.06 52.95 44.92 40.28 38.83 36.01 42.98 35.96 37.63 43.55 51.90 48.08 41.03 36.75 35.19 34.76 41.78 39.47 38.74 37.04 32.75 28.25 26.49 26.18 25.85 26.17 26.32 26.77 27.02 27.48 29.85 31.21 26.25 23.64
33.72 34.45 34.80 35.62 37.47 38.80 40.00 40.71 42.21 39.27 36.43 34.67 32.82 32.49 32.90 33.81 35.50 36.92 38.58 49.27 42.17 34.43 33.29 32.32 33.15 34.72 35.20 34.62 34.17 31.60 27.31 25.47 24.55 24.24 23.60 23.56 23.51 23.33 23.79 24.87 26.05 27.46 24.12
32.76 32.20 32.72 32.67 33.65 35.99 35.59 35.88 36.07 35.09 33.12 31.78 30.12 28.94 29.69 31.03 32.94 34.20 35.27 35.47 35.14 32.88 31.33 31.39 31.87 32.75 32.09 30.97 29.21 28.43 26.88 25.02 24.19 23.49 22.91 22.21 22.59 22.54 23.66 24.19 25.17 25.68 26.23
31.49 30.74 31.02 31.68 31.75 32.60 32.72 33.14 32.86 32.49 31.08 29.95 28.53 26.82 26.24 27.39 27.92 30.71 31.31 30.88 30.34 28.61 28.72 28.81 28.76 28.60 27.77 26.63 27.08 26.35 25.52 24.30 23.53 22.23 21.90 22.29 23.34 23.87 24.35 24.12 23.76 23.78 23.69
30.94 30.16 30.04 29.12 28.87 29.98 29.81 29.97 30.30 30.12 29.00 28.25 26.94 25.81 26.16 26.59 26.36 26.94 26.04 26.37 26.74 25.78 25.57 25.98 26.01 25.77 25.51 26.13 27.12 26.86 26.19 26.05 25.58 23.81 23.30 24.51 25.31 24.83 23.54 24.81 23.38 23.31 22.37
31.44 31.13 30.20 29.19 28.23 27.74 28.23 28.29 27.96 29.03 29.23 27.38 27.35 27.41 26.22 25.31 27.72 28.61 27.50 27.42 27.18 27.49 28.62 28.94 27.56 26.96 26.26 26.21 26.80 26.85 26.98 26.39 25.98 26.15 24.94 23.68 22.94 23.03 22.84 24.24 24.11 24.35 22.83
30.05 29.62 29.63 28.86 28.71 28.16 26.61 26.31 29.67 29.96 30.37 30.26 29.69 28.50 29.00 29.87 30.29 30.45 30.90 31.50 31.65 31.34 31.25 29.53 29.14 29.28 28.03 26.87 25.90 25.68 26.14 25.70 25.36 24.97 24.72 24.22 23.56 23.46 23.58 24.52 25.16 24.39 23.05
30.02 30.38 29.62 29.12 29.00 28.83 28.21 26.85 24.56 25.92 28.06 28.56 29.01 29.29 29.44 29.55 30.20 30.43 30.74 30.52 30.58 30.62 28.82 28.46 27.98 27.82 27.03 25.97 25.70 24.99 23.63 24.63 25.32 25.26 24.72 24.08 23.28 22.92 23.86 23.38 23.61 23.41 22.33
29.84 29.10 30.11 29.97 30.07 30.05 29.56 28.62 28.79 26.61 25.01 24.97 27.00 27.56 28.07 29.02 29.55 30.12 30.70 30.76 28.98 28.79 28.11 27.12 26.70 26.08 25.54 24.67 24.33 23.93 23.96 24.17 24.18 23.97 24.02 23.95 24.13 23.49 22.68 22.32 22.64 22.27 22.14
29.47 28.89 29.43 29.51 29.73 29.80 29.70 29.31 29.32 28.57 27.46 26.82 27.08 27.10 27.61 27.17 27.16 27.58 28.53 28.41 26.38 25.41 25.19 24.72 25.20 24.74 24.46 24.06 24.00 23.60 23.09 22.77 22.92 22.73 22.68 22.39 23.08 22.54 21.04 20.34 18.03 16.84 17.74
29.15 28.65 29.06 29.27 29.11 28.78 28.50 27.56 26.79 25.68 24.21 23.59 24.31 27.35 28.39 27.29 25.90 26.14 26.78 26.52 25.10 24.03 24.09 23.31 23.43 23.71 23.24 22.83 22.68 22.29 22.29 21.92 21.45 21.56 21.72 21.99 22.47 21.76 19.95 19.62 20.17 20.44 19.67
29.14 28.58 27.84 27.74 27.73 27.74 27.29 26.25 25.68 24.28 22.50 21.08 20.81 23.35 24.28 24.25 23.60 23.32 23.38 23.60 23.48 23.20 23.06 22.93 22.90 22.82 22.94 22.88 22.37 21.73 20.92 20.76 20.45 20.30 20.19 20.15 20.64 19.73 20.08 19.89 19.77 19.25 18.09
28.15 27.45 26.94 26.21 26.52 26.23 25.64 25.45 24.51 23.09 21.91 20.73 20.65 21.51 21.94 22.93 21.81 20.69 20.44 20.61 21.32 21.76 22.22 21.81 21.21 21.22 21.36 21.27 20.85 20.39 19.28 19.05 19.45 19.16 18.03 18.08 19.01 18.52 18.87 18.25 18.03 18.22 18.14
27.89 26.80 25.90 25.10 24.83 24.50 24.62 24.23 23.83 23.38 22.48 22.13 21.63 20.77 20.97 20.51 19.94 19.29 18.84 18.85 18.59 18.53 19.46 19.16 18.53 18.06 18.77 19.15 20.13 20.19 18.46 17.14 16.68 17.77 17.38 17.55 17.86 18.04 17.68 17.48 16.43 15.93 16.13
25.99 25.36 23.83 23.55 23.96 22.95 22.46 21.28 20.82 20.44 21.14 20.87 20.65 19.92 19.12 18.40 17.57 16.76 16.89 17.29 17.19 17.12 16.35 14.73 14.79 14.87 16.29 17.89 18.11 17.08 15.22 14.65 16.56 14.22 14.48 14.58 15.72 15.38 15.80 15.42 15.49 14.57 13.62
25.07 24.28 23.52 23.11 23.02 22.32 22.11 21.63 21.26 20.95 20.47 20.05 19.27 18.80 18.31 17.91 16.82 16.20 15.15 14.66 14.22 14.02 13.31 14.25 14.54 12.33 10.96 10.03 10.32 9.11 7.45 6.72 7.17 7.75 13.88 13.38 13.21 11.02 11.99 12.29 13.10 13.02 13.62
23.59 23.22 23.21 22.87 22.13 21.96 21.18 20.24 19.75 19.47 18.72 18.54 18.18 17.68 17.30 16.46 15.94 15.00 13.63 13.19 12.22 12.19 12.42 11.76 10.79 9.99 12.29 11.72 8.50 6.11 5.06 4.74 6.43 4.35 6.72 11.67 12.48 12.76 13.40 13.02 12.46 12.30 12.48

GFSGL_sfc_wetblb_114.txt.gz
Wetbulb
51.75 55.99 60.32 60.01 61.02 61.89 62.22 61.79 61.46 61.36 60.96 60.76 60.04 59.36 58.81 57.80 57.99 57.15 56.71 56.37 55.79 55.87 56.21 56.13 55.85 56.35 55.99 56.01 55.99 54.84 53.91 53.75 50.42 53.02 55.02 57.15 57.03 56.88 57.16 57.97 57.83 51.67 47.22
48.53 57.49 59.39 59.86 60.10 60.83 60.98 61.05 60.73 60.11 60.66 60.61 59.47 58.46 57.52 56.77 56.73 56.29 55.83 56.05 55.59 55.21 55.57 55.71 55.49 55.87 55.43 55.85 55.17 54.31 54.24 54.04 52.02 51.40 53.31 54.58 55.25 56.18 55.49 54.86 56.27 50.30 44.81
47.01 54.62 57.85 58.08 58.82 59.32 59.89 59.45 59.84 59.78 59.69 58.85 59.73 58.26 57.03 56.53 55.81 55.61 55.47 55.19 55.59 55.81 55.79 55.37 55.33 55.15 54.57 55.01 54.53 53.35 53.12 54.09 53.63 52.04 51.33 53.12 53.86 54.55 54.08 53.24 46.14 42.26 41.68
45.49 53.48 56.45 56.70 57.86 58.55 58.74 58.68 59.12 59.12 58.36 58.12 59.21 58.02 56.80 56.07 55.49 55.05 54.74 54.18 54.63 54.95 55.35 55.83 55.63 54.93 53.68 53.77 53.88 53.57 53.11 52.65 52.42 52.06 51.85 51.85 52.17 53.27 53.07 50.66 46.20 42.34 40.27
42.51 48.62 56.07 57.05 57.59 58.55 57.40 57.57 58.51 58.27 57.86 57.56 57.71 57.07 56.65 56.11 55.45 54.82 54.44 53.88 53.52 53.76 54.30 54.54 54.77 53.84 49.92 51.56 53.20 52.79 52.89 51.96 51.41 50.65 50.07 50.66 50.47 50.19 50.06 50.69 46.50 39.29 36.65
42.92 47.47 56.41 56.76 56.83 57.16 56.88 57.11 57.47 57.30 57.31 56.81 56.10 56.69 56.18 56.01 45.73 46.11 51.18 53.34 53.24 52.91 52.35 52.79 52.55 48.03 47.51 45.39 46.11 46.48 50.47 51.73 50.86 50.61 50.24 48.39 50.09 49.65 49.33 48.57 40.18 36.38 35.17
43.86 53.07 55.47 55.97 56.23 56.49 56.80 56.49 56.50 56.29 56.83 56.41 55.68 55.87 55.34 55.31 44.54 44.46 45.37 53.80 52.65 52.48 52.15 52.12 51.59 51.21 48.34 50.09 40.44 37.69 36.17 36.13 37.35 50.56 50.03 48.46 47.35 47.17 47.38 45.73 40.84 37.36 34.68
37.27 41.51 50.18 54.89 55.43 56.45 56.26 55.78 55.86 56.25 56.14 56.22 55.83 56.04 55.68 51.08 42.31 42.85 42.49 54.21 52.88 52.21 52.21 52.23 51.97 50.47 50.53 47.71 40.11 34.49 32.67 32.80 34.00 34.63 34.60 32.49 33.42 35.60 36.87 35.56 33.41 28.25 28.58
33.53 35.39 38.38 43.42 54.25 55.33 55.04 55.25 55.64 55.47 55.47 53.44 50.31 47.59 46.70 39.77 37.76 40.31 44.65 52.22 52.52 51.03 50.10 43.19 49.69 50.88 44.03 41.95 38.03 32.65 30.09 29.93 32.78 32.84 32.25 32.02 32.02 32.69 34.08 34.24 30.91 30.64 25.96
32.02 33.60 35.72 38.05 42.08 46.12 48.97 50.91 50.08 50.49 44.01 39.46 36.30 35.61 35.37 37.95 36.13 38.81 42.67 51.32 43.65 37.28 35.61 35.28 34.90 41.84 38.68 38.24 37.81 33.45 28.79 27.22 26.89 26.44 26.16 26.24 27.04 27.76 28.31 29.27 31.92 29.35 25.09
31.94 32.96 34.23 34.33 36.32 37.88 39.31 41.20 41.12 38.25 35.20 32.64 31.15 31.17 31.97 33.12 34.58 37.55 39.69 46.33 37.96 33.42 32.50 32.10 32.67 34.28 35.97 35.33 35.89 33.65 28.52 26.23 24.90 24.80 24.50 24.40 24.47 24.35 24.67 25.87 26.50 27.69 24.21
31.53 31.50 31.60 32.31 32.61 34.46 34.93 35.10 35.45 34.11 31.80 30.09 28.66 27.64 28.45 30.25 32.66 33.87 35.02 35.34 34.21 31.53 30.23 30.94 31.53 32.39 31.84 31.21 29.73 29.35 27.93 26.24 25.57 24.15 23.02 22.10 21.70 21.86 22.86 23.57 24.40 24.83 26.15
30.52 29.59 29.61 30.67 31.64 31.94 31.74 31.96 31.67 31.33 30.19 28.62 27.43 26.11 25.65 26.84 27.53 30.60 30.87 30.71 29.95 28.34 28.70 29.39 29.32 29.21 28.69 27.73 28.08 27.51 26.11 25.32 24.17 21.99 20.87 20.78 22.01 23.27 23.69 23.03 23.35 22.98 23.23
29.82 29.05 28.73 28.29 28.40 29.84 29.98 29.96 29.24 29.23 28.04 27.47 26.76 25.51 25.71 26.16 26.02 27.04 26.66 27.36 27.96 26.73 26.10 26.74 26.85 26.62 25.88 25.47 26.15 26.89 25.75 24.79 23.55 23.03 22.87 23.64 24.59 23.65 22.58 22.68 21.46 21.12 19.33
30.02 29.56 28.44 27.41 26.77 26.64 27.83 28.15 27.85 28.66 28.66 27.14 26.96 27.21 26.10 25.45 27.52 28.65 27.91 27.56 28.08 28.15 28.02 27.71 26.88 26.33 25.52 25.39 25.38 25.73 26.30 25.79 24.28 24.22 23.03 22.03 21.31 21.13 20.38 21.19 21.44 20.41 17.66
28.67 28.88 29.08 28.13 26.68 25.46 25.00 25.42 29.90 29.88 30.46 30.69 30.55 29.43 30.38 31.39 31.95 31.99 32.03 32.19 31.76 30.81 28.88 27.02 26.24 25.86 24.85 24.67 23.90 23.36 23.79 23.27 22.90 22.72 21.19 21.76 20.87 20.15 20.24 21.11 21.54 19.14 17.21
28.87 29.22 29.26 29.09 28.92 27.52 26.14 24.24 22.73 26.15 29.11 29.97 30.81 31.03 31.07 30.67 30.92 31.05 30.99 30.63 30.43 29.14 25.99 25.67 25.07 24.28 23.28 22.77 22.00 21.40 20.77 22.04 23.36 22.19 20.74 19.47 18.89 19.90 19.61 19.71 19.25 19.54 18.49
28.74 28.71 29.09 29.01 29.34 28.40 27.12 25.61 24.82 23.16 22.51 24.00 27.81 28.21 29.15 30.20 30.97 30.93 30.11 28.53 25.07 26.08 24.88 23.42 22.34 22.14 21.88 21.39 21.34 21.14 21.29 20.91 20.76 20.78 18.97 17.41 15.82 18.00 16.96 18.31 18.39 13.69 15.89
29.07 28.48 28.69 28.63 28.62 28.38 27.89 26.99 26.75 26.15 25.79 25.67 26.42 27.10 27.26 28.21 28.17 27.99 27.71 23.82 22.22 21.78 21.73 21.30 21.24 21.07 20.49 19.97 18.72 18.44 18.20 18.14 17.35 16.53 16.94 16.74 14.06 15.57 13.76 14.11 12.01 11.39 11.41
29.10 28.61 28.76 28.40 27.75 27.12 26.02 24.39 22.97 22.33 21.55 21.43 23.12 24.74 25.20 23.89 22.09 21.94 22.59 22.03 21.10 20.75 20.60 20.35 20.46 19.97 19.03 18.22 15.83 14.28 14.77 15.26 15.57 15.38 12.65 12.45 11.63 12.65 11.21 12.99 12.24 12.28 14.83
28.76 28.20 27.31 27.16 26.56 25.91 24.90 23.46 22.33 20.87 19.94 19.60 20.25 21.77 21.46 20.46 19.27 19.16 19.46 19.98 20.24 20.01 19.41 19.33 18.96 18.40 18.71 18.23 18.17 16.73 15.66 13.55 14.05 13.61 12.86 12.15 11.15 10.01 13.54 12.84 12.00 13.05 13.26
26.81 25.79 25.41 25.17 25.40 24.86 23.99 23.51 22.05 20.73 19.90 19.16 19.39 19.74 19.18 19.21 18.22 17.41 17.32 17.14 17.54 18.02 18.08 17.56 16.95 17.34 17.93 17.27 15.73 13.04 11.74 12.76 12.45 10.41 9.60 9.90 11.54 10.28 10.98 9.57 9.53 8.88 11.91
26.75 25.94 25.33 24.89 24.53 24.14 23.74 22.98 22.11 21.15 20.07 19.64 18.90 18.26 17.71 17.03 16.15 15.63 14.85 14.45 14.33 14.24 15.48 15.48 14.72 14.32 14.51 14.70 15.37 14.36 12.38 9.55 8.11 10.41 9.92 8.15 10.96 8.56 7.55 9.75 8.12 7.21 7.23
25.59 24.04 23.26 23.32 22.49 21.03 19.86 19.42 19.41 19.01 19.13 18.55 17.46 16.58 15.38 14.56 13.79 13.10 13.40 13.60 14.19 12.65 10.56 9.39 8.54 7.40 10.70 9.75 10.21 7.73 6.63 6.70 7.89 7.01 4.82 4.93 11.03 8.65 7.87 7.57 7.79 6.39 4.54
24.69 23.98 23.53 22.77 21.71 21.02 20.26 19.62 19.24 19.23 18.20 17.24 16.61 15.89 15.56 14.60 13.22 12.29 11.44 11.61 11.00 9.43 9.16 10.40 7.68 6.38 5.59 4.36 3.33 2.83 0.45 1.17 -1.34 0.10 3.53 5.96 4.46 2.46 3.21 3.45 1.97 4.54 3.05
22.25 22.13 21.89 21.53 20.97 20.23 19.35 18.19 17.72 17.15 16.19 15.82 15.63 15.04 14.40 13.30 12.72 11.46 11.68 9.82 7.94 8.38 8.05 5.94 5.79 7.47 6.73 3.96 2.50 0.22 -2.18 -2.69 -3.51 -2.64 -2.79 3.56 4.63 4.18 5.78 3.36 4.07 3.44 4.58

GFSGL_sfc_wetblb_117.txt.gz
Wetbulb
45.38 45.20 46.22 47.47 52.58 60.04 59.54 59.55 60.71 61.56 61.30 61.25 60.53 59.51 59.01 58.77 58.33 57.63 57.11 56.89 56.27 56.07 56.23 56.21 55.97 56.69 56.57 56.31 55.83 54.95 54.27 53.54 50.69 52.83 54.46 55.54 55.14 56.09 56.15 54.81 52.25 49.87 47.65
43.65 43.54 45.29 47.25 57.69 58.92 59.13 59.47 61.29 60.76 60.67 60.20 59.00 58.80 58.35 57.95 57.89 57.15 56.15 56.21 55.55 55.39 55.65 55.83 55.67 56.11 55.99 56.15 55.75 54.78 54.46 53.77 52.05 51.54 52.89 53.91 54.41 55.49 55.25 53.84 50.24 46.93 45.89
41.43 41.45 44.06 46.22 58.26 58.36 58.81 59.02 60.41 59.86 60.18 59.92 58.85 58.56 58.01 57.27 56.85 56.87 56.39 56.05 55.79 55.77 55.67 55.67 55.56 55.57 55.15 55.19 54.90 54.45 54.41 54.14 53.17 51.52 51.44 52.83 53.53 54.75 51.49 47.23 43.01 42.00 42.55
39.85 40.12 42.43 44.75 56.77 58.04 58.73 57.95 59.42 59.42 58.85 58.69 58.63 58.25 57.27 56.63 56.45 56.19 55.87 55.65 55.79 55.71 55.77 55.77 55.65 55.50 55.18 54.90 54.31 54.25 53.46 53.32 52.65 51.71 51.22 51.36 51.87 52.64 52.54 47.34 43.40 41.14 39.68
38.87 39.76 41.61 45.22 55.61 57.64 58.11 58.38 58.75 58.63 57.79 58.09 58.59 57.44 56.75 56.17 55.81 55.31 55.17 54.65 54.53 54.32 54.89 55.51 55.73 54.50 50.49 53.10 54.88 54.44 53.55 52.64 52.31 51.46 50.14 49.84 49.68 49.61 49.98 49.73 45.39 38.86 36.47
37.98 38.80 41.08 48.04 55.50 56.73 57.35 57.49 57.59 57.05 56.85 56.98 56.71 56.31 55.51 55.85 46.42 46.24 51.72 54.01 53.71 53.37 52.87 53.17 53.31 48.88 47.98 45.33 46.24 46.96 51.91 52.77 51.42 50.42 49.30 47.79 48.81 49.33 49.13 48.63 39.58 37.24 35.66
36.97 37.89 38.74 40.74 56.27 56.85 57.12 56.96 56.91 56.29 56.25 55.45 55.99 55.79 55.01 55.34 44.06 44.61 45.33 53.62 52.95 52.74 52.48 51.99 51.02 50.84 48.68 49.42 38.53 37.59 36.67 37.26 40.45 50.94 48.96 47.97 47.29 48.35 48.41 46.22 41.49 38.03 35.53
34.51 35.59 36.87 37.89 45.10 56.41 56.37 56.09 56.33 56.23 55.57 54.92 54.84 55.24 53.95 47.23 42.61 42.97 42.97 52.79 52.08 52.07 52.19 52.23 51.50 49.86 49.33 43.75 38.92 34.60 33.35 33.49 34.68 36.52 38.00 33.73 34.09 36.05 38.16 37.80 35.69 29.47 29.79
31.81 32.96 34.75 36.28 38.71 53.97 55.35 55.35 55.81 55.75 55.02 50.70 50.95 48.58 44.74 40.84 38.56 42.07 45.69 51.97 50.88 48.19 45.75 43.28 51.05 50.32 41.49 41.01 36.69 32.21 30.59 30.43 33.29 33.53 33.41 33.04 33.11 33.60 34.56 35.26 31.96 32.09 27.44
30.70 32.00 33.95 35.35 35.67 38.01 50.97 54.77 54.32 48.48 41.85 39.66 35.73 35.52 36.23 37.89 36.93 39.88 46.31 49.86 41.19 36.85 34.50 34.48 34.43 42.00 38.24 37.62 37.04 33.95 29.83 27.90 27.62 27.57 27.10 27.34 28.07 28.70 28.81 29.91 33.40 31.84 26.54
30.93 31.01 32.11 33.29 34.55 34.37 38.09 45.01 42.17 37.60 34.72 32.25 30.93 31.17 31.98 33.20 35.46 39.22 41.70 44.36 37.11 33.17 32.27 31.87 32.64 34.83 36.11 36.34 36.95 35.07 30.33 27.18 26.33 25.70 25.07 24.75 24.86 24.79 25.12 26.20 27.52 30.46 26.02
30.16 29.03 29.28 31.17 32.63 33.36 33.11 34.73 35.33 34.43 31.44 29.74 28.30 27.43 28.84 31.11 33.03 34.61 35.74 35.45 34.65 31.68 29.65 30.57 31.79 32.90 32.36 31.57 29.91 29.59 28.56 27.21 25.99 24.48 23.22 22.16 21.97 22.12 23.01 24.34 25.34 26.00 26.93
29.35 27.59 27.46 28.72 30.74 32.02 31.49 31.16 30.57 30.90 29.83 28.45 27.33 25.61 25.48 27.30 29.23 31.61 31.63 31.17 30.75 29.10 29.46 30.04 30.11 29.85 29.37 28.55 28.88 28.14 27.01 25.71 24.15 22.33 21.20 21.12 21.91 22.80 23.24 22.94 23.31 23.69 23.44
29.23 27.64 26.89 26.50 27.55 28.77 29.61 30.15 29.47 28.80 27.79 27.24 26.20 25.23 25.67 26.17 26.36 27.58 27.53 28.05 28.70 27.20 26.70 26.58 26.68 26.80 26.68 26.04 26.00 25.86 25.57 25.09 23.69 22.34 22.12 23.21 24.30 23.44 22.53 22.28 19.78 19.52 18.71
29.78 29.27 27.19 26.16 26.13 26.95 28.29 28.74 28.59 29.37 29.45 27.33 27.33 27.62 26.45 25.76 27.50 29.11 28.50 27.67 27.95 28.18 28.09 27.43 26.17 25.50 24.75 24.89 25.09 25.02 25.08 24.88 23.52 23.61 23.14 22.34 22.09 22.31 20.97 21.65 20.93 19.66 17.34
28.75 28.67 28.49 27.62 26.02 25.82 25.90 26.27 30.45 30.88 31.62 31.63 31.63 30.52 31.02 31.76 32.13 32.02 31.75 31.41 30.86 29.55 27.27 25.07 24.24 24.05 23.30 23.16 22.76 22.79 23.43 23.17 23.04 22.60 22.04 21.69 20.62 19.87 20.37 20.99 20.14 18.18 17.13
27.83 28.55 28.42 27.43 26.20 25.32 24.62 24.44 24.05 27.43 29.97 30.88 31.63 31.52 31.20 30.49 30.82 30.47 30.12 29.74 29.35 27.62 24.06 23.05 22.01 21.67 21.46 21.27 21.54 21.33 20.47 21.22 21.66 20.37 19.71 19.09 19.33 19.63 19.39 18.87 18.10 18.21 16.98
28.08 27.96 27.97 27.82 27.69 26.25 25.10 24.46 24.44 23.64 23.04 24.30 28.00 28.24 29.33 29.33 28.91 28.07 27.40 25.96 22.51 23.13 21.98 20.82 20.13 20.51 20.65 20.34 20.25 19.75 19.89 19.45 19.29 18.62 16.56 15.19 15.57 16.90 15.90 15.72 14.93 10.03 13.72
27.85 27.68 27.65 27.17 26.02 24.81 23.88 22.86 22.08 22.40 24.28 23.74 23.69 23.97 25.09 26.44 26.13 25.87 25.29 21.71 20.13 19.70 19.92 19.20 18.77 18.65 18.31 17.99 17.33 17.14 16.71 13.60 14.59 13.96 14.02 14.49 10.08 13.58 11.64 12.26 11.99 10.05 13.16
27.08 26.96 26.55 26.17 24.97 23.33 22.28 21.20 20.50 20.36 20.27 20.45 20.56 20.73 21.40 21.04 19.43 19.58 20.23 19.82 19.12 19.30 19.62 19.22 18.81 17.74 16.89 15.75 13.35 12.58 14.25 13.69 13.76 13.89 9.57 7.94 6.54 11.20 9.38 10.06 9.46 9.77 13.03
25.04 25.60 25.11 24.97 23.93 22.76 21.47 20.19 19.67 18.92 18.32 18.08 18.10 18.63 18.43 17.42 16.51 16.51 16.63 16.58 16.94 16.92 16.50 16.73 16.43 16.19 16.23 15.61 15.59 13.55 12.08 10.65 10.81 9.42 9.81 9.91 7.13 7.98 10.85 10.45 9.87 10.12 11.84
24.61 24.35 24.11 23.42 23.49 22.31 21.53 20.79 19.52 18.67 18.11 16.96 16.57 16.31 15.96 14.96 14.14 13.50 13.00 12.75 13.72 14.35 14.38 13.82 13.95 13.85 13.45 12.35 11.66 11.22 9.16 6.44 6.71 5.67 7.27 7.89 9.29 8.35 6.29 5.96 7.14 7.13 8.51
22.86 21.88 21.22 20.83 20.86 20.34 20.30 19.59 18.41 17.59 16.28 15.48 15.24 14.55 14.01 12.91 12.20 11.29 9.75 8.80 9.45 8.81 8.76 8.22 8.87 9.95 9.45 6.66 6.30 5.88 6.10 4.08 2.66 2.14 3.99 4.08 6.26 5.56 1.25 2.74 2.44 1.93 0.67
21.00 19.60 20.28 17.67 17.68 17.34 16.87 16.48 16.58 15.61 15.17 13.89 12.82 12.15 11.28 10.24 9.35 8.44 8.47 9.41 9.18 7.21 5.92 6.20 5.79 5.16 4.60 2.18 2.00 3.55 3.43 -1.01 1.13 1.19 -0.85 -0.50 2.40 3.71 1.41 1.81 3.17 -0.92 0.14
17.95 17.40 18.41 16.96 15.97 14.60 15.13 14.86 14.03 12.79 12.56 10.86 10.93 11.13 9.90 8.92 8.40 6.44 5.72 6.24 4.90 3.97 3.84 3.60 4.20 1.14 -1.09 -2.19 -1.80 -1.18 -3.24 -4.04 -4.18 -5.30 -1.70 -0.98 -3.97 -2.50 -1.94 -0.82 -3.45 -0.11 -1.95
17.89 17.26 17.40 17.06 15.49 13.70 12.30 11.76 11.03 8.75 8.43 8.80 8.06 6.28 5.70 5.83 4.08 1.05 1.68 2.55 2.54 1.48 1.11 2.80 3.25 -0.46 -1.05 -0.88 -0.37 -3.30 -5.42 -5.26 -5.83 -6.06 -7.66 -1.08 -2.08 -2.88 -2.95 -4.14 -3.12 -4.09 -0.87

GFSGL_sfc_wetblb_120.txt.gz
Wetbulb
40.93 41.79 41.89 42.50 43.83 47.22 48.36 52.42 60.00 61.13 61.64 61.31 62.02 61.40 60.41 59.59 59.11 58.39 57.81 57.45 56.99 56.65 56.33 56.03 56.05 56.93 56.63 56.39 55.83 55.44 54.45 53.73 51.50 52.64 54.65 55.32 53.99 54.96 52.62 52.13 51.20 49.84 47.14
40.31 40.47 40.56 41.57 43.08 45.60 48.77 55.57 60.02 60.18 60.84 61.29 61.99 60.96 60.03 59.35 58.69 57.83 57.01 56.97 56.47 55.67 55.79 55.81 55.61 56.27 56.37 55.99 55.43 54.78 54.50 54.22 52.22 51.51 52.86 53.81 53.68 54.79 53.08 50.91 49.31 48.83 46.66
39.52 40.02 40.21 40.90 42.19 44.27 46.76 58.17 59.43 59.70 59.53 61.02 61.06 59.57 58.98 58.49 57.73 57.69 57.03 56.43 56.31 56.07 55.77 55.61 55.69 55.61 55.65 55.65 55.07 54.21 54.55 53.97 53.31 51.92 51.58 52.55 53.19 52.72 46.80 44.93 43.25 43.35 43.25
37.90 38.79 38.77 39.91 41.79 43.51 46.88 55.39 59.21 59.73 59.29 59.75 59.38 58.93 58.27 57.84 57.40 57.17 56.61 55.99 55.79 55.77 55.73 56.01 55.91 55.71 55.67 55.31 54.86 54.34 54.02 53.71 52.91 51.72 51.06 51.03 51.73 52.61 50.19 44.60 41.71 41.09 39.79
36.85 37.53 37.88 39.34 40.87 42.94 48.09 54.23 58.34 58.66 59.39 59.54 58.56 58.09 57.67 56.85 56.83 56.39 56.17 55.73 55.39 55.07 55.35 55.53 55.95 54.48 50.68 53.18 55.07 54.45 54.01 53.40 52.41 51.33 49.69 49.67 49.93 50.60 49.47 48.05 42.58 37.95 36.68
34.52 35.21 36.52 38.19 39.60 41.89 44.77 54.86 57.63 57.57 58.84 58.81 57.61 56.77 56.13 55.91 46.04 46.58 52.51 55.07 54.75 54.22 54.02 54.53 55.05 49.42 48.86 45.13 46.40 47.12 51.84 53.28 52.25 51.47 50.85 49.73 48.77 50.05 49.31 48.44 38.42 37.02 36.20
33.36 34.07 35.32 36.54 37.52 39.93 42.10 55.04 56.91 57.25 57.13 57.25 56.93 55.97 55.19 55.20 44.58 44.77 45.13 54.35 53.68 53.50 53.02 52.69 51.72 51.97 49.42 50.30 38.90 38.55 37.62 38.93 41.88 52.81 51.26 50.72 47.96 48.75 48.64 45.64 41.47 38.93 37.68
31.52 31.82 33.28 34.34 35.62 38.40 40.86 47.60 56.67 56.67 55.85 55.93 55.41 55.33 54.77 50.54 42.95 43.13 42.59 53.24 52.60 52.45 52.42 52.47 51.97 49.87 47.72 43.40 38.75 34.96 33.72 34.22 36.12 38.90 44.90 36.79 38.22 40.58 45.88 44.46 39.87 31.20 31.28
30.20 30.33 31.23 32.39 33.91 36.75 37.77 40.57 56.53 55.87 55.27 55.29 54.51 52.75 49.62 44.00 40.78 41.50 46.40 51.23 50.58 47.59 45.88 43.20 50.99 49.28 39.46 40.56 37.20 32.56 30.94 30.96 34.05 34.53 34.47 34.15 34.33 35.10 36.17 37.24 33.28 34.05 28.32
29.67 29.45 30.20 31.32 32.30 34.39 35.54 37.11 55.11 52.36 44.42 41.71 37.77 38.34 38.52 40.04 38.37 40.96 47.36 48.17 40.99 36.69 35.07 35.58 34.84 44.59 37.27 37.26 37.36 34.83 30.74 28.45 28.56 28.45 28.14 28.39 29.16 29.74 29.98 32.83 35.89 34.39 27.64
29.72 28.56 28.87 30.14 30.84 33.54 34.58 35.17 40.44 38.80 36.41 34.29 32.26 32.32 32.98 34.43 36.66 39.67 42.41 44.68 38.01 33.57 32.49 32.12 33.06 36.38 36.71 36.91 37.09 35.77 31.91 28.25 26.80 26.52 26.05 25.77 25.69 25.99 26.35 27.71 29.06 32.64 29.18
29.16 26.97 26.74 28.97 29.72 31.52 32.58 31.93 33.00 34.38 32.67 31.46 30.79 29.21 30.29 32.13 34.17 36.65 37.55 36.54 35.44 32.47 30.06 31.33 32.52 33.93 33.54 32.74 31.48 30.57 29.38 27.84 27.02 25.50 24.45 23.19 23.00 23.00 24.03 25.32 26.31 27.19 28.57
27.48 26.37 26.51 27.88 29.02 29.76 30.05 30.52 29.72 30.93 30.20 30.60 29.68 26.81 26.35 28.82 30.83 32.55 32.65 31.93 31.34 29.69 30.29 30.81 31.16 30.94 30.36 29.60 29.84 29.12 28.07 26.80 25.40 23.49 21.68 21.22 22.17 23.21 24.03 23.71 24.38 24.53 24.29
28.32 26.90 26.78 26.24 27.44 28.58 29.65 29.76 28.94 28.49 27.77 27.81 27.05 25.95 26.56 26.94 26.96 28.36 28.83 28.86 29.19 27.70 26.96 26.68 26.60 26.59 26.38 26.14 26.13 26.29 25.93 25.64 24.50 23.00 22.39 22.91 23.56 22.90 21.17 22.04 20.53 21.15 20.64
28.11 27.54 27.03 26.49 25.91 27.23 28.13 29.00 29.07 29.95 29.89 28.00 28.18 28.18 27.16 26.38 28.07 29.31 28.78 27.70 27.70 27.77 27.65 27.33 26.33 25.60 24.50 24.54 24.51 24.65 24.96 24.69 23.35 23.44 22.52 21.70 21.51 21.48 21.45 22.19 21.01 19.69 18.21
28.07 26.94 26.23 25.62 25.64 25.49 26.52 26.76 29.80 30.64 30.94 31.17 31.37 30.10 30.54 31.19 31.60 31.34 31.08 30.65 30.03 29.00 26.01 23.87 23.31 23.27 22.72 22.90 22.70 22.79 23.34 23.18 23.23 23.35 22.77 22.28 21.43 21.12 19.69 20.17 20.19 19.03 17.68
26.94 27.33 27.09 26.40 25.62 24.87 24.76 24.44 23.58 26.25 28.96 29.64 30.13 30.16 30.20 29.68 29.58 29.30 29.07 28.51 27.80 25.97 22.40 21.68 21.38 21.60 21.91 22.17 21.99 21.75 20.90 21.82 22.72 21.70 20.67 19.79 20.12 19.76 19.70 18.51 17.77 18.16 16.39
27.13 26.49 25.58 24.41 23.35 23.09 22.62 22.90 24.34 22.46 20.99 21.72 26.14 27.03 27.99 27.98 27.65 27.47 26.96 25.49 22.11 22.51 21.46 20.31 20.07 20.63 20.82 20.58 20.44 20.08 19.92 19.56 19.49 19.20 18.32 18.04 17.72 17.44 16.13 15.19 14.27 11.68 14.79
26.37 25.93 24.74 23.58 23.06 22.39 22.20 21.71 21.92 21.92 21.13 20.68 21.06 21.78 23.27 25.54 25.04 24.74 24.20 20.80 19.45 19.02 19.38 18.92 19.20 19.18 19.01 18.76 17.99 17.53 16.64 15.65 15.48 15.07 14.44 13.59 10.85 14.10 12.30 12.80 12.75 11.54 13.22
24.26 24.26 23.48 23.06 21.89 21.04 20.65 20.13 19.73 19.23 18.22 17.46 17.06 17.60 19.16 19.13 17.31 17.26 18.38 18.53 18.49 18.62 18.44 18.08 18.00 17.79 17.14 16.47 16.17 16.07 15.33 15.01 13.82 12.84 9.46 9.68 9.16 11.74 9.75 9.11 9.37 11.49 12.23
22.33 22.46 21.63 22.19 21.22 20.65 19.93 19.21 18.76 17.79 16.47 15.65 15.20 16.01 15.95 14.88 13.74 13.92 14.37 14.47 15.28 15.75 15.93 15.94 15.43 15.78 15.66 14.80 14.52 12.44 10.83 9.76 10.68 10.71 11.29 9.44 9.07 8.66 10.05 9.60 9.51 10.44 10.61
22.64 22.16 22.11 21.45 21.27 19.95 19.62 19.56 18.34 17.28 16.16 14.75 14.05 14.03 13.64 12.72 12.02 11.36 10.67 10.09 10.36 11.00 12.72 12.00 10.83 9.97 9.65 10.45 10.59 8.50 7.00 5.80 6.02 8.22 8.36 8.36 8.28 6.50 7.41 7.11 6.64 5.69 8.17
20.29 19.34 19.43 19.09 19.10 18.29 17.83 17.15 15.55 14.64 13.75 12.89 12.57 11.87 11.33 10.27 9.87 9.26 7.96 7.49 7.77 7.65 8.47 8.67 7.51 6.30 5.21 4.39 5.22 5.89 4.91 2.84 1.43 0.02 4.75 4.59 5.78 4.63 2.55 2.38 1.91 0.12 -0.34
19.35 18.22 18.50 17.09 16.47 15.55 14.40 13.93 13.64 12.97 12.28 11.13 9.91 9.22 8.70 8.00 6.97 6.13 6.10 5.62 5.34 4.47 4.24 3.15 2.74 2.78 2.54 0.55 1.29 2.05 0.22 -3.31 0.30 -0.73 -2.21 1.22 3.27 3.57 1.40 1.28 0.07 -4.59 -4.36
17.85 17.63 15.88 13.82 12.88 11.04 12.35 12.15 11.28 10.63 9.79 8.91 8.04 7.01 7.03 6.74 6.13 4.22 3.31 2.75 2.93 2.63 1.51 1.05 0.08 -1.71 -2.96 -4.37 -3.69 -3.09 -5.22 -4.94 -5.92 -6.19 -2.12 -0.46 -0.58 -1.92 -2.11 -3.70 -6.54 -2.14 -5.09
16.06 15.56 14.49 13.43 12.20 10.90 8.79 8.25 7.24 7.87 7.19 5.94 3.80 1.18 0.08 1.67 1.51 -1.90 -0.89 1.49 2.27 1.98 0.99 -2.85 -2.48 -2.49 -2.69 -1.84 -2.25 -4.98 -6.45 -5.73 -6.70 -9.09 -7.37 -2.21 -2.37 -4.87 -5.25 -6.42 -5.50 -5.81 -3.86

GFSGL_sfc_wetblb_123.txt.gz
Wetbulb
39.26 39.78 39.95 40.43 41.32 42.27 43.56 45.95 48.20 51.33 54.42 60.77 60.51 60.65 61.06 60.67 60.30 59.50 59.43 58.32 57.90 57.42 57.18 56.78 56.55 56.81 56.44 56.60 56.46 55.82 54.41 54.78 52.36 52.71 54.86 55.01 54.81 55.80 52.77 52.01 51.41 50.02 47.40
38.00 38.33 38.86 39.91 40.93 41.28 42.69 44.66 47.95 50.86 55.01 59.22 60.79 60.51 61.20 60.20 59.72 58.98 58.42 57.70 57.36 56.56 56.16 55.97 55.94 56.38 56.32 56.64 56.14 55.26 54.98 54.56 52.95 51.76 52.88 53.34 53.43 53.25 51.78 50.82 49.60 48.77 47.95
36.58 37.05 38.07 38.78 39.51 39.83 41.01 43.26 46.59 48.61 57.11 58.51 60.78 60.72 60.62 60.10 59.36 59.03 58.43 57.26 57.16 56.62 56.24 55.98 55.68 55.70 55.53 55.91 55.80 55.12 55.24 54.80 53.63 52.63 51.71 52.60 52.69 49.42 45.38 44.95 43.33 43.00 43.32
35.37 35.37 36.47 37.20 37.79 38.71 40.31 42.55 45.84 49.52 57.18 59.36 60.18 60.55 60.07 59.79 59.23 58.48 57.74 56.88 56.66 56.36 56.16 56.20 55.96 55.66 55.38 55.59 55.07 54.68 54.44 53.67 53.36 52.54 51.72 51.84 51.67 50.33 47.94 43.17 40.46 40.95 39.09
34.31 34.14 35.18 36.52 37.11 38.12 39.78 41.93 44.33 48.71 56.45 59.23 59.54 60.12 59.57 58.89 58.24 57.60 57.30 56.38 55.92 55.47 55.62 55.66 55.94 54.50 50.57 52.87 55.00 54.34 53.91 53.30 52.59 51.71 51.45 49.78 50.46 48.72 47.15 46.21 41.49 37.93 36.72
33.20 33.11 34.44 34.63 35.65 36.44 38.59 40.75 43.21 45.79 55.56 58.55 58.93 58.73 57.98 57.70 47.35 47.17 52.99 55.70 55.48 54.85 54.23 54.49 55.00 49.41 49.05 45.36 46.44 46.99 51.67 53.26 52.01 51.30 51.20 50.65 50.95 51.37 48.74 46.18 38.50 37.04 36.41
32.45 32.46 33.16 33.49 33.91 34.99 36.79 39.21 41.32 43.64 54.35 57.73 58.29 58.25 57.22 57.35 44.99 45.54 45.90 55.88 54.97 54.48 54.37 53.89 53.42 52.88 49.45 51.94 41.53 41.73 38.62 40.26 42.28 52.65 50.85 50.81 49.65 51.33 49.85 44.46 41.44 39.27 37.71
30.48 30.43 31.17 31.36 32.01 33.79 35.60 37.50 39.24 42.46 50.21 56.88 57.32 57.12 56.58 54.99 43.91 43.72 43.72 54.53 54.19 53.95 53.57 53.59 52.97 51.49 50.82 45.49 40.84 36.33 34.52 35.02 37.05 42.06 50.55 43.64 44.96 48.98 50.81 47.94 42.02 32.44 32.36
29.41 28.73 29.13 29.73 30.76 32.25 33.96 35.09 37.43 40.46 44.80 56.32 56.58 55.75 54.73 49.38 42.09 41.91 47.17 52.68 51.63 49.43 48.87 49.21 51.98 49.70 39.87 41.05 38.00 33.56 31.96 31.23 34.65 35.48 35.18 34.88 34.96 35.73 39.19 41.61 35.69 36.12 30.33
28.45 27.69 28.27 29.02 30.01 30.71 32.06 34.12 35.83 38.99 48.20 44.29 39.46 43.71 44.07 45.41 40.44 41.37 48.18 48.52 42.81 38.53 36.56 37.10 35.50 44.92 36.94 37.30 37.78 35.62 32.68 29.95 30.08 31.10 30.46 30.01 30.84 31.86 31.83 34.27 39.36 37.68 28.48
28.66 27.10 27.06 28.66 29.44 30.59 31.10 33.32 34.09 35.05 35.99 35.18 33.89 33.75 34.59 37.45 40.36 41.91 42.82 45.76 39.85 35.26 34.05 33.15 33.53 36.24 36.72 37.16 37.54 37.02 33.84 29.96 28.58 28.35 27.58 27.33 27.26 26.95 27.33 28.81 30.42 34.11 31.80
28.75 25.59 26.18 27.39 28.96 30.13 30.06 30.79 32.15 31.89 32.64 32.21 32.76 31.80 31.91 32.68 36.57 38.81 39.49 37.89 36.89 34.81 31.42 32.02 33.36 34.97 34.63 33.72 32.44 31.43 30.30 29.29 28.70 27.35 25.94 24.30 23.75 23.57 24.73 26.23 27.88 28.73 29.94
25.80 25.05 25.07 25.78 28.21 28.14 28.89 28.96 29.64 30.10 29.58 29.24 30.86 30.79 29.20 29.98 31.87 33.30 33.98 33.25 32.35 31.04 31.42 31.95 32.14 31.89 31.28 30.26 30.58 29.92 29.23 28.49 27.30 24.85 22.43 21.60 22.37 23.70 24.94 25.60 25.90 25.90 25.51
24.71 24.26 24.67 24.61 25.68 27.07 27.65 28.72 28.38 28.64 28.61 28.09 27.99 28.08 27.72 28.09 27.69 28.51 29.53 29.78 29.90 27.91 26.83 26.57 26.60 26.72 26.60 26.21 26.27 26.65 26.51 26.61 25.26 23.37 22.19 22.52 23.58 22.95 22.50 24.13 23.22 23.40 22.04
26.47 25.05 24.63 25.03 24.85 25.43 26.86 26.71 27.25 28.45 28.99 27.87 28.30 28.60 28.02 27.38 28.66 29.81 28.95 27.40 27.51 27.65 27.51 27.10 26.01 25.47 24.34 24.37 24.50 24.90 25.29 25.08 23.46 23.34 22.57 22.01 21.88 22.02 21.51 22.45 21.90 21.82 20.25
26.13 25.08 24.58 24.51 24.75 24.98 24.87 24.98 27.87 27.84 29.64 29.83 30.03 28.38 28.16 29.81 30.40 30.38 29.93 29.77 29.33 28.41 25.68 23.68 22.82 22.93 22.75 22.94 22.75 22.97 23.61 23.60 23.44 23.10 22.84 22.56 21.65 21.04 20.66 21.32 21.29 19.92 17.82
24.66 24.44 23.89 23.54 23.37 22.87 23.06 23.10 21.21 23.91 26.22 27.04 28.20 28.60 28.81 28.63 29.15 28.55 28.13 27.66 27.33 25.76 22.33 21.76 21.44 21.80 21.65 21.86 21.51 21.56 21.24 22.71 23.98 23.15 22.23 21.79 21.53 20.81 20.16 19.52 18.43 17.51 15.92
25.12 23.14 21.73 21.90 21.86 21.73 21.57 21.29 21.29 19.63 18.73 19.23 23.19 25.04 26.64 26.78 26.84 27.03 26.53 24.80 21.16 21.70 20.53 19.54 19.39 20.11 20.27 20.21 20.45 20.18 20.23 20.65 20.45 19.82 19.14 18.65 18.85 18.81 17.87 16.92 16.55 15.40 15.25
24.14 22.43 21.40 20.96 21.10 21.10 21.02 20.51 19.65 18.53 17.58 17.24 18.21 19.70 20.61 23.79 23.46 23.65 23.58 20.02 18.88 18.50 18.81 18.42 18.69 18.59 18.21 17.74 16.93 16.95 16.50 15.71 16.25 15.99 15.75 15.86 16.02 15.98 14.69 15.02 15.13 14.50 15.47
21.32 21.63 21.07 20.94 19.98 19.47 19.52 18.43 17.83 16.78 15.54 14.21 13.76 14.20 16.94 16.98 14.85 14.83 15.82 16.68 16.59 16.67 17.16 17.06 17.15 17.21 16.98 16.77 16.56 16.57 15.91 15.27 14.37 13.41 11.32 11.13 11.70 13.41 12.56 12.68 13.45 13.46 13.11
20.25 21.25 20.06 20.49 19.71 19.34 18.45 17.53 16.81 15.61 14.42 13.36 12.14 13.54 13.90 13.14 11.82 11.64 11.60 11.33 12.69 13.02 13.12 13.27 12.58 13.47 14.30 13.56 13.73 12.77 12.21 12.27 13.09 12.42 11.87 11.32 11.02 11.16 12.29 12.10 10.88 11.75 11.55
19.42 19.66 19.65 19.13 18.70 17.15 16.54 16.14 14.55 13.75 13.15 12.52 12.27 12.20 12.06 11.15 10.43 9.75 9.06 8.85 9.12 10.28 10.89 9.65 8.28 8.10 7.94 8.62 10.09 9.55 8.52 7.90 9.46 10.21 10.05 10.34 10.80 10.30 10.32 9.26 8.19 7.72 9.04
18.71 17.12 17.22 17.01 17.06 15.26 14.31 14.14 12.36 10.96 10.07 9.37 9.59 9.39 9.20 8.16 7.96 7.35 6.72 6.42 6.68 6.37 7.32 7.23 6.42 5.37 4.81 4.68 4.82 5.70 5.69 4.41 4.96 6.90 8.01 8.07 8.49 7.05 5.42 5.29 4.94 3.93 1.53
17.74 16.21 16.59 14.85 13.32 12.77 11.40 10.06 10.31 9.45 8.42 7.26 6.75 6.60 5.72 4.99 4.49 4.48 4.65 4.73 4.07 3.20 2.82 2.79 2.73 2.57 2.97 1.13 1.34 3.14 2.81 1.41 3.18 3.35 5.22 6.51 5.91 5.48 3.68 1.95 0.44 -5.42 -5.77
15.89 15.19 13.42 11.59 10.24 9.38 8.73 8.74 8.05 7.50 6.59 5.37 4.84 4.65 5.11 4.71 3.64 1.79 1.96 2.70 2.07 1.07 0.21 0.23 0.69 -0.48 -1.70 -2.12 -2.10 -1.56 -2.74 -3.97 -2.74 -1.45 1.36 2.09 0.36 -1.00 -1.91 -2.14 -6.68 -3.28 -6.15
14.63 13.96 13.00 12.32 10.24 8.98 7.24 6.55 4.86 5.95 5.06 3.46 2.36 2.22 2.88 3.15 1.94 0.76 1.95 1.51 0.91 -0.69 -1.42 -1.38 -1.35 -2.12 -1.91 -1.29 -1.24 -3.93 -5.66 -5.99 -6.59 -8.39 -6.44 -0.81 -1.84 -3.27 -3.24 -5.45 -5.82 -6.51 -5.08

GFSGL_sfc_wetblb_126.txt.gz
Wetbulb
37.21 38.16 38.78 39.51 40.39 41.18 41.56 42.72 44.06 46.15 48.25 50.85 52.71 58.67 60.55 61.02 61.26 60.14 59.73 59.78 58.99 58.86 58.53 57.95 57.63 57.74 57.05 56.83 57.15 56.77 56.29 56.01 53.56 53.22 54.93 55.89 56.97 56.91 55.77 55.57 53.53 51.98 49.73
36.56 37.08 37.77 39.11 39.39 39.53 39.99 41.14 42.72 44.17 46.36 48.95 53.61 54.96 58.85 60.08 60.62 59.82 58.86 58.97 58.29 57.89 57.69 57.53 57.01 56.73 56.37 56.71 56.39 55.81 55.77 55.79 55.08 51.91 53.88 53.87 54.97 56.23 53.50 51.37 49.89 49.02 48.22
35.44 35.34 35.80 36.17 36.45 36.90 37.86 39.22 40.98 42.56 44.60 48.33 51.75 55.69 57.57 59.31 60.23 59.75 58.86 58.49 58.24 58.35 57.75 57.17 56.57 56.19 55.51 56.33 56.15 55.69 55.49 54.83 55.02 53.78 52.35 53.27 50.96 49.47 45.19 45.01 44.04 43.17 44.11
34.51 34.60 34.06 34.28 34.98 35.83 37.37 38.27 39.72 42.09 43.58 46.93 50.47 57.18 58.37 59.48 59.98 59.38 58.82 58.30 58.00 58.19 57.37 57.21 56.59 56.17 55.93 55.91 55.77 55.67 55.19 54.67 54.03 52.97 52.09 53.02 50.87 48.68 47.50 43.18 40.79 41.07 39.59
33.54 33.16 33.43 34.29 34.96 35.88 36.23 37.08 38.42 40.58 42.94 45.60 49.59 56.68 59.03 59.86 59.58 58.81 58.46 58.25 57.43 56.97 56.53 56.19 56.27 54.74 50.81 53.35 55.71 55.17 54.61 54.14 53.32 52.60 51.80 50.60 49.74 46.82 46.00 45.08 41.23 37.47 37.17
32.38 32.07 32.66 33.02 33.23 34.16 35.11 35.73 36.99 39.62 42.18 45.13 48.31 56.81 58.89 59.11 48.92 47.47 54.34 57.33 56.89 56.07 55.19 55.37 55.49 49.80 48.95 45.11 46.56 47.28 52.15 53.75 52.54 52.16 51.84 51.17 49.99 48.65 47.30 44.82 38.23 36.94 35.97
31.16 30.52 30.75 31.00 30.89 32.39 33.86 34.89 35.92 37.50 39.96 42.21 45.56 55.91 58.03 58.74 45.65 45.65 46.20 57.29 56.07 55.45 55.09 54.71 54.20 53.87 49.57 52.38 43.46 43.11 43.11 43.66 44.03 53.40 51.71 51.78 50.83 50.37 48.56 42.91 41.80 39.79 37.99
29.50 29.17 29.22 29.08 29.71 31.28 32.60 33.35 34.58 36.59 37.78 40.33 43.94 53.14 57.42 57.25 44.20 44.38 43.84 56.71 55.57 55.31 54.83 54.61 54.07 52.96 52.60 50.18 44.06 39.23 36.67 36.64 39.97 43.84 51.10 48.46 49.48 51.33 49.60 47.57 44.29 32.96 33.04
27.98 27.40 27.80 28.53 29.16 30.51 30.98 31.82 33.67 35.23 36.74 39.65 44.56 52.98 56.37 55.71 42.57 42.75 44.69 54.75 53.56 53.16 53.41 53.43 54.07 52.24 43.11 42.90 41.61 36.15 33.33 32.21 35.63 36.47 36.34 36.17 36.40 39.84 43.51 42.39 37.94 37.80 31.82
28.30 27.24 27.60 28.24 28.90 28.33 30.31 31.22 32.89 34.23 35.81 37.21 37.90 39.57 48.34 53.42 40.92 41.85 47.83 52.42 46.74 42.12 39.82 40.02 41.66 48.21 38.20 38.57 40.29 37.57 34.91 31.55 31.89 32.57 32.72 32.45 33.05 33.33 32.93 38.02 42.47 41.15 32.20
26.92 26.11 26.73 27.74 28.43 28.55 29.55 30.67 31.77 31.86 33.27 33.94 33.64 33.50 33.84 35.06 42.43 40.72 43.66 49.11 43.73 38.49 37.08 34.22 34.02 37.28 37.40 38.07 38.78 39.13 35.85 32.42 30.93 31.01 30.09 29.34 29.08 29.24 30.16 32.04 32.78 39.11 33.69
24.42 23.42 25.15 26.42 27.95 27.51 28.19 28.62 29.95 30.50 30.74 30.81 31.07 31.64 31.83 32.36 34.92 38.75 41.48 40.48 38.86 37.34 33.69 32.78 34.05 35.69 35.33 34.24 33.17 32.56 32.01 31.63 30.91 29.59 27.96 25.70 25.08 25.08 26.18 27.66 29.27 30.34 31.48
23.74 22.68 23.20 25.64 26.24 26.86 25.65 26.32 26.73 28.06 28.47 28.76 29.17 28.88 29.27 30.86 30.89 33.16 34.69 34.17 33.48 32.57 32.65 32.80 32.98 32.72 31.75 30.88 31.24 31.15 31.22 30.70 29.15 26.53 23.04 21.82 23.11 25.00 27.03 27.03 27.54 27.45 26.33
24.58 23.59 23.20 23.56 24.15 25.52 24.86 24.77 24.84 25.09 25.91 25.80 26.30 27.02 28.18 29.12 29.80 29.48 30.27 30.58 30.32 28.69 27.62 27.29 27.17 27.31 27.40 27.17 27.42 27.64 28.01 28.07 26.23 23.48 21.95 23.11 24.71 24.89 24.60 26.13 25.00 25.05 23.58
25.28 24.14 22.73 22.89 22.08 22.75 23.94 24.56 23.29 24.35 26.61 25.51 25.44 26.17 26.00 26.27 29.12 30.55 29.71 28.95 28.18 28.09 28.14 27.54 26.47 25.77 25.03 24.81 25.08 25.30 25.86 25.67 24.11 23.92 23.14 22.87 22.85 22.84 22.58 24.07 24.02 23.46 21.56
24.15 23.53 22.34 21.95 21.54 21.62 21.80 21.55 25.85 25.84 26.01 26.93 28.16 27.25 27.47 28.83 29.34 30.12 30.10 29.76 29.21 28.55 25.88 23.80 22.90 23.15 22.78 22.91 22.89 22.92 23.64 23.47 23.64 23.81 23.43 22.96 21.82 21.53 21.56 22.18 22.68 21.76 20.05
22.75 21.17 20.54 20.64 20.43 20.45 19.99 19.64 18.17 21.52 24.49 24.58 24.81 26.47 27.30 27.61 28.09 28.27 27.36 26.96 27.03 25.70 21.99 21.38 20.92 21.24 21.47 21.67 21.65 21.81 21.25 22.75 23.82 22.73 22.19 21.71 21.69 21.64 21.04 20.25 20.28 19.95 18.73
21.79 20.72 18.63 18.64 18.58 18.78 19.28 18.89 18.31 16.60 15.73 16.39 20.72 21.99 24.08 24.86 25.45 25.71 25.74 23.45 20.00 20.30 19.59 18.95 18.64 19.17 19.52 19.66 20.41 20.37 20.56 20.94 20.75 20.90 20.74 21.16 21.34 20.43 19.49 18.38 18.33 17.85 17.80
21.28 20.74 20.31 19.21 18.72 18.91 18.64 18.17 17.04 16.00 14.83 14.22 15.44 16.81 18.27 21.97 21.99 21.79 21.97 18.21 17.41 17.22 17.76 17.39 18.02 17.96 17.79 18.13 17.91 17.71 17.93 17.71 18.16 18.25 18.15 17.98 18.99 18.77 16.93 17.16 16.88 16.82 17.43
20.93 21.17 20.64 19.93 18.87 18.15 17.56 16.49 15.70 14.99 13.95 13.02 11.67 12.41 14.91 15.39 13.12 12.94 13.46 14.61 14.75 14.87 15.61 15.79 16.13 16.05 16.36 16.64 17.18 17.39 16.70 16.54 15.91 15.61 15.18 15.52 16.40 17.22 16.17 15.98 16.22 15.95 15.42
18.96 19.86 19.27 18.64 17.49 16.88 15.84 14.68 14.25 13.41 12.75 12.22 11.51 11.29 12.72 11.72 10.38 10.04 10.15 10.27 10.60 11.24 11.69 11.85 11.77 12.55 14.35 14.70 15.58 15.25 14.80 14.35 14.73 14.66 14.45 14.07 15.14 14.07 14.67 14.80 14.28 14.60 14.55
18.03 18.51 18.01 16.78 16.00 14.46 14.09 13.35 11.87 11.09 10.73 10.47 10.34 10.77 10.34 9.76 8.69 8.19 7.50 7.32 7.75 8.83 9.78 9.08 8.05 7.90 8.13 9.02 11.99 12.35 11.64 11.57 12.73 13.32 13.01 13.26 13.52 13.05 12.83 11.97 11.83 11.82 11.71
16.33 14.48 14.66 14.12 13.37 11.26 10.58 11.07 9.50 8.66 7.78 7.49 7.71 7.50 7.31 6.44 6.05 5.79 5.17 5.06 5.28 5.34 6.45 6.90 6.46 5.73 5.71 5.81 6.62 7.41 7.80 7.42 9.00 12.13 11.89 11.82 11.41 10.93 10.89 9.70 9.16 8.71 8.40
14.62 12.34 12.49 11.36 9.50 9.06 7.17 6.01 7.01 6.53 6.19 5.40 5.06 5.25 4.88 4.01 3.33 3.26 3.04 3.09 2.83 2.57 2.72 2.59 2.22 1.92 3.40 3.24 3.86 4.89 5.38 5.47 7.36 8.83 10.38 9.84 9.49 9.51 8.85 7.86 6.95 4.20 4.40
12.60 11.72 10.88 8.94 6.41 2.01 2.46 3.15 2.09 1.58 2.41 1.73 2.41 2.79 3.56 3.38 2.94 1.65 1.94 2.06 1.09 0.47 0.67 0.82 1.06 0.38 -0.61 -1.01 -0.59 -0.27 -0.83 -1.17 1.85 4.29 7.77 7.36 6.02 5.34 5.01 5.05 3.89 4.48 2.21
10.33 9.49 9.04 8.69 6.43 4.83 3.19 2.46 1.47 0.01 -1.19 -0.86 -1.07 -1.43 -0.54 1.89 1.92 1.41 2.29 1.40 0.85 -0.15 -0.51 -0.76 -1.28 -2.13 -1.34 -1.03 0.51 -2.00 -4.04 -2.99 -2.55 -1.59 3.25 4.83 3.78 2.84 2.84 1.98 1.65 2.55 1.88